Wetterdaten: Samstag, 25.03.2017
Datum Zeit Temp. A. Temp. A. max Feuchte A. Luftdruck Regen Wind Richtung Richtung Sonnenschein ET UV Solar Taupunkt Windchill Windböen
25.03.2017 00:00 4,3 °C 4,3 °C 96 % 1026,1 hPa 0,0 mm 7,3 km/h (2 Bft) O-NO 61 ° 0 min 0,000 mm 0,0 UV-I 0 W/m² 3,7 °C 2,5 °C 14,5 km/h (3 Bft)
25.03.2017 00:01 4,3 °C 4,3 °C 96 % 1026,1 hPa 0,0 mm 5,9 km/h (2 Bft) O-NO 63 ° 0 min 0,000 mm 0,0 UV-I 0 W/m² 3,7 °C 3,0 °C 8,0 km/h (2 Bft)
25.03.2017 00:02 4,3 °C 4,3 °C 96 % 1026,1 hPa 0,0 mm 6,0 km/h (2 Bft) NO 38 ° 0 min 0,000 mm 0,0 UV-I 0 W/m² 3,7 °C 2,9 °C 8,0 km/h (2 Bft)
25.03.2017 00:03 4,3 °C 4,3 °C 96 % 1026,1 hPa 0,0 mm 5,6 km/h (1 Bft) NO 49 ° 0 min 0,000 mm 0,0 UV-I 0 W/m² 3,7 °C 3,1 °C 8,0 km/h (2 Bft)
25.03.2017 00:04 4,3 °C 4,3 °C 96 % 1026,2 hPa 0,0 mm 4,0 km/h (1 Bft) NO 46 ° 0 min 0,000 mm 0,0 UV-I 0 W/m² 3,7 °C 4,3 °C 6,4 km/h (2 Bft)
25.03.2017 00:05 4,3 °C 4,3 °C 96 % 1026,2 hPa 0,0 mm 3,5 km/h (1 Bft) O-NO 62 ° 0 min 0,000 mm 0,0 UV-I 0 W/m² 3,7 °C 4,3 °C 4,8 km/h (1 Bft)
25.03.2017 00:06 4,3 °C 4,3 °C 96 % 1026,1 hPa 0,0 mm 5,3 km/h (1 Bft) O-NO 68 ° 0 min 0,000 mm 0,0 UV-I 0 W/m² 3,7 °C 3,2 °C 8,0 km/h (2 Bft)
25.03.2017 00:07 4,3 °C 4,3 °C 96 % 1026,2 hPa 0,0 mm 4,9 km/h (1 Bft) NO 53 ° 0 min 0,000 mm 0,0 UV-I 0 W/m² 3,7 °C 3,3 °C 8,0 km/h (2 Bft)
25.03.2017 00:08 4,3 °C 4,3 °C 96 % 1026,2 hPa 0,0 mm 9,4 km/h (2 Bft) O-NO 67 ° 0 min 0,000 mm 0,0 UV-I 0 W/m² 3,7 °C 2,0 °C 17,7 km/h (3 Bft)
25.03.2017 00:09 4,2 °C 4,3 °C 96 % 1026,2 hPa 0,0 mm 11,5 km/h (2 Bft) NO 52 ° 0 min 0,000 mm 0,0 UV-I 0 W/m² 3,6 °C 1,4 °C 16,1 km/h (3 Bft)
25.03.2017 00:10 4,2 °C 4,2 °C 96 % 1026,2 hPa 0,0 mm 7,5 km/h (2 Bft) NO 43 ° 0 min 0,000 mm 0,0 UV-I 0 W/m² 3,6 °C 2,3 °C 12,9 km/h (3 Bft)
25.03.2017 00:11 4,2 °C 4,2 °C 96 % 1026,2 hPa 0,0 mm 8,0 km/h (2 Bft) O-NO 65 ° 0 min 0,000 mm 0,0 UV-I 0 W/m² 3,6 °C 2,2 °C 14,5 km/h (3 Bft)
25.03.2017 00:12 4,2 °C 4,2 °C 96 % 1026,2 hPa 0,0 mm 7,2 km/h (2 Bft) O 82 ° 0 min 0,000 mm 0,0 UV-I 0 W/m² 3,6 °C 2,4 °C 14,5 km/h (3 Bft)
25.03.2017 00:13 4,2 °C 4,2 °C 96 % 1026,1 hPa 0,0 mm 7,6 km/h (2 Bft) O-NO 57 ° 0 min 0,000 mm 0,0 UV-I 0 W/m² 3,6 °C 2,3 °C 11,3 km/h (2 Bft)
25.03.2017 00:14 4,2 °C 4,2 °C 96 % 1026,1 hPa 0,0 mm 9,5 km/h (2 Bft) O 90 ° 0 min 0,000 mm 0,0 UV-I 0 W/m² 3,6 °C 1,8 °C 12,9 km/h (3 Bft)
25.03.2017 00:15 4,2 °C 4,2 °C 96 % 1026,1 hPa 0,0 mm 7,8 km/h (2 Bft) O-NO 73 ° 0 min 0,000 mm 0,0 UV-I 0 W/m² 3,6 °C 2,2 °C 14,5 km/h (3 Bft)
25.03.2017 00:16 4,2 °C 4,2 °C 96 % 1026,0 hPa 0,0 mm 5,5 km/h (1 Bft) O 88 ° 0 min 0,000 mm 0,0 UV-I 0 W/m² 3,6 °C 3,0 °C 6,4 km/h (2 Bft)
25.03.2017 00:17 4,2 °C 4,2 °C 96 % 1026,0 hPa 0,0 mm 7,9 km/h (2 Bft) O-NO 77 ° 0 min 0,000 mm 0,0 UV-I 0 W/m² 3,6 °C 2,2 °C 11,3 km/h (2 Bft)
25.03.2017 00:18 4,2 °C 4,2 °C 96 % 1026,1 hPa 0,0 mm 7,9 km/h (2 Bft) O-NO 69 ° 0 min 0,000 mm 0,0 UV-I 0 W/m² 3,6 °C 2,2 °C 11,3 km/h (2 Bft)
25.03.2017 00:19 4,2 °C 4,2 °C 96 % 1026,0 hPa 0,0 mm 4,6 km/h (1 Bft) O-NO 66 ° 0 min 0,000 mm 0,0 UV-I 0 W/m² 3,6 °C 3,3 °C 6,4 km/h (2 Bft)
25.03.2017 00:20 4,2 °C 4,2 °C 96 % 1026,0 hPa 0,0 mm 6,6 km/h (2 Bft) O 84 ° 0 min 0,000 mm 0,0 UV-I 0 W/m² 3,6 °C 2,6 °C 11,3 km/h (2 Bft)
25.03.2017 00:21 4,2 °C 4,2 °C 96 % 1026,0 hPa 0,0 mm 2,0 km/h (1 Bft) O 84 ° 0 min 0,000 mm 0,0 UV-I 0 W/m² 3,6 °C 4,2 °C 3,2 km/h (1 Bft)
25.03.2017 00:22 4,2 °C 4,2 °C 96 % 1026,1 hPa 0,0 mm 6,8 km/h (2 Bft) O-NO 63 ° 0 min 0,000 mm 0,0 UV-I 0 W/m² 3,6 °C 2,5 °C 17,7 km/h (3 Bft)
25.03.2017 00:23 4,2 °C 4,2 °C 96 % 1026,0 hPa 0,0 mm 10,9 km/h (2 Bft) O-NO 63 ° 0 min 0,000 mm 0,0 UV-I 0 W/m² 3,6 °C 1,5 °C 16,1 km/h (3 Bft)
25.03.2017 00:24 4,2 °C 4,2 °C 96 % 1026,0 hPa 0,0 mm 6,2 km/h (2 Bft) NO 54 ° 0 min 0,000 mm 0,0 UV-I 0 W/m² 3,6 °C 2,7 °C 9,7 km/h (2 Bft)
25.03.2017 00:25 4,2 °C 4,2 °C 96 % 1026,0 hPa 0,0 mm 6,7 km/h (2 Bft) NO 49 ° 0 min 0,000 mm 0,0 UV-I 0 W/m² 3,6 °C 2,6 °C 9,7 km/h (2 Bft)
25.03.2017 00:26 4,2 °C 4,2 °C 96 % 1026,0 hPa 0,0 mm 7,7 km/h (2 Bft) O-NO 68 ° 0 min 0,000 mm 0,0 UV-I 0 W/m² 3,6 °C 2,3 °C 12,9 km/h (3 Bft)
25.03.2017 00:27 4,2 °C 4,2 °C 96 % 1026,0 hPa 0,0 mm 9,1 km/h (2 Bft) NO 50 ° 0 min 0,000 mm 0,0 UV-I 0 W/m² 3,6 °C 1,9 °C 14,5 km/h (3 Bft)
25.03.2017 00:28 4,2 °C 4,2 °C 96 % 1026,0 hPa 0,0 mm 7,2 km/h (2 Bft) NO 53 ° 0 min 0,000 mm 0,0 UV-I 0 W/m² 3,6 °C 2,4 °C 11,3 km/h (2 Bft)
25.03.2017 00:29 4,2 °C 4,2 °C 96 % 1026,0 hPa 0,0 mm 8,1 km/h (2 Bft) O-NO 63 ° 0 min 0,000 mm 0,0 UV-I 0 W/m² 3,6 °C 2,2 °C 14,5 km/h (3 Bft)
25.03.2017 00:30 4,2 °C 4,2 °C 96 % 1026,0 hPa 0,0 mm 5,8 km/h (2 Bft) NO 44 ° 0 min 0,000 mm 0,0 UV-I 0 W/m² 3,6 °C 2,9 °C 9,7 km/h (2 Bft)
25.03.2017 00:31 4,2 °C 4,2 °C 96 % 1026,0 hPa 0,0 mm 5,5 km/h (1 Bft) O-NO 63 ° 0 min 0,000 mm 0,0 UV-I 0 W/m² 3,6 °C 3,0 °C 6,4 km/h (2 Bft)
25.03.2017 00:32 4,2 °C 4,2 °C 96 % 1026,0 hPa 0,0 mm 5,1 km/h (1 Bft) O-NO 67 ° 0 min 0,000 mm 0,0 UV-I 0 W/m² 3,6 °C 3,1 °C 6,4 km/h (2 Bft)
25.03.2017 00:33 4,2 °C 4,2 °C 96 % 1026,0 hPa 0,0 mm 3,6 km/h (1 Bft) O-NO 67 ° 0 min 0,000 mm 0,0 UV-I 0 W/m² 3,6 °C 4,2 °C 6,4 km/h (2 Bft)
25.03.2017 00:34 4,2 °C 4,2 °C 96 % 1026,0 hPa 0,0 mm 5,0 km/h (1 Bft) O 86 ° 0 min 0,000 mm 0,0 UV-I 0 W/m² 3,6 °C 3,2 °C 8,0 km/h (2 Bft)
25.03.2017 00:35 4,2 °C 4,2 °C 96 % 1026,0 hPa 0,0 mm 7,5 km/h (2 Bft) O-NO 73 ° 0 min 0,000 mm 0,0 UV-I 0 W/m² 3,6 °C 2,3 °C 11,3 km/h (2 Bft)
25.03.2017 00:36 4,2 °C 4,2 °C 96 % 1026,0 hPa 0,0 mm 2,5 km/h (1 Bft) O-NO 73 ° 0 min 0,000 mm 0,0 UV-I 0 W/m² 3,6 °C 4,2 °C 4,8 km/h (1 Bft)
25.03.2017 00:37 4,2 °C 4,2 °C 96 % 1026,0 hPa 0,0 mm 4,0 km/h (1 Bft) NO 54 ° 0 min 0,000 mm 0,0 UV-I 0 W/m² 3,6 °C 4,2 °C 4,8 km/h (1 Bft)
25.03.2017 00:38 4,2 °C 4,2 °C 96 % 1026,0 hPa 0,0 mm 5,1 km/h (1 Bft) NO 49 ° 0 min 0,000 mm 0,0 UV-I 0 W/m² 3,6 °C 3,1 °C 6,4 km/h (2 Bft)
25.03.2017 00:39 4,2 °C 4,2 °C 96 % 1025,9 hPa 0,0 mm 4,8 km/h (1 Bft) O-NO 69 ° 0 min 0,000 mm 0,0 UV-I 0 W/m² 3,6 °C 3,3 °C 6,4 km/h (2 Bft)
25.03.2017 00:40 4,2 °C 4,2 °C 96 % 1025,9 hPa 0,0 mm 5,5 km/h (1 Bft) O-NO 72 ° 0 min 0,000 mm 0,0 UV-I 0 W/m² 3,6 °C 3,0 °C 8,0 km/h (2 Bft)
25.03.2017 00:41 4,2 °C 4,2 °C 96 % 1025,9 hPa 0,0 mm 5,4 km/h (1 Bft) O-NO 73 ° 0 min 0,000 mm 0,0 UV-I 0 W/m² 3,6 °C 3,0 °C 8,0 km/h (2 Bft)
25.03.2017 00:42 4,2 °C 4,2 °C 96 % 1026,0 hPa 0,0 mm 4,8 km/h (1 Bft) O 90 ° 0 min 0,000 mm 0,0 UV-I 0 W/m² 3,6 °C 3,3 °C 6,4 km/h (2 Bft)
25.03.2017 00:43 4,2 °C 4,2 °C 96 % 1026,0 hPa 0,0 mm 4,1 km/h (1 Bft) O-NO 57 ° 0 min 0,000 mm 0,0 UV-I 0 W/m² 3,6 °C 4,2 °C 4,8 km/h (1 Bft)
25.03.2017 00:44 4,2 °C 4,2 °C 96 % 1025,9 hPa 0,0 mm 8,0 km/h (2 Bft) O 84 ° 0 min 0,000 mm 0,0 UV-I 0 W/m² 3,6 °C 2,2 °C 12,9 km/h (3 Bft)
25.03.2017 00:45 4,2 °C 4,2 °C 96 % 1025,9 hPa 0,0 mm 6,7 km/h (2 Bft) O-NO 65 ° 0 min 0,000 mm 0,0 UV-I 0 W/m² 3,6 °C 2,6 °C 9,7 km/h (2 Bft)
25.03.2017 00:46 4,2 °C 4,2 °C 96 % 1025,9 hPa 0,0 mm 6,5 km/h (2 Bft) O-NO 62 ° 0 min 0,000 mm 0,0 UV-I 0 W/m² 3,6 °C 2,6 °C 8,0 km/h (2 Bft)
25.03.2017 00:47 4,2 °C 4,2 °C 96 % 1025,9 hPa 0,0 mm 6,9 km/h (2 Bft) O-NO 75 ° 0 min 0,000 mm 0,0 UV-I 0 W/m² 3,6 °C 2,5 °C 8,0 km/h (2 Bft)
25.03.2017 00:48 4,2 °C 4,2 °C 96 % 1025,9 hPa 0,0 mm 5,8 km/h (2 Bft) N-NW 348 ° 0 min 0,000 mm 0,0 UV-I 0 W/m² 3,6 °C 2,9 °C 8,0 km/h (2 Bft)
25.03.2017 00:49 4,2 °C 4,2 °C 96 % 1025,9 hPa 0,0 mm 5,1 km/h (1 Bft) O-NO 68 ° 0 min 0,000 mm 0,0 UV-I 0 W/m² 3,6 °C 3,1 °C 9,7 km/h (2 Bft)
25.03.2017 00:50 4,2 °C 4,2 °C 96 % 1025,9 hPa 0,0 mm 5,1 km/h (1 Bft) O-NO 69 ° 0 min 0,000 mm 0,0 UV-I 0 W/m² 3,6 °C 3,1 °C 8,0 km/h (2 Bft)
25.03.2017 00:51 4,2 °C 4,2 °C 96 % 1025,9 hPa 0,0 mm 4,6 km/h (1 Bft) N-NO 21 ° 0 min 0,000 mm 0,0 UV-I 0 W/m² 3,6 °C 3,3 °C 6,4 km/h (2 Bft)
25.03.2017 00:52 4,2 °C 4,2 °C 96 % 1025,9 hPa 0,0 mm 6,9 km/h (2 Bft) O 88 ° 0 min 0,000 mm 0,0 UV-I 0 W/m² 3,6 °C 2,5 °C 12,9 km/h (3 Bft)
25.03.2017 00:53 4,2 °C 4,2 °C 96 % 1025,9 hPa 0,0 mm 7,8 km/h (2 Bft) O-NO 63 ° 0 min 0,000 mm 0,0 UV-I 0 W/m² 3,6 °C 2,2 °C 12,9 km/h (3 Bft)
25.03.2017 00:54 4,2 °C 4,2 °C 96 % 1025,9 hPa 0,0 mm 7,4 km/h (2 Bft) O-NO 67 ° 0 min 0,000 mm 0,0 UV-I 0 W/m² 3,6 °C 2,4 °C 11,3 km/h (2 Bft)
25.03.2017 00:55 4,2 °C 4,2 °C 96 % 1025,9 hPa 0,0 mm 6,9 km/h (2 Bft) NO 46 ° 0 min 0,000 mm 0,0 UV-I 0 W/m² 3,6 °C 2,5 °C 11,3 km/h (2 Bft)
25.03.2017 00:56 4,2 °C 4,2 °C 96 % 1025,8 hPa 0,0 mm 6,0 km/h (2 Bft) O-NO 59 ° 0 min 0,000 mm 0,0 UV-I 0 W/m² 3,6 °C 2,8 °C 11,3 km/h (2 Bft)
25.03.2017 00:57 4,2 °C 4,2 °C 96 % 1025,8 hPa 0,0 mm 11,1 km/h (2 Bft) O-NO 60 ° 0 min 0,000 mm 0,0 UV-I 0 W/m² 3,6 °C 1,5 °C 14,5 km/h (3 Bft)
25.03.2017 00:58 4,2 °C 4,2 °C 96 % 1025,9 hPa 0,0 mm 5,0 km/h (1 Bft) O-NO 61 ° 0 min 0,000 mm 0,0 UV-I 0 W/m² 3,6 °C 3,2 °C 8,0 km/h (2 Bft)
25.03.2017 00:59 4,2 °C 4,2 °C 96 % 1025,9 hPa 0,0 mm 4,9 km/h (1 Bft) O 90 ° 0 min 0,000 mm 0,0 UV-I 0 W/m² 3,6 °C 3,2 °C 6,4 km/h (2 Bft)
25.03.2017 01:00 4,2 °C 4,2 °C 96 % 1025,9 hPa 0,0 mm 4,0 km/h (1 Bft) NO 44 ° 0 min 0,000 mm 0,0 UV-I 0 W/m² 3,6 °C 4,2 °C 4,8 km/h (1 Bft)
25.03.2017 01:01 4,2 °C 4,2 °C 96 % 1025,8 hPa 0,0 mm 6,0 km/h (2 Bft) O-NO 71 ° 0 min 0,000 mm 0,0 UV-I 0 W/m² 3,6 °C 2,8 °C 9,7 km/h (2 Bft)
25.03.2017 01:02 4,2 °C 4,2 °C 96 % 1025,8 hPa 0,0 mm 5,7 km/h (1 Bft) O-NO 74 ° 0 min 0,000 mm 0,0 UV-I 0 W/m² 3,6 °C 2,9 °C 8,0 km/h (2 Bft)
25.03.2017 01:03 4,2 °C 4,2 °C 96 % 1025,8 hPa 0,0 mm 5,0 km/h (1 Bft) NO 54 ° 0 min 0,000 mm 0,0 UV-I 0 W/m² 3,6 °C 3,2 °C 8,0 km/h (2 Bft)
25.03.2017 01:04 4,2 °C 4,2 °C 96 % 1025,8 hPa 0,0 mm 6,7 km/h (2 Bft) O 82 ° 0 min 0,000 mm 0,0 UV-I 0 W/m² 3,6 °C 2,6 °C 11,3 km/h (2 Bft)
25.03.2017 01:05 4,2 °C 4,2 °C 96 % 1025,8 hPa 0,0 mm 5,2 km/h (1 Bft) NO 54 ° 0 min 0,000 mm 0,0 UV-I 0 W/m² 3,6 °C 3,1 °C 11,3 km/h (2 Bft)
25.03.2017 01:06 4,2 °C 4,2 °C 96 % 1025,8 hPa 0,0 mm 3,3 km/h (1 Bft) NO 46 ° 0 min 0,000 mm 0,0 UV-I 0 W/m² 3,6 °C 4,2 °C 6,4 km/h (2 Bft)
25.03.2017 01:07 4,2 °C 4,2 °C 96 % 1025,8 hPa 0,0 mm 8,9 km/h (2 Bft) O-NO 63 ° 0 min 0,000 mm 0,0 UV-I 0 W/m² 3,6 °C 2,0 °C 16,1 km/h (3 Bft)
25.03.2017 01:08 4,2 °C 4,2 °C 96 % 1025,8 hPa 0,0 mm 4,0 km/h (1 Bft) O-NO 74 ° 0 min 0,000 mm 0,0 UV-I 0 W/m² 3,6 °C 4,2 °C 8,0 km/h (2 Bft)
25.03.2017 01:09 4,2 °C 4,2 °C 96 % 1025,8 hPa 0,0 mm 4,1 km/h (1 Bft) O-NO 75 ° 0 min 0,000 mm 0,0 UV-I 0 W/m² 3,6 °C 4,2 °C 6,4 km/h (2 Bft)
25.03.2017 01:10 4,2 °C 4,2 °C 96 % 1025,8 hPa 0,0 mm 7,0 km/h (2 Bft) O 81 ° 0 min 0,000 mm 0,0 UV-I 0 W/m² 3,6 °C 2,5 °C 11,3 km/h (2 Bft)
25.03.2017 01:11 4,2 °C 4,2 °C 96 % 1025,8 hPa 0,0 mm 7,0 km/h (2 Bft) O-NO 76 ° 0 min 0,000 mm 0,0 UV-I 0 W/m² 3,6 °C 2,5 °C 11,3 km/h (2 Bft)
25.03.2017 01:12 4,2 °C 4,2 °C 96 % 1025,8 hPa 0,0 mm 6,3 km/h (2 Bft) O-NO 68 ° 0 min 0,000 mm 0,0 UV-I 0 W/m² 3,6 °C 2,7 °C 8,0 km/h (2 Bft)
25.03.2017 01:13 4,2 °C 4,2 °C 96 % 1025,8 hPa 0,0 mm 9,3 km/h (2 Bft) O-NO 77 ° 0 min 0,000 mm 0,0 UV-I 0 W/m² 3,6 °C 1,9 °C 11,3 km/h (2 Bft)
25.03.2017 01:14 4,2 °C 4,2 °C 96 % 1025,8 hPa 0,0 mm 4,5 km/h (1 Bft) O-NO 72 ° 0 min 0,000 mm 0,0 UV-I 0 W/m² 3,6 °C 4,2 °C 6,4 km/h (2 Bft)
25.03.2017 01:15 4,2 °C 4,2 °C 96 % 1025,8 hPa 0,0 mm 3,8 km/h (1 Bft) O-NO 72 ° 0 min 0,000 mm 0,0 UV-I 0 W/m² 3,6 °C 4,2 °C 4,8 km/h (1 Bft)
25.03.2017 01:16 4,2 °C 4,2 °C 96 % 1025,8 hPa 0,0 mm 3,9 km/h (1 Bft) O-NO 77 ° 0 min 0,000 mm 0,0 UV-I 0 W/m² 3,6 °C 4,2 °C 4,8 km/h (1 Bft)
25.03.2017 01:17 4,2 °C 4,2 °C 96 % 1025,8 hPa 0,0 mm 5,7 km/h (1 Bft) O-NO 77 ° 0 min 0,000 mm 0,0 UV-I 0 W/m² 3,6 °C 2,9 °C 8,0 km/h (2 Bft)
25.03.2017 01:18 4,2 °C 4,2 °C 96 % 1025,8 hPa 0,0 mm 2,8 km/h (1 Bft) NO 41 ° 0 min 0,000 mm 0,0 UV-I 0 W/m² 3,6 °C 4,2 °C 4,8 km/h (1 Bft)
25.03.2017 01:19 4,2 °C 4,2 °C 96 % 1025,8 hPa 0,0 mm 3,0 km/h (1 Bft) O 91 ° 0 min 0,000 mm 0,0 UV-I 0 W/m² 3,6 °C 4,2 °C 4,8 km/h (1 Bft)
25.03.2017 01:20 4,2 °C 4,2 °C 96 % 1025,8 hPa 0,0 mm 3,6 km/h (1 Bft) NO 49 ° 0 min 0,000 mm 0,0 UV-I 0 W/m² 3,6 °C 4,2 °C 6,4 km/h (2 Bft)
25.03.2017 01:21 4,2 °C 4,2 °C 96 % 1025,8 hPa 0,0 mm 4,0 km/h (1 Bft) N-NO 24 ° 0 min 0,000 mm 0,0 UV-I 0 W/m² 3,6 °C 4,2 °C 6,4 km/h (2 Bft)
25.03.2017 01:22 4,2 °C 4,2 °C 96 % 1025,8 hPa 0,0 mm 3,0 km/h (1 Bft) NO 53 ° 0 min 0,000 mm 0,0 UV-I 0 W/m² 3,6 °C 4,2 °C 4,8 km/h (1 Bft)
25.03.2017 01:23 4,2 °C 4,2 °C 96 % 1025,8 hPa 0,0 mm 4,0 km/h (1 Bft) NO 42 ° 0 min 0,000 mm 0,0 UV-I 0 W/m² 3,6 °C 4,2 °C 6,4 km/h (2 Bft)
25.03.2017 01:24 4,2 °C 4,2 °C 96 % 1025,8 hPa 0,0 mm 4,5 km/h (1 Bft) NO 36 ° 0 min 0,000 mm 0,0 UV-I 0 W/m² 3,6 °C 4,2 °C 6,4 km/h (2 Bft)
25.03.2017 01:25 4,2 °C 4,2 °C 96 % 1025,8 hPa 0,0 mm 5,3 km/h (1 Bft) NO 40 ° 0 min 0,000 mm 0,0 UV-I 0 W/m² 3,6 °C 3,1 °C 6,4 km/h (2 Bft)
25.03.2017 01:26 4,2 °C 4,2 °C 96 % 1025,8 hPa 0,0 mm 6,0 km/h (2 Bft) O-NO 77 ° 0 min 0,000 mm 0,0 UV-I 0 W/m² 3,6 °C 2,8 °C 9,7 km/h (2 Bft)
25.03.2017 01:27 4,2 °C 4,2 °C 96 % 1025,8 hPa 0,0 mm 7,7 km/h (2 Bft) O-NO 71 ° 0 min 0,000 mm 0,0 UV-I 0 W/m² 3,6 °C 2,3 °C 11,3 km/h (2 Bft)
25.03.2017 01:28 4,2 °C 4,2 °C 96 % 1025,8 hPa 0,0 mm 5,8 km/h (2 Bft) O-NO 59 ° 0 min 0,000 mm 0,0 UV-I 0 W/m² 3,6 °C 2,9 °C 8,0 km/h (2 Bft)
25.03.2017 01:29 4,2 °C 4,2 °C 96 % 1025,7 hPa 0,0 mm 4,5 km/h (1 Bft) NO 53 ° 0 min 0,000 mm 0,0 UV-I 0 W/m² 3,6 °C 4,2 °C 6,4 km/h (2 Bft)
25.03.2017 01:30 4,2 °C 4,2 °C 96 % 1025,7 hPa 0,0 mm 7,3 km/h (2 Bft) O-NO 59 ° 0 min 0,000 mm 0,0 UV-I 0 W/m² 3,6 °C 2,4 °C 11,3 km/h (2 Bft)
25.03.2017 01:31 4,2 °C 4,2 °C 96 % 1025,7 hPa 0,0 mm 4,1 km/h (1 Bft) O 84 ° 0 min 0,000 mm 0,0 UV-I 0 W/m² 3,6 °C 4,2 °C 6,4 km/h (2 Bft)
25.03.2017 01:32 4,2 °C 4,2 °C 96 % 1025,7 hPa 0,0 mm 5,2 km/h (1 Bft) O-NO 69 ° 0 min 0,000 mm 0,0 UV-I 0 W/m² 3,6 °C 3,1 °C 8,0 km/h (2 Bft)
25.03.2017 01:33 4,1 °C 4,2 °C 96 % 1025,7 hPa 0,0 mm 4,6 km/h (1 Bft) O-NO 62 ° 0 min 0,000 mm 0,0 UV-I 0 W/m² 3,5 °C 3,2 °C 6,4 km/h (2 Bft)
25.03.2017 01:34 4,2 °C 4,2 °C 96 % 1025,7 hPa 0,0 mm 4,3 km/h (1 Bft) O 80 ° 0 min 0,000 mm 0,0 UV-I 0 W/m² 3,6 °C 4,2 °C 6,4 km/h (2 Bft)
25.03.2017 01:35 4,2 °C 4,2 °C 96 % 1025,7 hPa 0,0 mm 4,5 km/h (1 Bft) NO 41 ° 0 min 0,000 mm 0,0 UV-I 0 W/m² 3,6 °C 4,2 °C 6,4 km/h (2 Bft)
25.03.2017 01:36 4,1 °C 4,2 °C 96 % 1025,7 hPa 0,0 mm 7,3 km/h (2 Bft) O-NO 68 ° 0 min 0,000 mm 0,0 UV-I 0 W/m² 3,5 °C 2,3 °C 11,3 km/h (2 Bft)
25.03.2017 01:37 4,1 °C 4,1 °C 96 % 1025,7 hPa 0,0 mm 4,1 km/h (1 Bft) NO 46 ° 0 min 0,000 mm 0,0 UV-I 0 W/m² 3,5 °C 4,1 °C 6,4 km/h (2 Bft)
25.03.2017 01:38 4,2 °C 4,2 °C 96 % 1025,7 hPa 0,0 mm 2,6 km/h (1 Bft) NO 46 ° 0 min 0,000 mm 0,0 UV-I 0 W/m² 3,6 °C 4,2 °C 4,8 km/h (1 Bft)
25.03.2017 01:39 4,1 °C 4,2 °C 96 % 1025,7 hPa 0,0 mm 4,4 km/h (1 Bft) O-NO 71 ° 0 min 0,000 mm 0,0 UV-I 0 W/m² 3,5 °C 4,1 °C 6,4 km/h (2 Bft)
25.03.2017 01:40 4,1 °C 4,1 °C 96 % 1025,7 hPa 0,0 mm 3,5 km/h (1 Bft) NO 48 ° 0 min 0,000 mm 0,0 UV-I 0 W/m² 3,5 °C 4,1 °C 6,4 km/h (2 Bft)
25.03.2017 01:41 4,1 °C 4,1 °C 96 % 1025,7 hPa 0,0 mm 2,9 km/h (1 Bft) NO 54 ° 0 min 0,000 mm 0,0 UV-I 0 W/m² 3,5 °C 4,1 °C 6,4 km/h (2 Bft)
25.03.2017 01:42 4,1 °C 4,1 °C 96 % 1025,7 hPa 0,0 mm 6,6 km/h (2 Bft) O-NO 62 ° 0 min 0,000 mm 0,0 UV-I 0 W/m² 3,5 °C 2,5 °C 8,0 km/h (2 Bft)
25.03.2017 01:43 4,1 °C 4,1 °C 96 % 1025,7 hPa 0,0 mm 6,5 km/h (2 Bft) O 90 ° 0 min 0,000 mm 0,0 UV-I 0 W/m² 3,5 °C 2,5 °C 8,0 km/h (2 Bft)
25.03.2017 01:44 4,1 °C 4,1 °C 96 % 1025,6 hPa 0,0 mm 6,1 km/h (2 Bft) O 88 ° 0 min 0,000 mm 0,0 UV-I 0 W/m² 3,5 °C 2,7 °C 9,7 km/h (2 Bft)
25.03.2017 01:45 4,1 °C 4,1 °C 96 % 1025,6 hPa 0,0 mm 4,0 km/h (1 Bft) NO 56 ° 0 min 0,000 mm 0,0 UV-I 0 W/m² 3,5 °C 4,1 °C 6,4 km/h (2 Bft)
25.03.2017 01:46 4,1 °C 4,1 °C 96 % 1025,6 hPa 0,0 mm 4,6 km/h (1 Bft) O 83 ° 0 min 0,000 mm 0,0 UV-I 0 W/m² 3,5 °C 3,2 °C 8,0 km/h (2 Bft)
25.03.2017 01:47 4,1 °C 4,1 °C 96 % 1025,6 hPa 0,0 mm 7,2 km/h (2 Bft) NO 54 ° 0 min 0,000 mm 0,0 UV-I 0 W/m² 3,5 °C 2,3 °C 11,3 km/h (2 Bft)
25.03.2017 01:48 4,1 °C 4,1 °C 96 % 1025,6 hPa 0,0 mm 6,1 km/h (2 Bft) O-NO 67 ° 0 min 0,000 mm 0,0 UV-I 0 W/m² 3,5 °C 2,7 °C 8,0 km/h (2 Bft)
25.03.2017 01:49 4,1 °C 4,1 °C 96 % 1025,7 hPa 0,0 mm 4,7 km/h (1 Bft) O-NO 67 ° 0 min 0,000 mm 0,0 UV-I 0 W/m² 3,5 °C 3,2 °C 6,4 km/h (2 Bft)
25.03.2017 01:50 4,1 °C 4,1 °C 96 % 1025,6 hPa 0,0 mm 6,1 km/h (2 Bft) O-NO 75 ° 0 min 0,000 mm 0,0 UV-I 0 W/m² 3,5 °C 2,7 °C 11,3 km/h (2 Bft)
25.03.2017 01:51 4,1 °C 4,1 °C 96 % 1025,6 hPa 0,0 mm 4,8 km/h (1 Bft) O-NO 68 ° 0 min 0,000 mm 0,0 UV-I 0 W/m² 3,5 °C 3,1 °C 8,0 km/h (2 Bft)
25.03.2017 01:52 4,1 °C 4,1 °C 96 % 1025,6 hPa 0,0 mm 7,5 km/h (2 Bft) O 82 ° 0 min 0,000 mm 0,0 UV-I 0 W/m² 3,5 °C 2,2 °C 9,7 km/h (2 Bft)
25.03.2017 01:53 4,1 °C 4,1 °C 96 % 1025,5 hPa 0,0 mm 5,8 km/h (2 Bft) O 89 ° 0 min 0,000 mm 0,0 UV-I 0 W/m² 3,5 °C 2,8 °C 8,0 km/h (2 Bft)
25.03.2017 01:54 4,1 °C 4,1 °C 96 % 1025,5 hPa 0,0 mm 5,8 km/h (2 Bft) O 84 ° 0 min 0,000 mm 0,0 UV-I 0 W/m² 3,5 °C 2,8 °C 11,3 km/h (2 Bft)
25.03.2017 01:55 4,1 °C 4,1 °C 96 % 1025,5 hPa 0,0 mm 7,0 km/h (2 Bft) O-NO 69 ° 0 min 0,000 mm 0,0 UV-I 0 W/m² 3,5 °C 2,4 °C 11,3 km/h (2 Bft)
25.03.2017 01:56 4,1 °C 4,1 °C 96 % 1025,5 hPa 0,0 mm 9,9 km/h (2 Bft) O-NO 71 ° 0 min 0,000 mm 0,0 UV-I 0 W/m² 3,5 °C 1,6 °C 14,5 km/h (3 Bft)
25.03.2017 01:57 4,1 °C 4,1 °C 96 % 1025,5 hPa 0,0 mm 5,6 km/h (1 Bft) O 81 ° 0 min 0,000 mm 0,0 UV-I 0 W/m² 3,5 °C 2,8 °C 6,4 km/h (2 Bft)
25.03.2017 01:58 4,1 °C 4,1 °C 96 % 1025,4 hPa 0,0 mm 1,9 km/h (1 Bft) O 81 ° 0 min 0,000 mm 0,0 UV-I 0 W/m² 3,5 °C 4,1 °C 3,2 km/h (1 Bft)
25.03.2017 01:59 4,1 °C 4,1 °C 96 % 1025,4 hPa 0,0 mm 3,4 km/h (1 Bft) O 88 ° 0 min 0,000 mm 0,0 UV-I 0 W/m² 3,5 °C 4,1 °C 11,3 km/h (2 Bft)
25.03.2017 02:00 4,1 °C 4,1 °C 96 % 1025,5 hPa 0,0 mm 7,8 km/h (2 Bft) NO 46 ° 0 min 0,000 mm 0,0 UV-I 0 W/m² 3,5 °C 2,1 °C 12,9 km/h (3 Bft)
25.03.2017 02:01 4,1 °C 4,1 °C 96 % 1025,4 hPa 0,0 mm 6,4 km/h (2 Bft) O-NO 75 ° 0 min 0,000 mm 0,0 UV-I 0 W/m² 3,5 °C 2,6 °C 9,7 km/h (2 Bft)
25.03.2017 02:02 4,1 °C 4,1 °C 96 % 1025,4 hPa 0,0 mm 3,7 km/h (1 Bft) O-NO 75 ° 0 min 0,000 mm 0,0 UV-I 0 W/m² 3,5 °C 4,1 °C 6,4 km/h (2 Bft)
25.03.2017 02:03 4,1 °C 4,1 °C 96 % 1025,4 hPa 0,0 mm 8,0 km/h (2 Bft) O-NO 74 ° 0 min 0,000 mm 0,0 UV-I 0 W/m² 3,5 °C 2,1 °C 12,9 km/h (3 Bft)
25.03.2017 02:04 4,0 °C 4,1 °C 96 % 1025,4 hPa 0,0 mm 6,6 km/h (2 Bft) O 80 ° 0 min 0,000 mm 0,0 UV-I 0 W/m² 3,4 °C 2,4 °C 8,0 km/h (2 Bft)
25.03.2017 02:05 4,0 °C 4,1 °C 96 % 1025,4 hPa 0,0 mm 4,2 km/h (1 Bft) O-NO 67 ° 0 min 0,000 mm 0,0 UV-I 0 W/m² 3,4 °C 4,0 °C 6,4 km/h (2 Bft)
25.03.2017 02:06 4,1 °C 4,1 °C 96 % 1025,4 hPa 0,0 mm 9,0 km/h (2 Bft) O-NO 70 ° 0 min 0,000 mm 0,0 UV-I 0 W/m² 3,5 °C 1,8 °C 12,9 km/h (3 Bft)
25.03.2017 02:07 4,1 °C 4,1 °C 96 % 1025,4 hPa 0,0 mm 5,9 km/h (2 Bft) O-NO 69 ° 0 min 0,000 mm 0,0 UV-I 0 W/m² 3,5 °C 2,7 °C 9,7 km/h (2 Bft)
25.03.2017 02:08 4,1 °C 4,1 °C 96 % 1025,4 hPa 0,0 mm 7,9 km/h (2 Bft) O-NO 76 ° 0 min 0,000 mm 0,0 UV-I 0 W/m² 3,5 °C 2,1 °C 9,7 km/h (2 Bft)
25.03.2017 02:09 4,1 °C 4,1 °C 96 % 1025,4 hPa 0,0 mm 7,6 km/h (2 Bft) O-NO 63 ° 0 min 0,000 mm 0,0 UV-I 0 W/m² 3,5 °C 2,2 °C 12,9 km/h (3 Bft)
25.03.2017 02:10 4,1 °C 4,1 °C 96 % 1025,5 hPa 0,0 mm 5,6 km/h (1 Bft) NO 42 ° 0 min 0,000 mm 0,0 UV-I 0 W/m² 3,5 °C 2,8 °C 8,0 km/h (2 Bft)
25.03.2017 02:11 4,1 °C 4,1 °C 96 % 1025,5 hPa 0,0 mm 4,5 km/h (1 Bft) O-NO 67 ° 0 min 0,000 mm 0,0 UV-I 0 W/m² 3,5 °C 4,1 °C 6,4 km/h (2 Bft)
25.03.2017 02:12 4,1 °C 4,1 °C 96 % 1025,4 hPa 0,0 mm 5,9 km/h (2 Bft) NO 50 ° 0 min 0,000 mm 0,0 UV-I 0 W/m² 3,5 °C 2,7 °C 8,0 km/h (2 Bft)
25.03.2017 02:13 4,1 °C 4,1 °C 96 % 1025,3 hPa 0,0 mm 2,7 km/h (1 Bft) NO 50 ° 0 min 0,000 mm 0,0 UV-I 0 W/m² 3,5 °C 4,1 °C 4,8 km/h (1 Bft)
25.03.2017 02:14 4,1 °C 4,1 °C 96 % 1025,3 hPa 0,0 mm 4,9 km/h (1 Bft) O 83 ° 0 min 0,000 mm 0,0 UV-I 0 W/m² 3,5 °C 3,1 °C 11,3 km/h (2 Bft)
25.03.2017 02:15 4,1 °C 4,1 °C 96 % 1025,4 hPa 0,0 mm 7,0 km/h (2 Bft) O-NO 74 ° 0 min 0,000 mm 0,0 UV-I 0 W/m² 3,5 °C 2,4 °C 8,0 km/h (2 Bft)
25.03.2017 02:16 4,1 °C 4,1 °C 96 % 1025,3 hPa 0,0 mm 4,8 km/h (1 Bft) O 100 ° 0 min 0,000 mm 0,0 UV-I 0 W/m² 3,5 °C 3,1 °C 8,0 km/h (2 Bft)
25.03.2017 02:17 4,1 °C 4,1 °C 96 % 1025,3 hPa 0,0 mm 5,4 km/h (1 Bft) O-NO 60 ° 0 min 0,000 mm 0,0 UV-I 0 W/m² 3,5 °C 2,9 °C 9,7 km/h (2 Bft)
25.03.2017 02:18 4,1 °C 4,1 °C 96 % 1025,3 hPa 0,0 mm 4,7 km/h (1 Bft) O-NO 65 ° 0 min 0,000 mm 0,0 UV-I 0 W/m² 3,5 °C 3,2 °C 8,0 km/h (2 Bft)
25.03.2017 02:19 4,0 °C 4,1 °C 96 % 1025,3 hPa 0,0 mm 3,6 km/h (1 Bft) NO 49 ° 0 min 0,000 mm 0,0 UV-I 0 W/m² 3,4 °C 4,0 °C 6,4 km/h (2 Bft)
25.03.2017 02:20 4,1 °C 4,1 °C 96 % 1025,3 hPa 0,0 mm 5,1 km/h (1 Bft) O-NO 70 ° 0 min 0,000 mm 0,0 UV-I 0 W/m² 3,5 °C 3,0 °C 8,0 km/h (2 Bft)
25.03.2017 02:21 4,0 °C 4,1 °C 96 % 1025,2 hPa 0,0 mm 7,4 km/h (2 Bft) NO 48 ° 0 min 0,000 mm 0,0 UV-I 0 W/m² 3,4 °C 2,1 °C 11,3 km/h (2 Bft)
25.03.2017 02:22 4,0 °C 4,1 °C 96 % 1025,2 hPa 0,0 mm 7,0 km/h (2 Bft) O-SO 102 ° 0 min 0,000 mm 0,0 UV-I 0 W/m² 3,4 °C 2,2 °C 9,7 km/h (2 Bft)
25.03.2017 02:23 4,1 °C 4,1 °C 96 % 1025,2 hPa 0,0 mm 5,4 km/h (1 Bft) O-NO 58 ° 0 min 0,000 mm 0,0 UV-I 0 W/m² 3,5 °C 2,9 °C 8,0 km/h (2 Bft)
25.03.2017 02:24 4,0 °C 4,1 °C 96 % 1025,2 hPa 0,0 mm 6,8 km/h (2 Bft) O-NO 73 ° 0 min 0,000 mm 0,0 UV-I 0 W/m² 3,4 °C 2,3 °C 11,3 km/h (2 Bft)
25.03.2017 02:25 4,0 °C 4,1 °C 96 % 1025,2 hPa 0,0 mm 6,0 km/h (2 Bft) NO 56 ° 0 min 0,000 mm 0,0 UV-I 0 W/m² 3,4 °C 2,6 °C 8,0 km/h (2 Bft)
25.03.2017 02:26 4,1 °C 4,1 °C 96 % 1025,2 hPa 0,0 mm 6,4 km/h (2 Bft) O-NO 68 ° 0 min 0,000 mm 0,0 UV-I 0 W/m² 3,5 °C 2,6 °C 9,7 km/h (2 Bft)
25.03.2017 02:27 4,0 °C 4,1 °C 96 % 1025,2 hPa 0,0 mm 4,5 km/h (1 Bft) NO 55 ° 0 min 0,000 mm 0,0 UV-I 0 W/m² 3,4 °C 4,0 °C 6,4 km/h (2 Bft)
25.03.2017 02:28 4,0 °C 4,1 °C 96 % 1025,2 hPa 0,0 mm 3,5 km/h (1 Bft) NO 55 ° 0 min 0,000 mm 0,0 UV-I 0 W/m² 3,4 °C 4,0 °C 4,8 km/h (1 Bft)
25.03.2017 02:29 4,0 °C 4,0 °C 96 % 1025,2 hPa 0,0 mm 4,4 km/h (1 Bft) O-NO 65 ° 0 min 0,000 mm 0,0 UV-I 0 W/m² 3,4 °C 4,0 °C 6,4 km/h (2 Bft)
25.03.2017 02:30 4,0 °C 4,1 °C 96 % 1025,1 hPa 0,0 mm 4,8 km/h (1 Bft) O-NO 63 ° 0 min 0,000 mm 0,0 UV-I 0 W/m² 3,4 °C 3,0 °C 6,4 km/h (2 Bft)
25.03.2017 02:31 4,0 °C 4,0 °C 96 % 1025,1 hPa 0,0 mm 4,6 km/h (1 Bft) O-NO 78 ° 0 min 0,000 mm 0,0 UV-I 0 W/m² 3,4 °C 3,1 °C 6,4 km/h (2 Bft)
25.03.2017 02:32 4,0 °C 4,0 °C 96 % 1025,1 hPa 0,0 mm 4,9 km/h (1 Bft) O-NO 65 ° 0 min 0,000 mm 0,0 UV-I 0 W/m² 3,4 °C 3,0 °C 6,4 km/h (2 Bft)
25.03.2017 02:33 4,0 °C 4,0 °C 96 % 1025,1 hPa 0,0 mm 6,2 km/h (2 Bft) NO 49 ° 0 min 0,000 mm 0,0 UV-I 0 W/m² 3,4 °C 2,5 °C 8,0 km/h (2 Bft)
25.03.2017 02:34 4,0 °C 4,0 °C 96 % 1025,2 hPa 0,0 mm 4,6 km/h (1 Bft) NO 44 ° 0 min 0,000 mm 0,0 UV-I 0 W/m² 3,4 °C 3,1 °C 6,4 km/h (2 Bft)
25.03.2017 02:35 4,1 °C 4,1 °C 96 % 1025,1 hPa 0,0 mm 3,7 km/h (1 Bft) O-NO 76 ° 0 min 0,000 mm 0,0 UV-I 0 W/m² 3,5 °C 4,1 °C 6,4 km/h (2 Bft)
25.03.2017 02:36 4,0 °C 4,1 °C 96 % 1025,1 hPa 0,0 mm 5,6 km/h (1 Bft) O-NO 74 ° 0 min 0,000 mm 0,0 UV-I 0 W/m² 3,4 °C 2,7 °C 8,0 km/h (2 Bft)
25.03.2017 02:37 4,0 °C 4,1 °C 96 % 1025,0 hPa 0,0 mm 5,0 km/h (1 Bft) O-NO 57 ° 0 min 0,000 mm 0,0 UV-I 0 W/m² 3,4 °C 2,9 °C 8,0 km/h (2 Bft)
25.03.2017 02:38 4,1 °C 4,1 °C 96 % 1025,0 hPa 0,0 mm 6,6 km/h (2 Bft) O-NO 67 ° 0 min 0,000 mm 0,0 UV-I 0 W/m² 3,5 °C 2,5 °C 9,7 km/h (2 Bft)
25.03.2017 02:39 4,0 °C 4,1 °C 96 % 1025,0 hPa 0,0 mm 7,2 km/h (2 Bft) O-NO 71 ° 0 min 0,000 mm 0,0 UV-I 0 W/m² 3,4 °C 2,2 °C 11,3 km/h (2 Bft)
25.03.2017 02:40 4,0 °C 4,0 °C 96 % 1025,1 hPa 0,0 mm 5,7 km/h (1 Bft) NO 49 ° 0 min 0,000 mm 0,0 UV-I 0 W/m² 3,4 °C 2,7 °C 11,3 km/h (2 Bft)
25.03.2017 02:41 4,0 °C 4,0 °C 96 % 1025,0 hPa 0,0 mm 3,6 km/h (1 Bft) O-NO 66 ° 0 min 0,000 mm 0,0 UV-I 0 W/m² 3,4 °C 4,0 °C 6,4 km/h (2 Bft)
25.03.2017 02:42 4,0 °C 4,0 °C 96 % 1025,0 hPa 0,0 mm 6,7 km/h (2 Bft) O-NO 61 ° 0 min 0,000 mm 0,0 UV-I 0 W/m² 3,4 °C 2,3 °C 11,3 km/h (2 Bft)
25.03.2017 02:43 4,0 °C 4,0 °C 96 % 1025,0 hPa 0,0 mm 6,1 km/h (2 Bft) NO 51 ° 0 min 0,000 mm 0,0 UV-I 0 W/m² 3,4 °C 2,5 °C 9,7 km/h (2 Bft)
25.03.2017 02:44 4,0 °C 4,0 °C 96 % 1025,0 hPa 0,0 mm 5,9 km/h (2 Bft) O-SO 109 ° 0 min 0,000 mm 0,0 UV-I 0 W/m² 3,4 °C 2,6 °C 9,7 km/h (2 Bft)
25.03.2017 02:45 4,0 °C 4,0 °C 96 % 1025,0 hPa 0,0 mm 2,4 km/h (1 Bft) O-SO 107 ° 0 min 0,000 mm 0,0 UV-I 0 W/m² 3,4 °C 4,0 °C 3,2 km/h (1 Bft)
25.03.2017 02:46 4,0 °C 4,0 °C 96 % 1025,0 hPa 0,0 mm 6,4 km/h (2 Bft) O-NO 59 ° 0 min 0,000 mm 0,0 UV-I 0 W/m² 3,4 °C 2,4 °C 14,5 km/h (3 Bft)
25.03.2017 02:47 4,0 °C 4,0 °C 96 % 1025,0 hPa 0,0 mm 7,0 km/h (2 Bft) O-NO 78 ° 0 min 0,000 mm 0,0 UV-I 0 W/m² 3,4 °C 2,2 °C 12,9 km/h (3 Bft)
25.03.2017 02:48 4,0 °C 4,0 °C 96 % 1024,9 hPa 0,0 mm 6,0 km/h (2 Bft) O-NO 69 ° 0 min 0,000 mm 0,0 UV-I 0 W/m² 3,4 °C 2,6 °C 8,0 km/h (2 Bft)
25.03.2017 02:49 4,0 °C 4,0 °C 96 % 1024,9 hPa 0,0 mm 5,6 km/h (1 Bft) N-NO 33 ° 0 min 0,000 mm 0,0 UV-I 0 W/m² 3,4 °C 2,7 °C 9,7 km/h (2 Bft)
25.03.2017 02:50 4,0 °C 4,0 °C 96 % 1024,9 hPa 0,0 mm 6,2 km/h (2 Bft) O-NO 67 ° 0 min 0,000 mm 0,0 UV-I 0 W/m² 3,4 °C 2,5 °C 11,3 km/h (2 Bft)
25.03.2017 02:51 4,0 °C 4,0 °C 96 % 1024,9 hPa 0,0 mm 7,3 km/h (2 Bft) O-NO 69 ° 0 min 0,000 mm 0,0 UV-I 0 W/m² 3,4 °C 2,2 °C 11,3 km/h (2 Bft)
25.03.2017 02:52 4,0 °C 4,0 °C 96 % 1024,9 hPa 0,0 mm 7,4 km/h (2 Bft) N-NO 29 ° 0 min 0,000 mm 0,0 UV-I 0 W/m² 3,4 °C 2,1 °C 11,3 km/h (2 Bft)
25.03.2017 02:53 3,9 °C 4,0 °C 96 % 1024,9 hPa 0,0 mm 7,2 km/h (2 Bft) O 79 ° 0 min 0,000 mm 0,0 UV-I 0 W/m² 3,3 °C 2,1 °C 8,0 km/h (2 Bft)
25.03.2017 02:54 4,0 °C 4,0 °C 96 % 1024,9 hPa 0,0 mm 4,7 km/h (1 Bft) NO 47 ° 0 min 0,000 mm 0,0 UV-I 0 W/m² 3,4 °C 3,1 °C 8,0 km/h (2 Bft)
25.03.2017 02:55 4,0 °C 4,0 °C 96 % 1024,8 hPa 0,0 mm 5,8 km/h (2 Bft) N-NO 13 ° 0 min 0,000 mm 0,0 UV-I 0 W/m² 3,4 °C 2,6 °C 8,0 km/h (2 Bft)
25.03.2017 02:56 4,0 °C 4,0 °C 96 % 1024,9 hPa 0,0 mm 5,5 km/h (1 Bft) O-NO 65 ° 0 min 0,000 mm 0,0 UV-I 0 W/m² 3,4 °C 2,8 °C 8,0 km/h (2 Bft)
25.03.2017 02:57 4,0 °C 4,0 °C 96 % 1024,9 hPa 0,0 mm 3,9 km/h (1 Bft) O-NO 62 ° 0 min 0,000 mm 0,0 UV-I 0 W/m² 3,4 °C 4,0 °C 4,8 km/h (1 Bft)
25.03.2017 02:58 4,0 °C 4,0 °C 96 % 1025,0 hPa 0,0 mm 5,3 km/h (1 Bft) O-NO 63 ° 0 min 0,000 mm 0,0 UV-I 0 W/m² 3,4 °C 2,8 °C 8,0 km/h (2 Bft)
25.03.2017 02:59 4,0 °C 4,0 °C 96 % 1025,0 hPa 0,0 mm 6,6 km/h (2 Bft) O-NO 69 ° 0 min 0,000 mm 0,0 UV-I 0 W/m² 3,4 °C 2,4 °C 11,3 km/h (2 Bft)
25.03.2017 03:00 4,0 °C 4,0 °C 96 % 1025,0 hPa 0,0 mm 4,7 km/h (1 Bft) N-NO 28 ° 0 min 0,000 mm 0,0 UV-I 0 W/m² 3,4 °C 3,1 °C 9,7 km/h (2 Bft)
25.03.2017 03:01 4,0 °C 4,0 °C 96 % 1025,0 hPa 0,0 mm 5,5 km/h (1 Bft) N-NO 30 ° 0 min 0,000 mm 0,0 UV-I 0 W/m² 3,4 °C 2,8 °C 6,4 km/h (2 Bft)
25.03.2017 03:02 4,0 °C 4,0 °C 96 % 1024,9 hPa 0,0 mm 5,8 km/h (2 Bft) O-NO 68 ° 0 min 0,000 mm 0,0 UV-I 0 W/m² 3,4 °C 2,6 °C 8,0 km/h (2 Bft)
25.03.2017 03:03 4,0 °C 4,0 °C 96 % 1024,9 hPa 0,0 mm 9,5 km/h (2 Bft) O-NO 74 ° 0 min 0,000 mm 0,0 UV-I 0 W/m² 3,4 °C 1,6 °C 12,9 km/h (3 Bft)
25.03.2017 03:04 4,0 °C 4,0 °C 96 % 1024,9 hPa 0,0 mm 6,2 km/h (2 Bft) NO 52 ° 0 min 0,000 mm 0,0 UV-I 0 W/m² 3,4 °C 2,5 °C 8,0 km/h (2 Bft)
25.03.2017 03:05 4,0 °C 4,0 °C 96 % 1024,8 hPa 0,0 mm 5,7 km/h (1 Bft) O-NO 68 ° 0 min 0,000 mm 0,0 UV-I 0 W/m² 3,4 °C 2,7 °C 8,0 km/h (2 Bft)
25.03.2017 03:06 3,9 °C 4,0 °C 96 % 1024,9 hPa 0,0 mm 7,4 km/h (2 Bft) NO 49 ° 0 min 0,000 mm 0,0 UV-I 0 W/m² 3,3 °C 2,0 °C 11,3 km/h (2 Bft)
25.03.2017 03:07 3,9 °C 4,0 °C 96 % 1024,9 hPa 0,0 mm 4,6 km/h (1 Bft) O-NO 59 ° 0 min 0,000 mm 0,0 UV-I 0 W/m² 3,3 °C 3,0 °C 6,4 km/h (2 Bft)
25.03.2017 03:08 3,9 °C 3,9 °C 96 % 1024,8 hPa 0,0 mm 3,8 km/h (1 Bft) O-NO 70 ° 0 min 0,000 mm 0,0 UV-I 0 W/m² 3,3 °C 3,9 °C 6,4 km/h (2 Bft)
25.03.2017 03:09 4,0 °C 4,0 °C 96 % 1024,9 hPa 0,0 mm 6,7 km/h (2 Bft) O 80 ° 0 min 0,000 mm 0,0 UV-I 0 W/m² 3,4 °C 2,3 °C 11,3 km/h (2 Bft)
25.03.2017 03:10 4,0 °C 4,0 °C 96 % 1024,9 hPa 0,0 mm 3,7 km/h (1 Bft) O 92 ° 0 min 0,000 mm 0,0 UV-I 0 W/m² 3,4 °C 4,0 °C 4,8 km/h (1 Bft)
25.03.2017 03:11 4,0 °C 4,0 °C 96 % 1024,9 hPa 0,0 mm 4,5 km/h (1 Bft) O-NO 67 ° 0 min 0,000 mm 0,0 UV-I 0 W/m² 3,4 °C 4,0 °C 8,0 km/h (2 Bft)
25.03.2017 03:12 3,9 °C 4,0 °C 96 % 1024,8 hPa 0,0 mm 5,9 km/h (2 Bft) O-NO 71 ° 0 min 0,000 mm 0,0 UV-I 0 W/m² 3,3 °C 2,5 °C 8,0 km/h (2 Bft)
25.03.2017 03:13 3,9 °C 4,0 °C 96 % 1024,8 hPa 0,0 mm 3,1 km/h (1 Bft) O-NO 71 ° 0 min 0,000 mm 0,0 UV-I 0 W/m² 3,3 °C 3,9 °C 4,8 km/h (1 Bft)
25.03.2017 03:14 3,9 °C 4,0 °C 96 % 1024,8 hPa 0,0 mm 7,6 km/h (2 Bft) O-NO 70 ° 0 min 0,000 mm 0,0 UV-I 0 W/m² 3,3 °C 2,0 °C 11,3 km/h (2 Bft)
25.03.2017 03:15 3,9 °C 4,0 °C 96 % 1024,8 hPa 0,0 mm 5,1 km/h (1 Bft) N-NO 30 ° 0 min 0,000 mm 0,0 UV-I 0 W/m² 3,3 °C 2,8 °C 8,0 km/h (2 Bft)
25.03.2017 03:16 4,0 °C 4,0 °C 96 % 1024,8 hPa 0,0 mm 7,6 km/h (2 Bft) O-NO 57 ° 0 min 0,000 mm 0,0 UV-I 0 W/m² 3,4 °C 2,1 °C 9,7 km/h (2 Bft)
25.03.2017 03:17 4,0 °C 4,0 °C 96 % 1024,8 hPa 0,0 mm 5,6 km/h (1 Bft) N-NO 26 ° 0 min 0,000 mm 0,0 UV-I 0 W/m² 3,4 °C 2,7 °C 6,4 km/h (2 Bft)
25.03.2017 03:18 3,9 °C 4,0 °C 96 % 1024,8 hPa 0,0 mm 4,4 km/h (1 Bft) O-NO 71 ° 0 min 0,000 mm 0,0 UV-I 0 W/m² 3,3 °C 3,9 °C 6,4 km/h (2 Bft)
25.03.2017 03:19 3,9 °C 4,0 °C 96 % 1024,8 hPa 0,0 mm 1,6 km/h (1 Bft) O-NO 71 ° 0 min 0,000 mm 0,0 UV-I 0 W/m² 3,3 °C 3,9 °C 3,2 km/h (1 Bft)
25.03.2017 03:20 4,0 °C 4,0 °C 96 % 1024,8 hPa 0,0 mm 4,2 km/h (1 Bft) O-NO 63 ° 0 min 0,000 mm 0,0 UV-I 0 W/m² 3,4 °C 4,0 °C 6,4 km/h (2 Bft)
25.03.2017 03:21 4,0 °C 4,0 °C 96 % 1024,8 hPa 0,0 mm 5,0 km/h (1 Bft) NO 47 ° 0 min 0,000 mm 0,0 UV-I 0 W/m² 3,4 °C 2,9 °C 6,4 km/h (2 Bft)
25.03.2017 03:22 3,9 °C 4,0 °C 96 % 1024,8 hPa 0,0 mm 5,0 km/h (1 Bft) O-NO 65 ° 0 min 0,000 mm 0,0 UV-I 0 W/m² 3,3 °C 2,8 °C 6,4 km/h (2 Bft)
25.03.2017 03:23 4,0 °C 4,0 °C 96 % 1024,8 hPa 0,0 mm 5,2 km/h (1 Bft) NO 40 ° 0 min 0,000 mm 0,0 UV-I 0 W/m² 3,4 °C 2,9 °C 6,4 km/h (2 Bft)
25.03.2017 03:24 4,0 °C 4,0 °C 96 % 1024,8 hPa 0,0 mm 4,9 km/h (1 Bft) O-NO 59 ° 0 min 0,000 mm 0,0 UV-I 0 W/m² 3,4 °C 3,0 °C 6,4 km/h (2 Bft)
25.03.2017 03:25 4,0 °C 4,0 °C 96 % 1024,8 hPa 0,0 mm 4,8 km/h (1 Bft) O 85 ° 0 min 0,000 mm 0,0 UV-I 0 W/m² 3,4 °C 3,0 °C 6,4 km/h (2 Bft)
25.03.2017 03:26 3,9 °C 4,0 °C 96 % 1024,8 hPa 0,0 mm 4,7 km/h (1 Bft) N-NO 27 ° 0 min 0,000 mm 0,0 UV-I 0 W/m² 3,3 °C 3,0 °C 8,0 km/h (2 Bft)
25.03.2017 03:27 3,9 °C 4,0 °C 96 % 1024,8 hPa 0,0 mm 5,3 km/h (1 Bft) N-NO 24 ° 0 min 0,000 mm 0,0 UV-I 0 W/m² 3,3 °C 2,7 °C 9,7 km/h (2 Bft)
25.03.2017 03:28 3,9 °C 3,9 °C 96 % 1024,8 hPa 0,0 mm 5,9 km/h (2 Bft) NO 49 ° 0 min 0,000 mm 0,0 UV-I 0 W/m² 3,3 °C 2,5 °C 8,0 km/h (2 Bft)
25.03.2017 03:29 4,0 °C 4,0 °C 96 % 1024,9 hPa 0,0 mm 6,0 km/h (2 Bft) NO 49 ° 0 min 0,000 mm 0,0 UV-I 0 W/m² 3,4 °C 2,6 °C 8,0 km/h (2 Bft)
25.03.2017 03:30 3,9 °C 4,0 °C 96 % 1024,9 hPa 0,0 mm 6,1 km/h (2 Bft) O-NO 61 ° 0 min 0,000 mm 0,0 UV-I 0 W/m² 3,3 °C 2,4 °C 8,0 km/h (2 Bft)
25.03.2017 03:31 4,0 °C 4,0 °C 96 % 1024,9 hPa 0,0 mm 3,8 km/h (1 Bft) O-NO 59 ° 0 min 0,000 mm 0,0 UV-I 0 W/m² 3,4 °C 4,0 °C 4,8 km/h (1 Bft)
25.03.2017 03:32 3,9 °C 4,0 °C 96 % 1024,9 hPa 0,0 mm 5,0 km/h (1 Bft) O-NO 65 ° 0 min 0,000 mm 0,0 UV-I 0 W/m² 3,3 °C 2,8 °C 8,0 km/h (2 Bft)
25.03.2017 03:33 4,0 °C 4,0 °C 96 % 1024,8 hPa 0,0 mm 5,4 km/h (1 Bft) O-NO 76 ° 0 min 0,000 mm 0,0 UV-I 0 W/m² 3,4 °C 2,8 °C 9,7 km/h (2 Bft)
25.03.2017 03:34 3,9 °C 4,0 °C 96 % 1024,9 hPa 0,0 mm 4,2 km/h (1 Bft) NO 52 ° 0 min 0,000 mm 0,0 UV-I 0 W/m² 3,3 °C 3,9 °C 6,4 km/h (2 Bft)
25.03.2017 03:35 3,9 °C 3,9 °C 96 % 1024,9 hPa 0,0 mm 0,2 km/h (0 Bft) NO 52 ° 0 min 0,000 mm 0,0 UV-I 0 W/m² 3,3 °C 3,9 °C 1,6 km/h (1 Bft)
25.03.2017 03:36 3,9 °C 4,0 °C 96 % 1024,8 hPa 0,0 mm 3,7 km/h (1 Bft) O 92 ° 0 min 0,000 mm 0,0 UV-I 0 W/m² 3,3 °C 3,9 °C 6,4 km/h (2 Bft)
25.03.2017 03:37 3,9 °C 4,0 °C 96 % 1024,8 hPa 0,0 mm 5,2 km/h (1 Bft) O-NO 71 ° 0 min 0,000 mm 0,0 UV-I 0 W/m² 3,3 °C 2,8 °C 6,4 km/h (2 Bft)
25.03.2017 03:38 4,0 °C 4,0 °C 96 % 1024,8 hPa 0,0 mm 3,7 km/h (1 Bft) O-NO 71 ° 0 min 0,000 mm 0,0 UV-I 0 W/m² 3,4 °C 4,0 °C 4,8 km/h (1 Bft)
25.03.2017 03:39 4,0 °C 4,0 °C 96 % 1024,8 hPa 0,0 mm 3,0 km/h (1 Bft) O-NO 64 ° 0 min 0,000 mm 0,0 UV-I 0 W/m² 3,4 °C 4,0 °C 4,8 km/h (1 Bft)
25.03.2017 03:40 4,0 °C 4,0 °C 96 % 1024,8 hPa 0,0 mm 3,7 km/h (1 Bft) O-NO 68 ° 0 min 0,000 mm 0,0 UV-I 0 W/m² 3,4 °C 4,0 °C 6,4 km/h (2 Bft)
25.03.2017 03:41 4,0 °C 4,0 °C 96 % 1024,8 hPa 0,0 mm 3,5 km/h (1 Bft) O-NO 68 ° 0 min 0,000 mm 0,0 UV-I 0 W/m² 3,4 °C 4,0 °C 4,8 km/h (1 Bft)
25.03.2017 03:42 3,9 °C 4,0 °C 96 % 1024,8 hPa 0,0 mm 2,8 km/h (1 Bft) O-NO 68 ° 0 min 0,000 mm 0,0 UV-I 0 W/m² 3,3 °C 3,9 °C 4,8 km/h (1 Bft)
25.03.2017 03:43 4,0 °C 4,0 °C 96 % 1024,7 hPa 0,0 mm 4,2 km/h (1 Bft) O-NO 60 ° 0 min 0,000 mm 0,0 UV-I 0 W/m² 3,4 °C 4,0 °C 6,4 km/h (2 Bft)
25.03.2017 03:44 3,9 °C 4,0 °C 96 % 1024,7 hPa 0,0 mm 6,0 km/h (2 Bft) O-NO 67 ° 0 min 0,000 mm 0,0 UV-I 0 W/m² 3,3 °C 2,5 °C 8,0 km/h (2 Bft)
25.03.2017 03:45 4,0 °C 4,0 °C 96 % 1024,8 hPa 0,0 mm 5,0 km/h (1 Bft) NO 49 ° 0 min 0,000 mm 0,0 UV-I 0 W/m² 3,4 °C 2,9 °C 6,4 km/h (2 Bft)
25.03.2017 03:46 3,9 °C 4,0 °C 96 % 1024,7 hPa 0,0 mm 2,5 km/h (1 Bft) O-NO 63 ° 0 min 0,000 mm 0,0 UV-I 0 W/m² 3,3 °C 3,9 °C 4,8 km/h (1 Bft)
25.03.2017 03:47 3,9 °C 4,0 °C 96 % 1024,8 hPa 0,0 mm 5,4 km/h (1 Bft) NO 56 ° 0 min 0,000 mm 0,0 UV-I 0 W/m² 3,3 °C 2,7 °C 9,7 km/h (2 Bft)
25.03.2017 03:48 3,9 °C 3,9 °C 96 % 1024,7 hPa 0,0 mm 3,1 km/h (1 Bft) O-NO 64 ° 0 min 0,000 mm 0,0 UV-I 0 W/m² 3,3 °C 3,9 °C 4,8 km/h (1 Bft)
25.03.2017 03:49 3,9 °C 3,9 °C 96 % 1024,7 hPa 0,0 mm 4,2 km/h (1 Bft) NO 48 ° 0 min 0,000 mm 0,0 UV-I 0 W/m² 3,3 °C 3,9 °C 6,4 km/h (2 Bft)
25.03.2017 03:50 3,9 °C 3,9 °C 96 % 1024,8 hPa 0,0 mm 6,0 km/h (2 Bft) O-NO 62 ° 0 min 0,000 mm 0,0 UV-I 0 W/m² 3,3 °C 2,5 °C 12,9 km/h (3 Bft)
25.03.2017 03:51 3,9 °C 3,9 °C 96 % 1024,8 hPa 0,0 mm 7,2 km/h (2 Bft) O 80 ° 0 min 0,000 mm 0,0 UV-I 0 W/m² 3,3 °C 2,1 °C 8,0 km/h (2 Bft)
25.03.2017 03:52 3,9 °C 3,9 °C 96 % 1024,7 hPa 0,0 mm 5,1 km/h (1 Bft) N-NO 26 ° 0 min 0,000 mm 0,0 UV-I 0 W/m² 3,3 °C 2,8 °C 8,0 km/h (2 Bft)
25.03.2017 03:53 3,9 °C 3,9 °C 96 % 1024,7 hPa 0,0 mm 5,7 km/h (1 Bft) O-NO 65 ° 0 min 0,000 mm 0,0 UV-I 0 W/m² 3,3 °C 2,6 °C 8,0 km/h (2 Bft)
25.03.2017 03:54 3,9 °C 3,9 °C 96 % 1024,7 hPa 0,0 mm 5,4 km/h (1 Bft) O-NO 58 ° 0 min 0,000 mm 0,0 UV-I 0 W/m² 3,3 °C 2,7 °C 8,0 km/h (2 Bft)
25.03.2017 03:55 3,9 °C 3,9 °C 96 % 1024,7 hPa 0,0 mm 4,5 km/h (1 Bft) O-NO 61 ° 0 min 0,000 mm 0,0 UV-I 0 W/m² 3,3 °C 3,9 °C 8,0 km/h (2 Bft)
25.03.2017 03:56 3,9 °C 3,9 °C 96 % 1024,7 hPa 0,0 mm 6,7 km/h (2 Bft) O-NO 71 ° 0 min 0,000 mm 0,0 UV-I 0 W/m² 3,3 °C 2,2 °C 9,7 km/h (2 Bft)
25.03.2017 03:57 3,9 °C 3,9 °C 96 % 1024,7 hPa 0,0 mm 3,6 km/h (1 Bft) NO 55 ° 0 min 0,000 mm 0,0 UV-I 0 W/m² 3,3 °C 3,9 °C 4,8 km/h (1 Bft)
25.03.2017 03:58 3,9 °C 3,9 °C 96 % 1024,7 hPa 0,0 mm 5,4 km/h (1 Bft) O-NO 72 ° 0 min 0,000 mm 0,0 UV-I 0 W/m² 3,3 °C 2,7 °C 8,0 km/h (2 Bft)
25.03.2017 03:59 3,9 °C 3,9 °C 96 % 1024,7 hPa 0,0 mm 1,5 km/h (1 Bft) O-NO 72 ° 0 min 0,000 mm 0,0 UV-I 0 W/m² 3,3 °C 3,9 °C 3,2 km/h (1 Bft)
25.03.2017 04:00 3,9 °C 3,9 °C 96 % 1024,7 hPa 0,0 mm 3,3 km/h (1 Bft) O-NO 72 ° 0 min 0,000 mm 0,0 UV-I 0 W/m² 3,3 °C 3,9 °C 6,4 km/h (2 Bft)
25.03.2017 04:01 3,9 °C 3,9 °C 96 % 1024,7 hPa 0,0 mm 6,2 km/h (2 Bft) O-NO 77 ° 0 min 0,000 mm 0,0 UV-I 0 W/m² 3,3 °C 2,4 °C 9,7 km/h (2 Bft)
25.03.2017 04:02 3,9 °C 3,9 °C 96 % 1024,6 hPa 0,0 mm 6,3 km/h (2 Bft) O-NO 57 ° 0 min 0,000 mm 0,0 UV-I 0 W/m² 3,3 °C 2,4 °C 8,0 km/h (2 Bft)
25.03.2017 04:03 3,9 °C 3,9 °C 96 % 1024,7 hPa 0,0 mm 5,5 km/h (1 Bft) NO 44 ° 0 min 0,000 mm 0,0 UV-I 0 W/m² 3,3 °C 2,6 °C 11,3 km/h (2 Bft)
25.03.2017 04:04 3,9 °C 3,9 °C 96 % 1024,7 hPa 0,0 mm 5,3 km/h (1 Bft) O-NO 71 ° 0 min 0,000 mm 0,0 UV-I 0 W/m² 3,3 °C 2,7 °C 6,4 km/h (2 Bft)
25.03.2017 04:05 3,9 °C 3,9 °C 96 % 1024,7 hPa 0,0 mm 7,2 km/h (2 Bft) NO 51 ° 0 min 0,000 mm 0,0 UV-I 0 W/m² 3,3 °C 2,1 °C 12,9 km/h (3 Bft)
25.03.2017 04:06 3,9 °C 3,9 °C 96 % 1024,6 hPa 0,0 mm 5,2 km/h (1 Bft) O-NO 73 ° 0 min 0,000 mm 0,0 UV-I 0 W/m² 3,3 °C 2,8 °C 6,4 km/h (2 Bft)
25.03.2017 04:07 3,9 °C 3,9 °C 96 % 1024,6 hPa 0,0 mm 2,4 km/h (1 Bft) O-NO 73 ° 0 min 0,000 mm 0,0 UV-I 0 W/m² 3,3 °C 3,9 °C 4,8 km/h (1 Bft)
25.03.2017 04:08 3,9 °C 3,9 °C 96 % 1024,6 hPa 0,0 mm 5,2 km/h (1 Bft) O 80 ° 0 min 0,000 mm 0,0 UV-I 0 W/m² 3,3 °C 2,8 °C 8,0 km/h (2 Bft)
25.03.2017 04:09 3,9 °C 3,9 °C 96 % 1024,7 hPa 0,0 mm 7,6 km/h (2 Bft) N-NO 30 ° 0 min 0,000 mm 0,0 UV-I 0 W/m² 3,3 °C 2,0 °C 11,3 km/h (2 Bft)
25.03.2017 04:10 3,9 °C 3,9 °C 96 % 1024,6 hPa 0,0 mm 5,2 km/h (1 Bft) O-NO 76 ° 0 min 0,000 mm 0,0 UV-I 0 W/m² 3,3 °C 2,8 °C 6,4 km/h (2 Bft)
25.03.2017 04:11 3,9 °C 3,9 °C 96 % 1024,7 hPa 0,0 mm 8,2 km/h (2 Bft) O-NO 59 ° 0 min 0,000 mm 0,0 UV-I 0 W/m² 3,3 °C 1,8 °C 12,9 km/h (3 Bft)
25.03.2017 04:12 3,9 °C 3,9 °C 96 % 1024,7 hPa 0,0 mm 4,0 km/h (1 Bft) O-NO 60 ° 0 min 0,000 mm 0,0 UV-I 0 W/m² 3,3 °C 3,9 °C 4,8 km/h (1 Bft)
25.03.2017 04:13 3,9 °C 3,9 °C 96 % 1024,6 hPa 0,0 mm 3,3 km/h (1 Bft) O 94 ° 0 min 0,000 mm 0,0 UV-I 0 W/m² 3,3 °C 3,9 °C 4,8 km/h (1 Bft)
25.03.2017 04:14 3,9 °C 3,9 °C 96 % 1024,7 hPa 0,0 mm 2,7 km/h (1 Bft) NO 53 ° 0 min 0,000 mm 0,0 UV-I 0 W/m² 3,3 °C 3,9 °C 4,8 km/h (1 Bft)
25.03.2017 04:15 3,8 °C 3,9 °C 96 % 1024,7 hPa 0,0 mm 6,0 km/h (2 Bft) O-NO 78 ° 0 min 0,000 mm 0,0 UV-I 0 W/m² 3,2 °C 2,3 °C 8,0 km/h (2 Bft)
25.03.2017 04:16 3,9 °C 3,9 °C 96 % 1024,7 hPa 0,0 mm 4,6 km/h (1 Bft) O-NO 71 ° 0 min 0,000 mm 0,0 UV-I 0 W/m² 3,3 °C 3,0 °C 8,0 km/h (2 Bft)
25.03.2017 04:17 3,9 °C 3,9 °C 96 % 1024,7 hPa 0,0 mm 8,3 km/h (2 Bft) O-NO 73 ° 0 min 0,000 mm 0,0 UV-I 0 W/m² 3,3 °C 1,8 °C 12,9 km/h (3 Bft)
25.03.2017 04:18 3,8 °C 3,9 °C 96 % 1024,6 hPa 0,0 mm 6,1 km/h (2 Bft) O 80 ° 0 min 0,000 mm 0,0 UV-I 0 W/m² 3,2 °C 2,3 °C 8,0 km/h (2 Bft)
25.03.2017 04:19 3,9 °C 3,9 °C 96 % 1024,6 hPa 0,0 mm 6,0 km/h (2 Bft) O-NO 63 ° 0 min 0,000 mm 0,0 UV-I 0 W/m² 3,3 °C 2,5 °C 8,0 km/h (2 Bft)
25.03.2017 04:20 3,9 °C 3,9 °C 96 % 1024,6 hPa 0,0 mm 5,7 km/h (1 Bft) O-NO 60 ° 0 min 0,000 mm 0,0 UV-I 0 W/m² 3,3 °C 2,6 °C 8,0 km/h (2 Bft)
25.03.2017 04:21 3,9 °C 3,9 °C 96 % 1024,6 hPa 0,0 mm 4,5 km/h (1 Bft) O-NO 66 ° 0 min 0,000 mm 0,0 UV-I 0 W/m² 3,3 °C 3,9 °C 8,0 km/h (2 Bft)
25.03.2017 04:22 3,8 °C 3,9 °C 96 % 1024,6 hPa 0,0 mm 6,6 km/h (2 Bft) O-NO 59 ° 0 min 0,000 mm 0,0 UV-I 0 W/m² 3,2 °C 2,1 °C 8,0 km/h (2 Bft)
25.03.2017 04:23 3,9 °C 3,9 °C 96 % 1024,4 hPa 0,0 mm 4,7 km/h (1 Bft) NO 56 ° 0 min 0,000 mm 0,0 UV-I 0 W/m² 3,3 °C 3,0 °C 6,4 km/h (2 Bft)
25.03.2017 04:24 3,9 °C 3,9 °C 96 % 1024,4 hPa 0,0 mm 4,2 km/h (1 Bft) O-NO 61 ° 0 min 0,000 mm 0,0 UV-I 0 W/m² 3,3 °C 3,9 °C 6,4 km/h (2 Bft)
25.03.2017 04:25 3,8 °C 3,9 °C 96 % 1024,5 hPa 0,0 mm 5,5 km/h (1 Bft) O-NO 61 ° 0 min 0,000 mm 0,0 UV-I 0 W/m² 3,2 °C 2,5 °C 6,4 km/h (2 Bft)
25.03.2017 04:26 3,9 °C 3,9 °C 96 % 1024,5 hPa 0,0 mm 6,2 km/h (2 Bft) O-NO 58 ° 0 min 0,000 mm 0,0 UV-I 0 W/m² 3,3 °C 2,4 °C 8,0 km/h (2 Bft)
25.03.2017 04:27 3,9 °C 3,9 °C 96 % 1024,4 hPa 0,0 mm 4,1 km/h (1 Bft) O-NO 60 ° 0 min 0,000 mm 0,0 UV-I 0 W/m² 3,3 °C 3,9 °C 4,8 km/h (1 Bft)
25.03.2017 04:28 3,9 °C 3,9 °C 96 % 1024,5 hPa 0,0 mm 3,8 km/h (1 Bft) O-NO 61 ° 0 min 0,000 mm 0,0 UV-I 0 W/m² 3,3 °C 3,9 °C 4,8 km/h (1 Bft)
25.03.2017 04:29 3,9 °C 3,9 °C 96 % 1024,5 hPa 0,0 mm 6,2 km/h (2 Bft) O 96 ° 0 min 0,000 mm 0,0 UV-I 0 W/m² 3,3 °C 2,4 °C 11,3 km/h (2 Bft)
25.03.2017 04:30 3,9 °C 3,9 °C 96 % 1024,6 hPa 0,0 mm 3,2 km/h (1 Bft) O-NO 60 ° 0 min 0,000 mm 0,0 UV-I 0 W/m² 3,3 °C 3,9 °C 8,0 km/h (2 Bft)
25.03.2017 04:31 3,9 °C 3,9 °C 96 % 1024,6 hPa 0,0 mm 3,6 km/h (1 Bft) S 182 ° 0 min 0,000 mm 0,0 UV-I 0 W/m² 3,3 °C 3,9 °C 8,0 km/h (2 Bft)
25.03.2017 04:32 3,9 °C 3,9 °C 96 % 1024,5 hPa 0,0 mm 4,6 km/h (1 Bft) O-NO 76 ° 0 min 0,000 mm 0,0 UV-I 0 W/m² 3,3 °C 3,0 °C 6,4 km/h (2 Bft)
25.03.2017 04:33 3,8 °C 3,9 °C 96 % 1024,5 hPa 0,0 mm 4,8 km/h (1 Bft) O-NO 70 ° 0 min 0,000 mm 0,0 UV-I 0 W/m² 3,2 °C 2,8 °C 8,0 km/h (2 Bft)
25.03.2017 04:34 3,9 °C 3,9 °C 96 % 1024,5 hPa 0,0 mm 6,2 km/h (2 Bft) O-NO 64 ° 0 min 0,000 mm 0,0 UV-I 0 W/m² 3,3 °C 2,4 °C 9,7 km/h (2 Bft)
25.03.2017 04:35 3,9 °C 3,9 °C 96 % 1024,4 hPa 0,0 mm 7,6 km/h (2 Bft) O 80 ° 0 min 0,000 mm 0,0 UV-I 0 W/m² 3,3 °C 2,0 °C 11,3 km/h (2 Bft)
25.03.2017 04:36 3,8 °C 3,9 °C 96 % 1024,4 hPa 0,0 mm 9,6 km/h (2 Bft) O-NO 67 ° 0 min 0,000 mm 0,0 UV-I 0 W/m² 3,2 °C 1,3 °C 14,5 km/h (3 Bft)
25.03.2017 04:37 3,9 °C 3,9 °C 96 % 1024,4 hPa 0,0 mm 7,8 km/h (2 Bft) O 95 ° 0 min 0,000 mm 0,0 UV-I 0 W/m² 3,3 °C 1,9 °C 11,3 km/h (2 Bft)
25.03.2017 04:38 3,8 °C 3,9 °C 96 % 1024,4 hPa 0,0 mm 3,9 km/h (1 Bft) O-NO 60 ° 0 min 0,000 mm 0,0 UV-I 0 W/m² 3,2 °C 3,8 °C 6,4 km/h (2 Bft)
25.03.2017 04:39 3,9 °C 3,9 °C 96 % 1024,4 hPa 0,0 mm 4,1 km/h (1 Bft) O 84 ° 0 min 0,000 mm 0,0 UV-I 0 W/m² 3,3 °C 3,9 °C 6,4 km/h (2 Bft)
25.03.2017 04:40 3,8 °C 3,9 °C 96 % 1024,4 hPa 0,0 mm 3,6 km/h (1 Bft) O-NO 69 ° 0 min 0,000 mm 0,0 UV-I 0 W/m² 3,2 °C 3,8 °C 6,4 km/h (2 Bft)
25.03.2017 04:41 3,9 °C 3,9 °C 96 % 1024,4 hPa 0,0 mm 6,0 km/h (2 Bft) O 79 ° 0 min 0,000 mm 0,0 UV-I 0 W/m² 3,3 °C 2,5 °C 9,7 km/h (2 Bft)
25.03.2017 04:42 3,8 °C 3,9 °C 96 % 1024,4 hPa 0,0 mm 6,1 km/h (2 Bft) O-SO 123 ° 0 min 0,000 mm 0,0 UV-I 0 W/m² 3,2 °C 2,3 °C 8,0 km/h (2 Bft)
25.03.2017 04:43 3,9 °C 3,9 °C 96 % 1024,4 hPa 0,0 mm 4,3 km/h (1 Bft) O-NO 63 ° 0 min 0,000 mm 0,0 UV-I 0 W/m² 3,3 °C 3,9 °C 6,4 km/h (2 Bft)
25.03.2017 04:44 3,8 °C 3,9 °C 96 % 1024,4 hPa 0,0 mm 7,0 km/h (2 Bft) O-NO 76 ° 0 min 0,000 mm 0,0 UV-I 0 W/m² 3,2 °C 2,0 °C 9,7 km/h (2 Bft)
25.03.2017 04:45 3,9 °C 3,9 °C 96 % 1024,4 hPa 0,0 mm 5,0 km/h (1 Bft) O-NO 57 ° 0 min 0,000 mm 0,0 UV-I 0 W/m² 3,3 °C 2,8 °C 6,4 km/h (2 Bft)
25.03.2017 04:46 3,9 °C 3,9 °C 96 % 1024,4 hPa 0,0 mm 2,6 km/h (1 Bft) O-NO 57 ° 0 min 0,000 mm 0,0 UV-I 0 W/m² 3,3 °C 3,9 °C 3,2 km/h (1 Bft)
25.03.2017 04:47 3,8 °C 3,9 °C 96 % 1024,4 hPa 0,0 mm 4,8 km/h (1 Bft) NO 52 ° 0 min 0,000 mm 0,0 UV-I 0 W/m² 3,2 °C 2,8 °C 6,4 km/h (2 Bft)
25.03.2017 04:48 3,8 °C 3,9 °C 96 % 1024,4 hPa 0,0 mm 4,7 km/h (1 Bft) O-NO 74 ° 0 min 0,000 mm 0,0 UV-I 0 W/m² 3,2 °C 2,8 °C 6,4 km/h (2 Bft)
25.03.2017 04:49 3,8 °C 3,9 °C 96 % 1024,5 hPa 0,0 mm 5,9 km/h (2 Bft) O-NO 78 ° 0 min 0,000 mm 0,0 UV-I 0 W/m² 3,2 °C 2,4 °C 8,0 km/h (2 Bft)
25.03.2017 04:50 3,8 °C 3,9 °C 96 % 1024,4 hPa 0,0 mm 2,3 km/h (1 Bft) O-NO 78 ° 0 min 0,000 mm 0,0 UV-I 0 W/m² 3,2 °C 3,8 °C 4,8 km/h (1 Bft)
25.03.2017 04:51 3,9 °C 3,9 °C 96 % 1024,5 hPa 0,0 mm 4,6 km/h (1 Bft) O 96 ° 0 min 0,000 mm 0,0 UV-I 0 W/m² 3,3 °C 3,0 °C 6,4 km/h (2 Bft)
25.03.2017 04:52 3,9 °C 3,9 °C 96 % 1024,6 hPa 0,0 mm 4,0 km/h (1 Bft) O 81 ° 0 min 0,000 mm 0,0 UV-I 0 W/m² 3,3 °C 3,9 °C 6,4 km/h (2 Bft)
25.03.2017 04:53 3,9 °C 3,9 °C 96 % 1024,6 hPa 0,0 mm 7,1 km/h (2 Bft) O-NO 64 ° 0 min 0,000 mm 0,0 UV-I 0 W/m² 3,3 °C 2,1 °C 11,3 km/h (2 Bft)
25.03.2017 04:54 3,8 °C 3,9 °C 96 % 1024,6 hPa 0,0 mm 5,5 km/h (1 Bft) O-NO 61 ° 0 min 0,000 mm 0,0 UV-I 0 W/m² 3,2 °C 2,5 °C 6,4 km/h (2 Bft)
25.03.2017 04:55 3,8 °C 3,9 °C 96 % 1024,6 hPa 0,0 mm 8,9 km/h (2 Bft) O 94 ° 0 min 0,000 mm 0,0 UV-I 0 W/m² 3,2 °C 1,5 °C 14,5 km/h (3 Bft)
25.03.2017 04:56 3,8 °C 3,9 °C 96 % 1024,5 hPa 0,0 mm 4,8 km/h (1 Bft) NO 55 ° 0 min 0,000 mm 0,0 UV-I 0 W/m² 3,2 °C 2,8 °C 8,0 km/h (2 Bft)
25.03.2017 04:57 3,9 °C 3,9 °C 96 % 1024,4 hPa 0,0 mm 8,2 km/h (2 Bft) O-NO 64 ° 0 min 0,000 mm 0,0 UV-I 0 W/m² 3,3 °C 1,8 °C 12,9 km/h (3 Bft)
25.03.2017 04:58 3,8 °C 3,9 °C 96 % 1024,4 hPa 0,0 mm 5,8 km/h (2 Bft) O-NO 71 ° 0 min 0,000 mm 0,0 UV-I 0 W/m² 3,2 °C 2,4 °C 8,0 km/h (2 Bft)
25.03.2017 04:59 3,8 °C 3,9 °C 96 % 1024,4 hPa 0,0 mm 4,9 km/h (1 Bft) O-NO 77 ° 0 min 0,000 mm 0,0 UV-I 0 W/m² 3,2 °C 2,8 °C 8,0 km/h (2 Bft)
25.03.2017 05:00 3,8 °C 3,9 °C 96 % 1024,4 hPa 0,0 mm 6,8 km/h (2 Bft) O-NO 70 ° 0 min 0,000 mm 0,0 UV-I 0 W/m² 3,2 °C 2,1 °C 8,0 km/h (2 Bft)
25.03.2017 05:01 3,8 °C 3,8 °C 96 % 1024,4 hPa 0,0 mm 4,7 km/h (1 Bft) O 80 ° 0 min 0,000 mm 0,0 UV-I 0 W/m² 3,2 °C 2,8 °C 8,0 km/h (2 Bft)
25.03.2017 05:02 3,8 °C 3,8 °C 96 % 1024,4 hPa 0,0 mm 8,3 km/h (2 Bft) O 84 ° 0 min 0,000 mm 0,0 UV-I 0 W/m² 3,2 °C 1,6 °C 14,5 km/h (3 Bft)
25.03.2017 05:03 3,8 °C 3,8 °C 96 % 1024,4 hPa 0,0 mm 9,8 km/h (2 Bft) O 80 ° 0 min 0,000 mm 0,0 UV-I 0 W/m² 3,2 °C 1,3 °C 14,5 km/h (3 Bft)
25.03.2017 05:04 3,8 °C 3,8 °C 96 % 1024,4 hPa 0,0 mm 5,8 km/h (2 Bft) O-NO 59 ° 0 min 0,000 mm 0,0 UV-I 0 W/m² 3,2 °C 2,4 °C 8,0 km/h (2 Bft)
25.03.2017 05:05 3,8 °C 3,8 °C 96 % 1024,4 hPa 0,0 mm 6,9 km/h (2 Bft) O-NO 74 ° 0 min 0,000 mm 0,0 UV-I 0 W/m² 3,2 °C 2,0 °C 11,3 km/h (2 Bft)
25.03.2017 05:06 3,8 °C 3,8 °C 96 % 1024,4 hPa 0,0 mm 7,5 km/h (2 Bft) O-NO 71 ° 0 min 0,000 mm 0,0 UV-I 0 W/m² 3,2 °C 1,9 °C 14,5 km/h (3 Bft)
25.03.2017 05:07 3,8 °C 3,8 °C 96 % 1024,4 hPa 0,0 mm 5,4 km/h (1 Bft) NO 46 ° 0 min 0,000 mm 0,0 UV-I 0 W/m² 3,2 °C 2,6 °C 8,0 km/h (2 Bft)
25.03.2017 05:08 3,8 °C 3,8 °C 96 % 1024,4 hPa 0,0 mm 10,0 km/h (2 Bft) NO 53 ° 0 min 0,000 mm 0,0 UV-I 0 W/m² 3,2 °C 1,2 °C 14,5 km/h (3 Bft)
25.03.2017 05:09 3,8 °C 3,8 °C 96 % 1024,4 hPa 0,0 mm 6,2 km/h (2 Bft) O-NO 63 ° 0 min 0,000 mm 0,0 UV-I 0 W/m² 3,2 °C 2,3 °C 11,3 km/h (2 Bft)
25.03.2017 05:10 3,8 °C 3,8 °C 96 % 1024,4 hPa 0,0 mm 7,2 km/h (2 Bft) O-NO 78 ° 0 min 0,000 mm 0,0 UV-I 0 W/m² 3,2 °C 2,0 °C 9,7 km/h (2 Bft)
25.03.2017 05:11 3,8 °C 3,8 °C 96 % 1024,4 hPa 0,0 mm 5,0 km/h (1 Bft) NO 40 ° 0 min 0,000 mm 0,0 UV-I 0 W/m² 3,2 °C 2,7 °C 8,0 km/h (2 Bft)
25.03.2017 05:12 3,8 °C 3,8 °C 96 % 1024,3 hPa 0,0 mm 2,3 km/h (1 Bft) NO 40 ° 0 min 0,000 mm 0,0 UV-I 0 W/m² 3,2 °C 3,8 °C 4,8 km/h (1 Bft)
25.03.2017 05:13 3,8 °C 3,8 °C 96 % 1024,3 hPa 0,0 mm 1,0 km/h (0 Bft) NO 40 ° 0 min 0,000 mm 0,0 UV-I 0 W/m² 3,2 °C 3,8 °C 3,2 km/h (1 Bft)
25.03.2017 05:14 3,8 °C 3,8 °C 96 % 1024,3 hPa 0,0 mm 4,0 km/h (1 Bft) O-NO 63 ° 0 min 0,000 mm 0,0 UV-I 0 W/m² 3,2 °C 3,8 °C 4,8 km/h (1 Bft)
25.03.2017 05:15 3,8 °C 3,8 °C 96 % 1024,3 hPa 0,0 mm 4,5 km/h (1 Bft) O-NO 59 ° 0 min 0,000 mm 0,0 UV-I 0 W/m² 3,2 °C 3,8 °C 9,7 km/h (2 Bft)
25.03.2017 05:16 3,8 °C 3,8 °C 96 % 1024,3 hPa 0,0 mm 7,8 km/h (2 Bft) NO 51 ° 0 min 0,000 mm 0,0 UV-I 0 W/m² 3,2 °C 1,8 °C 11,3 km/h (2 Bft)
25.03.2017 05:17 3,8 °C 3,8 °C 96 % 1024,3 hPa 0,0 mm 5,1 km/h (1 Bft) O-NO 67 ° 0 min 0,000 mm 0,0 UV-I 0 W/m² 3,2 °C 2,7 °C 8,0 km/h (2 Bft)
25.03.2017 05:18 3,8 °C 3,8 °C 96 % 1024,3 hPa 0,0 mm 4,4 km/h (1 Bft) O-NO 65 ° 0 min 0,000 mm 0,0 UV-I 0 W/m² 3,2 °C 3,8 °C 8,0 km/h (2 Bft)
25.03.2017 05:19 3,8 °C 3,8 °C 96 % 1024,3 hPa 0,0 mm 3,8 km/h (1 Bft) O-NO 65 ° 0 min 0,000 mm 0,0 UV-I 0 W/m² 3,2 °C 3,8 °C 4,8 km/h (1 Bft)
25.03.2017 05:20 3,8 °C 3,8 °C 96 % 1024,3 hPa 0,0 mm 4,7 km/h (1 Bft) NO 49 ° 0 min 0,000 mm 0,0 UV-I 0 W/m² 3,2 °C 2,8 °C 6,4 km/h (2 Bft)
25.03.2017 05:21 3,8 °C 3,8 °C 96 % 1024,3 hPa 0,0 mm 5,0 km/h (1 Bft) NO 45 ° 0 min 0,000 mm 0,0 UV-I 0 W/m² 3,2 °C 2,7 °C 9,7 km/h (2 Bft)
25.03.2017 05:22 3,8 °C 3,8 °C 96 % 1024,3 hPa 0,0 mm 7,3 km/h (2 Bft) NO 56 ° 0 min 0,000 mm 0,0 UV-I 0 W/m² 3,2 °C 1,9 °C 11,3 km/h (2 Bft)
25.03.2017 05:23 3,8 °C 3,8 °C 96 % 1024,3 hPa 0,0 mm 6,6 km/h (2 Bft) O-NO 61 ° 0 min 0,000 mm 0,0 UV-I 0 W/m² 3,2 °C 2,1 °C 12,9 km/h (3 Bft)
25.03.2017 05:24 3,8 °C 3,8 °C 96 % 1024,3 hPa 0,0 mm 8,7 km/h (2 Bft) O-NO 69 ° 0 min 0,000 mm 0,0 UV-I 0 W/m² 3,2 °C 1,5 °C 12,9 km/h (3 Bft)
25.03.2017 05:25 3,8 °C 3,8 °C 96 % 1024,3 hPa 0,0 mm 7,8 km/h (2 Bft) O-NO 75 ° 0 min 0,000 mm 0,0 UV-I 0 W/m² 3,2 °C 1,8 °C 12,9 km/h (3 Bft)
25.03.2017 05:26 3,8 °C 3,8 °C 96 % 1024,3 hPa 0,0 mm 4,4 km/h (1 Bft) O 82 ° 0 min 0,000 mm 0,0 UV-I 0 W/m² 3,2 °C 3,8 °C 6,4 km/h (2 Bft)
25.03.2017 05:27 3,8 °C 3,8 °C 96 % 1024,3 hPa 0,0 mm 6,2 km/h (2 Bft) NO 55 ° 0 min 0,000 mm 0,0 UV-I 0 W/m² 3,2 °C 2,3 °C 8,0 km/h (2 Bft)
25.03.2017 05:28 3,8 °C 3,8 °C 96 % 1024,3 hPa 0,0 mm 9,5 km/h (2 Bft) O 88 ° 0 min 0,000 mm 0,0 UV-I 0 W/m² 3,2 °C 1,3 °C 14,5 km/h (3 Bft)
25.03.2017 05:29 3,8 °C 3,8 °C 96 % 1024,2 hPa 0,0 mm 7,2 km/h (2 Bft) O-NO 69 ° 0 min 0,000 mm 0,0 UV-I 0 W/m² 3,2 °C 2,0 °C 11,3 km/h (2 Bft)
25.03.2017 05:30 3,8 °C 3,8 °C 96 % 1024,3 hPa 0,0 mm 6,0 km/h (2 Bft) O-NO 68 ° 0 min 0,000 mm 0,0 UV-I 0 W/m² 3,2 °C 2,3 °C 9,7 km/h (2 Bft)
25.03.2017 05:31 3,8 °C 3,8 °C 96 % 1024,3 hPa 0,0 mm 4,3 km/h (1 Bft) O-NO 72 ° 0 min 0,000 mm 0,0 UV-I 0 W/m² 3,2 °C 3,8 °C 6,4 km/h (2 Bft)
25.03.2017 05:32 3,8 °C 3,8 °C 96 % 1024,3 hPa 0,0 mm 2,9 km/h (1 Bft) O-NO 71 ° 0 min 0,000 mm 0,0 UV-I 0 W/m² 3,2 °C 3,8 °C 4,8 km/h (1 Bft)
25.03.2017 05:33 3,8 °C 3,8 °C 96 % 1024,3 hPa 0,0 mm 3,9 km/h (1 Bft) NO 54 ° 0 min 0,000 mm 0,0 UV-I 0 W/m² 3,2 °C 3,8 °C 8,0 km/h (2 Bft)
25.03.2017 05:34 3,8 °C 3,8 °C 96 % 1024,3 hPa 0,0 mm 5,4 km/h (1 Bft) O-NO 65 ° 0 min 0,000 mm 0,0 UV-I 0 W/m² 3,2 °C 2,6 °C 8,0 km/h (2 Bft)
25.03.2017 05:35 3,8 °C 3,8 °C 96 % 1024,3 hPa 0,0 mm 4,2 km/h (1 Bft) O-NO 59 ° 0 min 0,000 mm 0,0 UV-I 0 W/m² 3,2 °C 3,8 °C 4,8 km/h (1 Bft)
25.03.2017 05:36 3,8 °C 3,8 °C 96 % 1024,3 hPa 0,0 mm 5,6 km/h (1 Bft) O-NO 60 ° 0 min 0,000 mm 0,0 UV-I 0 W/m² 3,2 °C 2,5 °C 8,0 km/h (2 Bft)
25.03.2017 05:37 3,8 °C 3,8 °C 96 % 1024,3 hPa 0,0 mm 4,8 km/h (1 Bft) NO 36 ° 0 min 0,000 mm 0,0 UV-I 0 W/m² 3,2 °C 2,8 °C 6,4 km/h (2 Bft)
25.03.2017 05:38 3,8 °C 3,8 °C 96 % 1024,3 hPa 0,0 mm 3,3 km/h (1 Bft) NO 49 ° 0 min 0,000 mm 0,0 UV-I 0 W/m² 3,2 °C 3,8 °C 4,8 km/h (1 Bft)
25.03.2017 05:39 3,8 °C 3,8 °C 96 % 1024,3 hPa 0,0 mm 3,4 km/h (1 Bft) O-NO 71 ° 0 min 0,000 mm 0,0 UV-I 0 W/m² 3,2 °C 3,8 °C 6,4 km/h (2 Bft)
25.03.2017 05:40 3,8 °C 3,8 °C 96 % 1024,3 hPa 0,0 mm 6,7 km/h (2 Bft) O-NO 78 ° 0 min 0,000 mm 0,0 UV-I 0 W/m² 3,2 °C 2,1 °C 8,0 km/h (2 Bft)
25.03.2017 05:41 3,8 °C 3,8 °C 96 % 1024,3 hPa 0,0 mm 6,2 km/h (2 Bft) O 82 ° 0 min 0,000 mm 0,0 UV-I 0 W/m² 3,2 °C 2,3 °C 11,3 km/h (2 Bft)
25.03.2017 05:42 3,8 °C 3,8 °C 96 % 1024,3 hPa 0,0 mm 5,4 km/h (1 Bft) N-NO 30 ° 0 min 0,000 mm 0,0 UV-I 0 W/m² 3,2 °C 2,6 °C 8,0 km/h (2 Bft)
25.03.2017 05:43 3,8 °C 3,8 °C 96 % 1024,3 hPa 0,0 mm 4,8 km/h (1 Bft) O 82 ° 0 min 0,000 mm 0,0 UV-I 0 W/m² 3,2 °C 2,8 °C 8,0 km/h (2 Bft)
25.03.2017 05:44 3,8 °C 3,8 °C 96 % 1024,3 hPa 0,0 mm 7,2 km/h (2 Bft) O-NO 78 ° 0 min 0,000 mm 0,0 UV-I 0 W/m² 3,2 °C 2,0 °C 8,0 km/h (2 Bft)
25.03.2017 05:45 3,8 °C 3,8 °C 96 % 1024,3 hPa 0,0 mm 5,0 km/h (1 Bft) O 81 ° 0 min 0,000 mm 0,0 UV-I 0 W/m² 3,2 °C 2,7 °C 9,7 km/h (2 Bft)
25.03.2017 05:46 3,8 °C 3,8 °C 96 % 1024,2 hPa 0,0 mm 5,4 km/h (1 Bft) O 93 ° 0 min 0,000 mm 0,0 UV-I 0 W/m² 3,2 °C 2,6 °C 6,4 km/h (2 Bft)
25.03.2017 05:47 3,8 °C 3,8 °C 96 % 1024,2 hPa 0,0 mm 4,4 km/h (1 Bft) O-NO 75 ° 0 min 0,000 mm 0,0 UV-I 0 W/m² 3,2 °C 3,8 °C 8,0 km/h (2 Bft)
25.03.2017 05:48 3,8 °C 3,8 °C 96 % 1024,2 hPa 0,0 mm 6,4 km/h (2 Bft) NO 44 ° 0 min 0,000 mm 0,0 UV-I 0 W/m² 3,2 °C 2,2 °C 8,0 km/h (2 Bft)
25.03.2017 05:49 3,8 °C 3,8 °C 96 % 1024,2 hPa 0,0 mm 3,4 km/h (1 Bft) NO 54 ° 0 min 0,000 mm 0,0 UV-I 0 W/m² 3,2 °C 3,8 °C 4,8 km/h (1 Bft)
25.03.2017 05:50 3,8 °C 3,8 °C 96 % 1024,2 hPa 0,0 mm 4,2 km/h (1 Bft) O-NO 68 ° 0 min 0,000 mm 0,0 UV-I 0 W/m² 3,2 °C 3,8 °C 6,4 km/h (2 Bft)
25.03.2017 05:51 3,8 °C 3,8 °C 96 % 1024,2 hPa 0,0 mm 5,3 km/h (1 Bft) O-NO 74 ° 0 min 0,000 mm 0,0 UV-I 0 W/m² 3,2 °C 2,6 °C 9,7 km/h (2 Bft)
25.03.2017 05:52 3,8 °C 3,8 °C 96 % 1024,2 hPa 0,0 mm 6,9 km/h (2 Bft) O 92 ° 0 min 0,000 mm 0,0 UV-I 0 W/m² 3,2 °C 2,0 °C 11,3 km/h (2 Bft)
25.03.2017 05:53 3,8 °C 3,8 °C 96 % 1024,2 hPa 0,0 mm 6,0 km/h (2 Bft) O-NO 76 ° 0 min 0,000 mm 0,0 UV-I 0 W/m² 3,2 °C 2,3 °C 8,0 km/h (2 Bft)
25.03.2017 05:54 3,8 °C 3,8 °C 96 % 1024,2 hPa 0,0 mm 5,8 km/h (2 Bft) O-NO 71 ° 0 min 0,000 mm 0,0 UV-I 0 W/m² 3,2 °C 2,4 °C 8,0 km/h (2 Bft)
25.03.2017 05:55 3,8 °C 3,8 °C 96 % 1024,2 hPa 0,0 mm 7,5 km/h (2 Bft) O-NO 63 ° 0 min 0,000 mm 0,0 UV-I 0 W/m² 3,2 °C 1,9 °C 12,9 km/h (3 Bft)
25.03.2017 05:56 3,8 °C 3,8 °C 96 % 1024,2 hPa 0,0 mm 7,1 km/h (2 Bft) O-NO 77 ° 0 min 0,000 mm 0,0 UV-I 0 W/m² 3,2 °C 2,0 °C 9,7 km/h (2 Bft)
25.03.2017 05:57 3,8 °C 3,8 °C 96 % 1024,2 hPa 0,0 mm 5,2 km/h (1 Bft) O-NO 67 ° 0 min 0,000 mm 0,0 UV-I 0 W/m² 3,2 °C 2,6 °C 6,4 km/h (2 Bft)
25.03.2017 05:58 3,8 °C 3,8 °C 96 % 1024,2 hPa 0,0 mm 2,8 km/h (1 Bft) O-SO 103 ° 0 min 0,000 mm 0,0 UV-I 0 W/m² 3,2 °C 3,8 °C 4,8 km/h (1 Bft)
25.03.2017 05:59 3,8 °C 3,8 °C 96 % 1024,2 hPa 0,0 mm 5,0 km/h (1 Bft) O-NO 61 ° 0 min 0,000 mm 0,0 UV-I 0 W/m² 3,2 °C 2,7 °C 8,0 km/h (2 Bft)
25.03.2017 06:00 3,8 °C 3,8 °C 96 % 1024,2 hPa 0,0 mm 6,3 km/h (2 Bft) O-NO 69 ° 0 min 0,000 mm 0,0 UV-I 0 W/m² 3,2 °C 2,2 °C 9,7 km/h (2 Bft)
25.03.2017 06:01 3,8 °C 3,8 °C 96 % 1024,2 hPa 0,0 mm 5,2 km/h (1 Bft) O-NO 66 ° 0 min 0,000 mm 0,0 UV-I 0 W/m² 3,2 °C 2,6 °C 6,4 km/h (2 Bft)
25.03.2017 06:02 3,8 °C 3,8 °C 96 % 1024,2 hPa 0,0 mm 5,7 km/h (1 Bft) O-NO 69 ° 0 min 0,000 mm 0,0 UV-I 0 W/m² 3,2 °C 2,5 °C 9,7 km/h (2 Bft)
25.03.2017 06:03 3,8 °C 3,8 °C 96 % 1024,2 hPa 0,0 mm 5,2 km/h (1 Bft) NO 47 ° 0 min 0,000 mm 0,0 UV-I 0 W/m² 3,2 °C 2,6 °C 9,7 km/h (2 Bft)
25.03.2017 06:04 3,8 °C 3,8 °C 96 % 1024,2 hPa 0,0 mm 5,3 km/h (1 Bft) O-NO 77 ° 0 min 0,000 mm 0,0 UV-I 0 W/m² 3,2 °C 2,6 °C 8,0 km/h (2 Bft)
25.03.2017 06:05 3,8 °C 3,8 °C 96 % 1024,2 hPa 0,0 mm 7,8 km/h (2 Bft) O-NO 58 ° 0 min 0,000 mm 0,0 UV-I 0 W/m² 3,2 °C 1,8 °C 11,3 km/h (2 Bft)
25.03.2017 06:06 3,8 °C 3,8 °C 96 % 1024,2 hPa 0,0 mm 4,8 km/h (1 Bft) O-NO 68 ° 0 min 0,000 mm 0,0 UV-I 0 W/m² 3,2 °C 2,8 °C 8,0 km/h (2 Bft)
25.03.2017 06:07 3,8 °C 3,8 °C 96 % 1024,3 hPa 0,0 mm 3,8 km/h (1 Bft) O-NO 59 ° 0 min 0,000 mm 0,0 UV-I 0 W/m² 3,2 °C 3,8 °C 6,4 km/h (2 Bft)
25.03.2017 06:08 3,8 °C 3,8 °C 96 % 1024,2 hPa 0,0 mm 4,5 km/h (1 Bft) O-NO 67 ° 0 min 0,000 mm 0,0 UV-I 0 W/m² 3,2 °C 3,8 °C 6,4 km/h (2 Bft)
25.03.2017 06:09 3,8 °C 3,8 °C 96 % 1024,2 hPa 0,0 mm 4,1 km/h (1 Bft) N-NO 30 ° 0 min 0,000 mm 0,0 UV-I 0 W/m² 3,2 °C 3,8 °C 6,4 km/h (2 Bft)
25.03.2017 06:10 3,8 °C 3,8 °C 96 % 1024,2 hPa 0,0 mm 3,2 km/h (1 Bft) NO 49 ° 0 min 0,000 mm 0,0 UV-I 0 W/m² 3,2 °C 3,8 °C 4,8 km/h (1 Bft)
25.03.2017 06:11 3,8 °C 3,8 °C 96 % 1024,2 hPa 0,0 mm 3,4 km/h (1 Bft) O-NO 72 ° 0 min 0,000 mm 0,0 UV-I 0 W/m² 3,2 °C 3,8 °C 4,8 km/h (1 Bft)
25.03.2017 06:12 3,8 °C 3,8 °C 96 % 1024,2 hPa 0,0 mm 2,5 km/h (1 Bft) O 86 ° 0 min 0,000 mm 0,0 UV-I 0 W/m² 3,2 °C 3,8 °C 3,2 km/h (1 Bft)
25.03.2017 06:13 3,8 °C 3,8 °C 96 % 1024,2 hPa 0,0 mm 3,8 km/h (1 Bft) O-NO 74 ° 0 min 0,000 mm 0,0 UV-I 0 W/m² 3,2 °C 3,8 °C 4,8 km/h (1 Bft)
25.03.2017 06:14 3,8 °C 3,8 °C 96 % 1024,3 hPa 0,0 mm 5,2 km/h (1 Bft) N-NO 20 ° 0 min 0,000 mm 0,0 UV-I 0 W/m² 3,2 °C 2,6 °C 9,7 km/h (2 Bft)
25.03.2017 06:15 3,8 °C 3,8 °C 96 % 1024,2 hPa 0,0 mm 4,6 km/h (1 Bft) O-NO 59 ° 0 min 0,000 mm 0,0 UV-I 0 W/m² 3,2 °C 2,9 °C 6,4 km/h (2 Bft)
25.03.2017 06:16 3,8 °C 3,8 °C 96 % 1024,2 hPa 0,0 mm 5,6 km/h (1 Bft) O-NO 71 ° 0 min 0,000 mm 0,0 UV-I 0 W/m² 3,2 °C 2,5 °C 8,0 km/h (2 Bft)
25.03.2017 06:17 3,8 °C 3,8 °C 96 % 1024,2 hPa 0,0 mm 2,1 km/h (1 Bft) O-NO 71 ° 0 min 0,000 mm 0,0 UV-I 0 W/m² 3,2 °C 3,8 °C 3,2 km/h (1 Bft)
25.03.2017 06:18 3,8 °C 3,8 °C 96 % 1024,2 hPa 0,0 mm 4,3 km/h (1 Bft) O-SO 111 ° 0 min 0,000 mm 0,0 UV-I 0 W/m² 3,2 °C 3,8 °C 6,4 km/h (2 Bft)
25.03.2017 06:19 3,8 °C 3,8 °C 96 % 1024,2 hPa 0,0 mm 4,0 km/h (1 Bft) O-NO 67 ° 0 min 0,000 mm 0,0 UV-I 0 W/m² 3,2 °C 3,8 °C 8,0 km/h (2 Bft)
25.03.2017 06:20 3,8 °C 3,8 °C 96 % 1024,2 hPa 0,0 mm 2,4 km/h (1 Bft) NO 43 ° 0 min 0,000 mm 0,0 UV-I 0 W/m² 3,2 °C 3,8 °C 4,8 km/h (1 Bft)
25.03.2017 06:21 3,8 °C 3,8 °C 96 % 1024,1 hPa 0,0 mm 2,5 km/h (1 Bft) NO 44 ° 0 min 0,000 mm 0,0 UV-I 0 W/m² 3,2 °C 3,8 °C 3,2 km/h (1 Bft)
25.03.2017 06:22 3,8 °C 3,8 °C 96 % 1024,2 hPa 0,0 mm 3,9 km/h (1 Bft) O-NO 67 ° 0 min 0,000 mm 0,0 UV-I 0 W/m² 3,2 °C 3,8 °C 6,4 km/h (2 Bft)
25.03.2017 06:23 3,8 °C 3,8 °C 96 % 1024,2 hPa 0,0 mm 5,8 km/h (2 Bft) O-NO 60 ° 0 min 0,000 mm 0,0 UV-I 0 W/m² 3,2 °C 2,4 °C 8,0 km/h (2 Bft)
25.03.2017 06:24 3,8 °C 3,8 °C 96 % 1024,2 hPa 0,0 mm 3,2 km/h (1 Bft) O-NO 60 ° 0 min 0,000 mm 0,0 UV-I 0 W/m² 3,2 °C 3,8 °C 4,8 km/h (1 Bft)
25.03.2017 06:25 3,8 °C 3,8 °C 96 % 1024,2 hPa 0,0 mm 3,6 km/h (1 Bft) O-NO 60 ° 0 min 0,000 mm 0,0 UV-I 0 W/m² 3,2 °C 3,8 °C 4,8 km/h (1 Bft)
25.03.2017 06:26 3,8 °C 3,8 °C 96 % 1024,1 hPa 0,0 mm 2,3 km/h (1 Bft) O-NO 60 ° 0 min 0,000 mm 0,0 UV-I 0 W/m² 3,2 °C 3,8 °C 3,2 km/h (1 Bft)
25.03.2017 06:27 3,8 °C 3,8 °C 96 % 1024,1 hPa 0,0 mm 1,7 km/h (1 Bft) O-NO 60 ° 0 min 0,000 mm 0,0 UV-I 0 W/m² 3,2 °C 3,8 °C 4,8 km/h (1 Bft)
25.03.2017 06:28 3,8 °C 3,8 °C 96 % 1024,1 hPa 0,0 mm 0,0 km/h (0 Bft) O-NO 60 ° 0 min 0,000 mm 0,0 UV-I 0 W/m² 3,2 °C 3,8 °C 0,0 km/h (0 Bft)
25.03.2017 06:29 3,8 °C 3,8 °C 96 % 1024,2 hPa 0,0 mm 0,0 km/h (0 Bft) O-NO 60 ° 0 min 0,000 mm 0,0 UV-I 0 W/m² 3,2 °C 3,8 °C 0,0 km/h (0 Bft)
25.03.2017 06:30 3,8 °C 3,8 °C 96 % 1024,1 hPa 0,0 mm 3,6 km/h (1 Bft) O-NO 63 ° 0 min 0,000 mm 0,0 UV-I 0 W/m² 3,2 °C 3,8 °C 6,4 km/h (2 Bft)
25.03.2017 06:31 3,8 °C 3,8 °C 96 % 1024,1 hPa 0,0 mm 2,7 km/h (1 Bft) O-NO 63 ° 0 min 0,000 mm 0,0 UV-I 0 W/m² 3,2 °C 3,8 °C 4,8 km/h (1 Bft)
25.03.2017 06:32 3,8 °C 3,8 °C 96 % 1024,1 hPa 0,0 mm 2,4 km/h (1 Bft) O-NO 63 ° 0 min 0,000 mm 0,0 UV-I 5 W/m² 3,2 °C 3,8 °C 4,8 km/h (1 Bft)
25.03.2017 06:33 3,8 °C 3,8 °C 96 % 1024,1 hPa 0,0 mm 2,3 km/h (1 Bft) O-NO 66 ° 0 min 0,000 mm 0,0 UV-I 5 W/m² 3,2 °C 3,8 °C 8,0 km/h (2 Bft)
25.03.2017 06:34 3,8 °C 3,8 °C 96 % 1024,1 hPa 0,0 mm 5,2 km/h (1 Bft) O-NO 67 ° 0 min 0,000 mm 0,0 UV-I 5 W/m² 3,2 °C 2,6 °C 8,0 km/h (2 Bft)
25.03.2017 06:35 3,8 °C 3,8 °C 96 % 1024,1 hPa 0,0 mm 3,2 km/h (1 Bft) O-NO 67 ° 0 min 0,000 mm 0,0 UV-I 5 W/m² 3,2 °C 3,8 °C 4,8 km/h (1 Bft)
25.03.2017 06:36 3,8 °C 3,8 °C 96 % 1024,1 hPa 0,0 mm 4,0 km/h (1 Bft) NO 49 ° 0 min 0,000 mm 0,0 UV-I 5 W/m² 3,2 °C 3,8 °C 8,0 km/h (2 Bft)
25.03.2017 06:37 3,8 °C 3,8 °C 96 % 1024,0 hPa 0,0 mm 5,4 km/h (1 Bft) O-NO 59 ° 0 min 0,000 mm 0,0 UV-I 5 W/m² 3,2 °C 2,6 °C 6,4 km/h (2 Bft)
25.03.2017 06:38 3,8 °C 3,8 °C 96 % 1024,0 hPa 0,0 mm 2,3 km/h (1 Bft) O-NO 61 ° 0 min 0,000 mm 0,0 UV-I 7 W/m² 3,2 °C 3,8 °C 4,8 km/h (1 Bft)
25.03.2017 06:39 3,8 °C 3,8 °C 96 % 1024,0 hPa 0,0 mm 3,3 km/h (1 Bft) O-NO 61 ° 0 min 0,000 mm 0,0 UV-I 7 W/m² 3,2 °C 3,8 °C 4,8 km/h (1 Bft)
25.03.2017 06:40 3,8 °C 3,8 °C 96 % 1024,0 hPa 0,0 mm 3,2 km/h (1 Bft) O-NO 61 ° 0 min 0,000 mm 0,0 UV-I 7 W/m² 3,2 °C 3,8 °C 4,8 km/h (1 Bft)
25.03.2017 06:41 3,8 °C 3,8 °C 96 % 1024,1 hPa 0,0 mm 3,8 km/h (1 Bft) O-NO 57 ° 0 min 0,000 mm 0,0 UV-I 7 W/m² 3,2 °C 3,8 °C 4,8 km/h (1 Bft)
25.03.2017 06:42 3,8 °C 3,8 °C 96 % 1023,9 hPa 0,0 mm 6,2 km/h (2 Bft) O-NO 66 ° 0 min 0,000 mm 0,0 UV-I 7 W/m² 3,2 °C 2,3 °C 9,7 km/h (2 Bft)
25.03.2017 06:43 3,8 °C 3,8 °C 96 % 1024,1 hPa 0,0 mm 2,6 km/h (1 Bft) O-NO 61 ° 0 min 0,000 mm 0,0 UV-I 7 W/m² 3,2 °C 3,8 °C 4,8 km/h (1 Bft)
25.03.2017 06:44 3,8 °C 3,8 °C 96 % 1024,0 hPa 0,0 mm 4,5 km/h (1 Bft) O 85 ° 0 min 0,000 mm 0,0 UV-I 7 W/m² 3,2 °C 3,8 °C 6,4 km/h (2 Bft)
25.03.2017 06:45 3,8 °C 3,8 °C 96 % 1024,0 hPa 0,0 mm 5,0 km/h (1 Bft) O-NO 62 ° 0 min 0,000 mm 0,0 UV-I 7 W/m² 3,2 °C 2,7 °C 6,4 km/h (2 Bft)
25.03.2017 06:46 3,8 °C 3,8 °C 96 % 1024,0 hPa 0,0 mm 2,8 km/h (1 Bft) NO 52 ° 0 min 0,000 mm 0,0 UV-I 7 W/m² 3,2 °C 3,8 °C 6,4 km/h (2 Bft)
25.03.2017 06:47 3,9 °C 3,9 °C 96 % 1024,0 hPa 0,0 mm 4,2 km/h (1 Bft) NO 50 ° 0 min 0,000 mm 0,0 UV-I 7 W/m² 3,3 °C 3,9 °C 6,4 km/h (2 Bft)
25.03.2017 06:48 3,8 °C 3,9 °C 96 % 1024,0 hPa 0,0 mm 4,6 km/h (1 Bft) NO 51 ° 0 min 0,000 mm 0,0 UV-I 9 W/m² 3,2 °C 2,9 °C 6,4 km/h (2 Bft)
25.03.2017 06:49 3,8 °C 3,9 °C 96 % 1024,0 hPa 0,0 mm 4,5 km/h (1 Bft) O-NO 57 ° 0 min 0,000 mm 0,0 UV-I 9 W/m² 3,2 °C 3,8 °C 8,0 km/h (2 Bft)
25.03.2017 06:50 3,8 °C 3,8 °C 96 % 1024,0 hPa 0,0 mm 3,4 km/h (1 Bft) O-NO 63 ° 0 min 0,000 mm 0,0 UV-I 11 W/m² 3,2 °C 3,8 °C 4,8 km/h (1 Bft)
25.03.2017 06:51 3,8 °C 3,9 °C 96 % 1024,1 hPa 0,0 mm 5,3 km/h (1 Bft) O-NO 74 ° 0 min 0,000 mm 0,0 UV-I 12 W/m² 3,2 °C 2,6 °C 8,0 km/h (2 Bft)
25.03.2017 06:52 3,8 °C 3,8 °C 96 % 1024,1 hPa 0,2 mm 3,8 km/h (1 Bft) O-NO 69 ° 0 min 0,000 mm 0,0 UV-I 12 W/m² 3,2 °C 3,8 °C 6,4 km/h (2 Bft)
25.03.2017 06:53 3,8 °C 3,8 °C 96 % 1024,1 hPa 0,0 mm 4,2 km/h (1 Bft) N-NO 31 ° 0 min 0,000 mm 0,0 UV-I 12 W/m² 3,2 °C 3,8 °C 4,8 km/h (1 Bft)
25.03.2017 06:54 3,8 °C 3,8 °C 96 % 1024,1 hPa 0,0 mm 5,8 km/h (2 Bft) O-NO 62 ° 0 min 0,000 mm 0,0 UV-I 12 W/m² 3,2 °C 2,4 °C 8,0 km/h (2 Bft)
25.03.2017 06:55 3,8 °C 3,8 °C 96 % 1024,1 hPa 0,0 mm 5,0 km/h (1 Bft) NO 55 ° 0 min 0,000 mm 0,0 UV-I 12 W/m² 3,2 °C 2,7 °C 6,4 km/h (2 Bft)
25.03.2017 06:56 3,8 °C 3,8 °C 96 % 1024,1 hPa 0,0 mm 4,9 km/h (1 Bft) O-NO 62 ° 0 min 0,000 mm 0,0 UV-I 14 W/m² 3,2 °C 2,8 °C 6,4 km/h (2 Bft)
25.03.2017 06:57 3,8 °C 3,8 °C 96 % 1024,1 hPa 0,0 mm 5,3 km/h (1 Bft) NO 40 ° 0 min 0,000 mm 0,0 UV-I 14 W/m² 3,2 °C 2,6 °C 8,0 km/h (2 Bft)
25.03.2017 06:58 3,8 °C 3,8 °C 96 % 1024,1 hPa 0,0 mm 5,0 km/h (1 Bft) O-NO 65 ° 0 min 0,000 mm 0,0 UV-I 16 W/m² 3,2 °C 2,7 °C 11,3 km/h (2 Bft)
25.03.2017 06:59 3,8 °C 3,8 °C 96 % 1024,1 hPa 0,0 mm 7,1 km/h (2 Bft) O-NO 61 ° 0 min 0,000 mm 0,0 UV-I 16 W/m² 3,2 °C 2,0 °C 12,9 km/h (3 Bft)
25.03.2017 07:00 3,8 °C 3,8 °C 96 % 1024,1 hPa 0,0 mm 7,0 km/h (2 Bft) O 97 ° 0 min 0,000 mm 0,0 UV-I 16 W/m² 3,2 °C 2,0 °C 9,7 km/h (2 Bft)
25.03.2017 07:01 3,8 °C 3,8 °C 96 % 1024,1 hPa 0,0 mm 5,7 km/h (1 Bft) O-NO 70 ° 0 min 0,000 mm 0,0 UV-I 16 W/m² 3,2 °C 2,5 °C 9,7 km/h (2 Bft)
25.03.2017 07:02 3,8 °C 3,8 °C 96 % 1024,1 hPa 0,0 mm 6,3 km/h (2 Bft) NO 45 ° 0 min 0,000 mm 0,0 UV-I 16 W/m² 3,2 °C 2,2 °C 8,0 km/h (2 Bft)
25.03.2017 07:03 3,8 °C 3,8 °C 96 % 1024,1 hPa 0,0 mm 4,3 km/h (1 Bft) O-SO 104 ° 0 min 0,000 mm 0,0 UV-I 16 W/m² 3,2 °C 3,8 °C 8,0 km/h (2 Bft)
25.03.2017 07:04 3,8 °C 3,8 °C 96 % 1024,1 hPa 0,0 mm 4,3 km/h (1 Bft) NO 44 ° 0 min 0,000 mm 0,0 UV-I 16 W/m² 3,2 °C 3,8 °C 6,4 km/h (2 Bft)
25.03.2017 07:05 3,8 °C 3,8 °C 96 % 1024,1 hPa 0,0 mm 5,4 km/h (1 Bft) O-NO 74 ° 0 min 0,000 mm 0,0 UV-I 16 W/m² 3,2 °C 2,6 °C 8,0 km/h (2 Bft)
25.03.2017 07:06 3,8 °C 3,8 °C 96 % 1024,1 hPa 0,0 mm 7,3 km/h (2 Bft) O 90 ° 0 min 0,000 mm 0,0 UV-I 18 W/m² 3,2 °C 1,9 °C 8,0 km/h (2 Bft)
25.03.2017 07:07 3,8 °C 3,8 °C 96 % 1024,1 hPa 0,0 mm 3,8 km/h (1 Bft) O-SO 106 ° 0 min 0,000 mm 0,0 UV-I 16 W/m² 3,2 °C 3,8 °C 6,4 km/h (2 Bft)
25.03.2017 07:08 3,8 °C 3,8 °C 96 % 1024,0 hPa 0,0 mm 4,0 km/h (1 Bft) NO 51 ° 0 min 0,000 mm 0,0 UV-I 16 W/m² 3,2 °C 3,8 °C 4,8 km/h (1 Bft)
25.03.2017 07:09 3,8 °C 3,8 °C 96 % 1024,1 hPa 0,0 mm 3,2 km/h (1 Bft) NO 43 ° 0 min 0,000 mm 0,0 UV-I 18 W/m² 3,2 °C 3,8 °C 4,8 km/h (1 Bft)
25.03.2017 07:10 3,8 °C 3,8 °C 96 % 1024,0 hPa 0,0 mm 3,9 km/h (1 Bft) N-NO 19 ° 0 min 0,000 mm 0,0 UV-I 18 W/m² 3,2 °C 3,8 °C 6,4 km/h (2 Bft)
25.03.2017 07:11 3,8 °C 3,9 °C 96 % 1024,0 hPa 0,0 mm 6,1 km/h (2 Bft) O-NO 58 ° 0 min 0,000 mm 0,0 UV-I 18 W/m² 3,2 °C 2,3 °C 9,7 km/h (2 Bft)
25.03.2017 07:12 3,9 °C 3,9 °C 96 % 1024,1 hPa 0,0 mm 6,7 km/h (2 Bft) NO 48 ° 0 min 0,000 mm 0,0 UV-I 19 W/m² 3,3 °C 2,2 °C 11,3 km/h (2 Bft)
25.03.2017 07:13 3,9 °C 3,9 °C 96 % 1024,1 hPa 0,0 mm 4,4 km/h (1 Bft) N-NO 32 ° 0 min 0,000 mm 0,0 UV-I 18 W/m² 3,3 °C 3,9 °C 6,4 km/h (2 Bft)
25.03.2017 07:14 3,9 °C 3,9 °C 96 % 1024,1 hPa 0,0 mm 4,8 km/h (1 Bft) O-NO 59 ° 0 min 0,000 mm 0,0 UV-I 19 W/m² 3,3 °C 2,9 °C 8,0 km/h (2 Bft)
25.03.2017 07:15 3,8 °C 3,9 °C 96 % 1024,1 hPa 0,0 mm 2,9 km/h (1 Bft) O-NO 59 ° 0 min 0,000 mm 0,0 UV-I 18 W/m² 3,2 °C 3,8 °C 4,8 km/h (1 Bft)
25.03.2017 07:16 3,8 °C 3,9 °C 96 % 1024,1 hPa 0,0 mm 2,0 km/h (1 Bft) O-NO 68 ° 0 min 0,000 mm 0,0 UV-I 19 W/m² 3,2 °C 3,8 °C 3,2 km/h (1 Bft)
25.03.2017 07:17 3,9 °C 3,9 °C 96 % 1024,1 hPa 0,0 mm 4,1 km/h (1 Bft) NO 54 ° 0 min 0,000 mm 0,0 UV-I 19 W/m² 3,3 °C 3,9 °C 6,4 km/h (2 Bft)
25.03.2017 07:18 3,9 °C 3,9 °C 96 % 1024,1 hPa 0,0 mm 4,2 km/h (1 Bft) NO 51 ° 0 min 0,000 mm 0,0 UV-I 19 W/m² 3,3 °C 3,9 °C 6,4 km/h (2 Bft)
25.03.2017 07:19 3,9 °C 3,9 °C 96 % 1024,1 hPa 0,0 mm 4,6 km/h (1 Bft) O-NO 58 ° 0 min 0,000 mm 0,0 UV-I 19 W/m² 3,3 °C 3,0 °C 6,4 km/h (2 Bft)
25.03.2017 07:20 3,9 °C 3,9 °C 96 % 1024,1 hPa 0,0 mm 4,2 km/h (1 Bft) N-NO 32 ° 0 min 0,000 mm 0,0 UV-I 21 W/m² 3,3 °C 3,9 °C 6,4 km/h (2 Bft)
25.03.2017 07:21 3,9 °C 3,9 °C 96 % 1024,1 hPa 0,0 mm 4,3 km/h (1 Bft) O-NO 64 ° 0 min 0,000 mm 0,0 UV-I 21 W/m² 3,3 °C 3,9 °C 8,0 km/h (2 Bft)
25.03.2017 07:22 3,9 °C 3,9 °C 96 % 1024,1 hPa 0,0 mm 3,1 km/h (1 Bft) O 81 ° 0 min 0,000 mm 0,0 UV-I 21 W/m² 3,3 °C 3,9 °C 6,4 km/h (2 Bft)
25.03.2017 07:23 3,9 °C 3,9 °C 96 % 1024,1 hPa 0,0 mm 4,4 km/h (1 Bft) NO 46 ° 0 min 0,000 mm 0,0 UV-I 21 W/m² 3,3 °C 3,9 °C 8,0 km/h (2 Bft)
25.03.2017 07:24 3,9 °C 3,9 °C 96 % 1024,1 hPa 0,0 mm 3,3 km/h (1 Bft) O-NO 57 ° 0 min 0,000 mm 0,0 UV-I 21 W/m² 3,3 °C 3,9 °C 6,4 km/h (2 Bft)
25.03.2017 07:25 3,9 °C 3,9 °C 96 % 1024,1 hPa 0,0 mm 5,0 km/h (1 Bft) NO 55 ° 0 min 0,000 mm 0,0 UV-I 21 W/m² 3,3 °C 2,8 °C 6,4 km/h (2 Bft)
25.03.2017 07:26 3,9 °C 3,9 °C 96 % 1024,1 hPa 0,0 mm 5,6 km/h (1 Bft) O-NO 72 ° 0 min 0,000 mm 0,0 UV-I 21 W/m² 3,3 °C 2,6 °C 6,4 km/h (2 Bft)
25.03.2017 07:27 3,9 °C 3,9 °C 96 % 1024,1 hPa 0,0 mm 6,6 km/h (2 Bft) O-NO 58 ° 0 min 0,000 mm 0,0 UV-I 21 W/m² 3,3 °C 2,3 °C 8,0 km/h (2 Bft)
25.03.2017 07:28 3,9 °C 3,9 °C 96 % 1024,0 hPa 0,0 mm 4,4 km/h (1 Bft) O-NO 67 ° 0 min 0,000 mm 0,0 UV-I 23 W/m² 3,3 °C 3,9 °C 6,4 km/h (2 Bft)
25.03.2017 07:29 3,9 °C 3,9 °C 96 % 1024,0 hPa 0,0 mm 5,8 km/h (2 Bft) O-NO 71 ° 0 min 0,000 mm 0,0 UV-I 23 W/m² 3,3 °C 2,5 °C 8,0 km/h (2 Bft)
25.03.2017 07:30 3,9 °C 3,9 °C 96 % 1024,0 hPa 0,0 mm 5,9 km/h (2 Bft) O-NO 59 ° 0 min 0,000 mm 0,0 UV-I 23 W/m² 3,3 °C 2,5 °C 8,0 km/h (2 Bft)
25.03.2017 07:31 3,9 °C 4,0 °C 96 % 1024,0 hPa 0,0 mm 4,3 km/h (1 Bft) NO 34 ° 0 min 0,000 mm 0,0 UV-I 23 W/m² 3,3 °C 3,9 °C 6,4 km/h (2 Bft)
25.03.2017 07:32 3,9 °C 3,9 °C 96 % 1024,0 hPa 0,0 mm 2,6 km/h (1 Bft) O 98 ° 0 min 0,000 mm 0,0 UV-I 23 W/m² 3,3 °C 3,9 °C 4,8 km/h (1 Bft)
25.03.2017 07:33 3,9 °C 3,9 °C 96 % 1024,0 hPa 0,0 mm 4,3 km/h (1 Bft) O-NO 69 ° 0 min 0,000 mm 0,0 UV-I 23 W/m² 3,3 °C 3,9 °C 6,4 km/h (2 Bft)
25.03.2017 07:34 3,9 °C 3,9 °C 96 % 1024,0 hPa 0,0 mm 3,9 km/h (1 Bft) O-NO 71 ° 0 min 0,000 mm 0,0 UV-I 23 W/m² 3,3 °C 3,9 °C 6,4 km/h (2 Bft)
25.03.2017 07:35 3,9 °C 4,0 °C 96 % 1024,1 hPa 0,0 mm 5,3 km/h (1 Bft) O-NO 59 ° 0 min 0,000 mm 0,0 UV-I 25 W/m² 3,3 °C 2,7 °C 6,4 km/h (2 Bft)
25.03.2017 07:36 3,9 °C 3,9 °C 96 % 1024,0 hPa 0,0 mm 5,3 km/h (1 Bft) O 88 ° 0 min 0,000 mm 0,0 UV-I 25 W/m² 3,3 °C 2,7 °C 6,4 km/h (2 Bft)
25.03.2017 07:37 3,9 °C 4,0 °C 96 % 1024,0 hPa 0,0 mm 6,2 km/h (2 Bft) O-NO 77 ° 0 min 0,000 mm 0,0 UV-I 25 W/m² 3,3 °C 2,4 °C 9,7 km/h (2 Bft)
25.03.2017 07:38 3,9 °C 3,9 °C 96 % 1024,0 hPa 0,0 mm 4,7 km/h (1 Bft) NO 54 ° 0 min 0,000 mm 0,0 UV-I 26 W/m² 3,3 °C 3,0 °C 6,4 km/h (2 Bft)
25.03.2017 07:39 3,9 °C 3,9 °C 96 % 1024,0 hPa 0,0 mm 4,2 km/h (1 Bft) NO 35 ° 0 min 0,000 mm 0,0 UV-I 26 W/m² 3,3 °C 3,9 °C 6,4 km/h (2 Bft)
25.03.2017 07:40 3,9 °C 4,0 °C 96 % 1024,0 hPa 0,0 mm 6,0 km/h (2 Bft) O-NO 77 ° 0 min 0,000 mm 0,0 UV-I 28 W/m² 3,3 °C 2,5 °C 11,3 km/h (2 Bft)
25.03.2017 07:41 3,9 °C 3,9 °C 96 % 1024,0 hPa 0,0 mm 3,5 km/h (1 Bft) NO 55 ° 0 min 0,000 mm 0,0 UV-I 28 W/m² 3,3 °C 3,9 °C 6,4 km/h (2 Bft)
25.03.2017 07:42 4,0 °C 4,0 °C 96 % 1024,0 hPa 0,0 mm 3,9 km/h (1 Bft) O-NO 57 ° 0 min 0,000 mm 0,0 UV-I 26 W/m² 3,4 °C 4,0 °C 6,4 km/h (2 Bft)
25.03.2017 07:43 4,0 °C 4,0 °C 96 % 1024,0 hPa 0,0 mm 5,0 km/h (1 Bft) O-NO 71 ° 0 min 0,000 mm 0,0 UV-I 26 W/m² 3,4 °C 2,9 °C 6,4 km/h (2 Bft)
25.03.2017 07:44 4,0 °C 4,0 °C 96 % 1024,0 hPa 0,0 mm 3,9 km/h (1 Bft) NO 49 ° 0 min 0,000 mm 0,0 UV-I 26 W/m² 3,4 °C 4,0 °C 6,4 km/h (2 Bft)
25.03.2017 07:45 3,9 °C 4,0 °C 96 % 1024,0 hPa 0,0 mm 3,6 km/h (1 Bft) NO 51 ° 0 min 0,000 mm 0,0 UV-I 26 W/m² 3,3 °C 3,9 °C 4,8 km/h (1 Bft)
25.03.2017 07:46 4,0 °C 4,0 °C 96 % 1023,9 hPa 0,0 mm 4,5 km/h (1 Bft) O 93 ° 0 min 0,000 mm 0,0 UV-I 28 W/m² 3,4 °C 4,0 °C 4,8 km/h (1 Bft)
25.03.2017 07:47 3,9 °C 4,0 °C 96 % 1024,0 hPa 0,0 mm 5,3 km/h (1 Bft) O-NO 60 ° 0 min 0,000 mm 0,0 UV-I 28 W/m² 3,3 °C 2,7 °C 8,0 km/h (2 Bft)
25.03.2017 07:48 3,9 °C 4,0 °C 96 % 1023,9 hPa 0,0 mm 6,2 km/h (2 Bft) O-NO 63 ° 0 min 0,000 mm 0,0 UV-I 26 W/m² 3,3 °C 2,4 °C 8,0 km/h (2 Bft)
25.03.2017 07:49 4,0 °C 4,0 °C 96 % 1023,9 hPa 0,0 mm 5,4 km/h (1 Bft) NO 42 ° 0 min 0,000 mm 0,0 UV-I 26 W/m² 3,4 °C 2,8 °C 8,0 km/h (2 Bft)
25.03.2017 07:50 4,0 °C 4,0 °C 96 % 1023,9 hPa 0,0 mm 3,0 km/h (1 Bft) O 80 ° 0 min 0,000 mm 0,0 UV-I 28 W/m² 3,4 °C 4,0 °C 4,8 km/h (1 Bft)
25.03.2017 07:51 4,0 °C 4,0 °C 96 % 1024,0 hPa 0,0 mm 4,6 km/h (1 Bft) O 85 ° 0 min 0,000 mm 0,0 UV-I 26 W/m² 3,4 °C 3,1 °C 6,4 km/h (2 Bft)
25.03.2017 07:52 4,0 °C 4,0 °C 96 % 1024,0 hPa 0,0 mm 5,2 km/h (1 Bft) O-NO 78 ° 0 min 0,000 mm 0,0 UV-I 26 W/m² 3,4 °C 2,9 °C 6,4 km/h (2 Bft)
25.03.2017 07:53 4,0 °C 4,0 °C 96 % 1024,0 hPa 0,0 mm 3,1 km/h (1 Bft) O-SO 104 ° 0 min 0,000 mm 0,0 UV-I 28 W/m² 3,4 °C 4,0 °C 4,8 km/h (1 Bft)
25.03.2017 07:54 4,0 °C 4,0 °C 96 % 1024,0 hPa 0,0 mm 3,3 km/h (1 Bft) O-NO 59 ° 0 min 0,000 mm 0,0 UV-I 30 W/m² 3,4 °C 4,0 °C 4,8 km/h (1 Bft)
25.03.2017 07:55 4,0 °C 4,0 °C 96 % 1024,0 hPa 0,0 mm 4,1 km/h (1 Bft) O 91 ° 0 min 0,000 mm 0,0 UV-I 30 W/m² 3,4 °C 4,0 °C 6,4 km/h (2 Bft)
25.03.2017 07:56 4,1 °C 4,1 °C 96 % 1023,9 hPa 0,0 mm 4,5 km/h (1 Bft) NO 55 ° 0 min 0,000 mm 0,0 UV-I 30 W/m² 3,5 °C 4,1 °C 6,4 km/h (2 Bft)
25.03.2017 07:57 4,0 °C 4,1 °C 96 % 1024,0 hPa 0,0 mm 6,0 km/h (2 Bft) O-NO 78 ° 0 min 0,000 mm 0,0 UV-I 32 W/m² 3,4 °C 2,6 °C 8,0 km/h (2 Bft)
25.03.2017 07:58 4,0 °C 4,1 °C 96 % 1024,0 hPa 0,0 mm 6,3 km/h (2 Bft) O-NO 70 ° 0 min 0,000 mm 0,0 UV-I 30 W/m² 3,4 °C 2,5 °C 8,0 km/h (2 Bft)
25.03.2017 07:59 4,0 °C 4,0 °C 96 % 1024,0 hPa 0,0 mm 8,0 km/h (2 Bft) O 79 ° 0 min 0,000 mm 0,0 UV-I 28 W/m² 3,4 °C 2,0 °C 11,3 km/h (2 Bft)
25.03.2017 08:00 4,0 °C 4,0 °C 96 % 1024,0 hPa 0,0 mm 6,4 km/h (2 Bft) O-NO 71 ° 0 min 0,000 mm 0,0 UV-I 30 W/m² 3,4 °C 2,4 °C 8,0 km/h (2 Bft)
25.03.2017 08:01 4,0 °C 4,0 °C 96 % 1024,0 hPa 0,0 mm 6,0 km/h (2 Bft) N-NO 24 ° 0 min 0,000 mm 0,0 UV-I 32 W/m² 3,4 °C 2,6 °C 6,4 km/h (2 Bft)
25.03.2017 08:02 4,0 °C 4,0 °C 96 % 1024,0 hPa 0,0 mm 6,7 km/h (2 Bft) O 82 ° 0 min 0,000 mm 0,0 UV-I 32 W/m² 3,4 °C 2,3 °C 11,3 km/h (2 Bft)
25.03.2017 08:03 4,0 °C 4,0 °C 96 % 1023,9 hPa 0,0 mm 7,8 km/h (2 Bft) O 79 ° 0 min 0,000 mm 0,0 UV-I 32 W/m² 3,4 °C 2,0 °C 11,3 km/h (2 Bft)
25.03.2017 08:04 4,0 °C 4,0 °C 96 % 1024,0 hPa 0,0 mm 5,5 km/h (1 Bft) NO 49 ° 0 min 0,000 mm 0,0 UV-I 33 W/m² 3,4 °C 2,8 °C 8,0 km/h (2 Bft)
25.03.2017 08:05 4,0 °C 4,0 °C 96 % 1024,0 hPa 0,0 mm 4,1 km/h (1 Bft) NO 53 ° 0 min 0,000 mm 0,0 UV-I 33 W/m² 3,4 °C 4,0 °C 6,4 km/h (2 Bft)
25.03.2017 08:06 4,1 °C 4,1 °C 96 % 1024,0 hPa 0,0 mm 5,0 km/h (1 Bft) O-NO 65 ° 0 min 0,000 mm 0,0 UV-I 35 W/m² 3,5 °C 3,1 °C 6,4 km/h (2 Bft)
25.03.2017 08:07 4,1 °C 4,1 °C 96 % 1024,0 hPa 0,0 mm 6,4 km/h (2 Bft) O-NO 76 ° 0 min 0,000 mm 0,0 UV-I 35 W/m² 3,5 °C 2,6 °C 9,7 km/h (2 Bft)
25.03.2017 08:08 4,1 °C 4,1 °C 96 % 1024,0 hPa 0,0 mm 5,6 km/h (1 Bft) O-NO 66 ° 0 min 0,000 mm 0,0 UV-I 35 W/m² 3,5 °C 2,8 °C 6,4 km/h (2 Bft)
25.03.2017 08:09 4,1 °C 4,1 °C 96 % 1024,0 hPa 0,0 mm 7,2 km/h (2 Bft) O 84 ° 0 min 0,000 mm 0,0 UV-I 33 W/m² 3,5 °C 2,3 °C 9,7 km/h (2 Bft)
25.03.2017 08:10 4,1 °C 4,1 °C 96 % 1024,0 hPa 0,0 mm 5,6 km/h (1 Bft) O-NO 63 ° 0 min 0,000 mm 0,0 UV-I 33 W/m² 3,5 °C 2,8 °C 8,0 km/h (2 Bft)
25.03.2017 08:11 4,1 °C 4,1 °C 96 % 1023,9 hPa 0,0 mm 6,9 km/h (2 Bft) O-NO 66 ° 0 min 0,000 mm 0,0 UV-I 35 W/m² 3,5 °C 2,4 °C 12,9 km/h (3 Bft)
25.03.2017 08:12 4,1 °C 4,1 °C 96 % 1023,9 hPa 0,0 mm 5,4 km/h (1 Bft) O 79 ° 0 min 0,000 mm 0,0 UV-I 37 W/m² 3,5 °C 2,9 °C 8,0 km/h (2 Bft)
25.03.2017 08:13 4,0 °C 4,1 °C 96 % 1023,9 hPa 0,0 mm 9,1 km/h (2 Bft) O-NO 67 ° 0 min 0,000 mm 0,0 UV-I 39 W/m² 3,4 °C 1,7 °C 16,1 km/h (3 Bft)
25.03.2017 08:14 4,1 °C 4,1 °C 96 % 1024,0 hPa 0,0 mm 7,5 km/h (2 Bft) O-NO 69 ° 0 min 0,000 mm 0,0 UV-I 37 W/m² 3,5 °C 2,2 °C 11,3 km/h (2 Bft)
25.03.2017 08:15 4,1 °C 4,1 °C 96 % 1023,9 hPa 0,0 mm 4,6 km/h (1 Bft) N-NO 29 ° 0 min 0,000 mm 0,0 UV-I 35 W/m² 3,5 °C 3,2 °C 8,0 km/h (2 Bft)
25.03.2017 08:16 4,1 °C 4,1 °C 96 % 1023,9 hPa 0,0 mm 7,4 km/h (2 Bft) O-NO 58 ° 0 min 0,000 mm 0,0 UV-I 37 W/m² 3,5 °C 2,2 °C 9,7 km/h (2 Bft)
25.03.2017 08:17 4,1 °C 4,1 °C 96 % 1024,0 hPa 0,0 mm 2,3 km/h (1 Bft) O-NO 58 ° 0 min 0,000 mm 0,0 UV-I 37 W/m² 3,5 °C 4,1 °C 4,8 km/h (1 Bft)
25.03.2017 08:18 4,1 °C 4,1 °C 96 % 1023,9 hPa 0,0 mm 5,3 km/h (1 Bft) O-NO 67 ° 0 min 0,000 mm 0,0 UV-I 40 W/m² 3,5 °C 2,9 °C 6,4 km/h (2 Bft)
25.03.2017 08:19 4,1 °C 4,1 °C 96 % 1024,0 hPa 0,0 mm 4,6 km/h (1 Bft) NO 53 ° 0 min 0,000 mm 0,0 UV-I 40 W/m² 3,5 °C 3,2 °C 8,0 km/h (2 Bft)
25.03.2017 08:20 4,1 °C 4,1 °C 96 % 1024,0 hPa 0,0 mm 3,5 km/h (1 Bft) O-NO 77 ° 0 min 0,000 mm 0,0 UV-I 40 W/m² 3,5 °C 4,1 °C 4,8 km/h (1 Bft)
25.03.2017 08:21 4,1 °C 4,1 °C 96 % 1024,0 hPa 0,0 mm 4,4 km/h (1 Bft) O-NO 67 ° 0 min 0,000 mm 0,0 UV-I 40 W/m² 3,5 °C 4,1 °C 8,0 km/h (2 Bft)
25.03.2017 08:22 4,1 °C 4,1 °C 96 % 1024,0 hPa 0,0 mm 3,5 km/h (1 Bft) NO 51 ° 0 min 0,000 mm 0,0 UV-I 40 W/m² 3,5 °C 4,1 °C 4,8 km/h (1 Bft)
25.03.2017 08:23 4,1 °C 4,1 °C 96 % 1024,0 hPa 0,0 mm 3,8 km/h (1 Bft) NO 55 ° 0 min 0,000 mm 0,0 UV-I 40 W/m² 3,5 °C 4,1 °C 4,8 km/h (1 Bft)
25.03.2017 08:24 4,1 °C 4,2 °C 96 % 1024,1 hPa 0,0 mm 4,9 km/h (1 Bft) N-NO 19 ° 0 min 0,000 mm 0,0 UV-I 42 W/m² 3,5 °C 3,1 °C 6,4 km/h (2 Bft)
25.03.2017 08:25 4,2 °C 4,2 °C 97 % 1024,0 hPa 0,0 mm 5,0 km/h (1 Bft) O-NO 70 ° 0 min 0,000 mm 0,0 UV-I 42 W/m² 3,8 °C 3,2 °C 8,0 km/h (2 Bft)
25.03.2017 08:26 4,2 °C 4,2 °C 96 % 1024,0 hPa 0,0 mm 4,7 km/h (1 Bft) NO 53 ° 0 min 0,000 mm 0,0 UV-I 42 W/m² 3,6 °C 3,3 °C 6,4 km/h (2 Bft)
25.03.2017 08:27 4,2 °C 4,2 °C 96 % 1024,0 hPa 0,0 mm 5,6 km/h (1 Bft) NO 52 ° 0 min 0,000 mm 0,0 UV-I 46 W/m² 3,6 °C 2,9 °C 8,0 km/h (2 Bft)
25.03.2017 08:28 4,2 °C 4,2 °C 96 % 1023,9 hPa 0,0 mm 4,4 km/h (1 Bft) O-NO 71 ° 0 min 0,000 mm 0,0 UV-I 49 W/m² 3,6 °C 4,2 °C 6,4 km/h (2 Bft)
25.03.2017 08:29 4,2 °C 4,2 °C 96 % 1024,0 hPa 0,0 mm 4,1 km/h (1 Bft) O-NO 63 ° 0 min 0,000 mm 0,0 UV-I 51 W/m² 3,6 °C 4,2 °C 8,0 km/h (2 Bft)
25.03.2017 08:30 4,2 °C 4,2 °C 96 % 1024,0 hPa 0,0 mm 4,0 km/h (1 Bft) O-NO 76 ° 0 min 0,000 mm 0,0 UV-I 49 W/m² 3,6 °C 4,2 °C 8,0 km/h (2 Bft)
25.03.2017 08:31 4,2 °C 4,2 °C 96 % 1024,0 hPa 0,0 mm 4,5 km/h (1 Bft) NO 55 ° 0 min 0,000 mm 0,0 UV-I 49 W/m² 3,6 °C 4,2 °C 8,0 km/h (2 Bft)
25.03.2017 08:32 4,2 °C 4,2 °C 96 % 1024,0 hPa 0,0 mm 6,0 km/h (2 Bft) NO 39 ° 0 min 0,000 mm 0,0 UV-I 47 W/m² 3,6 °C 2,8 °C 9,7 km/h (2 Bft)
25.03.2017 08:33 4,2 °C 4,2 °C 96 % 1024,0 hPa 0,0 mm 8,9 km/h (2 Bft) O 80 ° 0 min 0,000 mm 0,0 UV-I 49 W/m² 3,6 °C 2,0 °C 12,9 km/h (3 Bft)
25.03.2017 08:34 4,1 °C 4,2 °C 96 % 1024,0 hPa 0,0 mm 5,4 km/h (1 Bft) O 98 ° 0 min 0,000 mm 0,0 UV-I 49 W/m² 3,5 °C 2,9 °C 9,7 km/h (2 Bft)
25.03.2017 08:35 4,2 °C 4,2 °C 96 % 1024,0 hPa 0,0 mm 6,7 km/h (2 Bft) O-NO 78 ° 0 min 0,000 mm 0,0 UV-I 49 W/m² 3,6 °C 2,6 °C 11,3 km/h (2 Bft)
25.03.2017 08:36 4,1 °C 4,2 °C 96 % 1024,1 hPa 0,0 mm 7,6 km/h (2 Bft) O-NO 75 ° 0 min 0,000 mm 0,0 UV-I 51 W/m² 3,5 °C 2,2 °C 11,3 km/h (2 Bft)
25.03.2017 08:37 4,1 °C 4,2 °C 96 % 1024,0 hPa 0,0 mm 7,3 km/h (2 Bft) N-NO 32 ° 0 min 0,000 mm 0,0 UV-I 51 W/m² 3,5 °C 2,3 °C 12,9 km/h (3 Bft)
25.03.2017 08:38 4,1 °C 4,1 °C 96 % 1024,1 hPa 0,0 mm 6,6 km/h (2 Bft) O-NO 65 ° 0 min 0,000 mm 0,0 UV-I 51 W/m² 3,5 °C 2,5 °C 12,9 km/h (3 Bft)
25.03.2017 08:39 4,1 °C 4,2 °C 96 % 1024,0 hPa 0,0 mm 8,6 km/h (2 Bft) N-NO 18 ° 0 min 0,000 mm 0,0 UV-I 53 W/m² 3,5 °C 1,9 °C 11,3 km/h (2 Bft)
25.03.2017 08:40 4,1 °C 4,1 °C 96 % 1024,0 hPa 0,0 mm 5,4 km/h (1 Bft) NO 56 ° 0 min 0,000 mm 0,0 UV-I 51 W/m² 3,5 °C 2,9 °C 8,0 km/h (2 Bft)
25.03.2017 08:41 4,1 °C 4,1 °C 96 % 1024,1 hPa 0,0 mm 5,8 km/h (2 Bft) O-NO 61 ° 0 min 0,000 mm 0,0 UV-I 51 W/m² 3,5 °C 2,8 °C 6,4 km/h (2 Bft)
25.03.2017 08:42 4,1 °C 4,2 °C 96 % 1024,1 hPa 0,0 mm 6,1 km/h (2 Bft) NO 36 ° 0 min 0,000 mm 0,0 UV-I 51 W/m² 3,5 °C 2,7 °C 9,7 km/h (2 Bft)
25.03.2017 08:43 4,2 °C 4,2 °C 96 % 1024,1 hPa 0,0 mm 8,6 km/h (2 Bft) NO 42 ° 0 min 0,000 mm 0,0 UV-I 51 W/m² 3,6 °C 2,0 °C 14,5 km/h (3 Bft)
25.03.2017 08:44 4,2 °C 4,2 °C 96 % 1024,1 hPa 0,0 mm 6,7 km/h (2 Bft) O-NO 72 ° 0 min 0,000 mm 0,0 UV-I 49 W/m² 3,6 °C 2,6 °C 9,7 km/h (2 Bft)
25.03.2017 08:45 4,2 °C 4,2 °C 96 % 1024,1 hPa 0,0 mm 7,2 km/h (2 Bft) O 84 ° 0 min 0,000 mm 0,0 UV-I 51 W/m² 3,6 °C 2,4 °C 11,3 km/h (2 Bft)
25.03.2017 08:46 4,1 °C 4,2 °C 96 % 1024,1 hPa 0,0 mm 6,8 km/h (2 Bft) O-NO 69 ° 0 min 0,000 mm 0,0 UV-I 49 W/m² 3,5 °C 2,4 °C 9,7 km/h (2 Bft)
25.03.2017 08:47 4,2 °C 4,2 °C 96 % 1024,1 hPa 0,0 mm 6,0 km/h (2 Bft) O 80 ° 0 min 0,000 mm 0,0 UV-I 49 W/m² 3,6 °C 2,8 °C 8,0 km/h (2 Bft)
25.03.2017 08:48 4,2 °C 4,2 °C 96 % 1024,1 hPa 0,0 mm 3,6 km/h (1 Bft) NO 50 ° 0 min 0,000 mm 0,0 UV-I 49 W/m² 3,6 °C 4,2 °C 6,4 km/h (2 Bft)
25.03.2017 08:49 4,2 °C 4,2 °C 96 % 1024,1 hPa 0,0 mm 5,8 km/h (2 Bft) O 94 ° 0 min 0,000 mm 0,0 UV-I 49 W/m² 3,6 °C 2,9 °C 9,7 km/h (2 Bft)
25.03.2017 08:50 4,2 °C 4,2 °C 96 % 1024,1 hPa 0,0 mm 5,4 km/h (1 Bft) NO 49 ° 0 min 0,000 mm 0,0 UV-I 49 W/m² 3,6 °C 3,0 °C 8,0 km/h (2 Bft)
25.03.2017 08:51 4,2 °C 4,2 °C 96 % 1024,1 hPa 0,0 mm 4,3 km/h (1 Bft) NO 51 ° 0 min 0,000 mm 0,0 UV-I 49 W/m² 3,6 °C 4,2 °C 6,4 km/h (2 Bft)
25.03.2017 08:52 4,2 °C 4,2 °C 96 % 1024,1 hPa 0,0 mm 7,6 km/h (2 Bft) O-NO 68 ° 0 min 0,000 mm 0,0 UV-I 49 W/m² 3,6 °C 2,3 °C 11,3 km/h (2 Bft)
25.03.2017 08:53 4,2 °C 4,2 °C 96 % 1024,1 hPa 0,0 mm 4,3 km/h (1 Bft) O-NO 78 ° 0 min 0,000 mm 0,0 UV-I 49 W/m² 3,6 °C 4,2 °C 8,0 km/h (2 Bft)
25.03.2017 08:54 4,2 °C 4,2 °C 96 % 1024,2 hPa 0,0 mm 5,3 km/h (1 Bft) O-NO 61 ° 0 min 0,000 mm 0,0 UV-I 49 W/m² 3,6 °C 3,1 °C 6,4 km/h (2 Bft)
25.03.2017 08:55 4,2 °C 4,2 °C 96 % 1024,1 hPa 0,0 mm 4,0 km/h (1 Bft) O 90 ° 0 min 0,000 mm 0,0 UV-I 51 W/m² 3,6 °C 4,2 °C 4,8 km/h (1 Bft)
25.03.2017 08:56 4,2 °C 4,2 °C 96 % 1024,1 hPa 0,0 mm 5,3 km/h (1 Bft) O-SO 103 ° 0 min 0,000 mm 0,0 UV-I 53 W/m² 3,6 °C 3,1 °C 6,4 km/h (2 Bft)
25.03.2017 08:57 4,2 °C 4,2 °C 96 % 1024,1 hPa 0,0 mm 4,7 km/h (1 Bft) NO 56 ° 0 min 0,000 mm 0,0 UV-I 53 W/m² 3,6 °C 3,3 °C 8,0 km/h (2 Bft)
25.03.2017 08:58 4,2 °C 4,2 °C 96 % 1024,1 hPa 0,0 mm 7,2 km/h (2 Bft) O-SO 107 ° 0 min 0,000 mm 0,0 UV-I 53 W/m² 3,6 °C 2,4 °C 11,3 km/h (2 Bft)
25.03.2017 08:59 4,2 °C 4,2 °C 96 % 1024,1 hPa 0,0 mm 6,3 km/h (2 Bft) O-NO 63 ° 0 min 0,000 mm 0,0 UV-I 56 W/m² 3,6 °C 2,7 °C 11,3 km/h (2 Bft)
25.03.2017 09:00 4,2 °C 4,2 °C 96 % 1024,1 hPa 0,0 mm 9,3 km/h (2 Bft) O-NO 59 ° 0 min 0,000 mm 0,0 UV-I 54 W/m² 3,6 °C 1,9 °C 12,9 km/h (3 Bft)
25.03.2017 09:01 4,2 °C 4,2 °C 96 % 1024,1 hPa 0,0 mm 5,7 km/h (1 Bft) O-NO 74 ° 0 min 0,025 mm 0,0 UV-I 54 W/m² 3,6 °C 2,9 °C 8,0 km/h (2 Bft)
25.03.2017 09:02 4,2 °C 4,2 °C 96 % 1024,2 hPa 0,0 mm 7,4 km/h (2 Bft) NO 40 ° 0 min 0,000 mm 0,0 UV-I 54 W/m² 3,6 °C 2,4 °C 11,3 km/h (2 Bft)
25.03.2017 09:03 4,2 °C 4,2 °C 96 % 1024,1 hPa 0,0 mm 5,4 km/h (1 Bft) NO 49 ° 0 min 0,000 mm 0,0 UV-I 54 W/m² 3,6 °C 3,0 °C 8,0 km/h (2 Bft)
25.03.2017 09:04 4,2 °C 4,2 °C 96 % 1024,2 hPa 0,0 mm 7,5 km/h (2 Bft) NO 51 ° 0 min 0,000 mm 0,0 UV-I 56 W/m² 3,6 °C 2,3 °C 8,0 km/h (2 Bft)
25.03.2017 09:05 4,2 °C 4,2 °C 96 % 1024,1 hPa 0,0 mm 4,9 km/h (1 Bft) N 360 ° 0 min 0,000 mm 0,0 UV-I 54 W/m² 3,6 °C 3,2 °C 8,0 km/h (2 Bft)
25.03.2017 09:06 4,2 °C 4,2 °C 96 % 1024,1 hPa 0,0 mm 5,2 km/h (1 Bft) N-NO 30 ° 0 min 0,000 mm 0,0 UV-I 56 W/m² 3,6 °C 3,1 °C 8,0 km/h (2 Bft)
25.03.2017 09:07 4,2 °C 4,2 °C 96 % 1024,1 hPa 0,0 mm 7,0 km/h (2 Bft) NO 55 ° 0 min 0,000 mm 0,0 UV-I 56 W/m² 3,6 °C 2,5 °C 9,7 km/h (2 Bft)
25.03.2017 09:08 4,2 °C 4,2 °C 96 % 1024,1 hPa 0,0 mm 4,2 km/h (1 Bft) O 92 ° 0 min 0,000 mm 0,0 UV-I 56 W/m² 3,6 °C 4,2 °C 6,4 km/h (2 Bft)
25.03.2017 09:09 4,2 °C 4,2 °C 96 % 1024,1 hPa 0,0 mm 4,0 km/h (1 Bft) NO 36 ° 0 min 0,000 mm 0,0 UV-I 58 W/m² 3,6 °C 4,2 °C 6,4 km/h (2 Bft)
25.03.2017 09:10 4,2 °C 4,2 °C 96 % 1024,0 hPa 0,0 mm 5,5 km/h (1 Bft) N-NO 22 ° 0 min 0,000 mm 0,0 UV-I 56 W/m² 3,6 °C 3,0 °C 8,0 km/h (2 Bft)
25.03.2017 09:11 4,2 °C 4,2 °C 96 % 1024,0 hPa 0,0 mm 4,7 km/h (1 Bft) NO 38 ° 0 min 0,000 mm 0,0 UV-I 56 W/m² 3,6 °C 3,3 °C 6,4 km/h (2 Bft)
25.03.2017 09:12 4,2 °C 4,2 °C 96 % 1024,0 hPa 0,0 mm 5,7 km/h (1 Bft) O-SO 109 ° 0 min 0,000 mm 0,0 UV-I 60 W/m² 3,6 °C 2,9 °C 11,3 km/h (2 Bft)
25.03.2017 09:13 4,2 °C 4,2 °C 96 % 1024,0 hPa 0,0 mm 9,4 km/h (2 Bft) N-NO 28 ° 0 min 0,000 mm 0,0 UV-I 60 W/m² 3,6 °C 1,8 °C 12,9 km/h (3 Bft)
25.03.2017 09:14 4,2 °C 4,2 °C 96 % 1024,1 hPa 0,0 mm 8,9 km/h (2 Bft) O-NO 76 ° 0 min 0,000 mm 0,0 UV-I 62 W/m² 3,6 °C 2,0 °C 12,9 km/h (3 Bft)
25.03.2017 09:15 4,2 °C 4,2 °C 96 % 1024,0 hPa 0,0 mm 8,0 km/h (2 Bft) N-NO 26 ° 0 min 0,000 mm 0,0 UV-I 60 W/m² 3,6 °C 2,2 °C 9,7 km/h (2 Bft)
25.03.2017 09:16 4,2 °C 4,2 °C 96 % 1023,9 hPa 0,0 mm 6,6 km/h (2 Bft) N-NO 31 ° 0 min 0,000 mm 0,0 UV-I 63 W/m² 3,6 °C 2,6 °C 11,3 km/h (2 Bft)
25.03.2017 09:17 4,2 °C 4,2 °C 96 % 1024,0 hPa 0,0 mm 7,5 km/h (2 Bft) O-NO 75 ° 0 min 0,000 mm 0,5 UV-I 67 W/m² 3,6 °C 2,3 °C 9,7 km/h (2 Bft)
25.03.2017 09:18 4,2 °C 4,2 °C 96 % 1023,9 hPa 0,0 mm 5,2 km/h (1 Bft) NO 51 ° 0 min 0,000 mm 0,5 UV-I 69 W/m² 3,6 °C 3,1 °C 8,0 km/h (2 Bft)
25.03.2017 09:19 4,2 °C 4,2 °C 96 % 1024,0 hPa 0,0 mm 5,6 km/h (1 Bft) NO 49 ° 0 min 0,000 mm 0,5 UV-I 69 W/m² 3,6 °C 2,9 °C 9,7 km/h (2 Bft)
25.03.2017 09:20 4,2 °C 4,3 °C 96 % 1023,9 hPa 0,0 mm 6,8 km/h (2 Bft) NO 51 ° 0 min 0,000 mm 0,5 UV-I 69 W/m² 3,6 °C 2,5 °C 8,0 km/h (2 Bft)
25.03.2017 09:21 4,2 °C 4,2 °C 96 % 1023,9 hPa 0,0 mm 4,3 km/h (1 Bft) N-NO 29 ° 0 min 0,000 mm 0,5 UV-I 70 W/m² 3,6 °C 4,2 °C 8,0 km/h (2 Bft)
25.03.2017 09:22 4,2 °C 4,2 °C 96 % 1023,9 hPa 0,0 mm 3,5 km/h (1 Bft) N-NO 24 ° 0 min 0,000 mm 0,5 UV-I 70 W/m² 3,6 °C 4,2 °C 4,8 km/h (1 Bft)
25.03.2017 09:23 4,3 °C 4,3 °C 96 % 1023,9 hPa 0,0 mm 7,0 km/h (2 Bft) O-NO 61 ° 0 min 0,000 mm 0,5 UV-I 72 W/m² 3,7 °C 2,6 °C 8,0 km/h (2 Bft)
25.03.2017 09:24 4,3 °C 4,3 °C 96 % 1023,9 hPa 0,0 mm 8,4 km/h (2 Bft) O-NO 74 ° 0 min 0,000 mm 0,5 UV-I 72 W/m² 3,7 °C 2,2 °C 11,3 km/h (2 Bft)
25.03.2017 09:25 4,3 °C 4,3 °C 96 % 1023,9 hPa 0,0 mm 8,2 km/h (2 Bft) O-NO 63 ° 0 min 0,000 mm 0,5 UV-I 74 W/m² 3,7 °C 2,3 °C 14,5 km/h (3 Bft)
25.03.2017 09:26 4,3 °C 4,3 °C 96 % 1023,9 hPa 0,0 mm 6,2 km/h (2 Bft) O-NO 76 ° 0 min 0,000 mm 0,5 UV-I 74 W/m² 3,7 °C 2,9 °C 11,3 km/h (2 Bft)
25.03.2017 09:27 4,3 °C 4,3 °C 96 % 1023,8 hPa 0,0 mm 2,7 km/h (1 Bft) O-NO 76 ° 0 min 0,000 mm 0,5 UV-I 77 W/m² 3,7 °C 4,3 °C 4,8 km/h (1 Bft)
25.03.2017 09:28 4,3 °C 4,3 °C 96 % 1023,9 hPa 0,0 mm 4,3 km/h (1 Bft) O-NO 65 ° 0 min 0,000 mm 0,5 UV-I 79 W/m² 3,7 °C 4,3 °C 6,4 km/h (2 Bft)
25.03.2017 09:29 4,3 °C 4,3 °C 96 % 1023,9 hPa 0,0 mm 3,8 km/h (1 Bft) O-NO 65 ° 0 min 0,000 mm 0,5 UV-I 79 W/m² 3,7 °C 4,3 °C 4,8 km/h (1 Bft)
25.03.2017 09:30 4,3 °C 4,3 °C 96 % 1023,9 hPa 0,0 mm 5,6 km/h (1 Bft) O-NO 72 ° 0 min 0,000 mm 0,5 UV-I 79 W/m² 3,7 °C 3,1 °C 14,5 km/h (3 Bft)
25.03.2017 09:31 4,3 °C 4,3 °C 96 % 1023,8 hPa 0,0 mm 5,3 km/h (1 Bft) O-NO 71 ° 0 min 0,000 mm 0,5 UV-I 79 W/m² 3,7 °C 3,2 °C 6,4 km/h (2 Bft)
25.03.2017 09:32 4,3 °C 4,3 °C 96 % 1023,9 hPa 0,0 mm 7,5 km/h (2 Bft) O 82 ° 0 min 0,000 mm 0,6 UV-I 79 W/m² 3,7 °C 2,5 °C 14,5 km/h (3 Bft)
25.03.2017 09:33 4,3 °C 4,3 °C 96 % 1023,8 hPa 0,0 mm 3,5 km/h (1 Bft) N-NO 17 ° 0 min 0,000 mm 0,5 UV-I 79 W/m² 3,7 °C 4,3 °C 6,4 km/h (2 Bft)
25.03.2017 09:34 4,3 °C 4,3 °C 96 % 1023,9 hPa 0,0 mm 6,6 km/h (2 Bft) NO 56 ° 0 min 0,000 mm 0,5 UV-I 76 W/m² 3,7 °C 2,7 °C 9,7 km/h (2 Bft)
25.03.2017 09:35 4,3 °C 4,3 °C 96 % 1023,9 hPa 0,0 mm 10,8 km/h (2 Bft) NO 48 ° 0 min 0,000 mm 0,6 UV-I 77 W/m² 3,7 °C 1,6 °C 16,1 km/h (3 Bft)
25.03.2017 09:36 4,3 °C 4,3 °C 96 % 1023,9 hPa 0,0 mm 7,2 km/h (2 Bft) O-NO 57 ° 0 min 0,000 mm 0,5 UV-I 76 W/m² 3,7 °C 2,5 °C 12,9 km/h (3 Bft)
25.03.2017 09:37 4,3 °C 4,3 °C 96 % 1023,9 hPa 0,0 mm 6,1 km/h (2 Bft) NO 46 ° 0 min 0,000 mm 0,5 UV-I 74 W/m² 3,7 °C 2,9 °C 9,7 km/h (2 Bft)
25.03.2017 09:38 4,4 °C 4,4 °C 96 % 1023,9 hPa 0,0 mm 7,9 km/h (2 Bft) O-NO 58 ° 0 min 0,000 mm 0,5 UV-I 76 W/m² 3,8 °C 2,5 °C 12,9 km/h (3 Bft)
25.03.2017 09:39 4,4 °C 4,4 °C 96 % 1023,9 hPa 0,0 mm 5,9 km/h (2 Bft) O-NO 67 ° 0 min 0,000 mm 0,6 UV-I 81 W/m² 3,8 °C 3,1 °C 8,0 km/h (2 Bft)
25.03.2017 09:40 4,3 °C 4,4 °C 96 % 1023,9 hPa 0,0 mm 10,1 km/h (2 Bft) O 90 ° 0 min 0,000 mm 0,6 UV-I 81 W/m² 3,7 °C 1,8 °C 14,5 km/h (3 Bft)
25.03.2017 09:41 4,3 °C 4,3 °C 96 % 1023,9 hPa 0,0 mm 5,5 km/h (1 Bft) N 5 ° 0 min 0,000 mm 0,5 UV-I 77 W/m² 3,7 °C 3,1 °C 8,0 km/h (2 Bft)
25.03.2017 09:42 4,4 °C 4,4 °C 96 % 1023,9 hPa 0,0 mm 3,2 km/h (1 Bft) N-NO 31 ° 0 min 0,000 mm 0,5 UV-I 76 W/m² 3,8 °C 4,4 °C 8,0 km/h (2 Bft)
25.03.2017 09:43 4,4 °C 4,4 °C 96 % 1023,9 hPa 0,0 mm 8,0 km/h (2 Bft) NO 42 ° 0 min 0,000 mm 0,6 UV-I 79 W/m² 3,8 °C 2,4 °C 11,3 km/h (2 Bft)
25.03.2017 09:44 4,4 °C 4,4 °C 96 % 1023,9 hPa 0,0 mm 6,8 km/h (2 Bft) O-NO 64 ° 0 min 0,000 mm 0,5 UV-I 74 W/m² 3,8 °C 2,8 °C 9,7 km/h (2 Bft)
25.03.2017 09:45 4,4 °C 4,4 °C 96 % 1024,0 hPa 0,0 mm 6,7 km/h (2 Bft) NO 44 ° 0 min 0,000 mm 0,6 UV-I 76 W/m² 3,8 °C 2,8 °C 11,3 km/h (2 Bft)
25.03.2017 09:46 4,4 °C 4,4 °C 96 % 1024,0 hPa 0,0 mm 5,5 km/h (1 Bft) O-NO 62 ° 0 min 0,000 mm 0,6 UV-I 81 W/m² 3,8 °C 3,2 °C 8,0 km/h (2 Bft)
25.03.2017 09:47 4,4 °C 4,4 °C 96 % 1024,0 hPa 0,0 mm 7,0 km/h (2 Bft) N-NO 27 ° 0 min 0,000 mm 0,6 UV-I 83 W/m² 3,8 °C 2,7 °C 9,7 km/h (2 Bft)
25.03.2017 09:48 4,4 °C 4,4 °C 96 % 1023,9 hPa 0,0 mm 7,3 km/h (2 Bft) NO 35 ° 0 min 0,000 mm 0,6 UV-I 86 W/m² 3,8 °C 2,6 °C 11,3 km/h (2 Bft)
25.03.2017 09:49 4,4 °C 4,4 °C 96 % 1024,0 hPa 0,0 mm 7,7 km/h (2 Bft) NO 38 ° 0 min 0,000 mm 0,6 UV-I 91 W/m² 3,8 °C 2,5 °C 9,7 km/h (2 Bft)
25.03.2017 09:50 4,4 °C 4,4 °C 96 % 1024,0 hPa 0,0 mm 4,0 km/h (1 Bft) NO 53 ° 0 min 0,000 mm 0,6 UV-I 90 W/m² 3,8 °C 4,4 °C 9,7 km/h (2 Bft)
25.03.2017 09:51 4,5 °C 4,5 °C 96 % 1024,0 hPa 0,0 mm 4,3 km/h (1 Bft) O 82 ° 0 min 0,000 mm 0,7 UV-I 98 W/m² 3,9 °C 4,5 °C 6,4 km/h (2 Bft)
25.03.2017 09:52 4,5 °C 4,5 °C 96 % 1024,1 hPa 0,0 mm 6,3 km/h (2 Bft) NO 40 ° 0 min 0,000 mm 0,7 UV-I 97 W/m² 3,9 °C 3,0 °C 16,1 km/h (3 Bft)
25.03.2017 09:53 4,5 °C 4,6 °C 96 % 1024,0 hPa 0,0 mm 7,4 km/h (2 Bft) NO 44 ° 0 min 0,000 mm 0,7 UV-I 100 W/m² 3,9 °C 2,7 °C 14,5 km/h (3 Bft)
25.03.2017 09:54 4,5 °C 4,5 °C 96 % 1024,0 hPa 0,0 mm 10,3 km/h (2 Bft) N-NO 32 ° 0 min 0,000 mm 0,7 UV-I 104 W/m² 3,9 °C 2,0 °C 16,1 km/h (3 Bft)
25.03.2017 09:55 4,4 °C 4,5 °C 96 % 1024,0 hPa 0,0 mm 5,5 km/h (1 Bft) NO 53 ° 0 min 0,000 mm 0,7 UV-I 98 W/m² 3,8 °C 3,2 °C 9,7 km/h (2 Bft)
25.03.2017 09:56 4,4 °C 4,5 °C 96 % 1024,1 hPa 0,0 mm 6,4 km/h (2 Bft) O-NO 59 ° 0 min 0,000 mm 0,7 UV-I 97 W/m² 3,8 °C 2,9 °C 8,0 km/h (2 Bft)
25.03.2017 09:57 4,4 °C 4,5 °C 96 % 1024,0 hPa 0,0 mm 7,4 km/h (2 Bft) NO 55 ° 0 min 0,000 mm 0,7 UV-I 100 W/m² 3,8 °C 2,6 °C 12,9 km/h (3 Bft)
25.03.2017 09:58 4,5 °C 4,5 °C 96 % 1024,0 hPa 0,0 mm 7,0 km/h (2 Bft) NO 50 ° 0 min 0,000 mm 0,7 UV-I 98 W/m² 3,9 °C 2,8 °C 9,7 km/h (2 Bft)
25.03.2017 09:59 4,5 °C 4,5 °C 96 % 1024,1 hPa 0,0 mm 7,5 km/h (2 Bft) O 82 ° 0 min 0,000 mm 0,7 UV-I 97 W/m² 3,9 °C 2,7 °C 12,9 km/h (3 Bft)
25.03.2017 10:00 4,5 °C 4,5 °C 96 % 1024,1 hPa 0,0 mm 7,7 km/h (2 Bft) O-NO 66 ° 0 min 0,000 mm 0,7 UV-I 102 W/m² 3,9 °C 2,6 °C 11,3 km/h (2 Bft)
25.03.2017 10:01 4,5 °C 4,6 °C 96 % 1024,1 hPa 0,0 mm 6,4 km/h (2 Bft) O-NO 59 ° 0 min 0,026 mm 0,7 UV-I 104 W/m² 3,9 °C 3,0 °C 8,0 km/h (2 Bft)
25.03.2017 10:02 4,5 °C 4,6 °C 96 % 1024,1 hPa 0,0 mm 8,9 km/h (2 Bft) O-NO 67 ° 0 min 0,000 mm 0,8 UV-I 111 W/m² 3,9 °C 2,3 °C 14,5 km/h (3 Bft)
25.03.2017 10:03 4,6 °C 4,6 °C 96 % 1024,0 hPa 0,0 mm 9,5 km/h (2 Bft) O 89 ° 0 min 0,000 mm 0,8 UV-I 113 W/m² 4,0 °C 2,3 °C 14,5 km/h (3 Bft)
25.03.2017 10:04 4,6 °C 4,6 °C 95 % 1023,9 hPa 0,0 mm 5,4 km/h (1 Bft) O 85 ° 0 min 0,000 mm 0,8 UV-I 109 W/m² 3,9 °C 3,5 °C 9,7 km/h (2 Bft)
25.03.2017 10:05 4,6 °C 4,6 °C 95 % 1024,0 hPa 0,0 mm 7,0 km/h (2 Bft) O-NO 59 ° 0 min 0,000 mm 0,8 UV-I 109 W/m² 3,9 °C 2,9 °C 11,3 km/h (2 Bft)
25.03.2017 10:06 4,6 °C 4,6 °C 95 % 1024,0 hPa 0,0 mm 9,6 km/h (2 Bft) O-NO 74 ° 0 min 0,000 mm 0,8 UV-I 109 W/m² 3,9 °C 2,3 °C 12,9 km/h (3 Bft)
25.03.2017 10:07 4,6 °C 4,6 °C 95 % 1024,0 hPa 0,0 mm 8,3 km/h (2 Bft) O 88 ° 0 min 0,000 mm 0,7 UV-I 105 W/m² 3,9 °C 2,6 °C 12,9 km/h (3 Bft)
25.03.2017 10:08 4,6 °C 4,6 °C 95 % 1024,0 hPa 0,0 mm 7,6 km/h (2 Bft) O-NO 59 ° 0 min 0,000 mm 0,7 UV-I 105 W/m² 3,9 °C 2,8 °C 12,9 km/h (3 Bft)
25.03.2017 10:09 4,6 °C 4,6 °C 95 % 1024,0 hPa 0,0 mm 6,2 km/h (2 Bft) N-NO 25 ° 0 min 0,000 mm 0,7 UV-I 98 W/m² 3,9 °C 3,2 °C 11,3 km/h (2 Bft)
25.03.2017 10:10 4,7 °C 4,7 °C 95 % 1024,0 hPa 0,0 mm 8,0 km/h (2 Bft) O-NO 72 ° 0 min 0,000 mm 0,7 UV-I 98 W/m² 4,0 °C 2,8 °C 12,9 km/h (3 Bft)
25.03.2017 10:11 4,7 °C 4,7 °C 95 % 1024,0 hPa 0,0 mm 4,6 km/h (1 Bft) O-NO 61 ° 0 min 0,000 mm 0,7 UV-I 97 W/m² 4,0 °C 3,9 °C 6,4 km/h (2 Bft)
25.03.2017 10:12 4,7 °C 4,7 °C 95 % 1023,9 hPa 0,0 mm 5,4 km/h (1 Bft) O-NO 76 ° 0 min 0,000 mm 0,7 UV-I 97 W/m² 4,0 °C 3,6 °C 9,7 km/h (2 Bft)
25.03.2017 10:13 4,7 °C 4,7 °C 95 % 1023,9 hPa 0,0 mm 7,3 km/h (2 Bft) NO 42 ° 0 min 0,000 mm 0,8 UV-I 102 W/m² 4,0 °C 3,0 °C 12,9 km/h (3 Bft)
25.03.2017 10:14 4,7 °C 4,7 °C 95 % 1023,9 hPa 0,0 mm 9,2 km/h (2 Bft) O-NO 63 ° 0 min 0,000 mm 0,8 UV-I 107 W/m² 4,0 °C 2,5 °C 12,9 km/h (3 Bft)
25.03.2017 10:15 4,7 °C 4,7 °C 95 % 1023,9 hPa 0,0 mm 10,3 km/h (2 Bft) O 79 ° 0 min 0,000 mm 0,8 UV-I 100 W/m² 4,0 °C 2,2 °C 14,5 km/h (3 Bft)
25.03.2017 10:16 4,7 °C 4,7 °C 95 % 1023,9 hPa 0,0 mm 8,0 km/h (2 Bft) O 80 ° 0 min 0,000 mm 0,8 UV-I 100 W/m² 4,0 °C 2,8 °C 12,9 km/h (3 Bft)
25.03.2017 10:17 4,7 °C 4,7 °C 95 % 1023,9 hPa 0,0 mm 5,6 km/h (1 Bft) O-NO 65 ° 0 min 0,000 mm 0,7 UV-I 98 W/m² 4,0 °C 3,5 °C 11,3 km/h (2 Bft)
25.03.2017 10:18 4,7 °C 4,7 °C 95 % 1023,8 hPa 0,0 mm 8,6 km/h (2 Bft) NO 41 ° 0 min 0,000 mm 0,7 UV-I 98 W/m² 4,0 °C 2,6 °C 12,9 km/h (3 Bft)
25.03.2017 10:19 4,7 °C 4,7 °C 95 % 1023,9 hPa 0,0 mm 5,6 km/h (1 Bft) NO 43 ° 0 min 0,000 mm 0,7 UV-I 98 W/m² 4,0 °C 3,5 °C 8,0 km/h (2 Bft)
25.03.2017 10:20 4,7 °C 4,7 °C 94 % 1023,9 hPa 0,0 mm 6,1 km/h (2 Bft) O-NO 57 ° 0 min 0,000 mm 0,8 UV-I 100 W/m² 3,8 °C 3,3 °C 8,0 km/h (2 Bft)
25.03.2017 10:21 4,7 °C 4,7 °C 95 % 1023,9 hPa 0,0 mm 9,7 km/h (2 Bft) O-NO 74 ° 0 min 0,000 mm 0,8 UV-I 113 W/m² 4,0 °C 2,4 °C 14,5 km/h (3 Bft)
25.03.2017 10:22 4,7 °C 4,7 °C 95 % 1023,9 hPa 0,0 mm 6,5 km/h (2 Bft) NO 44 ° 0 min 0,000 mm 0,8 UV-I 111 W/m² 4,0 °C 3,2 °C 8,0 km/h (2 Bft)
25.03.2017 10:23 4,7 °C 4,8 °C 94 % 1023,9 hPa 0,0 mm 5,1 km/h (1 Bft) O-NO 61 ° 0 min 0,000 mm 0,7 UV-I 102 W/m² 3,8 °C 3,7 °C 8,0 km/h (2 Bft)
25.03.2017 10:24 4,8 °C 4,8 °C 94 % 1023,9 hPa 0,0 mm 7,8 km/h (2 Bft) NO 42 ° 0 min 0,000 mm 0,8 UV-I 100 W/m² 3,9 °C 3,0 °C 11,3 km/h (2 Bft)
25.03.2017 10:25 4,7 °C 4,8 °C 94 % 1023,9 hPa 0,0 mm 9,0 km/h (2 Bft) N-NO 28 ° 0 min 0,000 mm 0,8 UV-I 107 W/m² 3,8 °C 2,5 °C 12,9 km/h (3 Bft)
25.03.2017 10:26 4,7 °C 4,8 °C 94 % 1023,9 hPa 0,0 mm 9,1 km/h (2 Bft) NO 50 ° 0 min 0,000 mm 0,8 UV-I 105 W/m² 3,8 °C 2,5 °C 12,9 km/h (3 Bft)
25.03.2017 10:27 4,8 °C 4,8 °C 94 % 1023,9 hPa 0,0 mm 6,8 km/h (2 Bft) O-NO 78 ° 0 min 0,000 mm 0,8 UV-I 107 W/m² 3,9 °C 3,2 °C 9,7 km/h (2 Bft)
25.03.2017 10:28 4,7 °C 4,8 °C 94 % 1023,9 hPa 0,0 mm 5,8 km/h (2 Bft) N-NO 15 ° 0 min 0,000 mm 0,8 UV-I 109 W/m² 3,8 °C 3,4 °C 8,0 km/h (2 Bft)
25.03.2017 10:29 4,8 °C 4,8 °C 94 % 1023,9 hPa 0,0 mm 8,9 km/h (2 Bft) O-NO 70 ° 0 min 0,000 mm 0,9 UV-I 114 W/m² 3,9 °C 2,7 °C 16,1 km/h (3 Bft)
25.03.2017 10:30 4,7 °C 4,8 °C 94 % 1023,9 hPa 0,0 mm 11,9 km/h (2 Bft) NO 36 ° 0 min 0,000 mm 0,9 UV-I 121 W/m² 3,8 °C 1,9 °C 17,7 km/h (3 Bft)
25.03.2017 10:31 4,7 °C 4,7 °C 94 % 1023,9 hPa 0,0 mm 7,2 km/h (2 Bft) N 5 ° 0 min 0,000 mm 0,9 UV-I 109 W/m² 3,8 °C 3,0 °C 11,3 km/h (2 Bft)
25.03.2017 10:32 4,7 °C 4,7 °C 94 % 1023,9 hPa 0,0 mm 8,2 km/h (2 Bft) O-NO 72 ° 0 min 0,000 mm 0,9 UV-I 113 W/m² 3,8 °C 2,7 °C 12,9 km/h (3 Bft)
25.03.2017 10:33 4,7 °C 4,7 °C 94 % 1023,9 hPa 0,0 mm 7,1 km/h (2 Bft) NO 46 ° 0 min 0,000 mm 0,8 UV-I 107 W/m² 3,8 °C 3,0 °C 9,7 km/h (2 Bft)
25.03.2017 10:34 4,7 °C 4,7 °C 94 % 1023,9 hPa 0,0 mm 11,2 km/h (2 Bft) N 5 ° 0 min 0,000 mm 0,8 UV-I 111 W/m² 3,8 °C 2,0 °C 16,1 km/h (3 Bft)
25.03.2017 10:35 4,7 °C 4,7 °C 94 % 1023,9 hPa 0,0 mm 7,1 km/h (2 Bft) O-NO 77 ° 0 min 0,000 mm 0,8 UV-I 105 W/m² 3,8 °C 3,0 °C 11,3 km/h (2 Bft)
25.03.2017 10:36 4,7 °C 4,7 °C 94 % 1023,9 hPa 0,0 mm 7,2 km/h (2 Bft) NO 50 ° 0 min 0,000 mm 0,9 UV-I 109 W/m² 3,8 °C 3,0 °C 11,3 km/h (2 Bft)
25.03.2017 10:37 4,7 °C 4,7 °C 94 % 1023,9 hPa 0,0 mm 10,8 km/h (2 Bft) NO 50 ° 0 min 0,000 mm 0,9 UV-I 120 W/m² 3,8 °C 2,1 °C 16,1 km/h (3 Bft)
25.03.2017 10:38 4,8 °C 4,8 °C 94 % 1023,9 hPa 0,0 mm 8,6 km/h (2 Bft) NO 36 ° 0 min 0,000 mm 0,9 UV-I 113 W/m² 3,9 °C 2,7 °C 14,5 km/h (3 Bft)
25.03.2017 10:39 4,8 °C 4,8 °C 94 % 1023,9 hPa 0,0 mm 8,4 km/h (2 Bft) NO 53 ° 0 min 0,000 mm 0,9 UV-I 118 W/m² 3,9 °C 2,8 °C 14,5 km/h (3 Bft)
25.03.2017 10:40 4,8 °C 4,8 °C 94 % 1023,9 hPa 0,0 mm 8,9 km/h (2 Bft) N-NO 25 ° 0 min 0,000 mm 0,8 UV-I 105 W/m² 3,9 °C 2,7 °C 14,5 km/h (3 Bft)
25.03.2017 10:41 4,8 °C 4,8 °C 93 % 1023,9 hPa 0,0 mm 10,7 km/h (2 Bft) N 9 ° 0 min 0,000 mm 0,8 UV-I 109 W/m² 3,8 °C 2,3 °C 16,1 km/h (3 Bft)
25.03.2017 10:42 4,8 °C 4,8 °C 93 % 1023,8 hPa 0,0 mm 13,5 km/h (3 Bft) NO 42 ° 0 min 0,000 mm 0,8 UV-I 109 W/m² 3,8 °C 1,7 °C 19,3 km/h (3 Bft)
25.03.2017 10:43 4,8 °C 4,8 °C 93 % 1023,9 hPa 0,0 mm 10,7 km/h (2 Bft) NO 48 ° 0 min 0,000 mm 0,8 UV-I 107 W/m² 3,8 °C 2,3 °C 16,1 km/h (3 Bft)
25.03.2017 10:44 4,8 °C 4,8 °C 93 % 1023,8 hPa 0,0 mm 8,2 km/h (2 Bft) O-NO 63 ° 0 min 0,000 mm 0,8 UV-I 100 W/m² 3,8 °C 2,8 °C 14,5 km/h (3 Bft)
25.03.2017 10:45 4,7 °C 4,8 °C 93 % 1023,9 hPa 0,0 mm 9,5 km/h (2 Bft) O-NO 78 ° 0 min 0,000 mm 0,8 UV-I 98 W/m² 3,7 °C 2,4 °C 14,5 km/h (3 Bft)
25.03.2017 10:46 4,7 °C 4,8 °C 93 % 1023,9 hPa 0,0 mm 8,0 km/h (2 Bft) NO 47 ° 0 min 0,000 mm 0,8 UV-I 111 W/m² 3,7 °C 2,8 °C 12,9 km/h (3 Bft)
25.03.2017 10:47 4,8 °C 4,8 °C 94 % 1023,9 hPa 0,0 mm 7,9 km/h (2 Bft) NO 46 ° 0 min 0,000 mm 0,8 UV-I 109 W/m² 3,9 °C 2,9 °C 12,9 km/h (3 Bft)
25.03.2017 10:48 4,8 °C 4,8 °C 94 % 1023,8 hPa 0,0 mm 4,8 km/h (1 Bft) O-NO 76 ° 0 min 0,000 mm 0,8 UV-I 111 W/m² 3,9 °C 3,9 °C 9,7 km/h (2 Bft)
25.03.2017 10:49 4,8 °C 4,8 °C 94 % 1023,8 hPa 0,0 mm 7,2 km/h (2 Bft) N-NO 32 ° 0 min 0,000 mm 0,8 UV-I 107 W/m² 3,9 °C 3,1 °C 14,5 km/h (3 Bft)
25.03.2017 10:50 4,8 °C 4,8 °C 94 % 1023,8 hPa 0,0 mm 8,9 km/h (2 Bft) O-NO 60 ° 0 min 0,000 mm 0,8 UV-I 114 W/m² 3,9 °C 2,7 °C 11,3 km/h (2 Bft)
25.03.2017 10:51 4,8 °C 4,8 °C 94 % 1023,8 hPa 0,0 mm 6,4 km/h (2 Bft) O-NO 63 ° 0 min 0,000 mm 1,0 UV-I 128 W/m² 3,9 °C 3,4 °C 11,3 km/h (2 Bft)
25.03.2017 10:52 4,7 °C 4,8 °C 94 % 1023,9 hPa 0,0 mm 13,9 km/h (3 Bft) O-NO 70 ° 0 min 0,000 mm 0,9 UV-I 130 W/m² 3,8 °C 1,6 °C 17,7 km/h (3 Bft)
25.03.2017 10:53 4,7 °C 4,8 °C 94 % 1023,8 hPa 0,0 mm 10,4 km/h (2 Bft) O-NO 63 ° 0 min 0,000 mm 0,9 UV-I 120 W/m² 3,8 °C 2,2 °C 16,1 km/h (3 Bft)
25.03.2017 10:54 4,7 °C 4,7 °C 94 % 1023,9 hPa 0,0 mm 5,4 km/h (1 Bft) N-NO 30 ° 0 min 0,000 mm 1,0 UV-I 128 W/m² 3,8 °C 3,6 °C 8,0 km/h (2 Bft)
25.03.2017 10:55 4,8 °C 4,8 °C 94 % 1023,8 hPa 0,0 mm 8,2 km/h (2 Bft) N-NO 17 ° 0 min 0,000 mm 1,0 UV-I 137 W/m² 3,9 °C 2,8 °C 12,9 km/h (3 Bft)
25.03.2017 10:56 4,8 °C 4,8 °C 94 % 1023,8 hPa 0,0 mm 8,7 km/h (2 Bft) O-NO 61 ° 0 min 0,000 mm 0,9 UV-I 123 W/m² 3,9 °C 2,7 °C 12,9 km/h (3 Bft)
25.03.2017 10:57 4,7 °C 4,8 °C 94 % 1023,8 hPa 0,0 mm 4,8 km/h (1 Bft) NO 37 ° 0 min 0,000 mm 0,9 UV-I 118 W/m² 3,8 °C 3,8 °C 9,7 km/h (2 Bft)
25.03.2017 10:58 4,8 °C 4,8 °C 94 % 1023,9 hPa 0,0 mm 8,5 km/h (2 Bft) N-NO 31 ° 0 min 0,000 mm 0,8 UV-I 114 W/m² 3,9 °C 2,8 °C 12,9 km/h (3 Bft)
25.03.2017 10:59 4,7 °C 4,8 °C 94 % 1023,8 hPa 0,0 mm 10,0 km/h (2 Bft) NO 46 ° 0 min 0,000 mm 0,8 UV-I 113 W/m² 3,8 °C 2,3 °C 14,5 km/h (3 Bft)
25.03.2017 11:00 4,7 °C 4,8 °C 94 % 1023,8 hPa 0,0 mm 10,0 km/h (2 Bft) NO 37 ° 0 min 0,000 mm 0,8 UV-I 111 W/m² 3,8 °C 2,3 °C 14,5 km/h (3 Bft)
25.03.2017 11:01 4,7 °C 4,7 °C 94 % 1023,8 hPa 0,0 mm 7,1 km/h (2 Bft) N-NO 26 ° 0 min 0,051 mm 0,8 UV-I 113 W/m² 3,8 °C 3,0 °C 9,7 km/h (2 Bft)
25.03.2017 11:02 4,7 °C 4,7 °C 94 % 1023,8 hPa 0,0 mm 10,6 km/h (2 Bft) NO 55 ° 0 min 0,000 mm 0,8 UV-I 114 W/m² 3,8 °C 2,2 °C 12,9 km/h (3 Bft)
25.03.2017 11:03 4,7 °C 4,7 °C 94 % 1023,8 hPa 0,0 mm 9,3 km/h (2 Bft) O-NO 78 ° 0 min 0,000 mm 0,9 UV-I 121 W/m² 3,8 °C 2,5 °C 12,9 km/h (3 Bft)
25.03.2017 11:04 4,6 °C 4,7 °C 94 % 1023,8 hPa 0,0 mm 11,8 km/h (2 Bft) NO 44 ° 0 min 0,000 mm 1,0 UV-I 128 W/m² 3,7 °C 1,8 °C 14,5 km/h (3 Bft)
25.03.2017 11:05 4,6 °C 4,6 °C 94 % 1023,8 hPa 0,0 mm 9,2 km/h (2 Bft) N-NO 30 ° 0 min 0,000 mm 0,9 UV-I 123 W/m² 3,7 °C 2,4 °C 14,5 km/h (3 Bft)
25.03.2017 11:06 4,6 °C 4,6 °C 94 % 1023,7 hPa 0,0 mm 6,4 km/h (2 Bft) N-NO 17 ° 0 min 0,000 mm 1,0 UV-I 128 W/m² 3,7 °C 3,1 °C 14,5 km/h (3 Bft)
25.03.2017 11:07 4,6 °C 4,6 °C 94 % 1023,7 hPa 0,0 mm 9,6 km/h (2 Bft) O-NO 70 ° 0 min 0,000 mm 1,0 UV-I 134 W/m² 3,7 °C 2,3 °C 14,5 km/h (3 Bft)
25.03.2017 11:08 4,6 °C 4,6 °C 94 % 1023,7 hPa 0,0 mm 6,3 km/h (2 Bft) NO 43 ° 0 min 0,000 mm 1,0 UV-I 132 W/m² 3,7 °C 3,2 °C 8,0 km/h (2 Bft)
25.03.2017 11:09 4,6 °C 4,6 °C 94 % 1023,6 hPa 0,0 mm 7,8 km/h (2 Bft) O-NO 64 ° 0 min 0,000 mm 0,9 UV-I 127 W/m² 3,7 °C 2,7 °C 12,9 km/h (3 Bft)
25.03.2017 11:10 4,6 °C 4,6 °C 94 % 1023,6 hPa 0,0 mm 7,0 km/h (2 Bft) O 83 ° 0 min 0,000 mm 0,9 UV-I 127 W/m² 3,7 °C 2,9 °C 9,7 km/h (2 Bft)
25.03.2017 11:11 4,6 °C 4,6 °C 94 % 1023,6 hPa 0,0 mm 7,4 km/h (2 Bft) N-NO 22 ° 0 min 0,000 mm 0,9 UV-I 125 W/m² 3,7 °C 2,8 °C 9,7 km/h (2 Bft)
25.03.2017 11:12 4,6 °C 4,6 °C 94 % 1023,7 hPa 0,0 mm 7,0 km/h (2 Bft) NO 55 ° 0 min 0,000 mm 0,9 UV-I 125 W/m² 3,7 °C 2,9 °C 12,9 km/h (3 Bft)
25.03.2017 11:13 4,6 °C 4,6 °C 94 % 1023,6 hPa 0,0 mm 8,7 km/h (2 Bft) O-NO 57 ° 0 min 0,000 mm 1,0 UV-I 123 W/m² 3,7 °C 2,5 °C 14,5 km/h (3 Bft)
25.03.2017 11:14 4,6 °C 4,6 °C 94 % 1023,6 hPa 0,0 mm 7,9 km/h (2 Bft) N-NO 24 ° 0 min 0,000 mm 0,9 UV-I 123 W/m² 3,7 °C 2,7 °C 11,3 km/h (2 Bft)
25.03.2017 11:15 4,6 °C 4,6 °C 94 % 1023,6 hPa 0,0 mm 9,3 km/h (2 Bft) O-NO 70 ° 0 min 0,000 mm 0,9 UV-I 123 W/m² 3,7 °C 2,3 °C 12,9 km/h (3 Bft)
25.03.2017 11:16 4,6 °C 4,6 °C 94 % 1023,6 hPa 0,0 mm 8,3 km/h (2 Bft) N-NO 26 ° 0 min 0,000 mm 1,0 UV-I 128 W/m² 3,7 °C 2,6 °C 12,9 km/h (3 Bft)
25.03.2017 11:17 4,6 °C 4,6 °C 94 % 1023,6 hPa 0,0 mm 6,4 km/h (2 Bft) O 79 ° 0 min 0,000 mm 1,0 UV-I 134 W/m² 3,7 °C 3,1 °C 9,7 km/h (2 Bft)
25.03.2017 11:18 4,6 °C 4,6 °C 94 % 1023,6 hPa 0,0 mm 5,5 km/h (1 Bft) N-NO 30 ° 0 min 0,000 mm 0,9 UV-I 125 W/m² 3,7 °C 3,4 °C 9,7 km/h (2 Bft)
25.03.2017 11:19 4,6 °C 4,6 °C 94 % 1023,6 hPa 0,0 mm 6,4 km/h (2 Bft) O-NO 63 ° 0 min 0,000 mm 1,0 UV-I 134 W/m² 3,7 °C 3,1 °C 11,3 km/h (2 Bft)
25.03.2017 11:20 4,6 °C 4,6 °C 94 % 1023,5 hPa 0,0 mm 5,3 km/h (1 Bft) O-NO 70 ° 0 min 0,000 mm 1,0 UV-I 134 W/m² 3,7 °C 3,5 °C 12,9 km/h (3 Bft)
25.03.2017 11:21 4,6 °C 4,6 °C 94 % 1023,6 hPa 0,0 mm 7,2 km/h (2 Bft) O-NO 71 ° 0 min 0,000 mm 1,0 UV-I 134 W/m² 3,7 °C 2,9 °C 14,5 km/h (3 Bft)
25.03.2017 11:22 4,6 °C 4,6 °C 94 % 1023,5 hPa 0,0 mm 9,7 km/h (2 Bft) N-NO 32 ° 0 min 0,000 mm 1,0 UV-I 139 W/m² 3,7 °C 2,2 °C 12,9 km/h (3 Bft)
25.03.2017 11:23 4,6 °C 4,6 °C 94 % 1023,5 hPa 0,0 mm 6,9 km/h (2 Bft) N-NO 31 ° 0 min 0,000 mm 1,0 UV-I 139 W/m² 3,7 °C 3,0 °C 11,3 km/h (2 Bft)
25.03.2017 11:24 4,7 °C 4,7 °C 94 % 1023,5 hPa 0,0 mm 7,1 km/h (2 Bft) NO 38 ° 0 min 0,000 mm 1,0 UV-I 137 W/m² 3,8 °C 3,0 °C 11,3 km/h (2 Bft)
25.03.2017 11:25 4,7 °C 4,7 °C 94 % 1023,5 hPa 0,0 mm 9,2 km/h (2 Bft) O-NO 76 ° 0 min 0,000 mm 1,1 UV-I 142 W/m² 3,8 °C 2,5 °C 14,5 km/h (3 Bft)
25.03.2017 11:26 4,7 °C 4,7 °C 94 % 1023,5 hPa 0,0 mm 8,8 km/h (2 Bft) NO 34 ° 0 min 0,000 mm 1,0 UV-I 137 W/m² 3,8 °C 2,6 °C 14,5 km/h (3 Bft)
25.03.2017 11:27 4,7 °C 4,7 °C 94 % 1023,4 hPa 0,0 mm 6,8 km/h (2 Bft) O-NO 59 ° 0 min 0,000 mm 1,0 UV-I 141 W/m² 3,8 °C 3,1 °C 11,3 km/h (2 Bft)
25.03.2017 11:28 4,7 °C 4,7 °C 94 % 1023,5 hPa 0,0 mm 10,2 km/h (2 Bft) O-NO 74 ° 0 min 0,000 mm 1,0 UV-I 139 W/m² 3,8 °C 2,3 °C 14,5 km/h (3 Bft)
25.03.2017 11:29 4,7 °C 4,7 °C 94 % 1023,5 hPa 0,0 mm 10,5 km/h (2 Bft) O-NO 71 ° 0 min 0,000 mm 1,1 UV-I 142 W/m² 3,8 °C 2,2 °C 16,1 km/h (3 Bft)
25.03.2017 11:30 4,7 °C 4,7 °C 94 % 1023,4 hPa 0,0 mm 9,1 km/h (2 Bft) NO 36 ° 0 min 0,000 mm 1,1 UV-I 144 W/m² 3,8 °C 2,5 °C 14,5 km/h (3 Bft)
25.03.2017 11:31 4,7 °C 4,7 °C 94 % 1023,4 hPa 0,0 mm 9,4 km/h (2 Bft) O-NO 58 ° 0 min 0,000 mm 1,1 UV-I 144 W/m² 3,8 °C 2,4 °C 11,3 km/h (2 Bft)
25.03.2017 11:32 4,8 °C 4,8 °C 94 % 1023,4 hPa 0,0 mm 7,1 km/h (2 Bft) NO 51 ° 0 min 0,000 mm 1,1 UV-I 141 W/m² 3,9 °C 3,1 °C 11,3 km/h (2 Bft)
25.03.2017 11:33 4,8 °C 4,8 °C 94 % 1023,4 hPa 0,0 mm 6,8 km/h (2 Bft) NO 38 ° 0 min 0,000 mm 1,1 UV-I 146 W/m² 3,9 °C 3,2 °C 9,7 km/h (2 Bft)
25.03.2017 11:34 4,8 °C 4,8 °C 94 % 1023,4 hPa 0,0 mm 7,9 km/h (2 Bft) O 80 ° 0 min 0,000 mm 1,1 UV-I 148 W/m² 3,9 °C 2,9 °C 11,3 km/h (2 Bft)
25.03.2017 11:35 4,8 °C 4,8 °C 94 % 1023,4 hPa 0,0 mm 9,9 km/h (2 Bft) NO 42 ° 0 min 0,000 mm 1,1 UV-I 153 W/m² 3,9 °C 2,4 °C 12,9 km/h (3 Bft)
25.03.2017 11:36 4,8 °C 4,8 °C 94 % 1023,4 hPa 0,0 mm 7,5 km/h (2 Bft) N-NO 31 ° 0 min 0,000 mm 1,1 UV-I 148 W/m² 3,9 °C 3,0 °C 14,5 km/h (3 Bft)
25.03.2017 11:37 4,8 °C 4,8 °C 94 % 1023,4 hPa 0,0 mm 9,6 km/h (2 Bft) O 98 ° 0 min 0,000 mm 1,1 UV-I 142 W/m² 3,9 °C 2,5 °C 14,5 km/h (3 Bft)
25.03.2017 11:38 4,8 °C 4,8 °C 94 % 1023,4 hPa 0,0 mm 5,6 km/h (1 Bft) N-NO 24 ° 0 min 0,000 mm 1,1 UV-I 141 W/m² 3,9 °C 3,6 °C 8,0 km/h (2 Bft)
25.03.2017 11:39 4,8 °C 4,8 °C 94 % 1023,4 hPa 0,0 mm 8,5 km/h (2 Bft) O-NO 73 ° 0 min 0,000 mm 1,1 UV-I 142 W/m² 3,9 °C 2,8 °C 12,9 km/h (3 Bft)
25.03.2017 11:40 4,8 °C 4,8 °C 94 % 1023,4 hPa 0,0 mm 9,5 km/h (2 Bft) N 11 ° 0 min 0,000 mm 1,0 UV-I 139 W/m² 3,9 °C 2,5 °C 12,9 km/h (3 Bft)
25.03.2017 11:41 4,8 °C 4,8 °C 94 % 1023,4 hPa 0,0 mm 5,8 km/h (2 Bft) NO 43 ° 0 min 0,000 mm 1,1 UV-I 144 W/m² 3,9 °C 3,6 °C 11,3 km/h (2 Bft)
25.03.2017 11:42 4,8 °C 4,8 °C 94 % 1023,4 hPa 0,0 mm 6,3 km/h (2 Bft) N-NO 29 ° 0 min 0,000 mm 1,1 UV-I 141 W/m² 3,9 °C 3,4 °C 11,3 km/h (2 Bft)
25.03.2017 11:43 4,8 °C 4,8 °C 94 % 1023,4 hPa 0,0 mm 8,6 km/h (2 Bft) NO 43 ° 0 min 0,000 mm 1,1 UV-I 146 W/m² 3,9 °C 2,7 °C 11,3 km/h (2 Bft)
25.03.2017 11:44 4,8 °C 4,8 °C 94 % 1023,3 hPa 0,0 mm 7,2 km/h (2 Bft) O-NO 63 ° 0 min 0,000 mm 1,1 UV-I 146 W/m² 3,9 °C 3,1 °C 12,9 km/h (3 Bft)
25.03.2017 11:45 4,8 °C 4,8 °C 94 % 1023,3 hPa 0,0 mm 7,0 km/h (2 Bft) NO 49 ° 0 min 0,000 mm 1,1 UV-I 151 W/m² 3,9 °C 3,2 °C 9,7 km/h (2 Bft)
25.03.2017 11:46 4,9 °C 4,9 °C 94 % 1023,4 hPa 0,0 mm 9,2 km/h (2 Bft) NO 34 ° 0 min 0,000 mm 1,1 UV-I 153 W/m² 4,0 °C 2,7 °C 14,5 km/h (3 Bft)
25.03.2017 11:47 4,9 °C 4,9 °C 94 % 1023,3 hPa 0,0 mm 8,4 km/h (2 Bft) O 80 ° 0 min 0,000 mm 1,2 UV-I 155 W/m² 4,0 °C 2,9 °C 16,1 km/h (3 Bft)
25.03.2017 11:48 4,9 °C 4,9 °C 94 % 1023,3 hPa 0,0 mm 3,9 km/h (1 Bft) O-NO 67 ° 0 min 0,000 mm 1,2 UV-I 162 W/m² 4,0 °C 4,9 °C 8,0 km/h (2 Bft)
25.03.2017 11:49 4,9 °C 4,9 °C 93 % 1023,3 hPa 0,0 mm 3,4 km/h (1 Bft) O-NO 68 ° 0 min 0,000 mm 1,2 UV-I 165 W/m² 3,9 °C 4,9 °C 6,4 km/h (2 Bft)
25.03.2017 11:50 4,9 °C 4,9 °C 93 % 1023,3 hPa 0,0 mm 9,3 km/h (2 Bft) O-NO 77 ° 0 min 0,000 mm 1,2 UV-I 167 W/m² 3,9 °C 2,7 °C 16,1 km/h (3 Bft)
25.03.2017 11:51 4,9 °C 4,9 °C 94 % 1023,3 hPa 0,0 mm 8,8 km/h (2 Bft) NO 44 ° 0 min 0,000 mm 1,2 UV-I 165 W/m² 4,0 °C 2,8 °C 12,9 km/h (3 Bft)
25.03.2017 11:52 4,9 °C 4,9 °C 94 % 1023,3 hPa 0,0 mm 6,4 km/h (2 Bft) NO 42 ° 0 min 0,000 mm 1,2 UV-I 162 W/m² 4,0 °C 3,5 °C 8,0 km/h (2 Bft)
25.03.2017 11:53 4,9 °C 4,9 °C 94 % 1023,3 hPa 0,0 mm 5,8 km/h (2 Bft) NO 34 ° 0 min 0,000 mm 1,1 UV-I 156 W/m² 4,0 °C 3,7 °C 8,0 km/h (2 Bft)
25.03.2017 11:54 4,9 °C 4,9 °C 93 % 1023,3 hPa 0,0 mm 10,7 km/h (2 Bft) NO 53 ° 0 min 0,000 mm 1,1 UV-I 153 W/m² 3,9 °C 2,4 °C 17,7 km/h (3 Bft)
25.03.2017 11:55 4,9 °C 4,9 °C 94 % 1023,3 hPa 0,0 mm 8,7 km/h (2 Bft) O-NO 77 ° 0 min 0,000 mm 1,1 UV-I 148 W/m² 4,0 °C 2,8 °C 14,5 km/h (3 Bft)
25.03.2017 11:56 4,9 °C 4,9 °C 94 % 1023,3 hPa 0,0 mm 7,8 km/h (2 Bft) N-NO 32 ° 0 min 0,000 mm 1,1 UV-I 142 W/m² 4,0 °C 3,1 °C 9,7 km/h (2 Bft)
25.03.2017 11:57 4,9 °C 4,9 °C 94 % 1023,4 hPa 0,0 mm 8,2 km/h (2 Bft) NO 53 ° 0 min 0,000 mm 1,0 UV-I 139 W/m² 4,0 °C 3,0 °C 12,9 km/h (3 Bft)
25.03.2017 11:58 4,9 °C 5,0 °C 93 % 1023,3 hPa 0,0 mm 8,2 km/h (2 Bft) NO 39 ° 0 min 0,000 mm 1,0 UV-I 128 W/m² 3,9 °C 3,0 °C 12,9 km/h (3 Bft)
25.03.2017 11:59 4,9 °C 4,9 °C 93 % 1023,3 hPa 0,0 mm 5,0 km/h (1 Bft) NO 36 ° 0 min 0,000 mm 1,0 UV-I 128 W/m² 3,9 °C 4,0 °C 8,0 km/h (2 Bft)
25.03.2017 12:00 4,9 °C 4,9 °C 93 % 1023,3 hPa 0,0 mm 6,4 km/h (2 Bft) N 9 ° 0 min 0,000 mm 1,0 UV-I 135 W/m² 3,9 °C 3,5 °C 14,5 km/h (3 Bft)
25.03.2017 12:01 4,9 °C 4,9 °C 93 % 1023,3 hPa 0,0 mm 6,3 km/h (2 Bft) O-NO 67 ° 0 min 0,050 mm 1,0 UV-I 135 W/m² 3,9 °C 3,5 °C 11,3 km/h (2 Bft)
25.03.2017 12:02 4,9 °C 4,9 °C 93 % 1023,3 hPa 0,0 mm 11,3 km/h (2 Bft) NO 41 ° 0 min 0,000 mm 1,0 UV-I 135 W/m² 3,9 °C 2,3 °C 14,5 km/h (3 Bft)
25.03.2017 12:03 4,9 °C 4,9 °C 93 % 1023,4 hPa 0,0 mm 11,7 km/h (2 Bft) O-NO 71 ° 0 min 0,000 mm 1,0 UV-I 130 W/m² 3,9 °C 2,2 °C 16,1 km/h (3 Bft)
25.03.2017 12:04 4,9 °C 4,9 °C 93 % 1023,4 hPa 0,0 mm 8,3 km/h (2 Bft) NO 42 ° 0 min 0,000 mm 1,0 UV-I 134 W/m² 3,9 °C 2,9 °C 16,1 km/h (3 Bft)
25.03.2017 12:05 4,9 °C 4,9 °C 93 % 1023,3 hPa 0,0 mm 14,1 km/h (3 Bft) O-NO 67 ° 0 min 0,000 mm 1,0 UV-I 135 W/m² 3,9 °C 1,8 °C 19,3 km/h (3 Bft)
25.03.2017 12:06 4,9 °C 4,9 °C 93 % 1023,4 hPa 0,0 mm 11,9 km/h (2 Bft) O 89 ° 0 min 0,000 mm 1,0 UV-I 134 W/m² 3,9 °C 2,2 °C 16,1 km/h (3 Bft)
25.03.2017 12:07 4,8 °C 4,9 °C 93 % 1023,4 hPa 0,0 mm 9,4 km/h (2 Bft) N 350 ° 0 min 0,000 mm 1,0 UV-I 132 W/m² 3,8 °C 2,6 °C 12,9 km/h (3 Bft)
25.03.2017 12:08 4,9 °C 4,9 °C 93 % 1023,3 hPa 0,0 mm 9,9 km/h (2 Bft) O-NO 77 ° 0 min 0,000 mm 1,0 UV-I 130 W/m² 3,9 °C 2,6 °C 16,1 km/h (3 Bft)
25.03.2017 12:09 4,9 °C 4,9 °C 93 % 1023,3 hPa 0,0 mm 12,1 km/h (2 Bft) NO 46 ° 0 min 0,000 mm 1,0 UV-I 134 W/m² 3,9 °C 2,1 °C 17,7 km/h (3 Bft)
25.03.2017 12:10 4,9 °C 4,9 °C 93 % 1023,4 hPa 0,0 mm 8,5 km/h (2 Bft) NO 45 ° 0 min 0,000 mm 1,0 UV-I 137 W/m² 3,9 °C 2,9 °C 16,1 km/h (3 Bft)
25.03.2017 12:11 4,9 °C 4,9 °C 93 % 1023,4 hPa 0,0 mm 9,5 km/h (2 Bft) O-NO 74 ° 0 min 0,000 mm 1,0 UV-I 137 W/m² 3,9 °C 2,7 °C 14,5 km/h (3 Bft)
25.03.2017 12:12 4,9 °C 4,9 °C 93 % 1023,4 hPa 0,0 mm 10,3 km/h (2 Bft) O-NO 75 ° 0 min 0,000 mm 1,2 UV-I 153 W/m² 3,9 °C 2,5 °C 17,7 km/h (3 Bft)
25.03.2017 12:13 4,9 °C 4,9 °C 93 % 1023,4 hPa 0,0 mm 11,7 km/h (2 Bft) NO 34 ° 0 min 0,000 mm 1,0 UV-I 132 W/m² 3,9 °C 2,2 °C 16,1 km/h (3 Bft)
25.03.2017 12:14 4,9 °C 4,9 °C 93 % 1023,3 hPa 0,0 mm 10,2 km/h (2 Bft) N-NO 15 ° 0 min 0,000 mm 1,0 UV-I 139 W/m² 3,9 °C 2,5 °C 14,5 km/h (3 Bft)
25.03.2017 12:15 4,9 °C 4,9 °C 93 % 1023,4 hPa 0,0 mm 13,2 km/h (3 Bft) O-NO 59 ° 0 min 0,000 mm 1,0 UV-I 137 W/m² 3,9 °C 1,9 °C 20,9 km/h (4 Bft)
25.03.2017 12:16 4,9 °C 4,9 °C 93 % 1023,4 hPa 0,0 mm 11,9 km/h (2 Bft) O-NO 59 ° 0 min 0,000 mm 1,1 UV-I 141 W/m² 3,9 °C 2,2 °C 17,7 km/h (3 Bft)
25.03.2017 12:17 4,9 °C 4,9 °C 93 % 1023,4 hPa 0,0 mm 9,2 km/h (2 Bft) N-NO 30 ° 0 min 0,000 mm 1,0 UV-I 139 W/m² 3,9 °C 2,7 °C 16,1 km/h (3 Bft)
25.03.2017 12:18 4,9 °C 4,9 °C 93 % 1023,4 hPa 0,0 mm 14,3 km/h (3 Bft) NO 52 ° 0 min 0,000 mm 1,1 UV-I 141 W/m² 3,9 °C 1,7 °C 20,9 km/h (4 Bft)
25.03.2017 12:19 4,9 °C 4,9 °C 93 % 1023,4 hPa 0,0 mm 10,0 km/h (2 Bft) N-NO 27 ° 0 min 0,000 mm 1,1 UV-I 142 W/m² 3,9 °C 2,5 °C 14,5 km/h (3 Bft)
25.03.2017 12:20 4,9 °C 4,9 °C 93 % 1023,4 hPa 0,0 mm 9,5 km/h (2 Bft) N-NO 25 ° 0 min 0,000 mm 1,1 UV-I 142 W/m² 3,9 °C 2,7 °C 14,5 km/h (3 Bft)
25.03.2017 12:21 4,9 °C 4,9 °C 93 % 1023,4 hPa 0,0 mm 7,9 km/h (2 Bft) N-NO 16 ° 0 min 0,000 mm 1,1 UV-I 146 W/m² 3,9 °C 3,0 °C 14,5 km/h (3 Bft)
25.03.2017 12:22 4,9 °C 4,9 °C 93 % 1023,3 hPa 0,0 mm 9,3 km/h (2 Bft) NO 49 ° 0 min 0,000 mm 1,0 UV-I 134 W/m² 3,9 °C 2,7 °C 14,5 km/h (3 Bft)
25.03.2017 12:23 4,9 °C 4,9 °C 93 % 1023,4 hPa 0,0 mm 11,5 km/h (2 Bft) NO 55 ° 0 min 0,000 mm 1,0 UV-I 135 W/m² 3,9 °C 2,2 °C 19,3 km/h (3 Bft)
25.03.2017 12:24 4,9 °C 4,9 °C 93 % 1023,3 hPa 0,0 mm 9,6 km/h (2 Bft) O-NO 70 ° 0 min 0,000 mm 1,0 UV-I 121 W/m² 3,9 °C 2,6 °C 12,9 km/h (3 Bft)
25.03.2017 12:25 5,0 °C 5,0 °C 93 % 1023,3 hPa 0,0 mm 9,7 km/h (2 Bft) NO 35 ° 0 min 0,000 mm 0,9 UV-I 116 W/m² 4,0 °C 2,7 °C 16,1 km/h (3 Bft)
25.03.2017 12:26 4,9 °C 5,0 °C 93 % 1023,3 hPa 0,0 mm 8,8 km/h (2 Bft) NO 44 ° 0 min 0,000 mm 0,9 UV-I 116 W/m² 3,9 °C 2,8 °C 14,5 km/h (3 Bft)
25.03.2017 12:27 4,9 °C 4,9 °C 93 % 1023,3 hPa 0,0 mm 10,2 km/h (2 Bft) O 84 ° 0 min 0,000 mm 1,0 UV-I 130 W/m² 3,9 °C 2,5 °C 19,3 km/h (3 Bft)
25.03.2017 12:28 4,9 °C 4,9 °C 93 % 1023,3 hPa 0,0 mm 11,2 km/h (2 Bft) O 84 ° 0 min 0,000 mm 1,0 UV-I 142 W/m² 3,9 °C 2,3 °C 16,1 km/h (3 Bft)
25.03.2017 12:29 4,9 °C 4,9 °C 93 % 1023,3 hPa 0,0 mm 11,3 km/h (2 Bft) O-NO 66 ° 0 min 0,000 mm 0,9 UV-I 125 W/m² 3,9 °C 2,3 °C 14,5 km/h (3 Bft)
25.03.2017 12:30 4,9 °C 4,9 °C 93 % 1023,2 hPa 0,0 mm 7,0 km/h (2 Bft) O 85 ° 0 min 0,000 mm 0,8 UV-I 114 W/m² 3,9 °C 3,3 °C 11,3 km/h (2 Bft)
25.03.2017 12:31 4,9 °C 4,9 °C 93 % 1023,2 hPa 0,0 mm 8,2 km/h (2 Bft) NO 46 ° 0 min 0,000 mm 0,9 UV-I 118 W/m² 3,9 °C 3,0 °C 12,9 km/h (3 Bft)
25.03.2017 12:32 4,9 °C 4,9 °C 93 % 1023,2 hPa 0,0 mm 8,6 km/h (2 Bft) O-NO 78 ° 0 min 0,000 mm 0,9 UV-I 127 W/m² 3,9 °C 2,9 °C 16,1 km/h (3 Bft)
25.03.2017 12:33 4,9 °C 5,0 °C 93 % 1023,2 hPa 0,0 mm 7,6 km/h (2 Bft) N-NO 29 ° 0 min 0,000 mm 0,9 UV-I 130 W/m² 3,9 °C 3,1 °C 12,9 km/h (3 Bft)
25.03.2017 12:34 4,9 °C 5,0 °C 93 % 1023,2 hPa 0,0 mm 11,6 km/h (2 Bft) O-NO 76 ° 0 min 0,000 mm 0,9 UV-I 125 W/m² 3,9 °C 2,2 °C 20,9 km/h (4 Bft)
25.03.2017 12:35 4,9 °C 5,0 °C 93 % 1023,2 hPa 0,0 mm 13,6 km/h (3 Bft) O 82 ° 0 min 0,000 mm 0,9 UV-I 125 W/m² 3,9 °C 1,9 °C 20,9 km/h (4 Bft)
25.03.2017 12:36 4,9 °C 4,9 °C 93 % 1023,2 hPa 0,0 mm 9,9 km/h (2 Bft) O 79 ° 0 min 0,000 mm 0,9 UV-I 120 W/m² 3,9 °C 2,6 °C 14,5 km/h (3 Bft)
25.03.2017 12:37 4,9 °C 4,9 °C 93 % 1023,2 hPa 0,0 mm 12,0 km/h (2 Bft) O-NO 61 ° 0 min 0,000 mm 0,9 UV-I 120 W/m² 3,9 °C 2,1 °C 16,1 km/h (3 Bft)
25.03.2017 12:38 4,9 °C 4,9 °C 93 % 1023,2 hPa 0,0 mm 8,0 km/h (2 Bft) N-NO 24 ° 0 min 0,000 mm 0,9 UV-I 120 W/m² 3,9 °C 3,0 °C 11,3 km/h (2 Bft)
25.03.2017 12:39 4,9 °C 4,9 °C 93 % 1023,2 hPa 0,0 mm 7,4 km/h (2 Bft) O 82 ° 0 min 0,000 mm 0,8 UV-I 111 W/m² 3,9 °C 3,2 °C 11,3 km/h (2 Bft)
25.03.2017 12:40 4,9 °C 4,9 °C 94 % 1023,2 hPa 0,0 mm 6,0 km/h (2 Bft) N-NO 27 ° 0 min 0,000 mm 0,9 UV-I 114 W/m² 4,0 °C 3,6 °C 9,7 km/h (2 Bft)
25.03.2017 12:41 4,9 °C 4,9 °C 94 % 1023,2 hPa 0,0 mm 6,0 km/h (2 Bft) O-NO 57 ° 0 min 0,000 mm 0,8 UV-I 116 W/m² 4,0 °C 3,6 °C 14,5 km/h (3 Bft)
25.03.2017 12:42 4,9 °C 4,9 °C 93 % 1023,2 hPa 0,0 mm 11,7 km/h (2 Bft) N-NO 26 ° 0 min 0,000 mm 0,9 UV-I 114 W/m² 3,9 °C 2,2 °C 19,3 km/h (3 Bft)
25.03.2017 12:43 4,9 °C 4,9 °C 93 % 1023,2 hPa 0,0 mm 9,1 km/h (2 Bft) N-NO 15 ° 0 min 0,000 mm 0,9 UV-I 113 W/m² 3,9 °C 2,7 °C 12,9 km/h (3 Bft)
25.03.2017 12:44 4,8 °C 4,9 °C 93 % 1023,2 hPa 0,0 mm 10,8 km/h (2 Bft) NO 34 ° 0 min 0,000 mm 0,9 UV-I 114 W/m² 3,8 °C 2,2 °C 16,1 km/h (3 Bft)
25.03.2017 12:45 4,8 °C 4,9 °C 93 % 1023,1 hPa 0,0 mm 5,8 km/h (2 Bft) O-NO 69 ° 0 min 0,000 mm 0,9 UV-I 116 W/m² 3,8 °C 3,6 °C 9,7 km/h (2 Bft)
25.03.2017 12:46 4,8 °C 4,9 °C 93 % 1023,1 hPa 0,0 mm 9,4 km/h (2 Bft) O 90 ° 0 min 0,000 mm 0,8 UV-I 111 W/m² 3,8 °C 2,6 °C 14,5 km/h (3 Bft)
25.03.2017 12:47 4,8 °C 4,8 °C 93 % 1023,1 hPa 0,0 mm 7,4 km/h (2 Bft) O-NO 74 ° 0 min 0,000 mm 0,8 UV-I 114 W/m² 3,8 °C 3,1 °C 14,5 km/h (3 Bft)
25.03.2017 12:48 4,9 °C 4,9 °C 93 % 1023,0 hPa 0,0 mm 8,4 km/h (2 Bft) O-NO 60 ° 0 min 0,000 mm 0,8 UV-I 109 W/m² 3,9 °C 2,9 °C 12,9 km/h (3 Bft)
25.03.2017 12:49 4,8 °C 4,9 °C 93 % 1023,1 hPa 0,0 mm 9,3 km/h (2 Bft) N-NO 29 ° 0 min 0,000 mm 0,8 UV-I 107 W/m² 3,8 °C 2,6 °C 16,1 km/h (3 Bft)
25.03.2017 12:50 4,8 °C 4,9 °C 93 % 1023,0 hPa 0,0 mm 7,5 km/h (2 Bft) N-NO 27 ° 0 min 0,000 mm 0,8 UV-I 107 W/m² 3,8 °C 3,0 °C 12,9 km/h (3 Bft)
25.03.2017 12:51 4,9 °C 4,9 °C 93 % 1023,1 hPa 0,0 mm 8,6 km/h (2 Bft) O-NO 75 ° 0 min 0,000 mm 0,8 UV-I 107 W/m² 3,9 °C 2,9 °C 14,5 km/h (3 Bft)
25.03.2017 12:52 4,9 °C 4,9 °C 93 % 1023,0 hPa 0,0 mm 7,2 km/h (2 Bft) O 85 ° 0 min 0,000 mm 0,8 UV-I 102 W/m² 3,9 °C 3,2 °C 14,5 km/h (3 Bft)
25.03.2017 12:53 4,9 °C 4,9 °C 93 % 1023,0 hPa 0,0 mm 8,1 km/h (2 Bft) O-NO 68 ° 0 min 0,000 mm 0,7 UV-I 93 W/m² 3,9 °C 3,0 °C 14,5 km/h (3 Bft)
25.03.2017 12:54 4,9 °C 4,9 °C 93 % 1023,0 hPa 0,0 mm 8,6 km/h (2 Bft) O-NO 71 ° 0 min 0,000 mm 0,7 UV-I 95 W/m² 3,9 °C 2,9 °C 17,7 km/h (3 Bft)
25.03.2017 12:55 4,9 °C 4,9 °C 93 % 1023,0 hPa 0,0 mm 11,5 km/h (2 Bft) NO 55 ° 0 min 0,000 mm 0,8 UV-I 102 W/m² 3,9 °C 2,2 °C 17,7 km/h (3 Bft)
25.03.2017 12:56 4,9 °C 4,9 °C 93 % 1023,0 hPa 0,0 mm 7,1 km/h (2 Bft) O-NO 61 ° 0 min 0,000 mm 0,8 UV-I 102 W/m² 3,9 °C 3,3 °C 11,3 km/h (2 Bft)
25.03.2017 12:57 4,9 °C 4,9 °C 93 % 1023,0 hPa 0,0 mm 6,0 km/h (2 Bft) O 84 ° 0 min 0,000 mm 0,8 UV-I 104 W/m² 3,9 °C 3,6 °C 8,0 km/h (2 Bft)
25.03.2017 12:58 4,9 °C 4,9 °C 93 % 1023,0 hPa 0,0 mm 5,3 km/h (1 Bft) NO 55 ° 0 min 0,000 mm 0,8 UV-I 104 W/m² 3,9 °C 3,9 °C 8,0 km/h (2 Bft)
25.03.2017 12:59 4,9 °C 4,9 °C 93 % 1023,0 hPa 0,0 mm 8,0 km/h (2 Bft) NO 50 ° 0 min 0,000 mm 0,8 UV-I 109 W/m² 3,9 °C 3,0 °C 14,5 km/h (3 Bft)
25.03.2017 13:00 4,9 °C 4,9 °C 93 % 1023,0 hPa 0,0 mm 8,5 km/h (2 Bft) NO 40 ° 0 min 0,000 mm 0,8 UV-I 114 W/m² 3,9 °C 2,9 °C 12,9 km/h (3 Bft)
25.03.2017 13:01 4,9 °C 4,9 °C 93 % 1023,0 hPa 0,0 mm 5,7 km/h (1 Bft) O-NO 57 ° 0 min 0,051 mm 0,8 UV-I 109 W/m² 3,9 °C 3,7 °C 8,0 km/h (2 Bft)
25.03.2017 13:02 4,9 °C 4,9 °C 93 % 1023,0 hPa 0,0 mm 8,4 km/h (2 Bft) O 96 ° 0 min 0,000 mm 0,8 UV-I 107 W/m² 3,9 °C 2,9 °C 16,1 km/h (3 Bft)
25.03.2017 13:03 4,9 °C 4,9 °C 93 % 1023,0 hPa 0,0 mm 6,2 km/h (2 Bft) O-NO 66 ° 0 min 0,000 mm 0,8 UV-I 109 W/m² 3,9 °C 3,5 °C 8,0 km/h (2 Bft)
25.03.2017 13:04 4,9 °C 4,9 °C 93 % 1023,0 hPa 0,0 mm 8,7 km/h (2 Bft) NO 34 ° 0 min 0,000 mm 0,9 UV-I 116 W/m² 3,9 °C 2,8 °C 14,5 km/h (3 Bft)
25.03.2017 13:05 4,9 °C 4,9 °C 93 % 1022,9 hPa 0,0 mm 6,1 km/h (2 Bft) N-NO 15 ° 0 min 0,000 mm 0,9 UV-I 125 W/m² 3,9 °C 3,6 °C 11,3 km/h (2 Bft)
25.03.2017 13:06 4,9 °C 4,9 °C 93 % 1022,9 hPa 0,0 mm 8,7 km/h (2 Bft) NO 55 ° 0 min 0,000 mm 0,9 UV-I 123 W/m² 3,9 °C 2,8 °C 16,1 km/h (3 Bft)
25.03.2017 13:07 4,9 °C 4,9 °C 93 % 1022,9 hPa 0,0 mm 9,7 km/h (2 Bft) NO 34 ° 0 min 0,000 mm 0,9 UV-I 118 W/m² 3,9 °C 2,6 °C 14,5 km/h (3 Bft)
25.03.2017 13:08 4,9 °C 4,9 °C 93 % 1022,9 hPa 0,0 mm 6,5 km/h (2 Bft) O-NO 58 ° 0 min 0,000 mm 0,9 UV-I 116 W/m² 3,9 °C 3,4 °C 11,3 km/h (2 Bft)
25.03.2017 13:09 4,9 °C 4,9 °C 93 % 1022,9 hPa 0,0 mm 8,6 km/h (2 Bft) NO 53 ° 0 min 0,000 mm 0,9 UV-I 128 W/m² 3,9 °C 2,9 °C 16,1 km/h (3 Bft)
25.03.2017 13:10 4,9 °C 4,9 °C 93 % 1022,9 hPa 0,0 mm 6,1 km/h (2 Bft) NO 50 ° 0 min 0,000 mm 0,9 UV-I 121 W/m² 3,9 °C 3,6 °C 9,7 km/h (2 Bft)
25.03.2017 13:11 4,9 °C 4,9 °C 93 % 1022,9 hPa 0,0 mm 12,4 km/h (3 Bft) O-NO 71 ° 0 min 0,000 mm 0,9 UV-I 118 W/m² 3,9 °C 2,1 °C 16,1 km/h (3 Bft)
25.03.2017 13:12 4,9 °C 4,9 °C 93 % 1022,9 hPa 0,0 mm 10,5 km/h (2 Bft) N-NO 23 ° 0 min 0,000 mm 0,9 UV-I 123 W/m² 3,9 °C 2,4 °C 16,1 km/h (3 Bft)
25.03.2017 13:13 4,9 °C 4,9 °C 93 % 1022,9 hPa 0,0 mm 11,0 km/h (2 Bft) O-NO 76 ° 0 min 0,000 mm 0,9 UV-I 123 W/m² 3,9 °C 2,3 °C 17,7 km/h (3 Bft)
25.03.2017 13:14 4,9 °C 4,9 °C 93 % 1022,9 hPa 0,0 mm 11,5 km/h (2 Bft) NO 44 ° 0 min 0,000 mm 0,9 UV-I 121 W/m² 3,9 °C 2,2 °C 14,5 km/h (3 Bft)
25.03.2017 13:15 4,9 °C 4,9 °C 93 % 1022,9 hPa 0,0 mm 9,6 km/h (2 Bft) O-NO 65 ° 0 min 0,000 mm 0,9 UV-I 121 W/m² 3,9 °C 2,6 °C 14,5 km/h (3 Bft)
25.03.2017 13:16 5,0 °C 5,0 °C 93 % 1022,8 hPa 0,0 mm 10,0 km/h (2 Bft) O-SO 109 ° 0 min 0,000 mm 0,8 UV-I 111 W/m² 4,0 °C 2,7 °C 16,1 km/h (3 Bft)
25.03.2017 13:17 4,9 °C 5,0 °C 93 % 1022,8 hPa 0,0 mm 8,1 km/h (2 Bft) NO 38 ° 0 min 0,000 mm 0,8 UV-I 113 W/m² 3,9 °C 3,0 °C 12,9 km/h (3 Bft)
25.03.2017 13:18 5,0 °C 5,0 °C 93 % 1022,8 hPa 0,0 mm 12,1 km/h (2 Bft) O 86 ° 0 min 0,000 mm 0,8 UV-I 109 W/m² 4,0 °C 2,2 °C 17,7 km/h (3 Bft)
25.03.2017 13:19 5,0 °C 5,0 °C 93 % 1022,8 hPa 0,0 mm 6,7 km/h (2 Bft) NO 45 ° 0 min 0,000 mm 0,8 UV-I 111 W/m² 4,0 °C 3,5 °C 11,3 km/h (2 Bft)
25.03.2017 13:20 5,0 °C 5,0 °C 93 % 1022,8 hPa 0,0 mm 4,7 km/h (1 Bft) O 87 ° 0 min 0,000 mm 0,8 UV-I 113 W/m² 4,0 °C 4,2 °C 8,0 km/h (2 Bft)
25.03.2017 13:21 5,1 °C 5,1 °C 93 % 1022,8 hPa 0,0 mm 8,5 km/h (2 Bft) O 81 ° 0 min 0,000 mm 0,8 UV-I 109 W/m² 4,1 °C 3,1 °C 11,3 km/h (2 Bft)
25.03.2017 13:22 5,1 °C 5,1 °C 93 % 1022,8 hPa 0,0 mm 9,1 km/h (2 Bft) N-NO 32 ° 0 min 0,000 mm 0,8 UV-I 104 W/m² 4,1 °C 3,0 °C 12,9 km/h (3 Bft)
25.03.2017 13:23 5,1 °C 5,1 °C 93 % 1022,8 hPa 0,0 mm 5,5 km/h (1 Bft) O-NO 72 ° 0 min 0,000 mm 0,8 UV-I 107 W/m² 4,1 °C 4,0 °C 8,0 km/h (2 Bft)
25.03.2017 13:24 5,1 °C 5,1 °C 93 % 1022,8 hPa 0,0 mm 10,7 km/h (2 Bft) NO 56 ° 0 min 0,000 mm 0,8 UV-I 109 W/m² 4,1 °C 2,6 °C 16,1 km/h (3 Bft)
25.03.2017 13:25 5,1 °C 5,1 °C 93 % 1022,8 hPa 0,0 mm 10,3 km/h (2 Bft) O-NO 62 ° 0 min 0,000 mm 0,8 UV-I 113 W/m² 4,1 °C 2,7 °C 16,1 km/h (3 Bft)
25.03.2017 13:26 5,0 °C 5,1 °C 92 % 1022,8 hPa 0,0 mm 8,8 km/h (2 Bft) O-NO 60 ° 0 min 0,000 mm 0,8 UV-I 116 W/m² 3,8 °C 2,9 °C 16,1 km/h (3 Bft)
25.03.2017 13:27 5,0 °C 5,1 °C 92 % 1022,8 hPa 0,0 mm 8,0 km/h (2 Bft) NO 53 ° 0 min 0,000 mm 0,9 UV-I 118 W/m² 3,8 °C 3,1 °C 16,1 km/h (3 Bft)
25.03.2017 13:28 5,1 °C 5,1 °C 92 % 1022,8 hPa 0,0 mm 11,7 km/h (2 Bft) NO 46 ° 0 min 0,000 mm 0,9 UV-I 120 W/m² 3,9 °C 2,4 °C 16,1 km/h (3 Bft)
25.03.2017 13:29 5,1 °C 5,1 °C 92 % 1022,8 hPa 0,0 mm 8,1 km/h (2 Bft) O-NO 63 ° 0 min 0,000 mm 0,8 UV-I 114 W/m² 3,9 °C 3,2 °C 12,9 km/h (3 Bft)
25.03.2017 13:30 5,0 °C 5,1 °C 92 % 1022,7 hPa 0,0 mm 11,5 km/h (2 Bft) O-NO 67 ° 0 min 0,000 mm 0,8 UV-I 114 W/m² 3,8 °C 2,4 °C 16,1 km/h (3 Bft)
25.03.2017 13:31 5,0 °C 5,1 °C 92 % 1022,8 hPa 0,0 mm 12,8 km/h (3 Bft) NO 56 ° 0 min 0,000 mm 0,8 UV-I 116 W/m² 3,8 °C 2,1 °C 17,7 km/h (3 Bft)
25.03.2017 13:32 5,0 °C 5,1 °C 92 % 1022,7 hPa 0,0 mm 10,6 km/h (2 Bft) O-NO 62 ° 0 min 0,000 mm 0,8 UV-I 116 W/m² 3,8 °C 2,5 °C 17,7 km/h (3 Bft)
25.03.2017 13:33 5,0 °C 5,1 °C 92 % 1022,7 hPa 0,0 mm 9,3 km/h (2 Bft) NO 44 ° 0 min 0,000 mm 0,8 UV-I 113 W/m² 3,8 °C 2,8 °C 12,9 km/h (3 Bft)
25.03.2017 13:34 5,1 °C 5,1 °C 93 % 1022,8 hPa 0,0 mm 10,0 km/h (2 Bft) O-NO 66 ° 0 min 0,000 mm 0,8 UV-I 116 W/m² 4,1 °C 2,8 °C 16,1 km/h (3 Bft)
25.03.2017 13:35 5,0 °C 5,1 °C 93 % 1022,7 hPa 0,0 mm 7,8 km/h (2 Bft) O-NO 61 ° 0 min 0,000 mm 0,8 UV-I 114 W/m² 4,0 °C 3,2 °C 12,9 km/h (3 Bft)
25.03.2017 13:36 5,1 °C 5,1 °C 92 % 1022,7 hPa 0,0 mm 8,6 km/h (2 Bft) N-NO 30 ° 0 min 0,000 mm 0,8 UV-I 109 W/m² 3,9 °C 3,1 °C 12,9 km/h (3 Bft)
25.03.2017 13:37 5,1 °C 5,1 °C 92 % 1022,7 hPa 0,0 mm 7,6 km/h (2 Bft) NO 42 ° 0 min 0,000 mm 0,8 UV-I 107 W/m² 3,9 °C 3,4 °C 14,5 km/h (3 Bft)
25.03.2017 13:38 5,1 °C 5,1 °C 92 % 1022,7 hPa 0,0 mm 9,4 km/h (2 Bft) NO 41 ° 0 min 0,000 mm 0,8 UV-I 107 W/m² 3,9 °C 2,9 °C 14,5 km/h (3 Bft)
25.03.2017 13:39 5,1 °C 5,1 °C 92 % 1022,7 hPa 0,0 mm 5,8 km/h (2 Bft) NO 44 ° 0 min 0,000 mm 0,7 UV-I 104 W/m² 3,9 °C 3,9 °C 9,7 km/h (2 Bft)
25.03.2017 13:40 5,1 °C 5,1 °C 92 % 1022,7 hPa 0,0 mm 8,6 km/h (2 Bft) NO 40 ° 0 min 0,000 mm 0,7 UV-I 98 W/m² 3,9 °C 3,1 °C 14,5 km/h (3 Bft)
25.03.2017 13:41 5,1 °C 5,1 °C 92 % 1022,7 hPa 0,0 mm 6,9 km/h (2 Bft) NO 53 ° 0 min 0,000 mm 0,8 UV-I 102 W/m² 3,9 °C 3,6 °C 12,9 km/h (3 Bft)
25.03.2017 13:42 5,1 °C 5,1 °C 92 % 1022,7 hPa 0,0 mm 6,8 km/h (2 Bft) NO 34 ° 0 min 0,000 mm 0,8 UV-I 109 W/m² 3,9 °C 3,6 °C 9,7 km/h (2 Bft)
25.03.2017 13:43 5,1 °C 5,1 °C 92 % 1022,5 hPa 0,0 mm 6,0 km/h (2 Bft) O-NO 57 ° 0 min 0,000 mm 0,8 UV-I 105 W/m² 3,9 °C 3,8 °C 11,3 km/h (2 Bft)
25.03.2017 13:44 5,1 °C 5,1 °C 92 % 1022,6 hPa 0,0 mm 9,5 km/h (2 Bft) N-NO 22 ° 0 min 0,000 mm 0,8 UV-I 104 W/m² 3,9 °C 2,9 °C 12,9 km/h (3 Bft)
25.03.2017 13:45 5,2 °C 5,2 °C 92 % 1022,6 hPa 0,0 mm 6,4 km/h (2 Bft) O-NO 57 ° 0 min 0,000 mm 0,7 UV-I 102 W/m² 4,0 °C 3,8 °C 8,0 km/h (2 Bft)
25.03.2017 13:46 5,2 °C 5,2 °C 92 % 1022,6 hPa 0,0 mm 12,2 km/h (2 Bft) O-NO 60 ° 0 min 0,000 mm 0,7 UV-I 100 W/m² 4,0 °C 2,5 °C 17,7 km/h (3 Bft)
25.03.2017 13:47 5,1 °C 5,2 °C 92 % 1022,6 hPa 0,0 mm 10,9 km/h (2 Bft) NO 36 ° 0 min 0,000 mm 0,7 UV-I 98 W/m² 3,9 °C 2,6 °C 17,7 km/h (3 Bft)
25.03.2017 13:48 5,2 °C 5,2 °C 92 % 1022,6 hPa 0,0 mm 10,1 km/h (2 Bft) O-NO 66 ° 0 min 0,000 mm 0,7 UV-I 97 W/m² 4,0 °C 2,9 °C 14,5 km/h (3 Bft)
25.03.2017 13:49 5,1 °C 5,2 °C 92 % 1022,6 hPa 0,0 mm 10,3 km/h (2 Bft) NW 306 ° 0 min 0,000 mm 0,7 UV-I 95 W/m² 3,9 °C 2,7 °C 14,5 km/h (3 Bft)
25.03.2017 13:50 5,1 °C 5,1 °C 92 % 1022,6 hPa 0,0 mm 6,6 km/h (2 Bft) NO 38 ° 0 min 0,000 mm 0,7 UV-I 100 W/m² 3,9 °C 3,6 °C 9,7 km/h (2 Bft)
25.03.2017 13:51 5,1 °C 5,1 °C 92 % 1022,5 hPa 0,0 mm 11,0 km/h (2 Bft) O-NO 78 ° 0 min 0,000 mm 0,8 UV-I 102 W/m² 3,9 °C 2,6 °C 16,1 km/h (3 Bft)
25.03.2017 13:52 5,1 °C 5,1 °C 92 % 1022,6 hPa 0,0 mm 8,8 km/h (2 Bft) O-NO 67 ° 0 min 0,000 mm 0,8 UV-I 105 W/m² 3,9 °C 3,1 °C 14,5 km/h (3 Bft)
25.03.2017 13:53 5,1 °C 5,1 °C 92 % 1022,5 hPa 0,0 mm 8,2 km/h (2 Bft) N-NO 17 ° 0 min 0,000 mm 0,7 UV-I 104 W/m² 3,9 °C 3,2 °C 14,5 km/h (3 Bft)
25.03.2017 13:54 5,1 °C 5,1 °C 92 % 1022,6 hPa 0,0 mm 7,6 km/h (2 Bft) N-NO 33 ° 0 min 0,000 mm 0,7 UV-I 102 W/m² 3,9 °C 3,4 °C 12,9 km/h (3 Bft)
25.03.2017 13:55 5,1 °C 5,1 °C 92 % 1022,6 hPa 0,0 mm 12,7 km/h (3 Bft) N-NO 13 ° 0 min 0,000 mm 0,7 UV-I 102 W/m² 3,9 °C 2,3 °C 17,7 km/h (3 Bft)
25.03.2017 13:56 5,1 °C 5,1 °C 92 % 1022,5 hPa 0,0 mm 11,8 km/h (2 Bft) NO 40 ° 0 min 0,000 mm 0,7 UV-I 102 W/m² 3,9 °C 2,4 °C 16,1 km/h (3 Bft)
25.03.2017 13:57 5,1 °C 5,1 °C 92 % 1022,5 hPa 0,0 mm 7,4 km/h (2 Bft) N-NO 27 ° 0 min 0,000 mm 0,8 UV-I 116 W/m² 3,9 °C 3,4 °C 9,7 km/h (2 Bft)
25.03.2017 13:58 5,0 °C 5,1 °C 92 % 1022,5 hPa 0,0 mm 7,8 km/h (2 Bft) NO 41 ° 0 min 0,000 mm 0,8 UV-I 107 W/m² 3,8 °C 3,2 °C 14,5 km/h (3 Bft)
25.03.2017 13:59 5,1 °C 5,1 °C 92 % 1022,5 hPa 0,0 mm 4,3 km/h (1 Bft) O-NO 63 ° 0 min 0,000 mm 0,8 UV-I 109 W/m² 3,9 °C 5,1 °C 6,4 km/h (2 Bft)
25.03.2017 14:00 5,1 °C 5,1 °C 92 % 1022,5 hPa 0,0 mm 7,8 km/h (2 Bft) O-NO 69 ° 0 min 0,000 mm 0,8 UV-I 109 W/m² 3,9 °C 3,3 °C 12,9 km/h (3 Bft)
25.03.2017 14:01 5,1 °C 5,1 °C 92 % 1022,5 hPa 0,0 mm 8,6 km/h (2 Bft) O-NO 71 ° 0 min 0,051 mm 0,8 UV-I 116 W/m² 3,9 °C 3,1 °C 12,9 km/h (3 Bft)
25.03.2017 14:02 5,1 °C 5,1 °C 92 % 1022,5 hPa 0,0 mm 7,4 km/h (2 Bft) N-NO 32 ° 0 min 0,000 mm 0,8 UV-I 116 W/m² 3,9 °C 3,4 °C 14,5 km/h (3 Bft)
25.03.2017 14:03 5,2 °C 5,2 °C 92 % 1022,5 hPa 0,0 mm 7,5 km/h (2 Bft) N-NO 30 ° 0 min 0,000 mm 0,8 UV-I 111 W/m² 4,0 °C 3,5 °C 11,3 km/h (2 Bft)
25.03.2017 14:04 5,2 °C 5,2 °C 92 % 1022,5 hPa 0,0 mm 12,2 km/h (2 Bft) NO 55 ° 0 min 0,000 mm 0,8 UV-I 113 W/m² 4,0 °C 2,5 °C 19,3 km/h (3 Bft)
25.03.2017 14:05 5,2 °C 5,2 °C 92 % 1022,4 hPa 0,0 mm 15,6 km/h (3 Bft) O 84 ° 0 min 0,000 mm 0,9 UV-I 123 W/m² 4,0 °C 1,9 °C 19,3 km/h (3 Bft)
25.03.2017 14:06 5,2 °C 5,2 °C 92 % 1022,4 hPa 0,0 mm 11,7 km/h (2 Bft) O-NO 57 ° 0 min 0,000 mm 0,9 UV-I 128 W/m² 4,0 °C 2,6 °C 16,1 km/h (3 Bft)
25.03.2017 14:07 5,2 °C 5,2 °C 92 % 1022,4 hPa 0,0 mm 9,3 km/h (2 Bft) N-NO 19 ° 0 min 0,000 mm 0,9 UV-I 130 W/m² 4,0 °C 3,1 °C 14,5 km/h (3 Bft)
25.03.2017 14:08 5,2 °C 5,2 °C 92 % 1022,4 hPa 0,0 mm 10,9 km/h (2 Bft) N-NO 31 ° 0 min 0,000 mm 0,9 UV-I 130 W/m² 4,0 °C 2,7 °C 16,1 km/h (3 Bft)
25.03.2017 14:09 5,2 °C 5,2 °C 92 % 1022,4 hPa 0,0 mm 8,7 km/h (2 Bft) O 95 ° 0 min 0,000 mm 0,8 UV-I 121 W/m² 4,0 °C 3,2 °C 17,7 km/h (3 Bft)
25.03.2017 14:10 5,2 °C 5,2 °C 92 % 1022,4 hPa 0,0 mm 11,9 km/h (2 Bft) NO 48 ° 0 min 0,000 mm 0,8 UV-I 120 W/m² 4,0 °C 2,5 °C 16,1 km/h (3 Bft)
25.03.2017 14:11 5,2 °C 5,2 °C 92 % 1022,4 hPa 0,0 mm 7,9 km/h (2 Bft) N-NO 26 ° 0 min 0,000 mm 0,9 UV-I 123 W/m² 4,0 °C 3,4 °C 16,1 km/h (3 Bft)
25.03.2017 14:12 5,2 °C 5,2 °C 92 % 1022,4 hPa 0,0 mm 7,3 km/h (2 Bft) N-NO 22 ° 0 min 0,000 mm 0,9 UV-I 128 W/m² 4,0 °C 3,6 °C 11,3 km/h (2 Bft)
25.03.2017 14:13 5,2 °C 5,2 °C 92 % 1022,4 hPa 0,0 mm 10,6 km/h (2 Bft) NO 38 ° 0 min 0,000 mm 1,0 UV-I 134 W/m² 4,0 °C 2,8 °C 19,3 km/h (3 Bft)
25.03.2017 14:14 5,2 °C 5,2 °C 92 % 1022,3 hPa 0,0 mm 8,2 km/h (2 Bft) N-NO 29 ° 0 min 0,000 mm 1,0 UV-I 137 W/m² 4,0 °C 3,3 °C 11,3 km/h (2 Bft)
25.03.2017 14:15 5,2 °C 5,2 °C 92 % 1022,4 hPa 0,0 mm 10,9 km/h (2 Bft) O 90 ° 0 min 0,000 mm 1,0 UV-I 155 W/m² 4,0 °C 2,7 °C 16,1 km/h (3 Bft)
25.03.2017 14:16 5,2 °C 5,2 °C 91 % 1022,3 hPa 0,0 mm 8,8 km/h (2 Bft) NO 49 ° 0 min 0,000 mm 1,0 UV-I 148 W/m² 3,9 °C 3,2 °C 14,5 km/h (3 Bft)
25.03.2017 14:17 5,2 °C 5,2 °C 91 % 1022,4 hPa 0,0 mm 8,2 km/h (2 Bft) NO 40 ° 0 min 0,000 mm 0,9 UV-I 139 W/m² 3,9 °C 3,3 °C 14,5 km/h (3 Bft)
25.03.2017 14:18 5,2 °C 5,2 °C 91 % 1022,3 hPa 0,0 mm 7,6 km/h (2 Bft) O-NO 77 ° 0 min 0,000 mm 0,9 UV-I 128 W/m² 3,9 °C 3,5 °C 12,9 km/h (3 Bft)
25.03.2017 14:19 5,2 °C 5,2 °C 91 % 1022,3 hPa 0,0 mm 6,8 km/h (2 Bft) NO 43 ° 0 min 0,000 mm 0,9 UV-I 134 W/m² 3,9 °C 3,7 °C 11,3 km/h (2 Bft)
25.03.2017 14:20 5,2 °C 5,2 °C 91 % 1022,3 hPa 0,0 mm 5,6 km/h (1 Bft) NO 53 ° 0 min 0,000 mm 1,0 UV-I 141 W/m² 3,9 °C 4,1 °C 9,7 km/h (2 Bft)
25.03.2017 14:21 5,3 °C 5,3 °C 91 % 1022,3 hPa 0,0 mm 6,0 km/h (2 Bft) N-NO 32 ° 0 min 0,000 mm 1,1 UV-I 169 W/m² 4,0 °C 4,1 °C 8,0 km/h (2 Bft)
25.03.2017 14:22 5,3 °C 5,3 °C 91 % 1022,2 hPa 0,0 mm 8,6 km/h (2 Bft) O-NO 76 ° 0 min 0,000 mm 1,2 UV-I 185 W/m² 4,0 °C 3,3 °C 16,1 km/h (3 Bft)
25.03.2017 14:23 5,3 °C 5,3 °C 91 % 1022,2 hPa 0,0 mm 13,4 km/h (3 Bft) NO 55 ° 0 min 0,000 mm 1,3 UV-I 185 W/m² 4,0 °C 2,4 °C 17,7 km/h (3 Bft)
25.03.2017 14:24 5,4 °C 5,4 °C 92 % 1022,2 hPa 0,0 mm 9,5 km/h (2 Bft) O-NO 64 ° 0 min 0,000 mm 1,3 UV-I 193 W/m² 4,2 °C 3,2 °C 14,5 km/h (3 Bft)
25.03.2017 14:25 5,4 °C 5,4 °C 91 % 1022,2 hPa 0,0 mm 9,7 km/h (2 Bft) O-NO 76 ° 0 min 0,000 mm 1,3 UV-I 193 W/m² 4,1 °C 3,2 °C 16,1 km/h (3 Bft)
25.03.2017 14:26 5,3 °C 5,4 °C 91 % 1022,1 hPa 0,0 mm 7,6 km/h (2 Bft) O 88 ° 0 min 0,000 mm 1,4 UV-I 195 W/m² 4,0 °C 3,6 °C 11,3 km/h (2 Bft)
25.03.2017 14:27 5,4 °C 5,4 °C 91 % 1022,1 hPa 0,0 mm 7,3 km/h (2 Bft) N-NO 13 ° 0 min 0,000 mm 1,4 UV-I 188 W/m² 4,1 °C 3,8 °C 9,7 km/h (2 Bft)
25.03.2017 14:28 5,4 °C 5,4 °C 91 % 1022,1 hPa 0,0 mm 7,3 km/h (2 Bft) O-NO 63 ° 0 min 0,000 mm 1,3 UV-I 153 W/m² 4,1 °C 3,8 °C 9,7 km/h (2 Bft)
25.03.2017 14:29 5,4 °C 5,4 °C 91 % 1022,0 hPa 0,0 mm 6,2 km/h (2 Bft) SO 134 ° 0 min 0,000 mm 1,5 UV-I 148 W/m² 4,1 °C 4,1 °C 8,0 km/h (2 Bft)
25.03.2017 14:30 5,5 °C 5,5 °C 91 % 1022,0 hPa 0,0 mm 4,7 km/h (1 Bft) O 80 ° 0 min 0,000 mm 2,0 UV-I 148 W/m² 4,2 °C 4,8 °C 16,1 km/h (3 Bft)
25.03.2017 14:31 5,6 °C 5,6 °C 91 % 1022,0 hPa 0,0 mm 9,1 km/h (2 Bft) O-NO 60 ° 0 min 0,000 mm 2,0 UV-I 221 W/m² 4,2 °C 3,6 °C 14,5 km/h (3 Bft)
25.03.2017 14:32 5,6 °C 5,6 °C 91 % 1022,0 hPa 0,0 mm 9,0 km/h (2 Bft) O-NO 71 ° 0 min 0,000 mm 2,0 UV-I 206 W/m² 4,2 °C 3,6 °C 16,1 km/h (3 Bft)
25.03.2017 14:33 5,7 °C 5,7 °C 91 % 1022,0 hPa 0,0 mm 8,2 km/h (2 Bft) O 93 ° 0 min 0,000 mm 2,8 UV-I 206 W/m² 4,3 °C 3,9 °C 14,5 km/h (3 Bft)
25.03.2017 14:34 5,8 °C 5,8 °C 91 % 1022,0 hPa 0,0 mm 5,8 km/h (2 Bft) O 80 ° 0 min 0,000 mm 2,0 UV-I 206 W/m² 4,4 °C 4,7 °C 12,9 km/h (3 Bft)
25.03.2017 14:35 5,8 °C 5,8 °C 90 % 1021,9 hPa 0,0 mm 7,1 km/h (2 Bft) SO 128 ° 0 min 0,000 mm 2,8 UV-I 206 W/m² 4,3 °C 4,3 °C 12,9 km/h (3 Bft)
25.03.2017 14:36 5,8 °C 5,8 °C 90 % 1022,0 hPa 0,0 mm 5,3 km/h (1 Bft) O-NO 57 ° 0 min 0,000 mm 2,8 UV-I 206 W/m² 4,3 °C 4,9 °C 8,0 km/h (2 Bft)
25.03.2017 14:37 5,8 °C 5,8 °C 91 % 1022,0 hPa 0,0 mm 6,9 km/h (2 Bft) O-NO 78 ° 1 min 0,000 mm 2,7 UV-I 545 W/m² 4,4 °C 4,4 °C 9,7 km/h (2 Bft)
25.03.2017 14:38 5,9 °C 5,9 °C 90 % 1021,9 hPa 0,0 mm 5,9 km/h (2 Bft) NO 36 ° 1 min 0,000 mm 2,6 UV-I 563 W/m² 4,4 °C 4,8 °C 11,3 km/h (2 Bft)
25.03.2017 14:39 5,9 °C 5,9 °C 91 % 1021,9 hPa 0,0 mm 4,8 km/h (1 Bft) O 100 ° 1 min 0,000 mm 2,7 UV-I 566 W/m² 4,5 °C 5,2 °C 8,0 km/h (2 Bft)
25.03.2017 14:40 6,1 °C 6,1 °C 90 % 1021,8 hPa 0,0 mm 9,3 km/h (2 Bft) O 86 ° 1 min 0,000 mm 2,8 UV-I 552 W/m² 4,6 °C 4,1 °C 16,1 km/h (3 Bft)
25.03.2017 14:41 6,2 °C 6,2 °C 90 % 1021,8 hPa 0,0 mm 10,0 km/h (2 Bft) O-NO 69 ° 1 min 0,000 mm 2,8 UV-I 580 W/m² 4,7 °C 4,1 °C 16,1 km/h (3 Bft)
25.03.2017 14:42 6,3 °C 6,3 °C 89 % 1021,8 hPa 0,0 mm 8,1 km/h (2 Bft) O-NO 78 ° 1 min 0,000 mm 2,3 UV-I 580 W/m² 4,6 °C 4,6 °C 11,3 km/h (2 Bft)
25.03.2017 14:43 6,3 °C 6,3 °C 89 % 1021,8 hPa 0,0 mm 6,5 km/h (2 Bft) O-NO 60 ° 1 min 0,000 mm 2,7 UV-I 580 W/m² 4,6 °C 5,1 °C 8,0 km/h (2 Bft)
25.03.2017 14:44 6,4 °C 6,4 °C 90 % 1021,7 hPa 0,0 mm 3,7 km/h (1 Bft) NO 39 ° 1 min 0,000 mm 2,8 UV-I 561 W/m² 4,9 °C 6,4 °C 6,4 km/h (2 Bft)
25.03.2017 14:45 6,6 °C 6,6 °C 89 % 1021,7 hPa 0,0 mm 2,0 km/h (1 Bft) N-NO 30 ° 1 min 0,000 mm 2,3 UV-I 580 W/m² 4,9 °C 6,6 °C 4,8 km/h (1 Bft)
25.03.2017 14:46 6,6 °C 6,6 °C 89 % 1021,7 hPa 0,0 mm 8,6 km/h (2 Bft) O-NO 71 ° 1 min 0,000 mm 2,8 UV-I 584 W/m² 4,9 °C 4,9 °C 14,5 km/h (3 Bft)
25.03.2017 14:47 6,7 °C 6,7 °C 89 % 1021,8 hPa 0,0 mm 8,3 km/h (2 Bft) O-NO 77 ° 1 min 0,000 mm 2,7 UV-I 584 W/m² 5,0 °C 5,1 °C 16,1 km/h (3 Bft)
25.03.2017 14:48 6,7 °C 6,7 °C 88 % 1021,7 hPa 0,0 mm 10,5 km/h (2 Bft) O-NO 61 ° 1 min 0,000 mm 2,7 UV-I 550 W/m² 4,9 °C 4,6 °C 16,1 km/h (3 Bft)
25.03.2017 14:49 6,8 °C 6,8 °C 89 % 1021,7 hPa 0,0 mm 5,0 km/h (1 Bft) O-NO 69 ° 1 min 0,000 mm 2,7 UV-I 541 W/m² 5,1 °C 6,1 °C 8,0 km/h (2 Bft)
25.03.2017 14:50 6,8 °C 6,8 °C 88 % 1021,7 hPa 0,0 mm 3,6 km/h (1 Bft) O-NO 69 ° 1 min 0,000 mm 2,7 UV-I 536 W/m² 5,0 °C 6,8 °C 6,4 km/h (2 Bft)
25.03.2017 14:51 6,9 °C 6,9 °C 88 % 1021,7 hPa 0,0 mm 5,6 km/h (1 Bft) O-SO 115 ° 1 min 0,000 mm 2,6 UV-I 529 W/m² 5,1 °C 6,0 °C 8,0 km/h (2 Bft)
25.03.2017 14:52 7,0 °C 7,0 °C 87 % 1021,7 hPa 0,0 mm 4,0 km/h (1 Bft) O-SO 117 ° 1 min 0,000 mm 2,6 UV-I 527 W/m² 5,0 °C 7,0 °C 6,4 km/h (2 Bft)
25.03.2017 14:53 7,1 °C 7,1 °C 87 % 1021,7 hPa 0,0 mm 5,8 km/h (2 Bft) NO 41 ° 1 min 0,000 mm 2,6 UV-I 543 W/m² 5,1 °C 6,2 °C 11,3 km/h (2 Bft)
25.03.2017 14:54 7,1 °C 7,1 °C 86 % 1021,7 hPa 0,0 mm 4,0 km/h (1 Bft) O-SO 107 ° 1 min 0,000 mm 2,6 UV-I 536 W/m² 4,9 °C 7,1 °C 6,4 km/h (2 Bft)
25.03.2017 14:55 7,1 °C 7,1 °C 87 % 1021,7 hPa 0,0 mm 7,4 km/h (2 Bft) O-NO 78 ° 1 min 0,000 mm 2,6 UV-I 478 W/m² 5,1 °C 5,7 °C 12,9 km/h (3 Bft)
25.03.2017 14:56 7,1 °C 7,1 °C 86 % 1021,6 hPa 0,0 mm 7,7 km/h (2 Bft) O-NO 67 ° 1 min 0,000 mm 2,5 UV-I 522 W/m² 4,9 °C 5,7 °C 9,7 km/h (2 Bft)
25.03.2017 14:57 7,1 °C 7,1 °C 86 % 1021,7 hPa 0,0 mm 6,9 km/h (2 Bft) O-NO 63 ° 1 min 0,000 mm 2,4 UV-I 483 W/m² 4,9 °C 5,9 °C 9,7 km/h (2 Bft)
25.03.2017 14:58 7,2 °C 7,2 °C 88 % 1021,7 hPa 0,0 mm 3,0 km/h (1 Bft) O-NO 65 ° 1 min 0,000 mm 2,5 UV-I 494 W/m² 5,3 °C 7,2 °C 6,4 km/h (2 Bft)
25.03.2017 14:59 7,3 °C 7,3 °C 87 % 1021,6 hPa 0,0 mm 6,7 km/h (2 Bft) O 90 ° 1 min 0,000 mm 2,4 UV-I 492 W/m² 5,3 °C 6,2 °C 11,3 km/h (2 Bft)
25.03.2017 15:00 7,3 °C 7,3 °C 86 % 1021,6 hPa 0,0 mm 4,8 km/h (1 Bft) O-SO 119 ° 1 min 0,000 mm 2,4 UV-I 489 W/m² 5,1 °C 6,8 °C 8,0 km/h (2 Bft)
25.03.2017 15:01 7,3 °C 7,4 °C 86 % 1021,6 hPa 0,0 mm 2,9 km/h (1 Bft) SO 126 ° 1 min 0,127 mm 2,4 UV-I 490 W/m² 5,1 °C 7,3 °C 4,8 km/h (1 Bft)
25.03.2017 15:02 7,4 °C 7,4 °C 86 % 1021,5 hPa 0,0 mm 2,3 km/h (1 Bft) NO 53 ° 1 min 0,000 mm 2,5 UV-I 494 W/m² 5,2 °C 7,4 °C 4,8 km/h (1 Bft)
25.03.2017 15:03 7,6 °C 7,6 °C 86 % 1021,5 hPa 0,0 mm 9,5 km/h (2 Bft) O 95 ° 1 min 0,000 mm 2,4 UV-I 478 W/m² 5,4 °C 5,9 °C 12,9 km/h (3 Bft)
25.03.2017 15:04 7,6 °C 7,6 °C 86 % 1021,6 hPa 0,0 mm 8,4 km/h (2 Bft) O-NO 58 ° 1 min 0,000 mm 2,4 UV-I 490 W/m² 5,4 °C 6,1 °C 12,9 km/h (3 Bft)
25.03.2017 15:05 7,4 °C 7,6 °C 85 % 1021,5 hPa 0,0 mm 10,5 km/h (2 Bft) O-SO 103 ° 1 min 0,000 mm 2,4 UV-I 490 W/m² 5,0 °C 5,4 °C 14,5 km/h (3 Bft)
25.03.2017 15:06 7,3 °C 7,4 °C 85 % 1021,5 hPa 0,0 mm 7,6 km/h (2 Bft) O-SO 113 ° 1 min 0,000 mm 2,4 UV-I 483 W/m² 4,9 °C 5,9 °C 11,3 km/h (2 Bft)
25.03.2017 15:07 7,3 °C 7,3 °C 86 % 1021,5 hPa 0,0 mm 5,9 km/h (2 Bft) O 93 ° 1 min 0,000 mm 2,3 UV-I 450 W/m² 5,1 °C 6,4 °C 11,3 km/h (2 Bft)
25.03.2017 15:08 7,3 °C 7,3 °C 86 % 1021,5 hPa 0,0 mm 3,6 km/h (1 Bft) O-SO 106 ° 1 min 0,000 mm 2,4 UV-I 457 W/m² 5,1 °C 7,3 °C 4,8 km/h (1 Bft)
25.03.2017 15:09 7,4 °C 7,4 °C 86 % 1021,4 hPa 0,0 mm 1,4 km/h (1 Bft) O 84 ° 1 min 0,000 mm 2,3 UV-I 454 W/m² 5,2 °C 7,4 °C 4,8 km/h (1 Bft)
25.03.2017 15:10 7,6 °C 7,6 °C 86 % 1021,4 hPa 0,0 mm 4,1 km/h (1 Bft) O-NO 62 ° 1 min 0,000 mm 2,3 UV-I 466 W/m² 5,4 °C 7,6 °C 8,0 km/h (2 Bft)
25.03.2017 15:11 7,6 °C 7,7 °C 85 % 1021,4 hPa 0,0 mm 9,2 km/h (2 Bft) O-NO 60 ° 1 min 0,000 mm 2,3 UV-I 459 W/m² 5,2 °C 5,9 °C 14,5 km/h (3 Bft)
25.03.2017 15:12 7,7 °C 7,7 °C 86 % 1021,4 hPa 0,0 mm 6,1 km/h (2 Bft) S-SO 158 ° 1 min 0,000 mm 2,2 UV-I 455 W/m² 5,5 °C 6,8 °C 11,3 km/h (2 Bft)
25.03.2017 15:13 7,8 °C 7,8 °C 85 % 1021,3 hPa 0,0 mm 7,1 km/h (2 Bft) O 92 ° 1 min 0,000 mm 2,2 UV-I 457 W/m² 5,4 °C 6,6 °C 11,3 km/h (2 Bft)
25.03.2017 15:14 7,9 °C 7,9 °C 85 % 1021,3 hPa 0,0 mm 4,0 km/h (1 Bft) O 88 ° 1 min 0,000 mm 2,2 UV-I 448 W/m² 5,5 °C 7,9 °C 8,0 km/h (2 Bft)
25.03.2017 15:15 8,0 °C 8,0 °C 84 % 1021,4 hPa 0,0 mm 8,0 km/h (2 Bft) O-NO 62 ° 1 min 0,000 mm 2,2 UV-I 452 W/m² 5,5 °C 6,7 °C 9,7 km/h (2 Bft)
25.03.2017 15:16 8,0 °C 8,0 °C 84 % 1021,3 hPa 0,0 mm 7,2 km/h (2 Bft) NO 53 ° 1 min 0,000 mm 2,2 UV-I 446 W/m² 5,5 °C 6,8 °C 14,5 km/h (3 Bft)
25.03.2017 15:17 7,9 °C 8,0 °C 83 % 1021,3 hPa 0,0 mm 6,1 km/h (2 Bft) S-SO 159 ° 1 min 0,000 mm 2,2 UV-I 443 W/m² 5,2 °C 7,0 °C 12,9 km/h (3 Bft)
25.03.2017 15:18 7,9 °C 8,0 °C 83 % 1021,3 hPa 0,0 mm 5,7 km/h (1 Bft) O-SO 123 ° 1 min 0,000 mm 2,2 UV-I 434 W/m² 5,2 °C 7,1 °C 9,7 km/h (2 Bft)
25.03.2017 15:19 7,9 °C 7,9 °C 83 % 1021,3 hPa 0,0 mm 7,2 km/h (2 Bft) O-NO 76 ° 1 min 0,000 mm 2,2 UV-I 446 W/m² 5,2 °C 6,7 °C 14,5 km/h (3 Bft)
25.03.2017 15:20 7,9 °C 7,9 °C 83 % 1021,3 hPa 0,0 mm 6,9 km/h (2 Bft) S-SO 162 ° 1 min 0,000 mm 2,2 UV-I 443 W/m² 5,2 °C 6,8 °C 11,3 km/h (2 Bft)
25.03.2017 15:21 8,0 °C 8,0 °C 83 % 1021,3 hPa 0,0 mm 4,3 km/h (1 Bft) O 80 ° 1 min 0,000 mm 2,1 UV-I 439 W/m² 5,3 °C 8,0 °C 6,4 km/h (2 Bft)
25.03.2017 15:22 8,0 °C 8,0 °C 83 % 1021,3 hPa 0,0 mm 6,0 km/h (2 Bft) O-NO 67 ° 1 min 0,000 mm 2,1 UV-I 443 W/m² 5,3 °C 7,2 °C 8,0 km/h (2 Bft)
25.03.2017 15:23 7,9 °C 8,0 °C 83 % 1021,3 hPa 0,0 mm 11,7 km/h (2 Bft) O 85 ° 1 min 0,000 mm 2,1 UV-I 439 W/m² 5,2 °C 5,8 °C 16,1 km/h (3 Bft)
25.03.2017 15:24 8,0 °C 8,0 °C 82 % 1021,2 hPa 0,0 mm 6,8 km/h (2 Bft) O-NO 57 ° 1 min 0,000 mm 2,1 UV-I 439 W/m² 5,1 °C 7,0 °C 9,7 km/h (2 Bft)
25.03.2017 15:25 8,1 °C 8,1 °C 83 % 1021,2 hPa 0,0 mm 6,7 km/h (2 Bft) O-NO 68 ° 1 min 0,000 mm 2,1 UV-I 434 W/m² 5,4 °C 7,1 °C 11,3 km/h (2 Bft)
25.03.2017 15:26 8,1 °C 8,1 °C 83 % 1021,2 hPa 0,0 mm 5,7 km/h (1 Bft) N-NO 28 ° 1 min 0,000 mm 2,0 UV-I 422 W/m² 5,4 °C 7,4 °C 8,0 km/h (2 Bft)
25.03.2017 15:27 8,2 °C 8,2 °C 83 % 1021,2 hPa 0,0 mm 3,2 km/h (1 Bft) S 190 ° 1 min 0,000 mm 2,0 UV-I 403 W/m² 5,5 °C 8,2 °C 6,4 km/h (2 Bft)
25.03.2017 15:28 8,3 °C 8,3 °C 83 % 1021,2 hPa 0,0 mm 0,6 km/h (0 Bft) S 190 ° 1 min 0,000 mm 2,0 UV-I 403 W/m² 5,6 °C 8,3 °C 3,2 km/h (1 Bft)
25.03.2017 15:29 8,3 °C 8,3 °C 83 % 1021,1 hPa 0,0 mm 2,1 km/h (1 Bft) SO 144 ° 1 min 0,000 mm 1,9 UV-I 374 W/m² 5,6 °C 8,3 °C 6,4 km/h (2 Bft)
25.03.2017 15:30 8,3 °C 8,3 °C 82 % 1021,2 hPa 0,0 mm 5,6 km/h (1 Bft) NO 49 ° 1 min 0,000 mm 1,9 UV-I 380 W/m² 5,4 °C 7,6 °C 11,3 km/h (2 Bft)
25.03.2017 15:31 8,3 °C 8,3 °C 81 % 1021,1 hPa 0,0 mm 5,7 km/h (1 Bft) O 94 ° 1 min 0,000 mm 2,0 UV-I 425 W/m² 5,2 °C 7,6 °C 11,3 km/h (2 Bft)
25.03.2017 15:32 8,3 °C 8,3 °C 83 % 1021,1 hPa 0,0 mm 5,3 km/h (1 Bft) O-SO 109 ° 1 min 0,000 mm 2,0 UV-I 418 W/m² 5,6 °C 7,7 °C 11,3 km/h (2 Bft)
25.03.2017 15:33 8,3 °C 8,3 °C 82 % 1021,0 hPa 0,0 mm 4,3 km/h (1 Bft) O-SO 109 ° 1 min 0,000 mm 2,0 UV-I 413 W/m² 5,4 °C 8,3 °C 6,4 km/h (2 Bft)
25.03.2017 15:34 8,3 °C 8,4 °C 82 % 1021,1 hPa 0,0 mm 4,8 km/h (1 Bft) O-NO 72 ° 1 min 0,000 mm 1,9 UV-I 406 W/m² 5,4 °C 7,9 °C 8,0 km/h (2 Bft)
25.03.2017 15:35 8,4 °C 8,4 °C 82 % 1021,0 hPa 0,0 mm 4,7 km/h (1 Bft) O 80 ° 1 min 0,000 mm 1,9 UV-I 383 W/m² 5,5 °C 8,0 °C 8,0 km/h (2 Bft)
25.03.2017 15:36 8,5 °C 8,5 °C 84 % 1021,0 hPa 0,0 mm 7,2 km/h (2 Bft) O-SO 106 ° 1 min 0,000 mm 1,8 UV-I 353 W/m² 6,0 °C 7,4 °C 11,3 km/h (2 Bft)
25.03.2017 15:37 8,6 °C 8,6 °C 82 % 1021,0 hPa 0,0 mm 4,9 km/h (1 Bft) O-NO 78 ° 1 min 0,000 mm 1,8 UV-I 390 W/m² 5,7 °C 8,2 °C 6,4 km/h (2 Bft)
25.03.2017 15:38 8,6 °C 8,6 °C 82 % 1021,0 hPa 0,0 mm 2,4 km/h (1 Bft) O-NO 78 ° 1 min 0,000 mm 1,8 UV-I 373 W/m² 5,7 °C 8,6 °C 3,2 km/h (1 Bft)
25.03.2017 15:39 8,6 °C 8,6 °C 81 % 1021,0 hPa 0,0 mm 2,6 km/h (1 Bft) S-SO 165 ° 1 min 0,000 mm 1,8 UV-I 381 W/m² 5,5 °C 8,6 °C 6,4 km/h (2 Bft)
25.03.2017 15:40 8,6 °C 8,6 °C 80 % 1020,9 hPa 0,0 mm 4,8 km/h (1 Bft) N-NO 15 ° 1 min 0,000 mm 1,8 UV-I 378 W/m² 5,3 °C 8,2 °C 8,0 km/h (2 Bft)
25.03.2017 15:41 8,6 °C 8,6 °C 80 % 1020,9 hPa 0,0 mm 10,7 km/h (2 Bft) O 83 ° 1 min 0,000 mm 1,7 UV-I 366 W/m² 5,3 °C 6,8 °C 14,5 km/h (3 Bft)
25.03.2017 15:42 8,5 °C 8,6 °C 80 % 1020,9 hPa 0,0 mm 9,7 km/h (2 Bft) O-SO 105 ° 1 min 0,000 mm 1,7 UV-I 364 W/m² 5,3 °C 6,9 °C 12,9 km/h (3 Bft)
25.03.2017 15:43 8,5 °C 8,5 °C 81 % 1020,9 hPa 0,0 mm 6,7 km/h (2 Bft) O-NO 67 ° 1 min 0,000 mm 1,6 UV-I 334 W/m² 5,4 °C 7,6 °C 9,7 km/h (2 Bft)
25.03.2017 15:44 8,5 °C 8,6 °C 81 % 1020,9 hPa 0,0 mm 9,3 km/h (2 Bft) O-NO 61 ° 1 min 0,000 mm 1,6 UV-I 308 W/m² 5,4 °C 7,0 °C 12,9 km/h (3 Bft)
25.03.2017 15:45 8,6 °C 8,6 °C 80 % 1020,9 hPa 0,0 mm 5,1 km/h (1 Bft) O-NO 71 ° 1 min 0,000 mm 1,6 UV-I 302 W/m² 5,3 °C 8,1 °C 9,7 km/h (2 Bft)
25.03.2017 15:46 8,6 °C 8,6 °C 81 % 1020,9 hPa 0,0 mm 5,7 km/h (1 Bft) O-NO 73 ° 0 min 0,000 mm 1,6 UV-I 281 W/m² 5,5 °C 7,9 °C 8,0 km/h (2 Bft)
25.03.2017 15:47 8,7 °C 8,7 °C 81 % 1020,9 hPa 0,0 mm 4,2 km/h (1 Bft) SO 143 ° 0 min 0,000 mm 1,6 UV-I 258 W/m² 5,6 °C 8,7 °C 6,4 km/h (2 Bft)
25.03.2017 15:48 8,7 °C 8,7 °C 81 % 1020,8 hPa 0,0 mm 3,3 km/h (1 Bft) NO 55 ° 0 min 0,000 mm 1,6 UV-I 269 W/m² 5,6 °C 8,7 °C 9,7 km/h (2 Bft)
25.03.2017 15:49 8,8 °C 8,8 °C 81 % 1020,8 hPa 0,0 mm 7,9 km/h (2 Bft) O-NO 72 ° 0 min 0,000 mm 1,5 UV-I 225 W/m² 5,7 °C 7,6 °C 12,9 km/h (3 Bft)
25.03.2017 15:50 8,8 °C 8,8 °C 81 % 1020,8 hPa 0,0 mm 7,1 km/h (2 Bft) O-NO 65 ° 0 min 0,000 mm 1,4 UV-I 204 W/m² 5,7 °C 7,8 °C 12,9 km/h (3 Bft)
25.03.2017 15:51 8,8 °C 8,8 °C 80 % 1020,8 hPa 0,0 mm 7,0 km/h (2 Bft) O 99 ° 0 min 0,000 mm 1,4 UV-I 195 W/m² 5,5 °C 7,8 °C 11,3 km/h (2 Bft)
25.03.2017 15:52 8,9 °C 8,9 °C 80 % 1020,8 hPa 0,0 mm 4,4 km/h (1 Bft) S-SW 207 ° 0 min 0,000 mm 1,3 UV-I 167 W/m² 5,6 °C 8,9 °C 8,0 km/h (2 Bft)
25.03.2017 15:53 8,8 °C 8,9 °C 79 % 1020,7 hPa 0,0 mm 7,4 km/h (2 Bft) O-NO 61 ° 0 min 0,000 mm 1,3 UV-I 169 W/m² 5,4 °C 7,7 °C 9,7 km/h (2 Bft)
25.03.2017 15:54 8,9 °C 8,9 °C 79 % 1020,7 hPa 0,0 mm 4,0 km/h (1 Bft) NO 51 ° 0 min 0,000 mm 1,3 UV-I 176 W/m² 5,5 °C 8,9 °C 6,4 km/h (2 Bft)
25.03.2017 15:55 8,8 °C 8,9 °C 78 % 1020,7 hPa 0,0 mm 8,2 km/h (2 Bft) SO 124 ° 0 min 0,000 mm 1,3 UV-I 165 W/m² 5,2 °C 7,6 °C 11,3 km/h (2 Bft)
25.03.2017 15:56 8,8 °C 8,8 °C 79 % 1020,7 hPa 0,0 mm 9,3 km/h (2 Bft) O-NO 66 ° 0 min 0,000 mm 1,3 UV-I 151 W/m² 5,4 °C 7,3 °C 14,5 km/h (3 Bft)
25.03.2017 15:57 8,8 °C 8,8 °C 79 % 1020,7 hPa 0,0 mm 9,0 km/h (2 Bft) O-SO 117 ° 0 min 0,000 mm 1,3 UV-I 169 W/m² 5,4 °C 7,4 °C 16,1 km/h (3 Bft)
25.03.2017 15:58 8,8 °C 8,8 °C 79 % 1020,7 hPa 0,0 mm 4,8 km/h (1 Bft) O-NO 72 ° 0 min 0,000 mm 1,3 UV-I 165 W/m² 5,4 °C 8,5 °C 11,3 km/h (2 Bft)
25.03.2017 15:59 8,7 °C 8,8 °C 79 % 1020,7 hPa 0,0 mm 8,9 km/h (2 Bft) O 83 ° 0 min 0,000 mm 1,3 UV-I 155 W/m² 5,3 °C 7,3 °C 14,5 km/h (3 Bft)
25.03.2017 16:00 8,7 °C 8,7 °C 79 % 1020,6 hPa 0,0 mm 8,1 km/h (2 Bft) O-NO 76 ° 0 min 0,000 mm 1,2 UV-I 181 W/m² 5,3 °C 7,5 °C 9,7 km/h (2 Bft)
25.03.2017 16:01 8,8 °C 8,8 °C 80 % 1020,6 hPa 0,0 mm 4,8 km/h (1 Bft) NO 51 ° 0 min 0,178 mm 1,3 UV-I 181 W/m² 5,5 °C 8,5 °C 6,4 km/h (2 Bft)
25.03.2017 16:02 8,8 °C 8,8 °C 80 % 1020,6 hPa 0,0 mm 7,1 km/h (2 Bft) O-NO 57 ° 0 min 0,000 mm 1,2 UV-I 179 W/m² 5,5 °C 7,8 °C 11,3 km/h (2 Bft)
25.03.2017 16:03 8,8 °C 8,8 °C 79 % 1020,5 hPa 0,0 mm 9,1 km/h (2 Bft) NO 51 ° 0 min 0,000 mm 1,3 UV-I 192 W/m² 5,4 °C 7,4 °C 14,5 km/h (3 Bft)
25.03.2017 16:04 8,9 °C 8,9 °C 80 % 1020,5 hPa 0,0 mm 7,7 km/h (2 Bft) O-SO 116 ° 0 min 0,000 mm 1,2 UV-I 176 W/m² 5,6 °C 7,8 °C 11,3 km/h (2 Bft)
25.03.2017 16:05 8,8 °C 8,9 °C 79 % 1020,5 hPa 0,0 mm 4,9 km/h (1 Bft) O-NO 61 ° 0 min 0,000 mm 1,3 UV-I 186 W/m² 5,4 °C 8,4 °C 8,0 km/h (2 Bft)
25.03.2017 16:06 8,8 °C 8,8 °C 78 % 1020,5 hPa 0,0 mm 5,8 km/h (2 Bft) O 92 ° 0 min 0,000 mm 1,2 UV-I 165 W/m² 5,2 °C 8,1 °C 8,0 km/h (2 Bft)
25.03.2017 16:07 8,8 °C 8,9 °C 79 % 1020,4 hPa 0,0 mm 4,0 km/h (1 Bft) O 82 ° 0 min 0,000 mm 1,1 UV-I 139 W/m² 5,4 °C 8,8 °C 6,4 km/h (2 Bft)
25.03.2017 16:08 8,9 °C 8,9 °C 79 % 1020,5 hPa 0,0 mm 5,0 km/h (1 Bft) S-SO 158 ° 0 min 0,000 mm 1,1 UV-I 132 W/m² 5,5 °C 8,5 °C 8,0 km/h (2 Bft)
25.03.2017 16:09 8,9 °C 8,9 °C 79 % 1020,4 hPa 0,0 mm 4,1 km/h (1 Bft) S-SO 155 ° 0 min 0,000 mm 1,2 UV-I 163 W/m² 5,5 °C 8,9 °C 8,0 km/h (2 Bft)
25.03.2017 16:10 8,8 °C 8,9 °C 78 % 1020,4 hPa 0,0 mm 3,0 km/h (1 Bft) O-SO 113 ° 0 min 0,000 mm 1,1 UV-I 148 W/m² 5,2 °C 8,8 °C 4,8 km/h (1 Bft)
25.03.2017 16:11 8,8 °C 8,9 °C 79 % 1020,4 hPa 0,0 mm 3,5 km/h (1 Bft) SO 138 ° 0 min 0,000 mm 1,1 UV-I 105 W/m² 5,4 °C 8,8 °C 6,4 km/h (2 Bft)
25.03.2017 16:12 8,8 °C 8,8 °C 78 % 1020,4 hPa 0,0 mm 4,8 km/h (1 Bft) O 89 ° 0 min 0,000 mm 1,1 UV-I 134 W/m² 5,2 °C 8,5 °C 9,7 km/h (2 Bft)
25.03.2017 16:13 8,8 °C 8,8 °C 78 % 1020,4 hPa 0,0 mm 7,5 km/h (2 Bft) O 82 ° 0 min 0,000 mm 1,1 UV-I 160 W/m² 5,2 °C 7,7 °C 9,7 km/h (2 Bft)
25.03.2017 16:14 8,8 °C 8,8 °C 78 % 1020,4 hPa 0,0 mm 5,2 km/h (1 Bft) O-NO 67 ° 0 min 0,000 mm 1,2 UV-I 185 W/m² 5,2 °C 8,3 °C 6,4 km/h (2 Bft)
25.03.2017 16:15 8,9 °C 8,9 °C 79 % 1020,3 hPa 0,0 mm 6,5 km/h (2 Bft) O 96 ° 0 min 0,000 mm 1,2 UV-I 185 W/m² 5,5 °C 8,1 °C 9,7 km/h (2 Bft)
25.03.2017 16:16 8,9 °C 8,9 °C 78 % 1020,3 hPa 0,0 mm 5,2 km/h (1 Bft) O-NO 63 ° 0 min 0,000 mm 1,2 UV-I 211 W/m² 5,3 °C 8,4 °C 9,7 km/h (2 Bft)
25.03.2017 16:17 8,9 °C 8,9 °C 79 % 1020,3 hPa 0,0 mm 3,5 km/h (1 Bft) O-NO 77 ° 0 min 0,000 mm 1,2 UV-I 223 W/m² 5,5 °C 8,9 °C 4,8 km/h (1 Bft)
25.03.2017 16:18 9,0 °C 9,0 °C 79 % 1020,4 hPa 0,0 mm 6,4 km/h (2 Bft) O-NO 69 ° 0 min 0,000 mm 1,1 UV-I 155 W/m² 5,6 °C 8,2 °C 8,0 km/h (2 Bft)
25.03.2017 16:19 9,1 °C 9,1 °C 80 % 1020,3 hPa 0,0 mm 9,7 km/h (2 Bft) O-NO 63 ° 0 min 0,000 mm 1,1 UV-I 172 W/m² 5,8 °C 7,6 °C 12,9 km/h (3 Bft)
25.03.2017 16:20 9,1 °C 9,1 °C 79 % 1020,3 hPa 0,0 mm 8,4 km/h (2 Bft) O-NO 60 ° 0 min 0,000 mm 1,1 UV-I 207 W/m² 5,7 °C 7,9 °C 11,3 km/h (2 Bft)
25.03.2017 16:21 9,1 °C 9,1 °C 79 % 1020,3 hPa 0,0 mm 6,9 km/h (2 Bft) O-SO 115 ° 0 min 0,000 mm 1,1 UV-I 193 W/m² 5,7 °C 8,2 °C 11,3 km/h (2 Bft)
25.03.2017 16:22 9,1 °C 9,1 °C 78 % 1020,3 hPa 0,0 mm 3,9 km/h (1 Bft) O 87 ° 0 min 0,000 mm 1,1 UV-I 176 W/m² 5,5 °C 9,1 °C 6,4 km/h (2 Bft)
25.03.2017 16:23 9,1 °C 9,1 °C 79 % 1020,3 hPa 0,0 mm 6,9 km/h (2 Bft) O-NO 63 ° 0 min 0,000 mm 1,1 UV-I 160 W/m² 5,7 °C 8,2 °C 9,7 km/h (2 Bft)
25.03.2017 16:24 9,1 °C 9,1 °C 78 % 1020,3 hPa 0,0 mm 9,1 km/h (2 Bft) O 81 ° 0 min 0,000 mm 1,0 UV-I 193 W/m² 5,5 °C 7,7 °C 12,9 km/h (3 Bft)
25.03.2017 16:25 9,1 °C 9,1 °C 79 % 1020,3 hPa 0,0 mm 10,0 km/h (2 Bft) O-NO 59 ° 0 min 0,000 mm 1,1 UV-I 172 W/m² 5,7 °C 7,6 °C 14,5 km/h (3 Bft)
25.03.2017 16:26 9,1 °C 9,1 °C 78 % 1020,3 hPa 0,0 mm 5,5 km/h (1 Bft) N-NO 26 ° 0 min 0,000 mm 1,1 UV-I 165 W/m² 5,5 °C 8,6 °C 9,7 km/h (2 Bft)
25.03.2017 16:27 9,1 °C 9,1 °C 78 % 1020,3 hPa 0,0 mm 6,7 km/h (2 Bft) O-NO 74 ° 0 min 0,000 mm 1,0 UV-I 116 W/m² 5,5 °C 8,3 °C 11,3 km/h (2 Bft)
25.03.2017 16:28 9,0 °C 9,1 °C 78 % 1020,3 hPa 0,0 mm 7,3 km/h (2 Bft) O 87 ° 0 min 0,000 mm 1,0 UV-I 120 W/m² 5,4 °C 8,0 °C 12,9 km/h (3 Bft)
25.03.2017 16:29 9,1 °C 9,1 °C 79 % 1020,3 hPa 0,0 mm 5,6 km/h (1 Bft) O-NO 74 ° 0 min 0,000 mm 1,0 UV-I 193 W/m² 5,7 °C 8,6 °C 8,0 km/h (2 Bft)
25.03.2017 16:30 9,0 °C 9,1 °C 78 % 1020,2 hPa 0,0 mm 5,7 km/h (1 Bft) O-SO 107 ° 0 min 0,000 mm 1,1 UV-I 241 W/m² 5,4 °C 8,4 °C 6,4 km/h (2 Bft)
25.03.2017 16:31 9,1 °C 9,1 °C 78 % 1020,3 hPa 0,0 mm 6,1 km/h (2 Bft) O 94 ° 0 min 0,000 mm 1,1 UV-I 237 W/m² 5,5 °C 8,4 °C 14,5 km/h (3 Bft)
25.03.2017 16:32 9,1 °C 9,1 °C 78 % 1020,2 hPa 0,0 mm 6,2 km/h (2 Bft) NO 51 ° 0 min 0,000 mm 1,0 UV-I 183 W/m² 5,5 °C 8,4 °C 9,7 km/h (2 Bft)
25.03.2017 16:33 9,2 °C 9,2 °C 78 % 1020,2 hPa 0,0 mm 5,2 km/h (1 Bft) O 93 ° 0 min 0,000 mm 1,0 UV-I 183 W/m² 5,6 °C 8,8 °C 6,4 km/h (2 Bft)
25.03.2017 16:34 9,2 °C 9,2 °C 77 % 1020,3 hPa 0,0 mm 6,2 km/h (2 Bft) O-SO 105 ° 0 min 0,000 mm 0,9 UV-I 162 W/m² 5,4 °C 8,5 °C 9,7 km/h (2 Bft)
25.03.2017 16:35 9,1 °C 9,2 °C 77 % 1020,2 hPa 0,0 mm 9,0 km/h (2 Bft) O-NO 65 ° 0 min 0,000 mm 0,9 UV-I 171 W/m² 5,3 °C 7,7 °C 12,9 km/h (3 Bft)
25.03.2017 16:36 9,2 °C 9,2 °C 77 % 1020,2 hPa 0,0 mm 10,1 km/h (2 Bft) O 101 ° 0 min 0,000 mm 0,9 UV-I 178 W/m² 5,4 °C 7,7 °C 16,1 km/h (3 Bft)
25.03.2017 16:37 9,1 °C 9,2 °C 76 % 1020,1 hPa 0,0 mm 6,0 km/h (2 Bft) O 92 ° 0 min 0,000 mm 0,9 UV-I 178 W/m² 5,1 °C 8,4 °C 11,3 km/h (2 Bft)
25.03.2017 16:38 9,2 °C 9,2 °C 77 % 1020,1 hPa 0,0 mm 6,8 km/h (2 Bft) O-NO 62 ° 0 min 0,000 mm 0,9 UV-I 174 W/m² 5,4 °C 8,3 °C 9,7 km/h (2 Bft)
25.03.2017 16:39 9,2 °C 9,2 °C 80 % 1020,1 hPa 0,0 mm 4,4 km/h (1 Bft) O-NO 75 ° 0 min 0,000 mm 0,9 UV-I 120 W/m² 5,9 °C 9,2 °C 6,4 km/h (2 Bft)
25.03.2017 16:40 9,2 °C 9,2 °C 79 % 1020,1 hPa 0,0 mm 4,4 km/h (1 Bft) NO 38 ° 0 min 0,000 mm 0,8 UV-I 105 W/m² 5,8 °C 9,2 °C 8,0 km/h (2 Bft)
25.03.2017 16:41 9,2 °C 9,2 °C 77 % 1020,2 hPa 0,0 mm 4,7 km/h (1 Bft) NO 52 ° 0 min 0,000 mm 0,9 UV-I 111 W/m² 5,4 °C 8,9 °C 6,4 km/h (2 Bft)
25.03.2017 16:42 9,2 °C 9,2 °C 77 % 1020,1 hPa 0,0 mm 7,2 km/h (2 Bft) O-NO 76 ° 0 min 0,000 mm 0,9 UV-I 104 W/m² 5,4 °C 8,2 °C 9,7 km/h (2 Bft)
25.03.2017 16:43 9,3 °C 9,3 °C 77 % 1020,1 hPa 0,0 mm 9,4 km/h (2 Bft) O-NO 69 ° 0 min 0,000 mm 0,8 UV-I 95 W/m² 5,5 °C 7,9 °C 14,5 km/h (3 Bft)
25.03.2017 16:44 9,3 °C 9,3 °C 77 % 1020,1 hPa 0,0 mm 7,7 km/h (2 Bft) O-NO 68 ° 0 min 0,000 mm 0,8 UV-I 84 W/m² 5,5 °C 8,3 °C 12,9 km/h (3 Bft)
25.03.2017 16:45 9,3 °C 9,3 °C 78 % 1020,1 hPa 0,0 mm 6,4 km/h (2 Bft) NO 42 ° 0 min 0,000 mm 0,8 UV-I 84 W/m² 5,7 °C 8,6 °C 9,7 km/h (2 Bft)
25.03.2017 16:46 9,3 °C 9,3 °C 76 % 1020,1 hPa 0,0 mm 8,4 km/h (2 Bft) O 82 ° 0 min 0,000 mm 0,8 UV-I 77 W/m² 5,3 °C 8,1 °C 14,5 km/h (3 Bft)
25.03.2017 16:47 9,3 °C 9,3 °C 77 % 1020,1 hPa 0,0 mm 5,2 km/h (1 Bft) O-NO 61 ° 0 min 0,000 mm 0,8 UV-I 76 W/m² 5,5 °C 8,9 °C 9,7 km/h (2 Bft)
25.03.2017 16:48 9,3 °C 9,3 °C 76 % 1020,1 hPa 0,0 mm 6,8 km/h (2 Bft) NO 51 ° 0 min 0,000 mm 0,8 UV-I 76 W/m² 5,3 °C 8,5 °C 9,7 km/h (2 Bft)
25.03.2017 16:49 9,3 °C 9,3 °C 76 % 1020,1 hPa 0,0 mm 9,7 km/h (2 Bft) O-NO 59 ° 0 min 0,000 mm 0,8 UV-I 70 W/m² 5,3 °C 7,8 °C 12,9 km/h (3 Bft)
25.03.2017 16:50 9,3 °C 9,3 °C 77 % 1020,1 hPa 0,0 mm 6,2 km/h (2 Bft) O 86 ° 0 min 0,000 mm 0,7 UV-I 62 W/m² 5,5 °C 8,6 °C 8,0 km/h (2 Bft)
25.03.2017 16:51 9,3 °C 9,3 °C 76 % 1020,1 hPa 0,0 mm 3,7 km/h (1 Bft) O-SO 112 ° 0 min 0,000 mm 0,0 UV-I 53 W/m² 5,3 °C 9,3 °C 4,8 km/h (1 Bft)
25.03.2017 16:52 9,3 °C 9,3 °C 76 % 1020,0 hPa 0,0 mm 2,2 km/h (1 Bft) O-SO 112 ° 0 min 0,000 mm 0,0 UV-I 51 W/m² 5,3 °C 9,3 °C 3,2 km/h (1 Bft)
25.03.2017 16:53 9,3 °C 9,3 °C 77 % 1020,1 hPa 0,0 mm 4,7 km/h (1 Bft) O-SO 102 ° 0 min 0,000 mm 0,0 UV-I 53 W/m² 5,5 °C 9,1 °C 9,7 km/h (2 Bft)
25.03.2017 16:54 9,3 °C 9,3 °C 77 % 1020,0 hPa 0,0 mm 4,1 km/h (1 Bft) O-NO 66 ° 0 min 0,000 mm 0,7 UV-I 58 W/m² 5,5 °C 9,3 °C 6,4 km/h (2 Bft)
25.03.2017 16:55 9,3 °C 9,3 °C 77 % 1020,0 hPa 0,0 mm 4,1 km/h (1 Bft) O-NO 59 ° 0 min 0,000 mm 0,0 UV-I 54 W/m² 5,5 °C 9,3 °C 8,0 km/h (2 Bft)
25.03.2017 16:56 9,3 °C 9,3 °C 76 % 1020,0 hPa 0,0 mm 9,7 km/h (2 Bft) O-NO 68 ° 0 min 0,000 mm 0,0 UV-I 51 W/m² 5,3 °C 7,8 °C 12,9 km/h (3 Bft)
25.03.2017 16:57 9,3 °C 9,3 °C 77 % 1020,0 hPa 0,0 mm 5,7 km/h (1 Bft) O-NO 67 ° 0 min 0,000 mm 0,0 UV-I 49 W/m² 5,5 °C 8,8 °C 9,7 km/h (2 Bft)
25.03.2017 16:58 9,3 °C 9,3 °C 76 % 1020,0 hPa 0,0 mm 7,5 km/h (2 Bft) O-NO 71 ° 0 min 0,000 mm 0,0 UV-I 47 W/m² 5,3 °C 8,3 °C 12,9 km/h (3 Bft)
25.03.2017 16:59 9,3 °C 9,3 °C 77 % 1020,0 hPa 0,0 mm 6,0 km/h (2 Bft) O-NO 75 ° 0 min 0,000 mm 0,0 UV-I 46 W/m² 5,5 °C 8,7 °C 8,0 km/h (2 Bft)
25.03.2017 17:00 9,2 °C 9,3 °C 78 % 1020,0 hPa 0,0 mm 4,2 km/h (1 Bft) NO 56 ° 0 min 0,000 mm 0,0 UV-I 46 W/m² 5,6 °C 9,2 °C 6,4 km/h (2 Bft)
25.03.2017 17:01 9,2 °C 9,2 °C 76 % 1020,0 hPa 0,0 mm 7,0 km/h (2 Bft) O-NO 71 ° 0 min 0,076 mm 0,0 UV-I 46 W/m² 5,2 °C 8,3 °C 11,3 km/h (2 Bft)
25.03.2017 17:02 9,2 °C 9,2 °C 77 % 1020,0 hPa 0,0 mm 6,4 km/h (2 Bft) O-NO 76 ° 0 min 0,000 mm 0,0 UV-I 46 W/m² 5,4 °C 8,4 °C 9,7 km/h (2 Bft)
25.03.2017 17:03 9,1 °C 9,2 °C 78 % 1020,0 hPa 0,0 mm 5,1 km/h (1 Bft) O 87 ° 0 min 0,000 mm 0,0 UV-I 46 W/m² 5,5 °C 8,7 °C 8,0 km/h (2 Bft)
25.03.2017 17:04 9,1 °C 9,1 °C 78 % 1020,0 hPa 0,0 mm 5,2 km/h (1 Bft) NO 53 ° 0 min 0,000 mm 0,0 UV-I 46 W/m² 5,5 °C 8,7 °C 8,0 km/h (2 Bft)
25.03.2017 17:05 9,1 °C 9,1 °C 77 % 1020,0 hPa 0,0 mm 4,0 km/h (1 Bft) O 80 ° 0 min 0,000 mm 0,0 UV-I 44 W/m² 5,3 °C 9,1 °C 6,4 km/h (2 Bft)
25.03.2017 17:06 9,1 °C 9,1 °C 77 % 1020,0 hPa 0,0 mm 2,9 km/h (1 Bft) O-NO 59 ° 0 min 0,000 mm 0,0 UV-I 44 W/m² 5,3 °C 9,1 °C 8,0 km/h (2 Bft)
25.03.2017 17:07 9,0 °C 9,1 °C 77 % 1020,0 hPa 0,0 mm 8,2 km/h (2 Bft) O-NO 70 ° 0 min 0,000 mm 0,0 UV-I 44 W/m² 5,2 °C 7,8 °C 14,5 km/h (3 Bft)
25.03.2017 17:08 9,0 °C 9,0 °C 77 % 1020,0 hPa 0,0 mm 6,3 km/h (2 Bft) NO 50 ° 0 min 0,000 mm 0,0 UV-I 44 W/m² 5,2 °C 8,2 °C 14,5 km/h (3 Bft)
25.03.2017 17:09 9,0 °C 9,0 °C 77 % 1020,0 hPa 0,0 mm 7,9 km/h (2 Bft) O-NO 71 ° 0 min 0,000 mm 0,0 UV-I 44 W/m² 5,2 °C 7,9 °C 12,9 km/h (3 Bft)
25.03.2017 17:10 9,0 °C 9,1 °C 77 % 1020,0 hPa 0,0 mm 5,2 km/h (1 Bft) O-NO 67 ° 0 min 0,000 mm 0,0 UV-I 42 W/m² 5,2 °C 8,6 °C 9,7 km/h (2 Bft)
25.03.2017 17:11 8,9 °C 9,0 °C 78 % 1020,0 hPa 0,0 mm 5,0 km/h (1 Bft) S-SO 153 ° 0 min 0,000 mm 0,0 UV-I 42 W/m² 5,3 °C 8,5 °C 9,7 km/h (2 Bft)
25.03.2017 17:12 8,9 °C 8,9 °C 77 % 1019,9 hPa 0,0 mm 4,3 km/h (1 Bft) O-NO 71 ° 0 min 0,000 mm 0,0 UV-I 46 W/m² 5,1 °C 8,9 °C 6,4 km/h (2 Bft)
25.03.2017 17:13 8,9 °C 8,9 °C 77 % 1020,0 hPa 0,0 mm 8,9 km/h (2 Bft) O-NO 58 ° 0 min 0,000 mm 0,0 UV-I 51 W/m² 5,1 °C 7,5 °C 11,3 km/h (2 Bft)
25.03.2017 17:14 8,9 °C 8,9 °C 78 % 1020,0 hPa 0,0 mm 5,8 km/h (2 Bft) O 94 ° 0 min 0,000 mm 0,0 UV-I 54 W/m² 5,3 °C 8,3 °C 8,0 km/h (2 Bft)
25.03.2017 17:15 8,9 °C 8,9 °C 78 % 1020,0 hPa 0,0 mm 1,5 km/h (1 Bft) NO 53 ° 0 min 0,000 mm 0,0 UV-I 53 W/m² 5,3 °C 8,9 °C 3,2 km/h (1 Bft)
25.03.2017 17:16 8,8 °C 8,9 °C 78 % 1020,0 hPa 0,0 mm 3,1 km/h (1 Bft) O-SO 105 ° 0 min 0,000 mm 0,0 UV-I 47 W/m² 5,2 °C 8,8 °C 6,4 km/h (2 Bft)
25.03.2017 17:17 8,8 °C 8,8 °C 77 % 1020,0 hPa 0,0 mm 1,6 km/h (1 Bft) SO 128 ° 0 min 0,000 mm 0,0 UV-I 44 W/m² 5,0 °C 8,8 °C 4,8 km/h (1 Bft)
25.03.2017 17:18 8,8 °C 8,8 °C 77 % 1020,0 hPa 0,0 mm 4,2 km/h (1 Bft) O-NO 61 ° 0 min 0,000 mm 0,0 UV-I 44 W/m² 5,0 °C 8,8 °C 6,4 km/h (2 Bft)
25.03.2017 17:19 8,7 °C 8,8 °C 78 % 1020,0 hPa 0,0 mm 3,0 km/h (1 Bft) O-NO 61 ° 0 min 0,000 mm 0,0 UV-I 42 W/m² 5,1 °C 8,7 °C 4,8 km/h (1 Bft)
25.03.2017 17:20 8,7 °C 8,7 °C 78 % 1019,9 hPa 0,0 mm 4,8 km/h (1 Bft) O-SO 105 ° 0 min 0,000 mm 0,0 UV-I 40 W/m² 5,1 °C 8,3 °C 11,3 km/h (2 Bft)
25.03.2017 17:21 8,7 °C 8,7 °C 77 % 1020,0 hPa 0,0 mm 2,7 km/h (1 Bft) O 94 ° 0 min 0,000 mm 0,0 UV-I 39 W/m² 4,9 °C 8,7 °C 6,4 km/h (2 Bft)
25.03.2017 17:22 8,7 °C 8,8 °C 77 % 1019,9 hPa 0,0 mm 1,9 km/h (1 Bft) O-SO 107 ° 0 min 0,000 mm 0,0 UV-I 39 W/m² 4,9 °C 8,7 °C 3,2 km/h (1 Bft)
25.03.2017 17:23 8,8 °C 8,8 °C 77 % 1020,0 hPa 0,0 mm 5,0 km/h (1 Bft) O-NO 76 ° 0 min 0,000 mm 0,0 UV-I 39 W/m² 5,0 °C 8,4 °C 6,4 km/h (2 Bft)
25.03.2017 17:24 8,8 °C 8,8 °C 77 % 1019,9 hPa 0,0 mm 2,8 km/h (1 Bft) O-NO 69 ° 0 min 0,000 mm 0,0 UV-I 37 W/m² 5,0 °C 8,8 °C 4,8 km/h (1 Bft)
25.03.2017 17:25 8,8 °C 8,8 °C 78 % 1019,9 hPa 0,0 mm 3,5 km/h (1 Bft) O-NO 64 ° 0 min 0,000 mm 0,0 UV-I 37 W/m² 5,2 °C 8,8 °C 6,4 km/h (2 Bft)
25.03.2017 17:26 8,7 °C 8,8 °C 78 % 1019,9 hPa 0,0 mm 2,6 km/h (1 Bft) O 93 ° 0 min 0,000 mm 0,0 UV-I 37 W/m² 5,1 °C 8,7 °C 4,8 km/h (1 Bft)
25.03.2017 17:27 8,7 °C 8,7 °C 77 % 1019,9 hPa 0,0 mm 4,3 km/h (1 Bft) SO 125 ° 0 min 0,000 mm 0,0 UV-I 37 W/m² 4,9 °C 8,7 °C 8,0 km/h (2 Bft)
25.03.2017 17:28 8,7 °C 8,7 °C 77 % 1019,9 hPa 0,0 mm 3,2 km/h (1 Bft) O 93 ° 0 min 0,000 mm 0,0 UV-I 35 W/m² 4,9 °C 8,7 °C 4,8 km/h (1 Bft)
25.03.2017 17:29 8,7 °C 8,7 °C 76 % 1019,9 hPa 0,0 mm 5,1 km/h (1 Bft) NO 55 ° 0 min 0,000 mm 0,0 UV-I 35 W/m² 4,7 °C 8,2 °C 9,7 km/h (2 Bft)
25.03.2017 17:30 8,7 °C 8,8 °C 76 % 1020,0 hPa 0,0 mm 3,2 km/h (1 Bft) NO 55 ° 0 min 0,000 mm 0,0 UV-I 35 W/m² 4,7 °C 8,7 °C 4,8 km/h (1 Bft)
25.03.2017 17:31 8,7 °C 8,7 °C 78 % 1019,9 hPa 0,0 mm 1,1 km/h (1 Bft) NO 55 ° 0 min 0,000 mm 0,0 UV-I 35 W/m² 5,1 °C 8,7 °C 3,2 km/h (1 Bft)
25.03.2017 17:32 8,6 °C 8,7 °C 78 % 1019,9 hPa 0,0 mm 2,7 km/h (1 Bft) NO 55 ° 0 min 0,000 mm 0,0 UV-I 35 W/m² 5,0 °C 8,6 °C 4,8 km/h (1 Bft)
25.03.2017 17:33 8,6 °C 8,6 °C 78 % 1020,0 hPa 0,0 mm 1,0 km/h (0 Bft) O-NO 67 ° 0 min 0,000 mm 0,0 UV-I 39 W/m² 5,0 °C 8,6 °C 4,8 km/h (1 Bft)
25.03.2017 17:34 8,6 °C 8,6 °C 78 % 1019,9 hPa 0,0 mm 3,3 km/h (1 Bft) S-SO 164 ° 0 min 0,000 mm 0,0 UV-I 37 W/m² 5,0 °C 8,6 °C 6,4 km/h (2 Bft)
25.03.2017 17:35 8,6 °C 8,6 °C 77 % 1019,9 hPa 0,0 mm 2,6 km/h (1 Bft) O-NO 74 ° 0 min 0,000 mm 0,0 UV-I 37 W/m² 4,8 °C 8,6 °C 4,8 km/h (1 Bft)
25.03.2017 17:36 8,7 °C 8,7 °C 77 % 1019,9 hPa 0,0 mm 0,6 km/h (0 Bft) O-NO 74 ° 0 min 0,000 mm 0,0 UV-I 40 W/m² 4,9 °C 8,7 °C 1,6 km/h (1 Bft)
25.03.2017 17:37 8,7 °C 8,7 °C 77 % 1019,9 hPa 0,0 mm 2,4 km/h (1 Bft) O-NO 76 ° 0 min 0,000 mm 0,0 UV-I 40 W/m² 4,9 °C 8,7 °C 4,8 km/h (1 Bft)
25.03.2017 17:38 8,7 °C 8,7 °C 77 % 1019,9 hPa 0,0 mm 5,0 km/h (1 Bft) SO 124 ° 0 min 0,000 mm 0,0 UV-I 39 W/m² 4,9 °C 8,3 °C 9,7 km/h (2 Bft)
25.03.2017 17:39 8,7 °C 8,7 °C 77 % 1020,0 hPa 0,0 mm 1,3 km/h (1 Bft) SO 124 ° 0 min 0,000 mm 0,0 UV-I 40 W/m² 4,9 °C 8,7 °C 3,2 km/h (1 Bft)
25.03.2017 17:40 8,6 °C 8,7 °C 76 % 1019,9 hPa 0,0 mm 2,1 km/h (1 Bft) NO 51 ° 0 min 0,000 mm 0,0 UV-I 40 W/m² 4,6 °C 8,6 °C 3,2 km/h (1 Bft)
25.03.2017 17:41 8,6 °C 8,7 °C 77 % 1020,0 hPa 0,0 mm 5,3 km/h (1 Bft) O-NO 68 ° 0 min 0,000 mm 0,0 UV-I 39 W/m² 4,8 °C 8,1 °C 11,3 km/h (2 Bft)
25.03.2017 17:42 8,7 °C 8,7 °C 76 % 1019,9 hPa 0,0 mm 5,6 km/h (1 Bft) O-SO 117 ° 0 min 0,000 mm 0,0 UV-I 42 W/m² 4,7 °C 8,1 °C 8,0 km/h (2 Bft)
25.03.2017 17:43 8,6 °C 8,7 °C 77 % 1019,9 hPa 0,0 mm 3,2 km/h (1 Bft) O 96 ° 0 min 0,000 mm 0,0 UV-I 40 W/m² 4,8 °C 8,6 °C 4,8 km/h (1 Bft)
25.03.2017 17:44 8,6 °C 8,6 °C 76 % 1020,0 hPa 0,0 mm 0,4 km/h (0 Bft) O 96 ° 0 min 0,000 mm 0,0 UV-I 39 W/m² 4,6 °C 8,6 °C 1,6 km/h (1 Bft)
25.03.2017 17:45 8,6 °C 8,6 °C 76 % 1019,9 hPa 0,0 mm 3,1 km/h (1 Bft) SO 132 ° 0 min 0,000 mm 0,0 UV-I 39 W/m² 4,6 °C 8,6 °C 4,8 km/h (1 Bft)
25.03.2017 17:46 8,6 °C 8,6 °C 76 % 1019,9 hPa 0,0 mm 3,6 km/h (1 Bft) SO 141 ° 0 min 0,000 mm 0,0 UV-I 35 W/m² 4,6 °C 8,6 °C 6,4 km/h (2 Bft)
25.03.2017 17:47 8,6 °C 8,6 °C 77 % 1019,9 hPa 0,0 mm 2,2 km/h (1 Bft) SO 141 ° 0 min 0,000 mm 0,0 UV-I 33 W/m² 4,8 °C 8,6 °C 3,2 km/h (1 Bft)
25.03.2017 17:48 8,4 °C 8,6 °C 77 % 1020,0 hPa 0,0 mm 2,4 km/h (1 Bft) SO 125 ° 0 min 0,000 mm 0,0 UV-I 33 W/m² 4,6 °C 8,4 °C 4,8 km/h (1 Bft)
25.03.2017 17:49 8,4 °C 8,4 °C 77 % 1020,0 hPa 0,0 mm 6,0 km/h (2 Bft) SO 130 ° 0 min 0,000 mm 0,0 UV-I 35 W/m² 4,6 °C 7,6 °C 8,0 km/h (2 Bft)
25.03.2017 17:50 8,4 °C 8,4 °C 77 % 1020,0 hPa 0,0 mm 2,9 km/h (1 Bft) O 85 ° 0 min 0,000 mm 0,0 UV-I 33 W/m² 4,6 °C 8,4 °C 6,4 km/h (2 Bft)
25.03.2017 17:51 8,4 °C 8,4 °C 77 % 1020,0 hPa 0,0 mm 2,6 km/h (1 Bft) O-SO 108 ° 0 min 0,000 mm 0,0 UV-I 33 W/m² 4,6 °C 8,4 °C 3,2 km/h (1 Bft)
25.03.2017 17:52 8,3 °C 8,4 °C 78 % 1019,9 hPa 0,0 mm 1,7 km/h (1 Bft) O-SO 108 ° 0 min 0,000 mm 0,0 UV-I 32 W/m² 4,7 °C 8,3 °C 3,2 km/h (1 Bft)
25.03.2017 17:53 8,3 °C 8,3 °C 77 % 1019,9 hPa 0,0 mm 0,6 km/h (0 Bft) O-SO 108 ° 0 min 0,000 mm 0,0 UV-I 30 W/m² 4,5 °C 8,3 °C 1,6 km/h (1 Bft)
25.03.2017 17:54 8,3 °C 8,3 °C 78 % 1019,9 hPa 0,0 mm 0,3 km/h (0 Bft) O-SO 108 ° 0 min 0,000 mm 0,0 UV-I 26 W/m² 4,7 °C 8,3 °C 1,6 km/h (1 Bft)
25.03.2017 17:55 8,2 °C 8,3 °C 78 % 1019,9 hPa 0,0 mm 1,9 km/h (1 Bft) O-SO 108 ° 0 min 0,000 mm 0,0 UV-I 28 W/m² 4,6 °C 8,2 °C 4,8 km/h (1 Bft)
25.03.2017 17:56 8,2 °C 8,2 °C 79 % 1019,9 hPa 0,0 mm 1,8 km/h (1 Bft) O-SO 108 ° 0 min 0,000 mm 0,0 UV-I 33 W/m² 4,8 °C 8,2 °C 3,2 km/h (1 Bft)
25.03.2017 17:57 8,1 °C 8,2 °C 79 % 1019,9 hPa 0,0 mm 3,2 km/h (1 Bft) O 90 ° 0 min 0,000 mm 0,0 UV-I 32 W/m² 4,7 °C 8,1 °C 4,8 km/h (1 Bft)
25.03.2017 17:58 8,1 °C 8,1 °C 79 % 1019,9 hPa 0,0 mm 4,8 km/h (1 Bft) O 93 ° 0 min 0,000 mm 0,0 UV-I 26 W/m² 4,7 °C 7,7 °C 9,7 km/h (2 Bft)
25.03.2017 17:59 8,0 °C 8,1 °C 79 % 1019,9 hPa 0,0 mm 3,5 km/h (1 Bft) SO 143 ° 0 min 0,000 mm 0,0 UV-I 26 W/m² 4,6 °C 8,0 °C 4,8 km/h (1 Bft)
25.03.2017 18:00 7,9 °C 8,0 °C 79 % 1019,9 hPa 0,0 mm 2,5 km/h (1 Bft) O-SO 121 ° 0 min 0,000 mm 0,0 UV-I 28 W/m² 4,5 °C 7,9 °C 6,4 km/h (2 Bft)
25.03.2017 18:01 7,8 °C 7,9 °C 80 % 1019,9 hPa 0,0 mm 4,7 km/h (1 Bft) SO 140 ° 0 min 0,025 mm 0,0 UV-I 26 W/m² 4,6 °C 7,4 °C 8,0 km/h (2 Bft)
25.03.2017 18:02 7,9 °C 7,9 °C 79 % 1019,9 hPa 0,0 mm 3,5 km/h (1 Bft) SO 140 ° 0 min 0,000 mm 0,0 UV-I 26 W/m² 4,5 °C 7,9 °C 4,8 km/h (1 Bft)
25.03.2017 18:03 7,9 °C 7,9 °C 79 % 1019,8 hPa 0,0 mm 3,1 km/h (1 Bft) SO 128 ° 0 min 0,000 mm 0,0 UV-I 25 W/m² 4,5 °C 7,9 °C 3,2 km/h (1 Bft)
25.03.2017 18:04 7,8 °C 7,9 °C 79 % 1019,9 hPa 0,0 mm 3,4 km/h (1 Bft) O 84 ° 0 min 0,000 mm 0,0 UV-I 23 W/m² 4,4 °C 7,8 °C 4,8 km/h (1 Bft)
25.03.2017 18:05 7,8 °C 7,9 °C 78 % 1019,9 hPa 0,0 mm 3,0 km/h (1 Bft) O 99 ° 0 min 0,000 mm 0,0 UV-I 23 W/m² 4,2 °C 7,8 °C 4,8 km/h (1 Bft)
25.03.2017 18:06 7,8 °C 7,9 °C 80 % 1019,9 hPa 0,0 mm 2,0 km/h (1 Bft) S-SO 157 ° 0 min 0,000 mm 0,0 UV-I 21 W/m² 4,6 °C 7,8 °C 3,2 km/h (1 Bft)
25.03.2017 18:07 7,8 °C 7,9 °C 79 % 1019,9 hPa 0,0 mm 2,8 km/h (1 Bft) SO 142 ° 0 min 0,000 mm 0,0 UV-I 21 W/m² 4,4 °C 7,8 °C 3,2 km/h (1 Bft)
25.03.2017 18:08 7,8 °C 7,8 °C 78 % 1019,8 hPa 0,0 mm 2,3 km/h (1 Bft) O 93 ° 0 min 0,000 mm 0,0 UV-I 21 W/m² 4,2 °C 7,8 °C 4,8 km/h (1 Bft)
25.03.2017 18:09 7,8 °C 7,8 °C 78 % 1019,8 hPa 0,0 mm 1,7 km/h (1 Bft) O 93 ° 0 min 0,000 mm 0,0 UV-I 19 W/m² 4,2 °C 7,8 °C 3,2 km/h (1 Bft)
25.03.2017 18:10 7,7 °C 7,8 °C 78 % 1019,8 hPa 0,0 mm 1,2 km/h (1 Bft) O 93 ° 0 min 0,000 mm 0,0 UV-I 19 W/m² 4,1 °C 7,7 °C 3,2 km/h (1 Bft)
25.03.2017 18:11 7,7 °C 7,7 °C 78 % 1019,8 hPa 0,0 mm 3,5 km/h (1 Bft) SO 128 ° 0 min 0,000 mm 0,0 UV-I 19 W/m² 4,1 °C 7,7 °C 6,4 km/h (2 Bft)
25.03.2017 18:12 7,6 °C 7,7 °C 79 % 1019,8 hPa 0,0 mm 3,0 km/h (1 Bft) SO 144 ° 0 min 0,000 mm 0,0 UV-I 18 W/m² 4,2 °C 7,6 °C 6,4 km/h (2 Bft)
25.03.2017 18:13 7,6 °C 7,6 °C 79 % 1019,8 hPa 0,0 mm 4,4 km/h (1 Bft) S-SO 151 ° 0 min 0,000 mm 0,0 UV-I 18 W/m² 4,2 °C 7,6 °C 6,4 km/h (2 Bft)
25.03.2017 18:14 7,6 °C 7,6 °C 79 % 1019,8 hPa 0,0 mm 3,8 km/h (1 Bft) O-SO 109 ° 0 min 0,000 mm 0,0 UV-I 16 W/m² 4,2 °C 7,6 °C 4,8 km/h (1 Bft)
25.03.2017 18:15 7,6 °C 7,6 °C 79 % 1019,8 hPa 0,0 mm 3,0 km/h (1 Bft) SO 145 ° 0 min 0,000 mm 0,0 UV-I 16 W/m² 4,2 °C 7,6 °C 4,8 km/h (1 Bft)
25.03.2017 18:16 7,6 °C 7,6 °C 79 % 1019,7 hPa 0,0 mm 2,5 km/h (1 Bft) SO 145 ° 0 min 0,000 mm 0,0 UV-I 14 W/m² 4,2 °C 7,6 °C 3,2 km/h (1 Bft)
25.03.2017 18:17 7,6 °C 7,6 °C 80 % 1019,8 hPa 0,0 mm 1,8 km/h (1 Bft) O-SO 118 ° 0 min 0,000 mm 0,0 UV-I 14 W/m² 4,4 °C 7,6 °C 4,8 km/h (1 Bft)
25.03.2017 18:18 7,4 °C 7,6 °C 80 % 1019,8 hPa 0,0 mm 3,4 km/h (1 Bft) O 93 ° 0 min 0,000 mm 0,0 UV-I 14 W/m² 4,2 °C 7,4 °C 4,8 km/h (1 Bft)
25.03.2017 18:19 7,4 °C 7,4 °C 80 % 1019,8 hPa 0,0 mm 2,8 km/h (1 Bft) O 94 ° 0 min 0,000 mm 0,0 UV-I 14 W/m² 4,2 °C 7,4 °C 4,8 km/h (1 Bft)
25.03.2017 18:20 7,3 °C 7,4 °C 80 % 1019,8 hPa 0,0 mm 3,0 km/h (1 Bft) O-SO 122 ° 0 min 0,000 mm 0,0 UV-I 12 W/m² 4,1 °C 7,3 °C 4,8 km/h (1 Bft)
25.03.2017 18:21 7,3 °C 7,3 °C 80 % 1019,7 hPa 0,0 mm 1,8 km/h (1 Bft) O-SO 123 ° 0 min 0,000 mm 0,0 UV-I 12 W/m² 4,1 °C 7,3 °C 3,2 km/h (1 Bft)
25.03.2017 18:22 7,3 °C 7,3 °C 81 % 1019,8 hPa 0,0 mm 1,5 km/h (1 Bft) O-SO 123 ° 0 min 0,000 mm 0,0 UV-I 12 W/m² 4,3 °C 7,3 °C 3,2 km/h (1 Bft)
25.03.2017 18:23 7,2 °C 7,3 °C 81 % 1019,7 hPa 0,0 mm 1,5 km/h (1 Bft) O-SO 123 ° 0 min 0,000 mm 0,0 UV-I 11 W/m² 4,2 °C 7,2 °C 3,2 km/h (1 Bft)
25.03.2017 18:24 7,2 °C 7,2 °C 81 % 1019,8 hPa 0,0 mm 2,0 km/h (1 Bft) O-SO 123 ° 0 min 0,000 mm 0,0 UV-I 11 W/m² 4,2 °C 7,2 °C 3,2 km/h (1 Bft)
25.03.2017 18:25 7,2 °C 7,2 °C 81 % 1019,8 hPa 0,0 mm 1,4 km/h (1 Bft) O-SO 123 ° 0 min 0,000 mm 0,0 UV-I 11 W/m² 4,2 °C 7,2 °C 1,6 km/h (1 Bft)
25.03.2017 18:26 7,2 °C 7,2 °C 81 % 1019,7 hPa 0,0 mm 2,2 km/h (1 Bft) S-SO 157 ° 0 min 0,000 mm 0,0 UV-I 11 W/m² 4,2 °C 7,2 °C 3,2 km/h (1 Bft)
25.03.2017 18:27 7,2 °C 7,2 °C 80 % 1019,8 hPa 0,0 mm 4,3 km/h (1 Bft) O 92 ° 0 min 0,000 mm 0,0 UV-I 9 W/m² 4,0 °C 7,2 °C 6,4 km/h (2 Bft)
25.03.2017 18:28 7,2 °C 7,2 °C 80 % 1019,7 hPa 0,0 mm 2,6 km/h (1 Bft) O 92 ° 0 min 0,000 mm 0,0 UV-I 9 W/m² 4,0 °C 7,2 °C 3,2 km/h (1 Bft)
25.03.2017 18:29 7,2 °C 7,2 °C 81 % 1019,8 hPa 0,0 mm 1,7 km/h (1 Bft) O 92 ° 0 min 0,000 mm 0,0 UV-I 7 W/m² 4,2 °C 7,2 °C 3,2 km/h (1 Bft)
25.03.2017 18:30 7,1 °C 7,2 °C 81 % 1019,8 hPa 0,0 mm 1,3 km/h (1 Bft) O 92 ° 0 min 0,000 mm 0,0 UV-I 7 W/m² 4,1 °C 7,1 °C 3,2 km/h (1 Bft)
25.03.2017 18:31 7,1 °C 7,1 °C 81 % 1019,8 hPa 0,0 mm 2,7 km/h (1 Bft) O 92 ° 0 min 0,000 mm 0,0 UV-I 7 W/m² 4,1 °C 7,1 °C 4,8 km/h (1 Bft)
25.03.2017 18:32 7,0 °C 7,1 °C 81 % 1019,8 hPa 0,0 mm 2,5 km/h (1 Bft) O 92 ° 0 min 0,000 mm 0,0 UV-I 7 W/m² 4,0 °C 7,0 °C 4,8 km/h (1 Bft)
25.03.2017 18:33 6,9 °C 7,0 °C 81 % 1019,8 hPa 0,0 mm 2,7 km/h (1 Bft) O 92 ° 0 min 0,000 mm 0,0 UV-I 5 W/m² 3,9 °C 6,9 °C 3,2 km/h (1 Bft)
25.03.2017 18:34 6,9 °C 6,9 °C 81 % 1019,8 hPa 0,0 mm 2,3 km/h (1 Bft) O 92 ° 0 min 0,000 mm 0,0 UV-I 5 W/m² 3,9 °C 6,9 °C 3,2 km/h (1 Bft)
25.03.2017 18:35 6,9 °C 6,9 °C 81 % 1019,8 hPa 0,0 mm 2,1 km/h (1 Bft) O 92 ° 0 min 0,000 mm 0,0 UV-I 5 W/m² 3,9 °C 6,9 °C 3,2 km/h (1 Bft)
25.03.2017 18:36 6,9 °C 6,9 °C 81 % 1019,8 hPa 0,0 mm 2,6 km/h (1 Bft) O 92 ° 0 min 0,000 mm 0,0 UV-I 0 W/m² 3,9 °C 6,9 °C 3,2 km/h (1 Bft)
25.03.2017 18:37 6,8 °C 6,9 °C 81 % 1019,8 hPa 0,0 mm 1,7 km/h (1 Bft) O 92 ° 0 min 0,000 mm 0,0 UV-I 0 W/m² 3,8 °C 6,8 °C 3,2 km/h (1 Bft)
25.03.2017 18:38 6,8 °C 6,8 °C 82 % 1019,8 hPa 0,0 mm 3,0 km/h (1 Bft) O 92 ° 0 min 0,000 mm 0,0 UV-I 0 W/m² 3,9 °C 6,8 °C 4,8 km/h (1 Bft)
25.03.2017 18:39 6,8 °C 6,8 °C 82 % 1019,8 hPa 0,0 mm 1,3 km/h (1 Bft) O 92 ° 0 min 0,000 mm 0,0 UV-I 0 W/m² 3,9 °C 6,8 °C 1,6 km/h (1 Bft)
25.03.2017 18:40 6,8 °C 6,8 °C 82 % 1019,8 hPa 0,0 mm 1,7 km/h (1 Bft) O 92 ° 0 min 0,000 mm 0,0 UV-I 0 W/m² 3,9 °C 6,8 °C 3,2 km/h (1 Bft)
25.03.2017 18:41 6,7 °C 6,8 °C 82 % 1019,8 hPa 0,0 mm 1,6 km/h (1 Bft) O 92 ° 0 min 0,000 mm 0,0 UV-I 0 W/m² 3,8 °C 6,7 °C 3,2 km/h (1 Bft)
25.03.2017 18:42 6,7 °C 6,7 °C 82 % 1019,7 hPa 0,0 mm 1,7 km/h (1 Bft) O 92 ° 0 min 0,000 mm 0,0 UV-I 0 W/m² 3,8 °C 6,7 °C 3,2 km/h (1 Bft)
25.03.2017 18:43 6,7 °C 6,7 °C 82 % 1019,7 hPa 0,0 mm 1,2 km/h (1 Bft) O 92 ° 0 min 0,000 mm 0,0 UV-I 0 W/m² 3,8 °C 6,7 °C 1,6 km/h (1 Bft)
25.03.2017 18:44 6,6 °C 6,7 °C 82 % 1019,7 hPa 0,0 mm 0,5 km/h (0 Bft) O 92 ° 0 min 0,000 mm 0,0 UV-I 0 W/m² 3,8 °C 6,6 °C 1,6 km/h (1 Bft)
25.03.2017 18:45 6,6 °C 6,6 °C 82 % 1019,7 hPa 0,0 mm 1,0 km/h (0 Bft) O 92 ° 0 min 0,000 mm 0,0 UV-I 0 W/m² 3,8 °C 6,6 °C 3,2 km/h (1 Bft)
25.03.2017 18:46 6,5 °C 6,6 °C 82 % 1019,7 hPa 0,0 mm 0,6 km/h (0 Bft) O 92 ° 0 min 0,000 mm 0,0 UV-I 0 W/m² 3,7 °C 6,5 °C 1,6 km/h (1 Bft)
25.03.2017 18:47 6,5 °C 6,5 °C 82 % 1019,7 hPa 0,0 mm 0,8 km/h (0 Bft) O 92 ° 0 min 0,000 mm 0,0 UV-I 0 W/m² 3,7 °C 6,5 °C 1,6 km/h (1 Bft)
25.03.2017 18:48 6,4 °C 6,5 °C 82 % 1019,7 hPa 0,0 mm 0,7 km/h (0 Bft) O 92 ° 0 min 0,000 mm 0,0 UV-I 0 W/m² 3,6 °C 6,4 °C 1,6 km/h (1 Bft)
25.03.2017 18:49 6,3 °C 6,4 °C 83 % 1019,7 hPa 0,0 mm 0,4 km/h (0 Bft) O 92 ° 0 min 0,000 mm 0,0 UV-I 0 W/m² 3,6 °C 6,3 °C 1,6 km/h (1 Bft)
25.03.2017 18:50 6,3 °C 6,4 °C 83 % 1019,6 hPa 0,0 mm 0,5 km/h (0 Bft) O 92 ° 0 min 0,000 mm 0,0 UV-I 0 W/m² 3,6 °C 6,3 °C 1,6 km/h (1 Bft)
25.03.2017 18:51 6,3 °C 6,3 °C 82 % 1019,7 hPa 0,0 mm 0,0 km/h (0 Bft) O 92 ° 0 min 0,000 mm 0,0 UV-I 0 W/m² 3,5 °C 6,3 °C 0,0 km/h (0 Bft)
25.03.2017 18:52 6,2 °C 6,3 °C 83 % 1019,7 hPa 0,0 mm 0,7 km/h (0 Bft) O 92 ° 0 min 0,000 mm 0,0 UV-I 0 W/m² 3,5 °C 6,2 °C 3,2 km/h (1 Bft)
25.03.2017 18:53 6,1 °C 6,2 °C 83 % 1019,7 hPa 0,0 mm 0,0 km/h (0 Bft) O 92 ° 0 min 0,000 mm 0,0 UV-I 0 W/m² 3,4 °C 6,1 °C 0,0 km/h (0 Bft)
25.03.2017 18:54 5,9 °C 6,1 °C 83 % 1019,7 hPa 0,0 mm 1,8 km/h (1 Bft) O-NO 65 ° 0 min 0,000 mm 0,0 UV-I 0 W/m² 3,2 °C 5,9 °C 3,2 km/h (1 Bft)
25.03.2017 18:55 5,8 °C 5,9 °C 83 % 1019,7 hPa 0,0 mm 0,2 km/h (0 Bft) O-NO 65 ° 0 min 0,000 mm 0,0 UV-I 0 W/m² 3,1 °C 5,8 °C 1,6 km/h (1 Bft)
25.03.2017 18:56 5,7 °C 5,8 °C 84 % 1019,7 hPa 0,0 mm 1,1 km/h (1 Bft) O-NO 65 ° 0 min 0,000 mm 0,0 UV-I 0 W/m² 3,2 °C 5,7 °C 1,6 km/h (1 Bft)
25.03.2017 18:57 5,7 °C 5,7 °C 84 % 1019,7 hPa 0,0 mm 0,7 km/h (0 Bft) O-NO 65 ° 0 min 0,000 mm 0,0 UV-I 0 W/m² 3,2 °C 5,7 °C 1,6 km/h (1 Bft)
25.03.2017 18:58 5,8 °C 5,8 °C 84 % 1019,7 hPa 0,0 mm 1,3 km/h (1 Bft) O-NO 65 ° 0 min 0,000 mm 0,0 UV-I 0 W/m² 3,3 °C 5,8 °C 3,2 km/h (1 Bft)
25.03.2017 18:59 5,8 °C 5,8 °C 83 % 1019,7 hPa 0,0 mm 1,5 km/h (1 Bft) O-NO 65 ° 0 min 0,000 mm 0,0 UV-I 0 W/m² 3,1 °C 5,8 °C 3,2 km/h (1 Bft)
25.03.2017 19:00 5,8 °C 5,8 °C 84 % 1019,7 hPa 0,0 mm 0,4 km/h (0 Bft) O-NO 65 ° 0 min 0,000 mm 0,0 UV-I 0 W/m² 3,3 °C 5,8 °C 1,6 km/h (1 Bft)
25.03.2017 19:01 5,8 °C 5,8 °C 83 % 1019,7 hPa 0,0 mm 0,6 km/h (0 Bft) O-NO 65 ° 0 min 0,000 mm 0,0 UV-I 0 W/m² 3,1 °C 5,8 °C 1,6 km/h (1 Bft)
25.03.2017 19:02 5,8 °C 5,8 °C 83 % 1019,7 hPa 0,0 mm 1,5 km/h (1 Bft) O-NO 65 ° 0 min 0,000 mm 0,0 UV-I 0 W/m² 3,1 °C 5,8 °C 3,2 km/h (1 Bft)
25.03.2017 19:03 5,7 °C 5,8 °C 83 % 1019,7 hPa 0,0 mm 2,9 km/h (1 Bft) O-NO 67 ° 0 min 0,000 mm 0,0 UV-I 0 W/m² 3,0 °C 5,7 °C 4,8 km/h (1 Bft)
25.03.2017 19:04 5,6 °C 5,7 °C 84 % 1019,7 hPa 0,0 mm 1,9 km/h (1 Bft) O-NO 67 ° 0 min 0,000 mm 0,0 UV-I 0 W/m² 3,1 °C 5,6 °C 3,2 km/h (1 Bft)
25.03.2017 19:05 5,6 °C 5,6 °C 84 % 1019,7 hPa 0,0 mm 1,7 km/h (1 Bft) O-NO 67 ° 0 min 0,000 mm 0,0 UV-I 0 W/m² 3,1 °C 5,6 °C 3,2 km/h (1 Bft)
25.03.2017 19:06 5,6 °C 5,6 °C 84 % 1019,7 hPa 0,0 mm 1,5 km/h (1 Bft) O-NO 67 ° 0 min 0,000 mm 0,0 UV-I 0 W/m² 3,1 °C 5,6 °C 3,2 km/h (1 Bft)
25.03.2017 19:07 5,7 °C 5,7 °C 84 % 1019,7 hPa 0,0 mm 2,0 km/h (1 Bft) O-NO 67 ° 0 min 0,000 mm 0,0 UV-I 0 W/m² 3,2 °C 5,7 °C 3,2 km/h (1 Bft)
25.03.2017 19:08 5,7 °C 5,7 °C 84 % 1019,7 hPa 0,0 mm 1,9 km/h (1 Bft) NO 44 ° 0 min 0,000 mm 0,0 UV-I 0 W/m² 3,2 °C 5,7 °C 3,2 km/h (1 Bft)
25.03.2017 19:09 5,8 °C 5,8 °C 84 % 1019,7 hPa 0,0 mm 3,8 km/h (1 Bft) O 93 ° 0 min 0,000 mm 0,0 UV-I 0 W/m² 3,3 °C 5,8 °C 9,7 km/h (2 Bft)
25.03.2017 19:10 5,8 °C 5,8 °C 84 % 1019,7 hPa 0,0 mm 2,4 km/h (1 Bft) O 93 ° 0 min 0,000 mm 0,0 UV-I 0 W/m² 3,3 °C 5,8 °C 4,8 km/h (1 Bft)
25.03.2017 19:11 5,9 °C 5,9 °C 84 % 1019,7 hPa 0,0 mm 1,9 km/h (1 Bft) O 93 ° 0 min 0,000 mm 0,0 UV-I 0 W/m² 3,4 °C 5,9 °C 3,2 km/h (1 Bft)
25.03.2017 19:12 6,0 °C 6,0 °C 84 % 1019,7 hPa 0,0 mm 2,6 km/h (1 Bft) O 92 ° 0 min 0,000 mm 0,0 UV-I 0 W/m² 3,5 °C 6,0 °C 4,8 km/h (1 Bft)
25.03.2017 19:13 6,1 °C 6,1 °C 83 % 1019,7 hPa 0,0 mm 1,5 km/h (1 Bft) O 92 ° 0 min 0,000 mm 0,0 UV-I 0 W/m² 3,4 °C 6,1 °C 3,2 km/h (1 Bft)
25.03.2017 19:14 5,9 °C 6,1 °C 83 % 1019,8 hPa 0,0 mm 1,5 km/h (1 Bft) O 92 ° 0 min 0,000 mm 0,0 UV-I 0 W/m² 3,2 °C 5,9 °C 3,2 km/h (1 Bft)
25.03.2017 19:15 5,9 °C 5,9 °C 83 % 1019,8 hPa 0,0 mm 0,5 km/h (0 Bft) O 92 ° 0 min 0,000 mm 0,0 UV-I 0 W/m² 3,2 °C 5,9 °C 1,6 km/h (1 Bft)
25.03.2017 19:16 5,9 °C 5,9 °C 83 % 1019,7 hPa 0,0 mm 3,8 km/h (1 Bft) SO 127 ° 0 min 0,000 mm 0,0 UV-I 0 W/m² 3,2 °C 5,9 °C 9,7 km/h (2 Bft)
25.03.2017 19:17 5,8 °C 5,9 °C 83 % 1019,7 hPa 0,0 mm 3,0 km/h (1 Bft) O-NO 58 ° 0 min 0,000 mm 0,0 UV-I 0 W/m² 3,1 °C 5,8 °C 8,0 km/h (2 Bft)
25.03.2017 19:18 5,7 °C 5,8 °C 83 % 1019,7 hPa 0,0 mm 4,0 km/h (1 Bft) O-NO 68 ° 0 min 0,000 mm 0,0 UV-I 0 W/m² 3,0 °C 5,7 °C 6,4 km/h (2 Bft)
25.03.2017 19:19 5,6 °C 5,7 °C 84 % 1019,8 hPa 0,0 mm 1,5 km/h (1 Bft) O-NO 68 ° 0 min 0,000 mm 0,0 UV-I 0 W/m² 3,1 °C 5,6 °C 3,2 km/h (1 Bft)
25.03.2017 19:20 5,4 °C 5,6 °C 85 % 1019,8 hPa 0,0 mm 2,1 km/h (1 Bft) O-NO 67 ° 0 min 0,000 mm 0,0 UV-I 0 W/m² 3,1 °C 5,4 °C 3,2 km/h (1 Bft)
25.03.2017 19:21 5,4 °C 5,4 °C 85 % 1019,8 hPa 0,0 mm 0,0 km/h (0 Bft) O-NO 67 ° 0 min 0,000 mm 0,0 UV-I 0 W/m² 3,1 °C 5,4 °C 0,0 km/h (0 Bft)
25.03.2017 19:22 5,3 °C 5,4 °C 85 % 1019,8 hPa 0,0 mm 0,7 km/h (0 Bft) O-NO 67 ° 0 min 0,000 mm 0,0 UV-I 0 W/m² 3,0 °C 5,3 °C 1,6 km/h (1 Bft)
25.03.2017 19:23 5,2 °C 5,3 °C 85 % 1019,8 hPa 0,0 mm 0,3 km/h (0 Bft) O-NO 67 ° 0 min 0,000 mm 0,0 UV-I 0 W/m² 2,9 °C 5,2 °C 1,6 km/h (1 Bft)
25.03.2017 19:24 5,0 °C 5,2 °C 85 % 1019,8 hPa 0,0 mm 0,1 km/h (0 Bft) O-NO 67 ° 0 min 0,000 mm 0,0 UV-I 0 W/m² 2,7 °C 5,0 °C 1,6 km/h (1 Bft)
25.03.2017 19:25 4,9 °C 5,0 °C 85 % 1019,8 hPa 0,0 mm 0,0 km/h (0 Bft) O-NO 68 ° 0 min 0,000 mm 0,0 UV-I 0 W/m² 2,6 °C 4,9 °C 0,0 km/h (0 Bft)
25.03.2017 19:26 4,8 °C 4,9 °C 86 % 1019,8 hPa 0,0 mm 0,0 km/h (0 Bft) O-NO 67 ° 0 min 0,000 mm 0,0 UV-I 0 W/m² 2,7 °C 4,8 °C 0,0 km/h (0 Bft)
25.03.2017 19:27 4,9 °C 4,9 °C 87 % 1019,8 hPa 0,0 mm 0,0 km/h (0 Bft) O-NO 67 ° 0 min 0,000 mm 0,0 UV-I 0 W/m² 2,9 °C 4,9 °C 0,0 km/h (0 Bft)
25.03.2017 19:28 4,9 °C 4,9 °C 87 % 1019,8 hPa 0,0 mm 0,7 km/h (0 Bft) O-NO 67 ° 0 min 0,000 mm 0,0 UV-I 0 W/m² 2,9 °C 4,9 °C 1,6 km/h (1 Bft)
25.03.2017 19:29 5,1 °C 5,1 °C 86 % 1019,9 hPa 0,0 mm 1,1 km/h (1 Bft) O-NO 68 ° 0 min 0,000 mm 0,0 UV-I 0 W/m² 3,0 °C 5,1 °C 3,2 km/h (1 Bft)
25.03.2017 19:30 5,1 °C 5,1 °C 87 % 1019,9 hPa 0,0 mm 1,0 km/h (0 Bft) O-NO 67 ° 0 min 0,000 mm 0,0 UV-I 0 W/m² 3,1 °C 5,1 °C 1,6 km/h (1 Bft)
25.03.2017 19:31 5,1 °C 5,1 °C 86 % 1019,9 hPa 0,0 mm 1,6 km/h (1 Bft) O-NO 67 ° 0 min 0,000 mm 0,0 UV-I 0 W/m² 3,0 °C 5,1 °C 3,2 km/h (1 Bft)
25.03.2017 19:32 5,1 °C 5,1 °C 86 % 1019,9 hPa 0,0 mm 0,1 km/h (0 Bft) O-NO 68 ° 0 min 0,000 mm 0,0 UV-I 0 W/m² 3,0 °C 5,1 °C 1,6 km/h (1 Bft)
25.03.2017 19:33 5,1 °C 5,1 °C 85 % 1019,9 hPa 0,0 mm 1,6 km/h (1 Bft) O-NO 67 ° 0 min 0,000 mm 0,0 UV-I 0 W/m² 2,8 °C 5,1 °C 3,2 km/h (1 Bft)
25.03.2017 19:34 5,1 °C 5,1 °C 86 % 1019,9 hPa 0,0 mm 1,1 km/h (1 Bft) O-NO 67 ° 0 min 0,000 mm 0,0 UV-I 0 W/m² 3,0 °C 5,1 °C 1,6 km/h (1 Bft)
25.03.2017 19:35 4,9 °C 5,1 °C 85 % 1019,9 hPa 0,0 mm 1,1 km/h (1 Bft) O-NO 68 ° 0 min 0,000 mm 0,0 UV-I 0 W/m² 2,6 °C 4,9 °C 1,6 km/h (1 Bft)
25.03.2017 19:36 5,1 °C 5,1 °C 86 % 1019,9 hPa 0,0 mm 1,5 km/h (1 Bft) O-NO 68 ° 0 min 0,000 mm 0,0 UV-I 0 W/m² 3,0 °C 5,1 °C 3,2 km/h (1 Bft)
25.03.2017 19:37 5,1 °C 5,1 °C 86 % 1019,9 hPa 0,0 mm 2,0 km/h (1 Bft) O-NO 67 ° 0 min 0,000 mm 0,0 UV-I 0 W/m² 3,0 °C 5,1 °C 3,2 km/h (1 Bft)
25.03.2017 19:38 5,2 °C 5,2 °C 87 % 1019,9 hPa 0,0 mm 1,3 km/h (1 Bft) O-NO 68 ° 0 min 0,000 mm 0,0 UV-I 0 W/m² 3,2 °C 5,2 °C 3,2 km/h (1 Bft)
25.03.2017 19:39 5,2 °C 5,2 °C 86 % 1019,9 hPa 0,0 mm 1,8 km/h (1 Bft) O-NO 68 ° 0 min 0,000 mm 0,0 UV-I 0 W/m² 3,1 °C 5,2 °C 3,2 km/h (1 Bft)
25.03.2017 19:40 5,2 °C 5,2 °C 85 % 1019,9 hPa 0,0 mm 1,3 km/h (1 Bft) O-NO 68 ° 0 min 0,000 mm 0,0 UV-I 0 W/m² 2,9 °C 5,2 °C 3,2 km/h (1 Bft)
25.03.2017 19:41 5,2 °C 5,2 °C 85 % 1019,9 hPa 0,0 mm 1,0 km/h (0 Bft) O-NO 68 ° 0 min 0,000 mm 0,0 UV-I 0 W/m² 2,9 °C 5,2 °C 3,2 km/h (1 Bft)
25.03.2017 19:42 5,1 °C 5,2 °C 84 % 1020,0 hPa 0,0 mm 1,0 km/h (0 Bft) O-NO 68 ° 0 min 0,000 mm 0,0 UV-I 0 W/m² 2,6 °C 5,1 °C 1,6 km/h (1 Bft)
25.03.2017 19:43 4,9 °C 5,1 °C 85 % 1019,9 hPa 0,0 mm 0,4 km/h (0 Bft) O-NO 68 ° 0 min 0,000 mm 0,0 UV-I 0 W/m² 2,6 °C 4,9 °C 1,6 km/h (1 Bft)
25.03.2017 19:44 4,8 °C 4,9 °C 84 % 1020,0 hPa 0,0 mm 0,3 km/h (0 Bft) O-NO 68 ° 0 min 0,000 mm 0,0 UV-I 0 W/m² 2,3 °C 4,8 °C 1,6 km/h (1 Bft)
25.03.2017 19:45 4,8 °C 4,8 °C 86 % 1020,0 hPa 0,0 mm 1,0 km/h (0 Bft) O-NO 68 ° 0 min 0,000 mm 0,0 UV-I 0 W/m² 2,7 °C 4,8 °C 1,6 km/h (1 Bft)
25.03.2017 19:46 4,8 °C 4,8 °C 86 % 1019,9 hPa 0,0 mm 1,5 km/h (1 Bft) O-NO 68 ° 0 min 0,000 mm 0,0 UV-I 0 W/m² 2,7 °C 4,8 °C 3,2 km/h (1 Bft)
25.03.2017 19:47 4,8 °C 4,8 °C 87 % 1019,9 hPa 0,0 mm 0,7 km/h (0 Bft) O-NO 68 ° 0 min 0,000 mm 0,0 UV-I 0 W/m² 2,8 °C 4,8 °C 3,2 km/h (1 Bft)
25.03.2017 19:48 4,9 °C 4,9 °C 87 % 1020,0 hPa 0,0 mm 0,7 km/h (0 Bft) O-NO 68 ° 0 min 0,000 mm 0,0 UV-I 0 W/m² 2,9 °C 4,9 °C 1,6 km/h (1 Bft)
25.03.2017 19:49 5,1 °C 5,1 °C 87 % 1019,9 hPa 0,0 mm 0,7 km/h (0 Bft) O-NO 68 ° 0 min 0,000 mm 0,0 UV-I 0 W/m² 3,1 °C 5,1 °C 1,6 km/h (1 Bft)
25.03.2017 19:50 5,0 °C 5,1 °C 85 % 1020,0 hPa 0,0 mm 1,5 km/h (1 Bft) O-NO 68 ° 0 min 0,000 mm 0,0 UV-I 0 W/m² 2,7 °C 5,0 °C 1,6 km/h (1 Bft)
25.03.2017 19:51 4,9 °C 5,0 °C 86 % 1020,0 hPa 0,0 mm 1,4 km/h (1 Bft) O-NO 68 ° 0 min 0,000 mm 0,0 UV-I 0 W/m² 2,8 °C 4,9 °C 1,6 km/h (1 Bft)
25.03.2017 19:52 4,9 °C 4,9 °C 86 % 1020,0 hPa 0,0 mm 1,6 km/h (1 Bft) O-NO 68 ° 0 min 0,000 mm 0,0 UV-I 0 W/m² 2,8 °C 4,9 °C 1,6 km/h (1 Bft)
25.03.2017 19:53 4,9 °C 5,0 °C 85 % 1020,0 hPa 0,0 mm 2,6 km/h (1 Bft) O-NO 72 ° 0 min 0,000 mm 0,0 UV-I 0 W/m² 2,6 °C 4,9 °C 3,2 km/h (1 Bft)
25.03.2017 19:54 4,9 °C 4,9 °C 86 % 1019,9 hPa 0,0 mm 4,0 km/h (1 Bft) O-SO 110 ° 0 min 0,000 mm 0,0 UV-I 0 W/m² 2,8 °C 4,9 °C 4,8 km/h (1 Bft)
25.03.2017 19:55 4,9 °C 5,0 °C 86 % 1019,9 hPa 0,0 mm 2,1 km/h (1 Bft) O-SO 107 ° 0 min 0,000 mm 0,0 UV-I 0 W/m² 2,8 °C 4,9 °C 3,2 km/h (1 Bft)
25.03.2017 19:56 4,9 °C 5,0 °C 85 % 1019,9 hPa 0,0 mm 3,1 km/h (1 Bft) SO 129 ° 0 min 0,000 mm 0,0 UV-I 0 W/m² 2,6 °C 4,9 °C 4,8 km/h (1 Bft)
25.03.2017 19:57 5,0 °C 5,0 °C 86 % 1020,0 hPa 0,0 mm 2,2 km/h (1 Bft) SO 129 ° 0 min 0,000 mm 0,0 UV-I 0 W/m² 2,9 °C 5,0 °C 3,2 km/h (1 Bft)
25.03.2017 19:58 5,0 °C 5,1 °C 85 % 1019,9 hPa 0,0 mm 0,5 km/h (0 Bft) SO 129 ° 0 min 0,000 mm 0,0 UV-I 0 W/m² 2,7 °C 5,0 °C 1,6 km/h (1 Bft)
25.03.2017 19:59 4,8 °C 5,0 °C 85 % 1020,0 hPa 0,0 mm 0,6 km/h (0 Bft) SO 129 ° 0 min 0,000 mm 0,0 UV-I 0 W/m² 2,5 °C 4,8 °C 1,6 km/h (1 Bft)
25.03.2017 20:00 4,7 °C 4,8 °C 85 % 1020,0 hPa 0,0 mm 0,3 km/h (0 Bft) SO 129 ° 0 min 0,000 mm 0,0 UV-I 0 W/m² 2,4 °C 4,7 °C 1,6 km/h (1 Bft)
25.03.2017 20:01 4,7 °C 4,7 °C 86 % 1020,0 hPa 0,0 mm 1,2 km/h (1 Bft) SO 129 ° 0 min 0,000 mm 0,0 UV-I 0 W/m² 2,6 °C 4,7 °C 3,2 km/h (1 Bft)
25.03.2017 20:02 4,7 °C 4,7 °C 86 % 1019,9 hPa 0,0 mm 1,1 km/h (1 Bft) SO 129 ° 0 min 0,000 mm 0,0 UV-I 0 W/m² 2,6 °C 4,7 °C 1,6 km/h (1 Bft)
25.03.2017 20:03 4,6 °C 4,7 °C 85 % 1019,9 hPa 0,0 mm 2,5 km/h (1 Bft) SO 129 ° 0 min 0,000 mm 0,0 UV-I 0 W/m² 2,3 °C 4,6 °C 4,8 km/h (1 Bft)
25.03.2017 20:04 4,6 °C 4,6 °C 86 % 1019,9 hPa 0,0 mm 1,5 km/h (1 Bft) SO 129 ° 0 min 0,000 mm 0,0 UV-I 0 W/m² 2,5 °C 4,6 °C 3,2 km/h (1 Bft)
25.03.2017 20:05 4,7 °C 4,7 °C 86 % 1019,9 hPa 0,0 mm 2,1 km/h (1 Bft) O 79 ° 0 min 0,000 mm 0,0 UV-I 0 W/m² 2,6 °C 4,7 °C 3,2 km/h (1 Bft)
25.03.2017 20:06 4,8 °C 4,8 °C 86 % 1019,9 hPa 0,0 mm 1,9 km/h (1 Bft) O 79 ° 0 min 0,000 mm 0,0 UV-I 0 W/m² 2,7 °C 4,8 °C 3,2 km/h (1 Bft)
25.03.2017 20:07 4,9 °C 4,9 °C 86 % 1019,9 hPa 0,0 mm 1,6 km/h (1 Bft) O 79 ° 0 min 0,000 mm 0,0 UV-I 0 W/m² 2,8 °C 4,9 °C 3,2 km/h (1 Bft)
25.03.2017 20:08 4,9 °C 4,9 °C 86 % 1019,9 hPa 0,0 mm 2,7 km/h (1 Bft) O 79 ° 0 min 0,000 mm 0,0 UV-I 0 W/m² 2,8 °C 4,9 °C 4,8 km/h (1 Bft)
25.03.2017 20:09 5,0 °C 5,0 °C 86 % 1019,9 hPa 0,0 mm 3,0 km/h (1 Bft) O 80 ° 0 min 0,000 mm 0,0 UV-I 0 W/m² 2,9 °C 5,0 °C 4,8 km/h (1 Bft)
25.03.2017 20:10 5,1 °C 5,1 °C 85 % 1020,0 hPa 0,0 mm 2,4 km/h (1 Bft) O 80 ° 0 min 0,000 mm 0,0 UV-I 0 W/m² 2,8 °C 5,1 °C 3,2 km/h (1 Bft)
25.03.2017 20:11 5,1 °C 5,1 °C 84 % 1019,9 hPa 0,0 mm 3,2 km/h (1 Bft) O 80 ° 0 min 0,000 mm 0,0 UV-I 0 W/m² 2,6 °C 5,1 °C 4,8 km/h (1 Bft)
25.03.2017 20:12 5,1 °C 5,1 °C 85 % 1019,9 hPa 0,0 mm 2,3 km/h (1 Bft) O 80 ° 0 min 0,000 mm 0,0 UV-I 0 W/m² 2,8 °C 5,1 °C 3,2 km/h (1 Bft)
25.03.2017 20:13 5,1 °C 5,1 °C 84 % 1019,9 hPa 0,0 mm 3,4 km/h (1 Bft) O 80 ° 0 min 0,000 mm 0,0 UV-I 0 W/m² 2,6 °C 5,1 °C 6,4 km/h (2 Bft)
25.03.2017 20:14 5,1 °C 5,1 °C 85 % 1019,9 hPa 0,0 mm 2,9 km/h (1 Bft) O 80 ° 0 min 0,000 mm 0,0 UV-I 0 W/m² 2,8 °C 5,1 °C 4,8 km/h (1 Bft)
25.03.2017 20:15 5,1 °C 5,1 °C 85 % 1019,9 hPa 0,0 mm 2,2 km/h (1 Bft) O 80 ° 0 min 0,000 mm 0,0 UV-I 0 W/m² 2,8 °C 5,1 °C 4,8 km/h (1 Bft)
25.03.2017 20:16 5,1 °C 5,2 °C 84 % 1019,9 hPa 0,0 mm 3,4 km/h (1 Bft) O-SO 107 ° 0 min 0,000 mm 0,0 UV-I 0 W/m² 2,6 °C 5,1 °C 4,8 km/h (1 Bft)
25.03.2017 20:17 5,2 °C 5,2 °C 84 % 1019,9 hPa 0,0 mm 2,7 km/h (1 Bft) O-SO 107 ° 0 min 0,000 mm 0,0 UV-I 0 W/m² 2,7 °C 5,2 °C 4,8 km/h (1 Bft)
25.03.2017 20:18 5,2 °C 5,2 °C 84 % 1019,9 hPa 0,0 mm 2,2 km/h (1 Bft) O-SO 107 ° 0 min 0,000 mm 0,0 UV-I 0 W/m² 2,7 °C 5,2 °C 3,2 km/h (1 Bft)
25.03.2017 20:19 5,2 °C 5,2 °C 84 % 1019,9 hPa 0,0 mm 3,2 km/h (1 Bft) O-SO 104 ° 0 min 0,000 mm 0,0 UV-I 0 W/m² 2,7 °C 5,2 °C 4,8 km/h (1 Bft)
25.03.2017 20:20 5,2 °C 5,2 °C 84 % 1019,9 hPa 0,0 mm 1,7 km/h (1 Bft) O-SO 104 ° 0 min 0,000 mm 0,0 UV-I 0 W/m² 2,7 °C 5,2 °C 3,2 km/h (1 Bft)
25.03.2017 20:21 5,2 °C 5,2 °C 84 % 1019,9 hPa 0,0 mm 1,3 km/h (1 Bft) O-SO 109 ° 0 min 0,000 mm 0,0 UV-I 0 W/m² 2,7 °C 5,2 °C 3,2 km/h (1 Bft)
25.03.2017 20:22 5,1 °C 5,2 °C 84 % 1019,9 hPa 0,0 mm 1,8 km/h (1 Bft) O-SO 109 ° 0 min 0,000 mm 0,0 UV-I 0 W/m² 2,6 °C 5,1 °C 3,2 km/h (1 Bft)
25.03.2017 20:23 5,1 °C 5,1 °C 84 % 1019,9 hPa 0,0 mm 1,4 km/h (1 Bft) O-SO 109 ° 0 min 0,000 mm 0,0 UV-I 0 W/m² 2,6 °C 5,1 °C 3,2 km/h (1 Bft)
25.03.2017 20:24 5,1 °C 5,1 °C 84 % 1019,9 hPa 0,0 mm 0,9 km/h (0 Bft) O-SO 109 ° 0 min 0,000 mm 0,0 UV-I 0 W/m² 2,6 °C 5,1 °C 3,2 km/h (1 Bft)
25.03.2017 20:25 5,1 °C 5,1 °C 84 % 1019,9 hPa 0,0 mm 1,3 km/h (1 Bft) O-SO 109 ° 0 min 0,000 mm 0,0 UV-I 0 W/m² 2,6 °C 5,1 °C 3,2 km/h (1 Bft)
25.03.2017 20:26 5,0 °C 5,1 °C 84 % 1019,9 hPa 0,0 mm 2,0 km/h (1 Bft) O-SO 109 ° 0 min 0,000 mm 0,0 UV-I 0 W/m² 2,5 °C 5,0 °C 3,2 km/h (1 Bft)
25.03.2017 20:27 4,9 °C 5,0 °C 84 % 1019,9 hPa 0,0 mm 1,0 km/h (0 Bft) O-SO 109 ° 0 min 0,000 mm 0,0 UV-I 0 W/m² 2,4 °C 4,9 °C 1,6 km/h (1 Bft)
25.03.2017 20:28 4,9 °C 4,9 °C 84 % 1019,9 hPa 0,0 mm 1,7 km/h (1 Bft) O-SO 109 ° 0 min 0,000 mm 0,0 UV-I 0 W/m² 2,4 °C 4,9 °C 3,2 km/h (1 Bft)
25.03.2017 20:29 4,9 °C 4,9 °C 84 % 1019,9 hPa 0,0 mm 1,0 km/h (0 Bft) O-SO 109 ° 0 min 0,000 mm 0,0 UV-I 0 W/m² 2,4 °C 4,9 °C 1,6 km/h (1 Bft)
25.03.2017 20:30 4,9 °C 4,9 °C 84 % 1019,9 hPa 0,0 mm 1,6 km/h (1 Bft) O-SO 109 ° 0 min 0,000 mm 0,0 UV-I 0 W/m² 2,4 °C 4,9 °C 3,2 km/h (1 Bft)
25.03.2017 20:31 4,8 °C 4,9 °C 84 % 1019,9 hPa 0,0 mm 2,3 km/h (1 Bft) O-SO 109 ° 0 min 0,000 mm 0,0 UV-I 0 W/m² 2,3 °C 4,8 °C 3,2 km/h (1 Bft)
25.03.2017 20:32 4,8 °C 4,8 °C 83 % 1019,8 hPa 0,0 mm 2,1 km/h (1 Bft) O-SO 109 ° 0 min 0,000 mm 0,0 UV-I 0 W/m² 2,2 °C 4,8 °C 3,2 km/h (1 Bft)
25.03.2017 20:33 4,8 °C 4,8 °C 84 % 1019,9 hPa 0,0 mm 0,5 km/h (0 Bft) O-SO 109 ° 0 min 0,000 mm 0,0 UV-I 0 W/m² 2,3 °C 4,8 °C 1,6 km/h (1 Bft)
25.03.2017 20:34 4,8 °C 4,8 °C 84 % 1019,9 hPa 0,0 mm 1,7 km/h (1 Bft) O-SO 109 ° 0 min 0,000 mm 0,0 UV-I 0 W/m² 2,3 °C 4,8 °C 3,2 km/h (1 Bft)
25.03.2017 20:35 4,8 °C 4,8 °C 84 % 1019,9 hPa 0,0 mm 2,1 km/h (1 Bft) O-SO 109 ° 0 min 0,000 mm 0,0 UV-I 0 W/m² 2,3 °C 4,8 °C 4,8 km/h (1 Bft)
25.03.2017 20:36 4,8 °C 4,8 °C 84 % 1019,9 hPa 0,0 mm 1,8 km/h (1 Bft) O-SO 109 ° 0 min 0,000 mm 0,0 UV-I 0 W/m² 2,3 °C 4,8 °C 3,2 km/h (1 Bft)
25.03.2017 20:37 4,8 °C 4,8 °C 84 % 1019,9 hPa 0,0 mm 1,8 km/h (1 Bft) O-SO 109 ° 0 min 0,000 mm 0,0 UV-I 0 W/m² 2,3 °C 4,8 °C 3,2 km/h (1 Bft)
25.03.2017 20:38 4,8 °C 4,8 °C 84 % 1019,8 hPa 0,0 mm 2,3 km/h (1 Bft) O-SO 111 ° 0 min 0,000 mm 0,0 UV-I 0 W/m² 2,3 °C 4,8 °C 3,2 km/h (1 Bft)
25.03.2017 20:39 4,8 °C 4,8 °C 83 % 1019,8 hPa 0,0 mm 2,3 km/h (1 Bft) O-SO 111 ° 0 min 0,000 mm 0,0 UV-I 0 W/m² 2,2 °C 4,8 °C 4,8 km/h (1 Bft)
25.03.2017 20:40 4,8 °C 4,8 °C 84 % 1019,8 hPa 0,0 mm 3,0 km/h (1 Bft) O-SO 111 ° 0 min 0,000 mm 0,0 UV-I 0 W/m² 2,3 °C 4,8 °C 4,8 km/h (1 Bft)
25.03.2017 20:41 4,7 °C 4,8 °C 84 % 1019,8 hPa 0,0 mm 1,7 km/h (1 Bft) O-SO 111 ° 0 min 0,000 mm 0,0 UV-I 0 W/m² 2,2 °C 4,7 °C 3,2 km/h (1 Bft)
25.03.2017 20:42 4,7 °C 4,8 °C 84 % 1019,8 hPa 0,0 mm 1,2 km/h (1 Bft) O-SO 111 ° 0 min 0,000 mm 0,0 UV-I 0 W/m² 2,2 °C 4,7 °C 3,2 km/h (1 Bft)
25.03.2017 20:43 4,7 °C 4,7 °C 84 % 1019,8 hPa 0,0 mm 2,7 km/h (1 Bft) O-SO 111 ° 0 min 0,000 mm 0,0 UV-I 0 W/m² 2,2 °C 4,7 °C 3,2 km/h (1 Bft)
25.03.2017 20:44 4,8 °C 4,8 °C 84 % 1019,8 hPa 0,0 mm 1,9 km/h (1 Bft) O-SO 111 ° 0 min 0,000 mm 0,0 UV-I 0 W/m² 2,3 °C 4,8 °C 3,2 km/h (1 Bft)
25.03.2017 20:45 4,8 °C 4,8 °C 83 % 1019,8 hPa 0,0 mm 2,1 km/h (1 Bft) O-SO 111 ° 0 min 0,000 mm 0,0 UV-I 0 W/m² 2,2 °C 4,8 °C 3,2 km/h (1 Bft)
25.03.2017 20:46 4,8 °C 4,8 °C 84 % 1019,8 hPa 0,0 mm 2,5 km/h (1 Bft) O-SO 111 ° 0 min 0,000 mm 0,0 UV-I 0 W/m² 2,3 °C 4,8 °C 3,2 km/h (1 Bft)
25.03.2017 20:47 4,8 °C 4,8 °C 83 % 1019,8 hPa 0,0 mm 0,9 km/h (0 Bft) O-SO 111 ° 0 min 0,000 mm 0,0 UV-I 0 W/m² 2,2 °C 4,8 °C 3,2 km/h (1 Bft)
25.03.2017 20:48 4,7 °C 4,8 °C 83 % 1019,8 hPa 0,0 mm 3,4 km/h (1 Bft) O-SO 111 ° 0 min 0,000 mm 0,0 UV-I 0 W/m² 2,1 °C 4,7 °C 4,8 km/h (1 Bft)
25.03.2017 20:49 4,7 °C 4,7 °C 83 % 1019,8 hPa 0,0 mm 5,1 km/h (1 Bft) O-SO 116 ° 0 min 0,000 mm 0,0 UV-I 0 W/m² 2,1 °C 3,7 °C 8,0 km/h (2 Bft)
25.03.2017 20:50 4,7 °C 4,7 °C 83 % 1019,9 hPa 0,0 mm 2,8 km/h (1 Bft) O-SO 116 ° 0 min 0,000 mm 0,0 UV-I 0 W/m² 2,1 °C 4,7 °C 4,8 km/h (1 Bft)
25.03.2017 20:51 4,7 °C 4,7 °C 83 % 1019,8 hPa 0,0 mm 2,0 km/h (1 Bft) O-SO 116 ° 0 min 0,000 mm 0,0 UV-I 0 W/m² 2,1 °C 4,7 °C 3,2 km/h (1 Bft)
25.03.2017 20:52 4,7 °C 4,7 °C 83 % 1019,8 hPa 0,0 mm 3,5 km/h (1 Bft) O-SO 116 ° 0 min 0,000 mm 0,0 UV-I 0 W/m² 2,1 °C 4,7 °C 4,8 km/h (1 Bft)
25.03.2017 20:53 4,7 °C 4,7 °C 83 % 1019,8 hPa 0,0 mm 3,1 km/h (1 Bft) O-SO 116 ° 0 min 0,000 mm 0,0 UV-I 0 W/m² 2,1 °C 4,7 °C 4,8 km/h (1 Bft)
25.03.2017 20:54 4,7 °C 4,7 °C 84 % 1019,8 hPa 0,0 mm 1,8 km/h (1 Bft) O-SO 116 ° 0 min 0,000 mm 0,0 UV-I 0 W/m² 2,2 °C 4,7 °C 3,2 km/h (1 Bft)
25.03.2017 20:55 4,7 °C 4,7 °C 83 % 1019,8 hPa 0,0 mm 2,4 km/h (1 Bft) O-SO 116 ° 0 min 0,000 mm 0,0 UV-I 0 W/m² 2,1 °C 4,7 °C 3,2 km/h (1 Bft)
25.03.2017 20:56 4,7 °C 4,7 °C 83 % 1019,8 hPa 0,0 mm 2,1 km/h (1 Bft) O-SO 116 ° 0 min 0,000 mm 0,0 UV-I 0 W/m² 2,1 °C 4,7 °C 3,2 km/h (1 Bft)
25.03.2017 20:57 4,6 °C 4,7 °C 83 % 1019,7 hPa 0,0 mm 2,0 km/h (1 Bft) O-SO 116 ° 0 min 0,000 mm 0,0 UV-I 0 W/m² 2,0 °C 4,6 °C 3,2 km/h (1 Bft)
25.03.2017 20:58 4,6 °C 4,6 °C 84 % 1019,7 hPa 0,0 mm 0,9 km/h (0 Bft) O-SO 116 ° 0 min 0,000 mm 0,0 UV-I 0 W/m² 2,1 °C 4,6 °C 1,6 km/h (1 Bft)
25.03.2017 20:59 4,6 °C 4,6 °C 84 % 1019,7 hPa 0,0 mm 1,7 km/h (1 Bft) O-SO 116 ° 0 min 0,000 mm 0,0 UV-I 0 W/m² 2,1 °C 4,6 °C 3,2 km/h (1 Bft)
25.03.2017 21:00 4,6 °C 4,6 °C 84 % 1019,7 hPa 0,0 mm 2,2 km/h (1 Bft) O-SO 116 ° 0 min 0,000 mm 0,0 UV-I 0 W/m² 2,1 °C 4,6 °C 3,2 km/h (1 Bft)
25.03.2017 21:01 4,6 °C 4,6 °C 84 % 1019,7 hPa 0,0 mm 1,4 km/h (1 Bft) O-SO 116 ° 0 min 0,000 mm 0,0 UV-I 0 W/m² 2,1 °C 4,6 °C 3,2 km/h (1 Bft)
25.03.2017 21:02 4,6 °C 4,6 °C 83 % 1019,7 hPa 0,0 mm 2,8 km/h (1 Bft) O-SO 116 ° 0 min 0,000 mm 0,0 UV-I 0 W/m² 2,0 °C 4,6 °C 4,8 km/h (1 Bft)
25.03.2017 21:03 4,6 °C 4,6 °C 84 % 1019,6 hPa 0,0 mm 1,7 km/h (1 Bft) O-SO 116 ° 0 min 0,000 mm 0,0 UV-I 0 W/m² 2,1 °C 4,6 °C 3,2 km/h (1 Bft)
25.03.2017 21:04 4,6 °C 4,6 °C 84 % 1019,7 hPa 0,0 mm 1,7 km/h (1 Bft) O-SO 116 ° 0 min 0,000 mm 0,0 UV-I 0 W/m² 2,1 °C 4,6 °C 3,2 km/h (1 Bft)
25.03.2017 21:05 4,6 °C 4,6 °C 84 % 1019,7 hPa 0,0 mm 1,6 km/h (1 Bft) O-SO 116 ° 0 min 0,000 mm 0,0 UV-I 0 W/m² 2,1 °C 4,6 °C 3,2 km/h (1 Bft)
25.03.2017 21:06 4,5 °C 4,6 °C 84 % 1019,7 hPa 0,0 mm 0,7 km/h (0 Bft) O-SO 116 ° 0 min 0,000 mm 0,0 UV-I 0 W/m² 2,0 °C 4,5 °C 1,6 km/h (1 Bft)
25.03.2017 21:07 4,5 °C 4,5 °C 83 % 1019,7 hPa 0,0 mm 2,6 km/h (1 Bft) O-SO 116 ° 0 min 0,000 mm 0,0 UV-I 0 W/m² 1,9 °C 4,5 °C 3,2 km/h (1 Bft)
25.03.2017 21:08 4,4 °C 4,5 °C 84 % 1019,7 hPa 0,0 mm 1,6 km/h (1 Bft) O-SO 116 ° 0 min 0,000 mm 0,0 UV-I 0 W/m² 1,9 °C 4,4 °C 3,2 km/h (1 Bft)
25.03.2017 21:09 4,4 °C 4,4 °C 84 % 1019,7 hPa 0,0 mm 2,2 km/h (1 Bft) O-SO 116 ° 0 min 0,000 mm 0,0 UV-I 0 W/m² 1,9 °C 4,4 °C 3,2 km/h (1 Bft)
25.03.2017 21:10 4,4 °C 4,4 °C 84 % 1019,7 hPa 0,0 mm 2,0 km/h (1 Bft) O-SO 116 ° 0 min 0,000 mm 0,0 UV-I 0 W/m² 1,9 °C 4,4 °C 4,8 km/h (1 Bft)
25.03.2017 21:11 4,4 °C 4,4 °C 84 % 1019,6 hPa 0,0 mm 2,4 km/h (1 Bft) O-SO 116 ° 0 min 0,000 mm 0,0 UV-I 0 W/m² 1,9 °C 4,4 °C 3,2 km/h (1 Bft)
25.03.2017 21:12 4,4 °C 4,4 °C 83 % 1019,6 hPa 0,0 mm 2,0 km/h (1 Bft) O-SO 116 ° 0 min 0,000 mm 0,0 UV-I 0 W/m² 1,8 °C 4,4 °C 3,2 km/h (1 Bft)
25.03.2017 21:13 4,4 °C 4,5 °C 83 % 1019,7 hPa 0,0 mm 1,7 km/h (1 Bft) O-SO 116 ° 0 min 0,000 mm 0,0 UV-I 0 W/m² 1,8 °C 4,4 °C 3,2 km/h (1 Bft)
25.03.2017 21:14 4,4 °C 4,4 °C 84 % 1019,6 hPa 0,0 mm 0,9 km/h (0 Bft) O-SO 116 ° 0 min 0,000 mm 0,0 UV-I 0 W/m² 1,9 °C 4,4 °C 3,2 km/h (1 Bft)
25.03.2017 21:15 4,4 °C 4,4 °C 83 % 1019,6 hPa 0,0 mm 0,9 km/h (0 Bft) O-SO 116 ° 0 min 0,000 mm 0,0 UV-I 0 W/m² 1,8 °C 4,4 °C 1,6 km/h (1 Bft)
25.03.2017 21:16 4,4 °C 4,4 °C 83 % 1019,5 hPa 0,0 mm 1,5 km/h (1 Bft) O-SO 116 ° 0 min 0,000 mm 0,0 UV-I 0 W/m² 1,8 °C 4,4 °C 3,2 km/h (1 Bft)
25.03.2017 21:17 4,4 °C 4,4 °C 83 % 1019,5 hPa 0,0 mm 1,7 km/h (1 Bft) O-SO 116 ° 0 min 0,000 mm 0,0 UV-I 0 W/m² 1,8 °C 4,4 °C 3,2 km/h (1 Bft)
25.03.2017 21:18 4,4 °C 4,4 °C 83 % 1019,5 hPa 0,0 mm 1,1 km/h (1 Bft) O-SO 116 ° 0 min 0,000 mm 0,0 UV-I 0 W/m² 1,8 °C 4,4 °C 1,6 km/h (1 Bft)
25.03.2017 21:19 4,4 °C 4,4 °C 83 % 1019,5 hPa 0,0 mm 0,1 km/h (0 Bft) O-SO 116 ° 0 min 0,000 mm 0,0 UV-I 0 W/m² 1,8 °C 4,4 °C 1,6 km/h (1 Bft)
25.03.2017 21:20 4,3 °C 4,4 °C 83 % 1019,5 hPa 0,0 mm 0,0 km/h (0 Bft) O-SO 116 ° 0 min 0,000 mm 0,0 UV-I 0 W/m² 1,7 °C 4,3 °C 0,0 km/h (0 Bft)
25.03.2017 21:21 4,1 °C 4,3 °C 82 % 1019,4 hPa 0,0 mm 0,0 km/h (0 Bft) O-SO 116 ° 0 min 0,000 mm 0,0 UV-I 0 W/m² 1,3 °C 4,1 °C 0,0 km/h (0 Bft)
25.03.2017 21:22 3,8 °C 4,1 °C 83 % 1019,4 hPa 0,0 mm 0,3 km/h (0 Bft) O-SO 116 ° 0 min 0,000 mm 0,0 UV-I 0 W/m² 1,2 °C 3,8 °C 1,6 km/h (1 Bft)
25.03.2017 21:23 3,4 °C 3,8 °C 83 % 1019,4 hPa 0,0 mm 0,0 km/h (0 Bft) O-SO 116 ° 0 min 0,000 mm 0,0 UV-I 0 W/m² 0,8 °C 3,4 °C 0,0 km/h (0 Bft)
25.03.2017 21:24 3,2 °C 3,4 °C 84 % 1019,4 hPa 0,0 mm 0,0 km/h (0 Bft) O-SO 116 ° 0 min 0,000 mm 0,0 UV-I 0 W/m² 0,8 °C 3,2 °C 0,0 km/h (0 Bft)
25.03.2017 21:25 2,9 °C 3,2 °C 85 % 1019,4 hPa 0,0 mm 0,0 km/h (0 Bft) O-SO 116 ° 0 min 0,000 mm 0,0 UV-I 0 W/m² 0,6 °C 2,9 °C 0,0 km/h (0 Bft)
25.03.2017 21:26 2,7 °C 2,9 °C 87 % 1019,4 hPa 0,0 mm 0,0 km/h (0 Bft) O-SO 116 ° 0 min 0,000 mm 0,0 UV-I 0 W/m² 0,8 °C 2,7 °C 0,0 km/h (0 Bft)
25.03.2017 21:27 2,7 °C 2,7 °C 87 % 1019,4 hPa 0,0 mm 0,0 km/h (0 Bft) O-SO 116 ° 0 min 0,000 mm 0,0 UV-I 0 W/m² 0,8 °C 2,7 °C 0,0 km/h (0 Bft)
25.03.2017 21:28 2,6 °C 2,7 °C 87 % 1019,4 hPa 0,0 mm 0,0 km/h (0 Bft) O-SO 116 ° 0 min 0,000 mm 0,0 UV-I 0 W/m² 0,7 °C 2,6 °C 0,0 km/h (0 Bft)
25.03.2017 21:29 2,6 °C 2,6 °C 88 % 1019,4 hPa 0,0 mm 0,4 km/h (0 Bft) O-SO 116 ° 0 min 0,000 mm 0,0 UV-I 0 W/m² 0,8 °C 2,6 °C 1,6 km/h (1 Bft)
25.03.2017 21:30 2,7 °C 2,7 °C 89 % 1019,4 hPa 0,0 mm 1,5 km/h (1 Bft) O-SO 116 ° 0 min 0,000 mm 0,0 UV-I 0 W/m² 1,1 °C 2,7 °C 3,2 km/h (1 Bft)
25.03.2017 21:31 3,0 °C 3,0 °C 89 % 1019,4 hPa 0,0 mm 1,7 km/h (1 Bft) O-SO 116 ° 0 min 0,000 mm 0,0 UV-I 0 W/m² 1,4 °C 3,0 °C 3,2 km/h (1 Bft)
25.03.2017 21:32 3,2 °C 3,2 °C 88 % 1019,4 hPa 0,0 mm 2,1 km/h (1 Bft) O-SO 116 ° 0 min 0,000 mm 0,0 UV-I 0 W/m² 1,4 °C 3,2 °C 3,2 km/h (1 Bft)
25.03.2017 21:33 3,4 °C 3,4 °C 87 % 1019,4 hPa 0,0 mm 1,7 km/h (1 Bft) O-SO 116 ° 0 min 0,000 mm 0,0 UV-I 0 W/m² 1,4 °C 3,4 °C 3,2 km/h (1 Bft)
25.03.2017 21:34 3,6 °C 3,6 °C 87 % 1019,4 hPa 0,0 mm 1,9 km/h (1 Bft) O-SO 116 ° 0 min 0,000 mm 0,0 UV-I 0 W/m² 1,6 °C 3,6 °C 3,2 km/h (1 Bft)
25.03.2017 21:35 3,7 °C 3,7 °C 87 % 1019,4 hPa 0,0 mm 1,3 km/h (1 Bft) O-SO 116 ° 0 min 0,000 mm 0,0 UV-I 0 W/m² 1,7 °C 3,7 °C 3,2 km/h (1 Bft)
25.03.2017 21:36 3,8 °C 3,8 °C 86 % 1019,3 hPa 0,0 mm 2,5 km/h (1 Bft) O-SO 116 ° 0 min 0,000 mm 0,0 UV-I 0 W/m² 1,7 °C 3,8 °C 3,2 km/h (1 Bft)
25.03.2017 21:37 3,9 °C 3,9 °C 86 % 1019,3 hPa 0,0 mm 1,8 km/h (1 Bft) O-SO 116 ° 0 min 0,000 mm 0,0 UV-I 0 W/m² 1,8 °C 3,9 °C 3,2 km/h (1 Bft)
25.03.2017 21:38 3,9 °C 3,9 °C 85 % 1019,3 hPa 0,0 mm 2,0 km/h (1 Bft) O-SO 116 ° 0 min 0,000 mm 0,0 UV-I 0 W/m² 1,6 °C 3,9 °C 3,2 km/h (1 Bft)
25.03.2017 21:39 3,9 °C 4,0 °C 85 % 1019,3 hPa 0,0 mm 1,3 km/h (1 Bft) O-SO 116 ° 0 min 0,000 mm 0,0 UV-I 0 W/m² 1,6 °C 3,9 °C 3,2 km/h (1 Bft)
25.03.2017 21:40 4,0 °C 4,0 °C 85 % 1019,3 hPa 0,0 mm 1,2 km/h (1 Bft) O-SO 116 ° 0 min 0,000 mm 0,0 UV-I 0 W/m² 1,7 °C 4,0 °C 1,6 km/h (1 Bft)
25.03.2017 21:41 4,0 °C 4,1 °C 85 % 1019,3 hPa 0,0 mm 0,2 km/h (0 Bft) O-SO 116 ° 0 min 0,000 mm 0,0 UV-I 0 W/m² 1,7 °C 4,0 °C 1,6 km/h (1 Bft)
25.03.2017 21:42 4,0 °C 4,1 °C 85 % 1019,3 hPa 0,0 mm 0,0 km/h (0 Bft) O-SO 116 ° 0 min 0,000 mm 0,0 UV-I 0 W/m² 1,7 °C 4,0 °C 0,0 km/h (0 Bft)
25.03.2017 21:43 3,8 °C 4,0 °C 84 % 1019,3 hPa 0,0 mm 0,0 km/h (0 Bft) O-SO 116 ° 0 min 0,000 mm 0,0 UV-I 0 W/m² 1,4 °C 3,8 °C 0,0 km/h (0 Bft)
25.03.2017 21:44 3,4 °C 3,8 °C 83 % 1019,3 hPa 0,0 mm 0,0 km/h (0 Bft) O-SO 116 ° 0 min 0,000 mm 0,0 UV-I 0 W/m² 0,8 °C 3,4 °C 0,0 km/h (0 Bft)
25.03.2017 21:45 3,2 °C 3,4 °C 85 % 1019,2 hPa 0,0 mm 0,9 km/h (0 Bft) O-SO 116 ° 0 min 0,000 mm 0,0 UV-I 0 W/m² 0,9 °C 3,2 °C 1,6 km/h (1 Bft)
25.03.2017 21:46 3,0 °C 3,2 °C 85 % 1019,3 hPa 0,0 mm 0,0 km/h (0 Bft) O-SO 116 ° 0 min 0,000 mm 0,0 UV-I 0 W/m² 0,7 °C 3,0 °C 0,0 km/h (0 Bft)
25.03.2017 21:47 2,8 °C 3,0 °C 85 % 1019,2 hPa 0,0 mm 0,0 km/h (0 Bft) O-SO 116 ° 0 min 0,000 mm 0,0 UV-I 0 W/m² 0,5 °C 2,8 °C 0,0 km/h (0 Bft)
25.03.2017 21:48 2,7 °C 2,8 °C 86 % 1019,2 hPa 0,0 mm 0,0 km/h (0 Bft) O-SO 116 ° 0 min 0,000 mm 0,0 UV-I 0 W/m² 0,6 °C 2,7 °C 0,0 km/h (0 Bft)
25.03.2017 21:49 2,6 °C 2,7 °C 87 % 1019,3 hPa 0,0 mm 0,0 km/h (0 Bft) O-SO 116 ° 0 min 0,000 mm 0,0 UV-I 0 W/m² 0,7 °C 2,6 °C 0,0 km/h (0 Bft)
25.03.2017 21:50 2,6 °C 2,6 °C 88 % 1019,3 hPa 0,0 mm 0,0 km/h (0 Bft) O-SO 116 ° 0 min 0,000 mm 0,0 UV-I 0 W/m² 0,8 °C 2,6 °C 0,0 km/h (0 Bft)
25.03.2017 21:51 2,6 °C 2,6 °C 88 % 1019,3 hPa 0,0 mm 0,1 km/h (0 Bft) O-SO 116 ° 0 min 0,000 mm 0,0 UV-I 0 W/m² 0,8 °C 2,6 °C 1,6 km/h (1 Bft)
25.03.2017 21:52 2,6 °C 2,6 °C 89 % 1019,3 hPa 0,0 mm 0,0 km/h (0 Bft) O-SO 116 ° 0 min 0,000 mm 0,0 UV-I 0 W/m² 1,0 °C 2,6 °C 0,0 km/h (0 Bft)
25.03.2017 21:53 2,7 °C 2,7 °C 89 % 1019,3 hPa 0,0 mm 0,0 km/h (0 Bft) O-SO 116 ° 0 min 0,000 mm 0,0 UV-I 0 W/m² 1,1 °C 2,7 °C 0,0 km/h (0 Bft)
25.03.2017 21:54 2,8 °C 2,8 °C 89 % 1019,3 hPa 0,0 mm 0,0 km/h (0 Bft) O-SO 116 ° 0 min 0,000 mm 0,0 UV-I 0 W/m² 1,2 °C 2,8 °C 0,0 km/h (0 Bft)
25.03.2017 21:55 2,8 °C 2,8 °C 88 % 1019,3 hPa 0,0 mm 0,0 km/h (0 Bft) O-SO 116 ° 0 min 0,000 mm 0,0 UV-I 0 W/m² 1,0 °C 2,8 °C 0,0 km/h (0 Bft)
25.03.2017 21:56 2,8 °C 2,9 °C 88 % 1019,3 hPa 0,0 mm 0,6 km/h (0 Bft) O-SO 116 ° 0 min 0,000 mm 0,0 UV-I 0 W/m² 1,0 °C 2,8 °C 1,6 km/h (1 Bft)
25.03.2017 21:57 2,8 °C 2,9 °C 87 % 1019,3 hPa 0,0 mm 0,9 km/h (0 Bft) O-SO 116 ° 0 min 0,000 mm 0,0 UV-I 0 W/m² 0,9 °C 2,8 °C 1,6 km/h (1 Bft)
25.03.2017 21:58 2,6 °C 2,8 °C 87 % 1019,3 hPa 0,0 mm 0,3 km/h (0 Bft) O-SO 116 ° 0 min 0,000 mm 0,0 UV-I 0 W/m² 0,7 °C 2,6 °C 1,6 km/h (1 Bft)
25.03.2017 21:59 2,4 °C 2,6 °C 87 % 1019,3 hPa 0,0 mm 0,3 km/h (0 Bft) O-SO 116 ° 0 min 0,000 mm 0,0 UV-I 0 W/m² 0,5 °C 2,4 °C 1,6 km/h (1 Bft)
25.03.2017 22:00 2,4 °C 2,4 °C 88 % 1019,3 hPa 0,0 mm 0,3 km/h (0 Bft) O-SO 116 ° 0 min 0,000 mm 0,0 UV-I 0 W/m² 0,6 °C 2,4 °C 1,6 km/h (1 Bft)
25.03.2017 22:01 2,4 °C 2,4 °C 89 % 1019,3 hPa 0,0 mm 0,5 km/h (0 Bft) O-SO 116 ° 0 min 0,000 mm 0,0 UV-I 0 W/m² 0,8 °C 2,4 °C 1,6 km/h (1 Bft)
25.03.2017 22:02 2,4 °C 2,4 °C 89 % 1019,3 hPa 0,0 mm 0,7 km/h (0 Bft) O-SO 116 ° 0 min 0,000 mm 0,0 UV-I 0 W/m² 0,8 °C 2,4 °C 1,6 km/h (1 Bft)
25.03.2017 22:03 2,4 °C 2,5 °C 89 % 1019,3 hPa 0,0 mm 0,0 km/h (0 Bft) O-SO 116 ° 0 min 0,000 mm 0,0 UV-I 0 W/m² 0,8 °C 2,4 °C 0,0 km/h (0 Bft)
25.03.2017 22:04 2,3 °C 2,4 °C 88 % 1019,4 hPa 0,0 mm 0,0 km/h (0 Bft) O-SO 116 ° 0 min 0,000 mm 0,0 UV-I 0 W/m² 0,5 °C 2,3 °C 0,0 km/h (0 Bft)
25.03.2017 22:05 2,2 °C 2,3 °C 88 % 1019,4 hPa 0,0 mm 0,0 km/h (0 Bft) O-SO 116 ° 0 min 0,000 mm 0,0 UV-I 0 W/m² 0,4 °C 2,2 °C 0,0 km/h (0 Bft)
25.03.2017 22:06 2,1 °C 2,2 °C 88 % 1019,3 hPa 0,0 mm 0,0 km/h (0 Bft) O-SO 116 ° 0 min 0,000 mm 0,0 UV-I 0 W/m² 0,3 °C 2,1 °C 0,0 km/h (0 Bft)
25.03.2017 22:07 2,1 °C 2,1 °C 89 % 1019,4 hPa 0,0 mm 0,2 km/h (0 Bft) O-SO 116 ° 0 min 0,000 mm 0,0 UV-I 0 W/m² 0,5 °C 2,1 °C 1,6 km/h (1 Bft)
25.03.2017 22:08 2,0 °C 2,1 °C 89 % 1019,4 hPa 0,0 mm 0,5 km/h (0 Bft) O-SO 116 ° 0 min 0,000 mm 0,0 UV-I 0 W/m² 0,4 °C 2,0 °C 1,6 km/h (1 Bft)
25.03.2017 22:09 2,0 °C 2,0 °C 90 % 1019,3 hPa 0,0 mm 0,0 km/h (0 Bft) O-SO 116 ° 0 min 0,000 mm 0,0 UV-I 0 W/m² 0,5 °C 2,0 °C 0,0 km/h (0 Bft)
25.03.2017 22:10 2,1 °C 2,1 °C 90 % 1019,4 hPa 0,0 mm 0,0 km/h (0 Bft) O-SO 116 ° 0 min 0,000 mm 0,0 UV-I 0 W/m² 0,6 °C 2,1 °C 0,0 km/h (0 Bft)
25.03.2017 22:11 2,1 °C 2,1 °C 90 % 1019,4 hPa 0,0 mm 0,9 km/h (0 Bft) O-SO 116 ° 0 min 0,000 mm 0,0 UV-I 0 W/m² 0,6 °C 2,1 °C 1,6 km/h (1 Bft)
25.03.2017 22:12 2,0 °C 2,1 °C 90 % 1019,4 hPa 0,0 mm 0,8 km/h (0 Bft) O-SO 116 ° 0 min 0,000 mm 0,0 UV-I 0 W/m² 0,5 °C 2,0 °C 1,6 km/h (1 Bft)
25.03.2017 22:13 2,2 °C 2,2 °C 90 % 1019,4 hPa 0,0 mm 0,0 km/h (0 Bft) O-SO 116 ° 0 min 0,000 mm 0,0 UV-I 0 W/m² 0,7 °C 2,2 °C 0,0 km/h (0 Bft)
25.03.2017 22:14 2,3 °C 2,3 °C 90 % 1019,4 hPa 0,0 mm 0,0 km/h (0 Bft) O-SO 116 ° 0 min 0,000 mm 0,0 UV-I 0 W/m² 0,8 °C 2,3 °C 0,0 km/h (0 Bft)
25.03.2017 22:15 2,3 °C 2,3 °C 89 % 1019,4 hPa 0,0 mm 0,0 km/h (0 Bft) O-SO 116 ° 0 min 0,000 mm 0,0 UV-I 0 W/m² 0,7 °C 2,3 °C 0,0 km/h (0 Bft)
25.03.2017 22:16 2,2 °C 2,3 °C 88 % 1019,3 hPa 0,0 mm 0,1 km/h (0 Bft) O-SO 116 ° 0 min 0,000 mm 0,0 UV-I 0 W/m² 0,4 °C 2,2 °C 1,6 km/h (1 Bft)
25.03.2017 22:17 2,2 °C 2,2 °C 89 % 1019,3 hPa 0,0 mm 0,0 km/h (0 Bft) O-SO 116 ° 0 min 0,000 mm 0,0 UV-I 0 W/m² 0,6 °C 2,2 °C 0,0 km/h (0 Bft)
25.03.2017 22:18 2,3 °C 2,3 °C 90 % 1019,3 hPa 0,0 mm 0,1 km/h (0 Bft) O-SO 116 ° 0 min 0,000 mm 0,0 UV-I 0 W/m² 0,8 °C 2,3 °C 1,6 km/h (1 Bft)
25.03.2017 22:19 2,6 °C 2,6 °C 90 % 1019,3 hPa 0,0 mm 0,2 km/h (0 Bft) O-SO 116 ° 0 min 0,000 mm 0,0 UV-I 0 W/m² 1,1 °C 2,6 °C 1,6 km/h (1 Bft)
25.03.2017 22:20 2,7 °C 2,7 °C 89 % 1019,3 hPa 0,0 mm 0,0 km/h (0 Bft) O-SO 116 ° 0 min 0,000 mm 0,0 UV-I 0 W/m² 1,1 °C 2,7 °C 0,0 km/h (0 Bft)
25.03.2017 22:21 2,6 °C 2,7 °C 87 % 1019,3 hPa 0,0 mm 0,0 km/h (0 Bft) O-SO 116 ° 0 min 0,000 mm 0,0 UV-I 0 W/m² 0,7 °C 2,6 °C 0,0 km/h (0 Bft)
25.03.2017 22:22 2,4 °C 2,6 °C 87 % 1019,3 hPa 0,0 mm 0,0 km/h (0 Bft) O-SO 116 ° 0 min 0,000 mm 0,0 UV-I 0 W/m² 0,5 °C 2,4 °C 0,0 km/h (0 Bft)
25.03.2017 22:23 2,3 °C 2,4 °C 87 % 1019,4 hPa 0,0 mm 0,0 km/h (0 Bft) O-SO 116 ° 0 min 0,000 mm 0,0 UV-I 0 W/m² 0,4 °C 2,3 °C 0,0 km/h (0 Bft)
25.03.2017 22:24 2,2 °C 2,3 °C 88 % 1019,3 hPa 0,0 mm 0,0 km/h (0 Bft) O-SO 116 ° 0 min 0,000 mm 0,0 UV-I 0 W/m² 0,4 °C 2,2 °C 0,0 km/h (0 Bft)
25.03.2017 22:25 2,1 °C 2,2 °C 88 % 1019,3 hPa 0,0 mm 0,0 km/h (0 Bft) O-SO 116 ° 0 min 0,000 mm 0,0 UV-I 0 W/m² 0,3 °C 2,1 °C 0,0 km/h (0 Bft)
25.03.2017 22:26 2,1 °C 2,1 °C 88 % 1019,4 hPa 0,0 mm 0,0 km/h (0 Bft) O-SO 116 ° 0 min 0,000 mm 0,0 UV-I 0 W/m² 0,3 °C 2,1 °C 0,0 km/h (0 Bft)
25.03.2017 22:27 1,9 °C 2,1 °C 88 % 1019,4 hPa 0,0 mm 0,0 km/h (0 Bft) O-SO 116 ° 0 min 0,000 mm 0,0 UV-I 0 W/m² 0,1 °C 1,9 °C 0,0 km/h (0 Bft)
25.03.2017 22:28 1,8 °C 1,9 °C 88 % 1019,4 hPa 0,0 mm 0,0 km/h (0 Bft) O-SO 116 ° 0 min 0,000 mm 0,0 UV-I 0 W/m² 0,0 °C 1,8 °C 0,0 km/h (0 Bft)
25.03.2017 22:29 1,7 °C 1,8 °C 88 % 1019,4 hPa 0,0 mm 0,0 km/h (0 Bft) O-SO 116 ° 0 min 0,000 mm 0,0 UV-I 0 W/m² -0,1 °C 1,7 °C 0,0 km/h (0 Bft)
25.03.2017 22:30 1,7 °C 1,7 °C 89 % 1019,3 hPa 0,0 mm 0,0 km/h (0 Bft) O-SO 116 ° 0 min 0,000 mm 0,0 UV-I 0 W/m² 0,1 °C 1,7 °C 0,0 km/h (0 Bft)
25.03.2017 22:31 1,6 °C 1,7 °C 89 % 1019,4 hPa 0,0 mm 0,0 km/h (0 Bft) O-SO 116 ° 0 min 0,000 mm 0,0 UV-I 0 W/m² -0,0 °C 1,6 °C 0,0 km/h (0 Bft)
25.03.2017 22:32 1,5 °C 1,6 °C 89 % 1019,4 hPa 0,0 mm 0,0 km/h (0 Bft) O-SO 116 ° 0 min 0,000 mm 0,0 UV-I 0 W/m² -0,1 °C 1,5 °C 0,0 km/h (0 Bft)
25.03.2017 22:33 1,4 °C 1,5 °C 90 % 1019,4 hPa 0,0 mm 0,0 km/h (0 Bft) O-SO 116 ° 0 min 0,000 mm 0,0 UV-I 0 W/m² -0,1 °C 1,4 °C 0,0 km/h (0 Bft)
25.03.2017 22:34 1,4 °C 1,4 °C 90 % 1019,4 hPa 0,0 mm 0,0 km/h (0 Bft) O-SO 116 ° 0 min 0,000 mm 0,0 UV-I 0 W/m² -0,1 °C 1,4 °C 0,0 km/h (0 Bft)
25.03.2017 22:35 1,4 °C 1,4 °C 90 % 1019,3 hPa 0,0 mm 0,0 km/h (0 Bft) O-SO 116 ° 0 min 0,000 mm 0,0 UV-I 0 W/m² -0,1 °C 1,4 °C 0,0 km/h (0 Bft)
25.03.2017 22:36 1,4 °C 1,4 °C 90 % 1019,3 hPa 0,0 mm 0,0 km/h (0 Bft) O-SO 116 ° 0 min 0,000 mm 0,0 UV-I 0 W/m² -0,1 °C 1,4 °C 0,0 km/h (0 Bft)
25.03.2017 22:37 1,4 °C 1,4 °C 91 % 1019,3 hPa 0,0 mm 0,0 km/h (0 Bft) O-SO 116 ° 0 min 0,000 mm 0,0 UV-I 0 W/m² 0,1 °C 1,4 °C 0,0 km/h (0 Bft)
25.03.2017 22:38 1,4 °C 1,4 °C 90 % 1019,4 hPa 0,0 mm 0,0 km/h (0 Bft) O-SO 116 ° 0 min 0,000 mm 0,0 UV-I 0 W/m² -0,1 °C 1,4 °C 0,0 km/h (0 Bft)
25.03.2017 22:39 1,4 °C 1,4 °C 90 % 1019,4 hPa 0,0 mm 0,0 km/h (0 Bft) O-SO 116 ° 0 min 0,000 mm 0,0 UV-I 0 W/m² -0,1 °C 1,4 °C 0,0 km/h (0 Bft)
25.03.2017 22:40 1,3 °C 1,4 °C 90 % 1019,3 hPa 0,0 mm 0,0 km/h (0 Bft) O-SO 116 ° 0 min 0,000 mm 0,0 UV-I 0 W/m² -0,2 °C 1,3 °C 0,0 km/h (0 Bft)
25.03.2017 22:41 1,3 °C 1,3 °C 90 % 1019,3 hPa 0,0 mm 0,0 km/h (0 Bft) O-SO 116 ° 0 min 0,000 mm 0,0 UV-I 0 W/m² -0,2 °C 1,3 °C 0,0 km/h (0 Bft)
25.03.2017 22:42 1,3 °C 1,3 °C 91 % 1019,2 hPa 0,0 mm 0,0 km/h (0 Bft) O-SO 116 ° 0 min 0,000 mm 0,0 UV-I 0 W/m² -0,0 °C 1,3 °C 0,0 km/h (0 Bft)
25.03.2017 22:43 1,3 °C 1,3 °C 90 % 1019,3 hPa 0,0 mm 0,0 km/h (0 Bft) O-SO 116 ° 0 min 0,000 mm 0,0 UV-I 0 W/m² -0,2 °C 1,3 °C 0,0 km/h (0 Bft)
25.03.2017 22:44 1,3 °C 1,3 °C 91 % 1019,2 hPa 0,0 mm 0,0 km/h (0 Bft) O-SO 116 ° 0 min 0,000 mm 0,0 UV-I 0 W/m² -0,0 °C 1,3 °C 0,0 km/h (0 Bft)
25.03.2017 22:45 1,2 °C 1,3 °C 90 % 1019,3 hPa 0,0 mm 0,0 km/h (0 Bft) O-SO 116 ° 0 min 0,000 mm 0,0 UV-I 0 W/m² -0,3 °C 1,2 °C 0,0 km/h (0 Bft)
25.03.2017 22:46 1,2 °C 1,2 °C 91 % 1019,2 hPa 0,0 mm 0,0 km/h (0 Bft) O-SO 116 ° 0 min 0,000 mm 0,0 UV-I 0 W/m² -0,1 °C 1,2 °C 0,0 km/h (0 Bft)
25.03.2017 22:47 1,2 °C 1,2 °C 91 % 1019,2 hPa 0,0 mm 0,0 km/h (0 Bft) O-SO 116 ° 0 min 0,000 mm 0,0 UV-I 0 W/m² -0,1 °C 1,2 °C 0,0 km/h (0 Bft)
25.03.2017 22:48 1,2 °C 1,2 °C 91 % 1019,2 hPa 0,0 mm 0,0 km/h (0 Bft) O-SO 116 ° 0 min 0,000 mm 0,0 UV-I 0 W/m² -0,1 °C 1,2 °C 0,0 km/h (0 Bft)
25.03.2017 22:49 1,2 °C 1,2 °C 91 % 1019,3 hPa 0,0 mm 0,0 km/h (0 Bft) O-SO 116 ° 0 min 0,000 mm 0,0 UV-I 0 W/m² -0,1 °C 1,2 °C 0,0 km/h (0 Bft)
25.03.2017 22:50 1,2 °C 1,2 °C 91 % 1019,2 hPa 0,0 mm 0,0 km/h (0 Bft) O-SO 116 ° 0 min 0,000 mm 0,0 UV-I 0 W/m² -0,1 °C 1,2 °C 0,0 km/h (0 Bft)
25.03.2017 22:51 1,2 °C 1,2 °C 91 % 1019,3 hPa 0,0 mm 0,0 km/h (0 Bft) O-SO 116 ° 0 min 0,000 mm 0,0 UV-I 0 W/m² -0,1 °C 1,2 °C 0,0 km/h (0 Bft)
25.03.2017 22:52 1,2 °C 1,2 °C 91 % 1019,2 hPa 0,0 mm 0,0 km/h (0 Bft) O-SO 116 ° 0 min 0,000 mm 0,0 UV-I 0 W/m² -0,1 °C 1,2 °C 0,0 km/h (0 Bft)
25.03.2017 22:53 1,2 °C 1,2 °C 91 % 1019,3 hPa 0,0 mm 0,0 km/h (0 Bft) O-SO 116 ° 0 min 0,000 mm 0,0 UV-I 0 W/m² -0,1 °C 1,2 °C 0,0 km/h (0 Bft)
25.03.2017 22:54 1,2 °C 1,2 °C 91 % 1019,3 hPa 0,0 mm 0,0 km/h (0 Bft) O-SO 116 ° 0 min 0,000 mm 0,0 UV-I 0 W/m² -0,1 °C 1,2 °C 0,0 km/h (0 Bft)
25.03.2017 22:55 1,2 °C 1,2 °C 91 % 1019,3 hPa 0,0 mm 0,0 km/h (0 Bft) O-SO 116 ° 0 min 0,000 mm 0,0 UV-I 0 W/m² -0,1 °C 1,2 °C 0,0 km/h (0 Bft)
25.03.2017 22:56 1,2 °C 1,2 °C 91 % 1019,3 hPa 0,0 mm 0,0 km/h (0 Bft) O-SO 116 ° 0 min 0,000 mm 0,0 UV-I 0 W/m² -0,1 °C 1,2 °C 0,0 km/h (0 Bft)
25.03.2017 22:57 1,2 °C 1,2 °C 91 % 1019,3 hPa 0,0 mm 0,0 km/h (0 Bft) O-SO 116 ° 0 min 0,000 mm 0,0 UV-I 0 W/m² -0,1 °C 1,2 °C 0,0 km/h (0 Bft)
25.03.2017 22:58 1,2 °C 1,2 °C 91 % 1019,3 hPa 0,0 mm 0,0 km/h (0 Bft) O-SO 116 ° 0 min 0,000 mm 0,0 UV-I 0 W/m² -0,1 °C 1,2 °C 0,0 km/h (0 Bft)
25.03.2017 22:59 1,2 °C 1,2 °C 91 % 1019,3 hPa 0,0 mm 0,0 km/h (0 Bft) O-SO 116 ° 0 min 0,000 mm 0,0 UV-I 0 W/m² -0,1 °C 1,2 °C 0,0 km/h (0 Bft)
25.03.2017 23:00 1,2 °C 1,2 °C 91 % 1019,4 hPa 0,0 mm 0,0 km/h (0 Bft) O-SO 116 ° 0 min 0,000 mm 0,0 UV-I 0 W/m² -0,1 °C 1,2 °C 0,0 km/h (0 Bft)
25.03.2017 23:01 1,2 °C 1,2 °C 91 % 1019,5 hPa 0,0 mm 0,0 km/h (0 Bft) O-SO 116 ° 0 min 0,000 mm 0,0 UV-I 0 W/m² -0,1 °C 1,2 °C 0,0 km/h (0 Bft)
25.03.2017 23:02 1,2 °C 1,3 °C 91 % 1019,4 hPa 0,0 mm 0,0 km/h (0 Bft) O-SO 116 ° 0 min 0,000 mm 0,0 UV-I 0 W/m² -0,1 °C 1,2 °C 0,0 km/h (0 Bft)
25.03.2017 23:03 1,2 °C 1,2 °C 91 % 1019,4 hPa 0,0 mm 0,0 km/h (0 Bft) O-SO 116 ° 0 min 0,000 mm 0,0 UV-I 0 W/m² -0,1 °C 1,2 °C 0,0 km/h (0 Bft)
25.03.2017 23:04 1,2 °C 1,2 °C 91 % 1019,4 hPa 0,0 mm 0,0 km/h (0 Bft) O-SO 116 ° 0 min 0,000 mm 0,0 UV-I 0 W/m² -0,1 °C 1,2 °C 0,0 km/h (0 Bft)
25.03.2017 23:05 1,2 °C 1,2 °C 91 % 1019,4 hPa 0,0 mm 0,0 km/h (0 Bft) O-SO 116 ° 0 min 0,000 mm 0,0 UV-I 0 W/m² -0,1 °C 1,2 °C 0,0 km/h (0 Bft)
25.03.2017 23:06 1,3 °C 1,3 °C 91 % 1019,4 hPa 0,0 mm 0,0 km/h (0 Bft) O-SO 116 ° 0 min 0,000 mm 0,0 UV-I 0 W/m² -0,0 °C 1,3 °C 0,0 km/h (0 Bft)
25.03.2017 23:07 1,2 °C 1,3 °C 91 % 1019,4 hPa 0,0 mm 0,0 km/h (0 Bft) O-SO 116 ° 0 min 0,000 mm 0,0 UV-I 0 W/m² -0,1 °C 1,2 °C 0,0 km/h (0 Bft)
25.03.2017 23:08 1,2 °C 1,2 °C 91 % 1019,5 hPa 0,0 mm 0,0 km/h (0 Bft) O-SO 116 ° 0 min 0,000 mm 0,0 UV-I 0 W/m² -0,1 °C 1,2 °C 0,0 km/h (0 Bft)
25.03.2017 23:09 1,1 °C 1,2 °C 91 % 1019,5 hPa 0,0 mm 0,0 km/h (0 Bft) O-SO 116 ° 0 min 0,000 mm 0,0 UV-I 0 W/m² -0,2 °C 1,1 °C 0,0 km/h (0 Bft)
25.03.2017 23:10 1,1 °C 1,1 °C 91 % 1019,5 hPa 0,0 mm 0,0 km/h (0 Bft) O-SO 116 ° 0 min 0,000 mm 0,0 UV-I 0 W/m² -0,2 °C 1,1 °C 0,0 km/h (0 Bft)
25.03.2017 23:11 1,1 °C 1,1 °C 91 % 1019,5 hPa 0,0 mm 0,0 km/h (0 Bft) O-SO 116 ° 0 min 0,000 mm 0,0 UV-I 0 W/m² -0,2 °C 1,1 °C 0,0 km/h (0 Bft)
25.03.2017 23:12 1,0 °C 1,1 °C 91 % 1019,5 hPa 0,0 mm 0,0 km/h (0 Bft) O-SO 116 ° 0 min 0,000 mm 0,0 UV-I 0 W/m² -0,3 °C 1,0 °C 0,0 km/h (0 Bft)
25.03.2017 23:13 1,0 °C 1,1 °C 91 % 1019,5 hPa 0,0 mm 0,0 km/h (0 Bft) O-SO 116 ° 0 min 0,000 mm 0,0 UV-I 0 W/m² -0,3 °C 1,0 °C 0,0 km/h (0 Bft)
25.03.2017 23:14 1,1 °C 1,1 °C 91 % 1019,5 hPa 0,0 mm 0,0 km/h (0 Bft) O-SO 116 ° 0 min 0,000 mm 0,0 UV-I 0 W/m² -0,2 °C 1,1 °C 0,0 km/h (0 Bft)
25.03.2017 23:15 1,1 °C 1,1 °C 92 % 1019,5 hPa 0,0 mm 0,0 km/h (0 Bft) O-SO 116 ° 0 min 0,000 mm 0,0 UV-I 0 W/m² -0,1 °C 1,1 °C 0,0 km/h (0 Bft)
25.03.2017 23:16 1,1 °C 1,1 °C 92 % 1019,5 hPa 0,0 mm 0,0 km/h (0 Bft) O-SO 116 ° 0 min 0,000 mm 0,0 UV-I 0 W/m² -0,1 °C 1,1 °C 0,0 km/h (0 Bft)
25.03.2017 23:17 1,1 °C 1,1 °C 91 % 1019,5 hPa 0,0 mm 0,0 km/h (0 Bft) O-SO 116 ° 0 min 0,000 mm 0,0 UV-I 0 W/m² -0,2 °C 1,1 °C 0,0 km/h (0 Bft)
25.03.2017 23:18 1,1 °C 1,1 °C 91 % 1019,5 hPa 0,0 mm 0,0 km/h (0 Bft) O-SO 116 ° 0 min 0,000 mm 0,0 UV-I 0 W/m² -0,2 °C 1,1 °C 0,0 km/h (0 Bft)
25.03.2017 23:19 1,1 °C 1,1 °C 91 % 1019,5 hPa 0,0 mm 0,0 km/h (0 Bft) O-SO 116 ° 0 min 0,000 mm 0,0 UV-I 0 W/m² -0,2 °C 1,1 °C 0,0 km/h (0 Bft)
25.03.2017 23:20 1,1 °C 1,1 °C 91 % 1019,5 hPa 0,0 mm 0,0 km/h (0 Bft) O-SO 116 ° 0 min 0,000 mm 0,0 UV-I 0 W/m² -0,2 °C 1,1 °C 0,0 km/h (0 Bft)
25.03.2017 23:21 1,1 °C 1,1 °C 91 % 1019,5 hPa 0,0 mm 0,0 km/h (0 Bft) O-SO 116 ° 0 min 0,000 mm 0,0 UV-I 0 W/m² -0,2 °C 1,1 °C 0,0 km/h (0 Bft)
25.03.2017 23:22 1,2 °C 1,2 °C 92 % 1019,6 hPa 0,0 mm 0,0 km/h (0 Bft) O-SO 116 ° 0 min 0,000 mm 0,0 UV-I 0 W/m² 0,0 °C 1,2 °C 0,0 km/h (0 Bft)
25.03.2017 23:23 1,3 °C 1,3 °C 92 % 1019,5 hPa 0,0 mm 0,0 km/h (0 Bft) O-SO 116 ° 0 min 0,000 mm 0,0 UV-I 0 W/m² 0,1 °C 1,3 °C 0,0 km/h (0 Bft)
25.03.2017 23:24 1,3 °C 1,3 °C 92 % 1019,5 hPa 0,0 mm 0,0 km/h (0 Bft) O-SO 116 ° 0 min 0,000 mm 0,0 UV-I 0 W/m² 0,1 °C 1,3 °C 0,0 km/h (0 Bft)
25.03.2017 23:25 1,6 °C 1,6 °C 92 % 1019,5 hPa 0,0 mm 0,0 km/h (0 Bft) O-SO 116 ° 0 min 0,000 mm 0,0 UV-I 0 W/m² 0,4 °C 1,6 °C 0,0 km/h (0 Bft)
25.03.2017 23:26 1,8 °C 1,8 °C 92 % 1019,6 hPa 0,0 mm 0,2 km/h (0 Bft) O-SO 116 ° 0 min 0,000 mm 0,0 UV-I 0 W/m² 0,6 °C 1,8 °C 1,6 km/h (1 Bft)
25.03.2017 23:27 1,9 °C 1,9 °C 91 % 1019,6 hPa 0,0 mm 0,3 km/h (0 Bft) O-SO 116 ° 0 min 0,000 mm 0,0 UV-I 0 W/m² 0,6 °C 1,9 °C 1,6 km/h (1 Bft)
25.03.2017 23:28 2,2 °C 2,2 °C 91 % 1019,6 hPa 0,0 mm 0,0 km/h (0 Bft) O-SO 116 ° 0 min 0,000 mm 0,0 UV-I 0 W/m² 0,9 °C 2,2 °C 0,0 km/h (0 Bft)
25.03.2017 23:29 2,1 °C 2,2 °C 88 % 1019,6 hPa 0,0 mm 0,0 km/h (0 Bft) O-SO 116 ° 0 min 0,000 mm 0,0 UV-I 0 W/m² 0,3 °C 2,1 °C 0,0 km/h (0 Bft)
25.03.2017 23:30 1,9 °C 2,1 °C 88 % 1019,6 hPa 0,0 mm 0,0 km/h (0 Bft) O-SO 116 ° 0 min 0,000 mm 0,0 UV-I 0 W/m² 0,1 °C 1,9 °C 0,0 km/h (0 Bft)
25.03.2017 23:31 1,7 °C 1,9 °C 88 % 1019,7 hPa 0,0 mm 0,1 km/h (0 Bft) O-SO 116 ° 0 min 0,000 mm 0,0 UV-I 0 W/m² -0,1 °C 1,7 °C 1,6 km/h (1 Bft)
25.03.2017 23:32 1,5 °C 1,7 °C 88 % 1019,7 hPa 0,0 mm 0,0 km/h (0 Bft) O-SO 116 ° 0 min 0,000 mm 0,0 UV-I 0 W/m² -0,3 °C 1,5 °C 0,0 km/h (0 Bft)
25.03.2017 23:33 1,3 °C 1,5 °C 88 % 1019,7 hPa 0,0 mm 0,0 km/h (0 Bft) O-SO 116 ° 0 min 0,000 mm 0,0 UV-I 0 W/m² -0,5 °C 1,3 °C 0,0 km/h (0 Bft)
25.03.2017 23:34 1,2 °C 1,3 °C 89 % 1019,6 hPa 0,0 mm 0,0 km/h (0 Bft) O-SO 116 ° 0 min 0,000 mm 0,0 UV-I 0 W/m² -0,4 °C 1,2 °C 0,0 km/h (0 Bft)
25.03.2017 23:35 1,2 °C 1,2 °C 89 % 1019,7 hPa 0,0 mm 0,0 km/h (0 Bft) O-SO 116 ° 0 min 0,000 mm 0,0 UV-I 0 W/m² -0,4 °C 1,2 °C 0,0 km/h (0 Bft)
25.03.2017 23:36 1,2 °C 1,2 °C 90 % 1019,7 hPa 0,0 mm 0,0 km/h (0 Bft) O-SO 116 ° 0 min 0,000 mm 0,0 UV-I 0 W/m² -0,3 °C 1,2 °C 0,0 km/h (0 Bft)
25.03.2017 23:37 1,1 °C 1,2 °C 90 % 1019,7 hPa 0,0 mm 0,1 km/h (0 Bft) O-SO 116 ° 0 min 0,000 mm 0,0 UV-I 0 W/m² -0,4 °C 1,1 °C 1,6 km/h (1 Bft)
25.03.2017 23:38 1,1 °C 1,1 °C 90 % 1019,7 hPa 0,0 mm 0,3 km/h (0 Bft) O-SO 116 ° 0 min 0,000 mm 0,0 UV-I 0 W/m² -0,4 °C 1,1 °C 1,6 km/h (1 Bft)
25.03.2017 23:39 0,9 °C 1,1 °C 90 % 1019,7 hPa 0,0 mm 0,0 km/h (0 Bft) O-SO 116 ° 0 min 0,000 mm 0,0 UV-I 0 W/m² -0,6 °C 0,9 °C 0,0 km/h (0 Bft)
25.03.2017 23:40 0,8 °C 0,9 °C 90 % 1019,7 hPa 0,0 mm 0,0 km/h (0 Bft) O-SO 116 ° 0 min 0,000 mm 0,0 UV-I 0 W/m² -0,6 °C 0,8 °C 0,0 km/h (0 Bft)
25.03.2017 23:41 0,8 °C 0,8 °C 90 % 1019,7 hPa 0,0 mm 0,0 km/h (0 Bft) O-SO 116 ° 0 min 0,000 mm 0,0 UV-I 0 W/m² -0,6 °C 0,8 °C 0,0 km/h (0 Bft)
25.03.2017 23:42 0,7 °C 0,8 °C 90 % 1019,7 hPa 0,0 mm 0,5 km/h (0 Bft) O-SO 116 ° 0 min 0,000 mm 0,0 UV-I 0 W/m² -0,7 °C 0,7 °C 1,6 km/h (1 Bft)
25.03.2017 23:43 0,8 °C 0,8 °C 91 % 1019,7 hPa 0,0 mm 0,7 km/h (0 Bft) O-SO 116 ° 0 min 0,000 mm 0,0 UV-I 0 W/m² -0,5 °C 0,8 °C 1,6 km/h (1 Bft)
25.03.2017 23:44 1,1 °C 1,1 °C 92 % 1019,7 hPa 0,0 mm 1,1 km/h (1 Bft) O-SO 116 ° 0 min 0,000 mm 0,0 UV-I 0 W/m² -0,1 °C 1,1 °C 1,6 km/h (1 Bft)
25.03.2017 23:45 1,4 °C 1,4 °C 92 % 1019,6 hPa 0,0 mm 1,2 km/h (1 Bft) O-SO 116 ° 0 min 0,000 mm 0,0 UV-I 0 W/m² 0,2 °C 1,4 °C 1,6 km/h (1 Bft)
25.03.2017 23:46 1,6 °C 1,6 °C 92 % 1019,7 hPa 0,0 mm 2,3 km/h (1 Bft) O 93 ° 0 min 0,000 mm 0,0 UV-I 0 W/m² 0,4 °C 1,6 °C 4,8 km/h (1 Bft)
25.03.2017 23:47 1,8 °C 1,8 °C 91 % 1019,6 hPa 0,0 mm 1,3 km/h (1 Bft) O 93 ° 0 min 0,000 mm 0,0 UV-I 0 W/m² 0,5 °C 1,8 °C 3,2 km/h (1 Bft)
25.03.2017 23:48 2,0 °C 2,0 °C 90 % 1019,7 hPa 0,0 mm 2,5 km/h (1 Bft) O 93 ° 0 min 0,000 mm 0,0 UV-I 0 W/m² 0,5 °C 2,0 °C 3,2 km/h (1 Bft)
25.03.2017 23:49 2,2 °C 2,2 °C 90 % 1019,6 hPa 0,0 mm 1,9 km/h (1 Bft) O 93 ° 0 min 0,000 mm 0,0 UV-I 0 W/m² 0,7 °C 2,2 °C 3,2 km/h (1 Bft)
25.03.2017 23:50 2,3 °C 2,3 °C 90 % 1019,6 hPa 0,0 mm 1,7 km/h (1 Bft) O 93 ° 0 min 0,000 mm 0,0 UV-I 0 W/m² 0,8 °C 2,3 °C 3,2 km/h (1 Bft)
25.03.2017 23:51 2,3 °C 2,3 °C 89 % 1019,6 hPa 0,0 mm 1,8 km/h (1 Bft) O 93 ° 0 min 0,000 mm 0,0 UV-I 0 W/m² 0,7 °C 2,3 °C 3,2 km/h (1 Bft)
25.03.2017 23:52 2,4 °C 2,4 °C 88 % 1019,6 hPa 0,0 mm 1,7 km/h (1 Bft) O 93 ° 0 min 0,000 mm 0,0 UV-I 0 W/m² 0,6 °C 2,4 °C 3,2 km/h (1 Bft)
25.03.2017 23:53 2,4 °C 2,4 °C 88 % 1019,6 hPa 0,0 mm 2,3 km/h (1 Bft) O 93 ° 0 min 0,000 mm 0,0 UV-I 0 W/m² 0,6 °C 2,4 °C 3,2 km/h (1 Bft)
25.03.2017 23:54 2,5 °C 2,5 °C 88 % 1019,5 hPa 0,0 mm 2,7 km/h (1 Bft) O 93 ° 0 min 0,000 mm 0,0 UV-I 0 W/m² 0,7 °C 2,5 °C 3,2 km/h (1 Bft)
25.03.2017 23:55 2,6 °C 2,6 °C 88 % 1019,5 hPa 0,0 mm 1,6 km/h (1 Bft) O 93 ° 0 min 0,000 mm 0,0 UV-I 0 W/m² 0,8 °C 2,6 °C 3,2 km/h (1 Bft)
25.03.2017 23:56 2,6 °C 2,6 °C 88 % 1019,4 hPa 0,0 mm 2,0 km/h (1 Bft) O 93 ° 0 min 0,000 mm 0,0 UV-I 0 W/m² 0,8 °C 2,6 °C 4,8 km/h (1 Bft)
25.03.2017 23:57 2,6 °C 2,6 °C 88 % 1019,4 hPa 0,0 mm 2,0 km/h (1 Bft) O 93 ° 0 min 0,000 mm 0,0 UV-I 0 W/m² 0,8 °C 2,6 °C 3,2 km/h (1 Bft)
25.03.2017 23:58 2,6 °C 2,6 °C 88 % 1019,3 hPa 0,0 mm 1,3 km/h (1 Bft) O 93 ° 0 min 0,000 mm 0,0 UV-I 0 W/m² 0,8 °C 2,6 °C 1,6 km/h (1 Bft)
25.03.2017 23:59 2,6 °C 2,6 °C 87 % 1019,3 hPa 0,0 mm 1,9 km/h (1 Bft) O 93 ° 0 min 0,000 mm 0,0 UV-I 0 W/m² 0,7 °C 2,6 °C 3,2 km/h (1 Bft)
_ Min-Zeit 23:42 23:43 17:46 22:52 - 23:41 - - - - - - 23:42 23:42 23:41
Minimum _ 0,7 °C 0,8 °C 76 % 1019,2 hPa - 0,0 km/h (0 Bft) - - - - - - -0,7 °C 0,7 °C 0,0 km/h (0 Bft)
_ Max-Zeit 16:59 17:00 08:25 00:12 06:52 14:05 - - 15:45 16:01 14:46 14:47 15:36 16:55 12:35
Maximum _ 9,3 °C 9,3 °C 97 % 1026,2 hPa 0,2 mm 15,6 km/h
O (3 Bft)
- - 1 min 0,178 mm 2,8 UV-I 584 W/m² 6,0 °C 9,3 °C 20,9 km/h
O-NO (4 Bft)
Durchschnitt _ 4,8 °C 4,8 °C 91 % 1022,5 hPa #0,2 mm 5,0 km/h (1 Bft) O-NO - #1:09 h #0,660 mm 1,1 UV-I 62 W/m² 3,4 °C 3,9 °C 7,8 km/h (2 Bft)